<?xml version='1.0' encoding='UTF-8'?><gpx version="1.1" creator="JPX - https://github.com/jenetics/jpx" xmlns="http://www.topografix.com/GPX/1/1"><trk><trkseg><trkpt lat="40.7698154" lon="9.6828854"><ele>0.0</ele><time>2026-04-17T07:58:52.695Z</time></trkpt><trkpt lat="40.7697543" lon="9.6828609"><ele>0.0</ele><time>2026-04-17T07:58:59.696Z</time></trkpt><trkpt lat="40.7697064" lon="9.682781"><ele>0.0</ele><time>2026-04-17T07:59:02.683Z</time></trkpt><trkpt lat="40.7696945" lon="9.682645"><ele>0.0</ele><time>2026-04-17T07:59:04.669Z</time></trkpt><trkpt lat="40.76969" lon="9.6825226"><ele>0.0</ele><time>2026-04-17T07:59:06.674Z</time></trkpt><trkpt lat="40.7697069" lon="9.6824161"><ele>0.0</ele><time>2026-04-17T07:59:09.678Z</time></trkpt><trkpt lat="40.7697396" lon="9.6823311"><ele>0.2</ele><time>2026-04-17T07:59:11.68Z</time></trkpt><trkpt lat="40.7697732" lon="9.6822257"><ele>0.4</ele><time>2026-04-17T07:59:13.696Z</time></trkpt><trkpt lat="40.7698019" lon="9.6821174"><ele>0.6000000000000001</ele><time>2026-04-17T07:59:15.682Z</time></trkpt><trkpt lat="40.7698227" lon="9.6819951"><ele>0.8</ele><time>2026-04-17T07:59:17.672Z</time></trkpt><trkpt lat="40.7698207" lon="9.6818667"><ele>1.0</ele><time>2026-04-17T07:59:19.664Z</time></trkpt><trkpt lat="40.7698274" lon="9.6817343"><ele>1.3333333333333333</ele><time>2026-04-17T07:59:21.669Z</time></trkpt><trkpt lat="40.7698238" lon="9.6816412"><ele>1.6666666666666665</ele><time>2026-04-17T07:59:22.669Z</time></trkpt><trkpt lat="40.7698209" lon="9.6815304"><ele>2.0</ele><time>2026-04-17T07:59:23.667Z</time></trkpt><trkpt lat="40.7698223" lon="9.6814089"><ele>2.3333333333333335</ele><time>2026-04-17T07:59:24.672Z</time></trkpt><trkpt lat="40.7698246" lon="9.6812993"><ele>2.6666666666666665</ele><time>2026-04-17T07:59:25.661Z</time></trkpt><trkpt lat="40.7698286" lon="9.6812154"><ele>3.0</ele><time>2026-04-17T07:59:26.668Z</time></trkpt><trkpt lat="40.7698538" lon="9.6810741"><ele>3.4</ele><time>2026-04-17T07:59:28.674Z</time></trkpt><trkpt lat="40.7698722" lon="9.6809587"><ele>3.8</ele><time>2026-04-17T07:59:30.669Z</time></trkpt><trkpt lat="40.7698857" lon="9.6807789"><ele>4.2</ele><time>2026-04-17T07:59:32.677Z</time></trkpt><trkpt lat="40.7698867" lon="9.6806521"><ele>4.6</ele><time>2026-04-17T07:59:33.672Z</time></trkpt><trkpt lat="40.7698887" lon="9.6805415"><ele>5.0</ele><time>2026-04-17T07:59:34.67Z</time></trkpt><trkpt lat="40.7698844" lon="9.6804407"><ele>5.0</ele><time>2026-04-17T07:59:35.669Z</time></trkpt><trkpt lat="40.7698924" lon="9.680356"><ele>5.0</ele><time>2026-04-17T07:59:36.661Z</time></trkpt><trkpt lat="40.7698937" lon="9.6802232"><ele>5.0</ele><time>2026-04-17T07:59:38.669Z</time></trkpt><trkpt lat="40.7698944" lon="9.6800594"><ele>5.0</ele><time>2026-04-17T07:59:40.67Z</time></trkpt><trkpt lat="40.7699057" lon="9.6799459"><ele>5.0</ele><time>2026-04-17T07:59:41.669Z</time></trkpt><trkpt lat="40.7699168" lon="9.6798289"><ele>5.666666666666667</ele><time>2026-04-17T07:59:42.673Z</time></trkpt><trkpt lat="40.769917" lon="9.6796939"><ele>6.333333333333334</ele><time>2026-04-17T07:59:43.679Z</time></trkpt><trkpt lat="40.7699153" lon="9.6795654"><ele>7.0</ele><time>2026-04-17T07:59:44.691Z</time></trkpt><trkpt lat="40.7699089" lon="9.6794499"><ele>7.666666666666667</ele><time>2026-04-17T07:59:45.654Z</time></trkpt><trkpt lat="40.7699052" lon="9.6793616"><ele>8.333333333333334</ele><time>2026-04-17T07:59:46.662Z</time></trkpt><trkpt lat="40.7699059" lon="9.6792717"><ele>9.0</ele><time>2026-04-17T07:59:47.661Z</time></trkpt><trkpt lat="40.7699123" lon="9.6791692"><ele>10.0</ele><time>2026-04-17T07:59:48.661Z</time></trkpt><trkpt lat="40.7699216" lon="9.6790503"><ele>11.0</ele><time>2026-04-17T07:59:49.658Z</time></trkpt><trkpt lat="40.7699321" lon="9.6789337"><ele>12.0</ele><time>2026-04-17T07:59:50.659Z</time></trkpt><trkpt lat="40.7699349" lon="9.6788204"><ele>13.0</ele><time>2026-04-17T07:59:51.658Z</time></trkpt><trkpt lat="40.7699413" lon="9.6787045"><ele>14.0</ele><time>2026-04-17T07:59:52.658Z</time></trkpt><trkpt lat="40.7699471" lon="9.6785821"><ele>15.0</ele><time>2026-04-17T07:59:53.662Z</time></trkpt><trkpt lat="40.7699459" lon="9.6784672"><ele>15.8</ele><time>2026-04-17T07:59:54.668Z</time></trkpt><trkpt lat="40.769943" lon="9.6783525"><ele>16.6</ele><time>2026-04-17T07:59:55.662Z</time></trkpt><trkpt lat="40.769947" lon="9.6782322"><ele>17.4</ele><time>2026-04-17T07:59:56.658Z</time></trkpt><trkpt lat="40.7699571" lon="9.6781111"><ele>18.2</ele><time>2026-04-17T07:59:57.656Z</time></trkpt><trkpt lat="40.7699678" lon="9.6779962"><ele>19.0</ele><time>2026-04-17T07:59:58.655Z</time></trkpt><trkpt lat="40.7699689" lon="9.6778678"><ele>19.4</ele><time>2026-04-17T07:59:59.658Z</time></trkpt><trkpt lat="40.7699765" lon="9.6777328"><ele>19.799999999999997</ele><time>2026-04-17T08:00:00.646Z</time></trkpt><trkpt lat="40.7699803" lon="9.6775942"><ele>20.200000000000003</ele><time>2026-04-17T08:00:01.663Z</time></trkpt><trkpt lat="40.7699813" lon="9.6774566"><ele>20.6</ele><time>2026-04-17T08:00:02.659Z</time></trkpt><trkpt lat="40.7699855" lon="9.6773155"><ele>21.0</ele><time>2026-04-17T08:00:03.656Z</time></trkpt><trkpt lat="40.7699921" lon="9.6771688"><ele>21.0</ele><time>2026-04-17T08:00:04.659Z</time></trkpt><trkpt lat="40.7700007" lon="9.6770258"><ele>21.0</ele><time>2026-04-17T08:00:05.65Z</time></trkpt><trkpt lat="40.7700005" lon="9.6768839"><ele>21.0</ele><time>2026-04-17T08:00:06.658Z</time></trkpt><trkpt lat="40.7700098" lon="9.6767467"><ele>21.0</ele><time>2026-04-17T08:00:07.657Z</time></trkpt><trkpt lat="40.7700094" lon="9.6766128"><ele>21.0</ele><time>2026-04-17T08:00:08.654Z</time></trkpt><trkpt lat="40.7700061" lon="9.6764787"><ele>22.6</ele><time>2026-04-17T08:00:09.666Z</time></trkpt><trkpt lat="40.7700107" lon="9.6763523"><ele>24.200000000000003</ele><time>2026-04-17T08:00:10.656Z</time></trkpt><trkpt lat="40.7700197" lon="9.6762164"><ele>25.799999999999997</ele><time>2026-04-17T08:00:11.66Z</time></trkpt><trkpt lat="40.7700287" lon="9.6760846"><ele>27.4</ele><time>2026-04-17T08:00:12.657Z</time></trkpt><trkpt lat="40.7700386" lon="9.6759577"><ele>29.0</ele><time>2026-04-17T08:00:13.661Z</time></trkpt><trkpt lat="40.7700491" lon="9.67584"><ele>30.0</ele><time>2026-04-17T08:00:14.659Z</time></trkpt><trkpt lat="40.7700633" lon="9.6757411"><ele>31.0</ele><time>2026-04-17T08:00:15.669Z</time></trkpt><trkpt lat="40.7700703" lon="9.6756072"><ele>32.0</ele><time>2026-04-17T08:00:17.651Z</time></trkpt><trkpt lat="40.7700041" lon="9.6755899"><ele>33.0</ele><time>2026-04-17T08:00:19.682Z</time></trkpt><trkpt lat="40.7698984" lon="9.675688"><ele>34.0</ele><time>2026-04-17T08:00:21.669Z</time></trkpt><trkpt lat="40.7698204" lon="9.6757295"><ele>34.0</ele><time>2026-04-17T08:00:22.673Z</time></trkpt><trkpt lat="40.7697258" lon="9.6757725"><ele>34.0</ele><time>2026-04-17T08:00:23.66Z</time></trkpt><trkpt lat="40.7696227" lon="9.6758368"><ele>34.0</ele><time>2026-04-17T08:00:24.67Z</time></trkpt><trkpt lat="40.7695135" lon="9.675898"><ele>34.0</ele><time>2026-04-17T08:00:25.672Z</time></trkpt><trkpt lat="40.7693996" lon="9.6759665"><ele>33.5</ele><time>2026-04-17T08:00:26.662Z</time></trkpt><trkpt lat="40.7692918" lon="9.6760586"><ele>33.0</ele><time>2026-04-17T08:00:27.665Z</time></trkpt><trkpt lat="40.7691883" lon="9.67617"><ele>32.5</ele><time>2026-04-17T08:00:28.67Z</time></trkpt><trkpt lat="40.7690921" lon="9.676292"><ele>32.0</ele><time>2026-04-17T08:00:29.672Z</time></trkpt><trkpt lat="40.7690041" lon="9.6764163"><ele>31.25</ele><time>2026-04-17T08:00:30.672Z</time></trkpt><trkpt lat="40.7689142" lon="9.6765367"><ele>30.5</ele><time>2026-04-17T08:00:31.665Z</time></trkpt><trkpt lat="40.7688179" lon="9.6766507"><ele>29.75</ele><time>2026-04-17T08:00:32.674Z</time></trkpt><trkpt lat="40.7687226" lon="9.6767672"><ele>29.0</ele><time>2026-04-17T08:00:33.669Z</time></trkpt><trkpt lat="40.7686356" lon="9.6768738"><ele>28.4</ele><time>2026-04-17T08:00:34.673Z</time></trkpt><trkpt lat="40.7685588" lon="9.6769609"><ele>27.799999999999997</ele><time>2026-04-17T08:00:35.674Z</time></trkpt><trkpt lat="40.7684822" lon="9.6770455"><ele>27.200000000000003</ele><time>2026-04-17T08:00:36.674Z</time></trkpt><trkpt lat="40.7684073" lon="9.6771301"><ele>26.6</ele><time>2026-04-17T08:00:37.676Z</time></trkpt><trkpt lat="40.7683356" lon="9.6772131"><ele>26.0</ele><time>2026-04-17T08:00:38.677Z</time></trkpt><trkpt lat="40.7682586" lon="9.6772995"><ele>26.0</ele><time>2026-04-17T08:00:39.688Z</time></trkpt><trkpt lat="40.7681801" lon="9.6773885"><ele>26.0</ele><time>2026-04-17T08:00:40.675Z</time></trkpt><trkpt lat="40.7680879" lon="9.6774685"><ele>26.0</ele><time>2026-04-17T08:00:41.681Z</time></trkpt><trkpt lat="40.7679862" lon="9.6775386"><ele>26.0</ele><time>2026-04-17T08:00:42.679Z</time></trkpt><trkpt lat="40.7678854" lon="9.6776139"><ele>26.0</ele><time>2026-04-17T08:00:43.685Z</time></trkpt><trkpt lat="40.7677816" lon="9.6776973"><ele>24.75</ele><time>2026-04-17T08:00:44.683Z</time></trkpt><trkpt lat="40.7676851" lon="9.677794"><ele>23.5</ele><time>2026-04-17T08:00:45.682Z</time></trkpt><trkpt lat="40.7675876" lon="9.677885"><ele>22.25</ele><time>2026-04-17T08:00:46.693Z</time></trkpt><trkpt lat="40.7674911" lon="9.6779851"><ele>21.0</ele><time>2026-04-17T08:00:47.684Z</time></trkpt><trkpt lat="40.7673927" lon="9.6781017"><ele>21.0</ele><time>2026-04-17T08:00:48.685Z</time></trkpt><trkpt lat="40.7672892" lon="9.678221"><ele>21.0</ele><time>2026-04-17T08:00:49.678Z</time></trkpt><trkpt lat="40.7671876" lon="9.6783357"><ele>21.0</ele><time>2026-04-17T08:00:50.681Z</time></trkpt><trkpt lat="40.767089" lon="9.6784456"><ele>21.0</ele><time>2026-04-17T08:00:51.676Z</time></trkpt><trkpt lat="40.7669907" lon="9.6785635"><ele>19.75</ele><time>2026-04-17T08:00:52.678Z</time></trkpt><trkpt lat="40.7668934" lon="9.6786751"><ele>18.5</ele><time>2026-04-17T08:00:53.676Z</time></trkpt><trkpt lat="40.766796" lon="9.678796"><ele>17.25</ele><time>2026-04-17T08:00:54.675Z</time></trkpt><trkpt lat="40.7667005" lon="9.6789267"><ele>16.0</ele><time>2026-04-17T08:00:55.669Z</time></trkpt><trkpt lat="40.7666178" lon="9.6790461"><ele>15.166666666666666</ele><time>2026-04-17T08:00:56.675Z</time></trkpt><trkpt lat="40.766547" lon="9.6791391"><ele>14.333333333333332</ele><time>2026-04-17T08:00:57.679Z</time></trkpt><trkpt lat="40.7664666" lon="9.6792172"><ele>13.5</ele><time>2026-04-17T08:00:58.712Z</time></trkpt><trkpt lat="40.7663831" lon="9.6792465"><ele>12.666666666666666</ele><time>2026-04-17T08:00:59.688Z</time></trkpt><trkpt lat="40.7663236" lon="9.679205"><ele>11.833333333333332</ele><time>2026-04-17T08:01:00.691Z</time></trkpt><trkpt lat="40.7662658" lon="9.6791468"><ele>11.0</ele><time>2026-04-17T08:01:01.692Z</time></trkpt><trkpt lat="40.7662128" lon="9.679067"><ele>11.0</ele><time>2026-04-17T08:01:02.683Z</time></trkpt><trkpt lat="40.7661546" lon="9.6789695"><ele>11.0</ele><time>2026-04-17T08:01:03.682Z</time></trkpt><trkpt lat="40.7660883" lon="9.6788558"><ele>11.0</ele><time>2026-04-17T08:01:04.685Z</time></trkpt><trkpt lat="40.7660138" lon="9.6787333"><ele>11.0</ele><time>2026-04-17T08:01:05.682Z</time></trkpt><trkpt lat="40.7659323" lon="9.6785945"><ele>9.75</ele><time>2026-04-17T08:01:06.684Z</time></trkpt><trkpt lat="40.7658512" lon="9.678448"><ele>8.5</ele><time>2026-04-17T08:01:07.684Z</time></trkpt><trkpt lat="40.7657743" lon="9.6783044"><ele>7.25</ele><time>2026-04-17T08:01:08.693Z</time></trkpt><trkpt lat="40.7657059" lon="9.678164"><ele>6.0</ele><time>2026-04-17T08:01:09.688Z</time></trkpt><trkpt lat="40.7656363" lon="9.6780029"><ele>6.0</ele><time>2026-04-17T08:01:10.689Z</time></trkpt><trkpt lat="40.7655703" lon="9.6778525"><ele>6.0</ele><time>2026-04-17T08:01:11.684Z</time></trkpt><trkpt lat="40.7655143" lon="9.6776894"><ele>6.0</ele><time>2026-04-17T08:01:12.684Z</time></trkpt><trkpt lat="40.7654662" lon="9.6775279"><ele>6.0</ele><time>2026-04-17T08:01:13.684Z</time></trkpt><trkpt lat="40.7654167" lon="9.6773572"><ele>6.25</ele><time>2026-04-17T08:01:14.68Z</time></trkpt><trkpt lat="40.7653515" lon="9.6771887"><ele>6.5</ele><time>2026-04-17T08:01:15.676Z</time></trkpt><trkpt lat="40.7652826" lon="9.6770254"><ele>6.75</ele><time>2026-04-17T08:01:16.676Z</time></trkpt><trkpt lat="40.7652033" lon="9.6768599"><ele>7.0</ele><time>2026-04-17T08:01:17.688Z</time></trkpt><trkpt lat="40.7651145" lon="9.6767023"><ele>7.0</ele><time>2026-04-17T08:01:18.697Z</time></trkpt><trkpt lat="40.7650225" lon="9.6765517"><ele>7.0</ele><time>2026-04-17T08:01:19.682Z</time></trkpt><trkpt lat="40.7649333" lon="9.6764026"><ele>7.0</ele><time>2026-04-17T08:01:20.687Z</time></trkpt><trkpt lat="40.7648259" lon="9.6762554"><ele>7.0</ele><time>2026-04-17T08:01:21.684Z</time></trkpt><trkpt lat="40.7647345" lon="9.6761057"><ele>7.25</ele><time>2026-04-17T08:01:22.691Z</time></trkpt><trkpt lat="40.7646258" lon="9.6759542"><ele>7.5</ele><time>2026-04-17T08:01:23.674Z</time></trkpt><trkpt lat="40.7645196" lon="9.6758238"><ele>7.75</ele><time>2026-04-17T08:01:24.686Z</time></trkpt><trkpt lat="40.7644082" lon="9.6757042"><ele>8.0</ele><time>2026-04-17T08:01:25.684Z</time></trkpt><trkpt lat="40.764298" lon="9.6755883"><ele>8.0</ele><time>2026-04-17T08:01:26.688Z</time></trkpt><trkpt lat="40.76418" lon="9.6754755"><ele>8.0</ele><time>2026-04-17T08:01:27.682Z</time></trkpt><trkpt lat="40.764082" lon="9.6753689"><ele>8.0</ele><time>2026-04-17T08:01:28.688Z</time></trkpt><trkpt lat="40.7640006" lon="9.6752627"><ele>8.0</ele><time>2026-04-17T08:01:29.675Z</time></trkpt><trkpt lat="40.7639398" lon="9.6751813"><ele>8.333333333333332</ele><time>2026-04-17T08:01:30.677Z</time></trkpt><trkpt lat="40.7638687" lon="9.6751351"><ele>8.666666666666666</ele><time>2026-04-17T08:01:34.692Z</time></trkpt><trkpt lat="40.7637818" lon="9.6751463"><ele>9.0</ele><time>2026-04-17T08:01:36.691Z</time></trkpt><trkpt lat="40.7636692" lon="9.6752004"><ele>9.333333333333334</ele><time>2026-04-17T08:01:38.685Z</time></trkpt><trkpt lat="40.7635923" lon="9.6752157"><ele>9.666666666666668</ele><time>2026-04-17T08:01:39.685Z</time></trkpt><trkpt lat="40.763515" lon="9.6751994"><ele>10.0</ele><time>2026-04-17T08:01:40.678Z</time></trkpt><trkpt lat="40.7634321" lon="9.6751401"><ele>10.25</ele><time>2026-04-17T08:01:41.693Z</time></trkpt><trkpt lat="40.7633551" lon="9.6750312"><ele>10.5</ele><time>2026-04-17T08:01:42.691Z</time></trkpt><trkpt lat="40.7633105" lon="9.6748981"><ele>10.75</ele><time>2026-04-17T08:01:43.693Z</time></trkpt><trkpt lat="40.7633093" lon="9.6747524"><ele>11.0</ele><time>2026-04-17T08:01:44.694Z</time></trkpt><trkpt lat="40.7633241" lon="9.6745965"><ele>11.0</ele><time>2026-04-17T08:01:45.686Z</time></trkpt><trkpt lat="40.7633405" lon="9.6744341"><ele>11.0</ele><time>2026-04-17T08:01:46.687Z</time></trkpt><trkpt lat="40.76336" lon="9.6742707"><ele>11.0</ele><time>2026-04-17T08:01:47.689Z</time></trkpt><trkpt lat="40.7633902" lon="9.674108"><ele>11.0</ele><time>2026-04-17T08:01:48.732Z</time></trkpt><trkpt lat="40.7634136" lon="9.6739586"><ele>11.0</ele><time>2026-04-17T08:01:49.69Z</time></trkpt><trkpt lat="40.7634295" lon="9.6737907"><ele>11.0</ele><time>2026-04-17T08:01:50.693Z</time></trkpt><trkpt lat="40.7634568" lon="9.6736215"><ele>11.0</ele><time>2026-04-17T08:01:51.69Z</time></trkpt><trkpt lat="40.763481" lon="9.6734409"><ele>11.0</ele><time>2026-04-17T08:01:52.696Z</time></trkpt><trkpt lat="40.7635128" lon="9.6732587"><ele>11.333333333333332</ele><time>2026-04-17T08:01:53.696Z</time></trkpt><trkpt lat="40.7635444" lon="9.6730655"><ele>11.666666666666666</ele><time>2026-04-17T08:01:54.695Z</time></trkpt><trkpt lat="40.7635769" lon="9.6728717"><ele>12.0</ele><time>2026-04-17T08:01:55.697Z</time></trkpt><trkpt lat="40.7636047" lon="9.67267"><ele>12.333333333333332</ele><time>2026-04-17T08:01:56.697Z</time></trkpt><trkpt lat="40.7636382" lon="9.6724867"><ele>12.666666666666666</ele><time>2026-04-17T08:01:57.694Z</time></trkpt><trkpt lat="40.7636698" lon="9.6722795"><ele>13.0</ele><time>2026-04-17T08:01:58.708Z</time></trkpt><trkpt lat="40.7636898" lon="9.6720802"><ele>13.0</ele><time>2026-04-17T08:01:59.695Z</time></trkpt><trkpt lat="40.7637086" lon="9.6718958"><ele>13.0</ele><time>2026-04-17T08:02:00.697Z</time></trkpt><trkpt lat="40.7637437" lon="9.6717175"><ele>13.0</ele><time>2026-04-17T08:02:01.701Z</time></trkpt><trkpt lat="40.7637693" lon="9.6715328"><ele>13.0</ele><time>2026-04-17T08:02:02.695Z</time></trkpt><trkpt lat="40.7637958" lon="9.6713448"><ele>13.0</ele><time>2026-04-17T08:02:03.693Z</time></trkpt><trkpt lat="40.7638123" lon="9.6711481"><ele>13.0</ele><time>2026-04-17T08:02:04.693Z</time></trkpt><trkpt lat="40.7638256" lon="9.6709514"><ele>13.0</ele><time>2026-04-17T08:02:05.696Z</time></trkpt><trkpt lat="40.7638444" lon="9.6707515"><ele>13.0</ele><time>2026-04-17T08:02:06.696Z</time></trkpt><trkpt lat="40.763856" lon="9.670555"><ele>13.0</ele><time>2026-04-17T08:02:07.689Z</time></trkpt><trkpt lat="40.7638593" lon="9.6703556"><ele>13.0</ele><time>2026-04-17T08:02:08.709Z</time></trkpt><trkpt lat="40.7638751" lon="9.670163"><ele>13.0</ele><time>2026-04-17T08:02:09.694Z</time></trkpt><trkpt lat="40.7638852" lon="9.6699769"><ele>13.25</ele><time>2026-04-17T08:02:10.693Z</time></trkpt><trkpt lat="40.7639008" lon="9.6697984"><ele>13.5</ele><time>2026-04-17T08:02:11.694Z</time></trkpt><trkpt lat="40.7639183" lon="9.6696195"><ele>13.75</ele><time>2026-04-17T08:02:12.691Z</time></trkpt><trkpt lat="40.7639358" lon="9.6694461"><ele>14.0</ele><time>2026-04-17T08:02:13.685Z</time></trkpt><trkpt lat="40.7639811" lon="9.6692882"><ele>14.0</ele><time>2026-04-17T08:02:14.689Z</time></trkpt><trkpt lat="40.7640422" lon="9.6691313"><ele>14.0</ele><time>2026-04-17T08:02:15.689Z</time></trkpt><trkpt lat="40.7641128" lon="9.6689861"><ele>14.0</ele><time>2026-04-17T08:02:16.689Z</time></trkpt><trkpt lat="40.764177" lon="9.6688259"><ele>14.0</ele><time>2026-04-17T08:02:17.689Z</time></trkpt><trkpt lat="40.7642514" lon="9.6686645"><ele>14.666666666666668</ele><time>2026-04-17T08:02:18.711Z</time></trkpt><trkpt lat="40.7643368" lon="9.668507"><ele>15.333333333333332</ele><time>2026-04-17T08:02:19.691Z</time></trkpt><trkpt lat="40.7644202" lon="9.6683393"><ele>16.0</ele><time>2026-04-17T08:02:20.693Z</time></trkpt><trkpt lat="40.7645006" lon="9.6681653"><ele>16.0</ele><time>2026-04-17T08:02:21.693Z</time></trkpt><trkpt lat="40.7645808" lon="9.6679727"><ele>16.0</ele><time>2026-04-17T08:02:22.693Z</time></trkpt><trkpt lat="40.7646663" lon="9.6677848"><ele>16.0</ele><time>2026-04-17T08:02:23.693Z</time></trkpt><trkpt lat="40.7647589" lon="9.6676065"><ele>16.333333333333332</ele><time>2026-04-17T08:02:24.691Z</time></trkpt><trkpt lat="40.7648483" lon="9.6674264"><ele>16.666666666666668</ele><time>2026-04-17T08:02:25.695Z</time></trkpt><trkpt lat="40.7649259" lon="9.6672483"><ele>17.0</ele><time>2026-04-17T08:02:26.698Z</time></trkpt><trkpt lat="40.7650099" lon="9.6670634"><ele>16.333333333333336</ele><time>2026-04-17T08:02:27.696Z</time></trkpt><trkpt lat="40.765098" lon="9.6668699"><ele>15.666666666666668</ele><time>2026-04-17T08:02:28.711Z</time></trkpt><trkpt lat="40.7651745" lon="9.6666872"><ele>15.0</ele><time>2026-04-17T08:02:29.69Z</time></trkpt><trkpt lat="40.7652658" lon="9.6665042"><ele>15.0</ele><time>2026-04-17T08:02:30.698Z</time></trkpt><trkpt lat="40.765357" lon="9.666328"><ele>15.0</ele><time>2026-04-17T08:02:31.705Z</time></trkpt><trkpt lat="40.7654161" lon="9.666173"><ele>15.0</ele><time>2026-04-17T08:02:32.697Z</time></trkpt><trkpt lat="40.7654557" lon="9.6660156"><ele>15.0</ele><time>2026-04-17T08:02:33.694Z</time></trkpt><trkpt lat="40.7654595" lon="9.6658479"><ele>15.5</ele><time>2026-04-17T08:02:34.687Z</time></trkpt><trkpt lat="40.7654121" lon="9.6656835"><ele>16.0</ele><time>2026-04-17T08:02:35.687Z</time></trkpt><trkpt lat="40.7653291" lon="9.6655272"><ele>16.5</ele><time>2026-04-17T08:02:36.69Z</time></trkpt><trkpt lat="40.7652336" lon="9.665403"><ele>17.0</ele><time>2026-04-17T08:02:37.67Z</time></trkpt><trkpt lat="40.7651402" lon="9.6652746"><ele>17.333333333333336</ele><time>2026-04-17T08:02:38.687Z</time></trkpt><trkpt lat="40.7650333" lon="9.6651275"><ele>17.666666666666668</ele><time>2026-04-17T08:02:39.682Z</time></trkpt><trkpt lat="40.7649268" lon="9.6649803"><ele>18.0</ele><time>2026-04-17T08:02:40.691Z</time></trkpt><trkpt lat="40.7648183" lon="9.6648275"><ele>18.0</ele><time>2026-04-17T08:02:41.682Z</time></trkpt><trkpt lat="40.764702" lon="9.6646681"><ele>18.0</ele><time>2026-04-17T08:02:42.684Z</time></trkpt><trkpt lat="40.7645894" lon="9.6645181"><ele>18.0</ele><time>2026-04-17T08:02:43.679Z</time></trkpt><trkpt lat="40.7644788" lon="9.6643728"><ele>19.0</ele><time>2026-04-17T08:02:44.683Z</time></trkpt><trkpt lat="40.7643605" lon="9.6642004"><ele>20.0</ele><time>2026-04-17T08:02:45.691Z</time></trkpt><trkpt lat="40.7642417" lon="9.664037"><ele>21.0</ele><time>2026-04-17T08:02:46.691Z</time></trkpt><trkpt lat="40.7641324" lon="9.6638795"><ele>21.0</ele><time>2026-04-17T08:02:47.685Z</time></trkpt><trkpt lat="40.7640291" lon="9.6637316"><ele>21.0</ele><time>2026-04-17T08:02:48.696Z</time></trkpt><trkpt lat="40.7639229" lon="9.6635723"><ele>21.0</ele><time>2026-04-17T08:02:49.703Z</time></trkpt><trkpt lat="40.7638128" lon="9.6634215"><ele>21.0</ele><time>2026-04-17T08:02:50.685Z</time></trkpt><trkpt lat="40.7637062" lon="9.663269"><ele>21.0</ele><time>2026-04-17T08:02:51.687Z</time></trkpt><trkpt lat="40.7636005" lon="9.6631201"><ele>21.0</ele><time>2026-04-17T08:02:52.686Z</time></trkpt><trkpt lat="40.7634913" lon="9.6629611"><ele>20.666666666666668</ele><time>2026-04-17T08:02:53.691Z</time></trkpt><trkpt lat="40.7633809" lon="9.662806"><ele>20.333333333333336</ele><time>2026-04-17T08:02:54.684Z</time></trkpt><trkpt lat="40.7632707" lon="9.6626413"><ele>20.0</ele><time>2026-04-17T08:02:55.692Z</time></trkpt><trkpt lat="40.7631519" lon="9.6624727"><ele>20.666666666666668</ele><time>2026-04-17T08:02:56.689Z</time></trkpt><trkpt lat="40.7630371" lon="9.6623069"><ele>21.333333333333332</ele><time>2026-04-17T08:02:57.692Z</time></trkpt><trkpt lat="40.762913" lon="9.6621397"><ele>22.0</ele><time>2026-04-17T08:02:58.707Z</time></trkpt><trkpt lat="40.762795" lon="9.6619753"><ele>22.333333333333332</ele><time>2026-04-17T08:02:59.689Z</time></trkpt><trkpt lat="40.7626839" lon="9.6618063"><ele>22.666666666666668</ele><time>2026-04-17T08:03:00.694Z</time></trkpt><trkpt lat="40.7625705" lon="9.6616353"><ele>23.0</ele><time>2026-04-17T08:03:01.692Z</time></trkpt><trkpt lat="40.762457" lon="9.661474"><ele>23.0</ele><time>2026-04-17T08:03:02.69Z</time></trkpt><trkpt lat="40.7623398" lon="9.6613069"><ele>23.0</ele><time>2026-04-17T08:03:03.69Z</time></trkpt><trkpt lat="40.7622201" lon="9.6611519"><ele>23.0</ele><time>2026-04-17T08:03:04.693Z</time></trkpt><trkpt lat="40.7620967" lon="9.6609917"><ele>23.333333333333336</ele><time>2026-04-17T08:03:05.69Z</time></trkpt><trkpt lat="40.7619831" lon="9.6608241"><ele>23.666666666666668</ele><time>2026-04-17T08:03:06.69Z</time></trkpt><trkpt lat="40.761876" lon="9.6606629"><ele>24.0</ele><time>2026-04-17T08:03:07.688Z</time></trkpt><trkpt lat="40.7617654" lon="9.6605075"><ele>24.0</ele><time>2026-04-17T08:03:08.701Z</time></trkpt><trkpt lat="40.7616458" lon="9.6603519"><ele>24.0</ele><time>2026-04-17T08:03:09.692Z</time></trkpt><trkpt lat="40.7615398" lon="9.6601893"><ele>24.0</ele><time>2026-04-17T08:03:10.686Z</time></trkpt><trkpt lat="40.7614311" lon="9.6600287"><ele>25.0</ele><time>2026-04-17T08:03:11.699Z</time></trkpt><trkpt lat="40.7613131" lon="9.6598663"><ele>26.0</ele><time>2026-04-17T08:03:12.764Z</time></trkpt><trkpt lat="40.761198" lon="9.6597029"><ele>27.0</ele><time>2026-04-17T08:03:13.747Z</time></trkpt><trkpt lat="40.7611026" lon="9.6595347"><ele>28.0</ele><time>2026-04-17T08:03:14.774Z</time></trkpt><trkpt lat="40.7610233" lon="9.6593511"><ele>29.0</ele><time>2026-04-17T08:03:15.765Z</time></trkpt><trkpt lat="40.7609591" lon="9.6591475"><ele>30.0</ele><time>2026-04-17T08:03:16.746Z</time></trkpt><trkpt lat="40.7609001" lon="9.6589385"><ele>30.0</ele><time>2026-04-17T08:03:17.742Z</time></trkpt><trkpt lat="40.760839" lon="9.6587276"><ele>30.0</ele><time>2026-04-17T08:03:18.745Z</time></trkpt><trkpt lat="40.760775" lon="9.6585095"><ele>30.0</ele><time>2026-04-17T08:03:19.744Z</time></trkpt><trkpt lat="40.760719" lon="9.6582935"><ele>30.333333333333336</ele><time>2026-04-17T08:03:20.777Z</time></trkpt><trkpt lat="40.7607621" lon="9.6580419"><ele>30.666666666666668</ele><time>2026-04-17T08:03:21.746Z</time></trkpt><trkpt lat="40.7607771" lon="9.6578073"><ele>31.0</ele><time>2026-04-17T08:03:22.76Z</time></trkpt><trkpt lat="40.760782" lon="9.6575829"><ele>31.0</ele><time>2026-04-17T08:03:23.729Z</time></trkpt><trkpt lat="40.7607929" lon="9.6573617"><ele>31.0</ele><time>2026-04-17T08:03:24.734Z</time></trkpt><trkpt lat="40.7608055" lon="9.6571409"><ele>31.0</ele><time>2026-04-17T08:03:25.734Z</time></trkpt><trkpt lat="40.7608188" lon="9.6569235"><ele>30.666666666666668</ele><time>2026-04-17T08:03:26.744Z</time></trkpt><trkpt lat="40.7608473" lon="9.6567055"><ele>30.333333333333336</ele><time>2026-04-17T08:03:27.763Z</time></trkpt><trkpt lat="40.7608716" lon="9.6564967"><ele>30.0</ele><time>2026-04-17T08:03:28.769Z</time></trkpt><trkpt lat="40.7608853" lon="9.6562879"><ele>29.333333333333336</ele><time>2026-04-17T08:03:29.779Z</time></trkpt><trkpt lat="40.760872" lon="9.6560852"><ele>28.666666666666668</ele><time>2026-04-17T08:03:30.761Z</time></trkpt><trkpt lat="40.7608444" lon="9.6558943"><ele>28.0</ele><time>2026-04-17T08:03:31.757Z</time></trkpt><trkpt lat="40.7607972" lon="9.6556937"><ele>28.0</ele><time>2026-04-17T08:03:32.732Z</time></trkpt><trkpt lat="40.7607445" lon="9.6554857"><ele>28.0</ele><time>2026-04-17T08:03:33.74Z</time></trkpt><trkpt lat="40.7606893" lon="9.6552792"><ele>28.0</ele><time>2026-04-17T08:03:34.739Z</time></trkpt><trkpt lat="40.7606365" lon="9.655074"><ele>27.333333333333336</ele><time>2026-04-17T08:03:35.735Z</time></trkpt><trkpt lat="40.760587" lon="9.6548803"><ele>26.666666666666664</ele><time>2026-04-17T08:03:36.758Z</time></trkpt><trkpt lat="40.7605387" lon="9.6546887"><ele>26.0</ele><time>2026-04-17T08:03:37.764Z</time></trkpt><trkpt lat="40.7604976" lon="9.6545057"><ele>26.75</ele><time>2026-04-17T08:03:38.756Z</time></trkpt><trkpt lat="40.7604654" lon="9.6543328"><ele>27.5</ele><time>2026-04-17T08:03:39.765Z</time></trkpt><trkpt lat="40.7604484" lon="9.6541665"><ele>28.25</ele><time>2026-04-17T08:03:40.756Z</time></trkpt><trkpt lat="40.7604556" lon="9.6540243"><ele>29.0</ele><time>2026-04-17T08:03:41.738Z</time></trkpt><trkpt lat="40.7604813" lon="9.6539146"><ele>29.0</ele><time>2026-04-17T08:03:42.735Z</time></trkpt><trkpt lat="40.7605147" lon="9.6538219"><ele>29.0</ele><time>2026-04-17T08:03:43.732Z</time></trkpt><trkpt lat="40.7605554" lon="9.6537554"><ele>29.0</ele><time>2026-04-17T08:03:44.732Z</time></trkpt><trkpt lat="40.7606565" lon="9.6536433"><ele>29.0</ele><time>2026-04-17T08:03:46.757Z</time></trkpt><trkpt lat="40.7607056" lon="9.6535753"><ele>29.0</ele><time>2026-04-17T08:03:47.739Z</time></trkpt><trkpt lat="40.7607366" lon="9.6534406"><ele>29.799999999999997</ele><time>2026-04-17T08:03:49.753Z</time></trkpt><trkpt lat="40.7606739" lon="9.6533013"><ele>30.599999999999998</ele><time>2026-04-17T08:03:51.777Z</time></trkpt><trkpt lat="40.760611" lon="9.6532653"><ele>31.4</ele><time>2026-04-17T08:03:52.768Z</time></trkpt><trkpt lat="40.760533" lon="9.6532562"><ele>32.199999999999996</ele><time>2026-04-17T08:03:53.738Z</time></trkpt><trkpt lat="40.7604489" lon="9.6532513"><ele>33.0</ele><time>2026-04-17T08:03:54.744Z</time></trkpt><trkpt lat="40.760328" lon="9.653278"><ele>33.0</ele><time>2026-04-17T08:03:55.663Z</time></trkpt><trkpt lat="40.7602382" lon="9.6532644"><ele>33.0</ele><time>2026-04-17T08:03:56.653Z</time></trkpt><trkpt lat="40.7601593" lon="9.6532254"><ele>33.0</ele><time>2026-04-17T08:03:57.679Z</time></trkpt><trkpt lat="40.7600765" lon="9.6531775"><ele>33.0</ele><time>2026-04-17T08:03:58.675Z</time></trkpt><trkpt lat="40.7599948" lon="9.6531304"><ele>33.0</ele><time>2026-04-17T08:03:59.683Z</time></trkpt><trkpt lat="40.7599014" lon="9.6530732"><ele>33.0</ele><time>2026-04-17T08:04:00.682Z</time></trkpt><trkpt lat="40.7598016" lon="9.653011"><ele>33.0</ele><time>2026-04-17T08:04:01.684Z</time></trkpt><trkpt lat="40.7596954" lon="9.6529467"><ele>33.0</ele><time>2026-04-17T08:04:02.674Z</time></trkpt><trkpt lat="40.7595853" lon="9.6528834"><ele>33.0</ele><time>2026-04-17T08:04:03.676Z</time></trkpt><trkpt lat="40.7594663" lon="9.6528191"><ele>33.5</ele><time>2026-04-17T08:04:04.674Z</time></trkpt><trkpt lat="40.7593485" lon="9.6527506"><ele>34.0</ele><time>2026-04-17T08:04:05.671Z</time></trkpt><trkpt lat="40.7592307" lon="9.6526811"><ele>34.5</ele><time>2026-04-17T08:04:06.683Z</time></trkpt><trkpt lat="40.7591156" lon="9.6526138"><ele>35.0</ele><time>2026-04-17T08:04:07.683Z</time></trkpt><trkpt lat="40.7589963" lon="9.6525464"><ele>35.0</ele><time>2026-04-17T08:04:08.679Z</time></trkpt><trkpt lat="40.7588785" lon="9.6524806"><ele>35.0</ele><time>2026-04-17T08:04:09.675Z</time></trkpt><trkpt lat="40.758765" lon="9.6524207"><ele>35.0</ele><time>2026-04-17T08:04:10.676Z</time></trkpt><trkpt lat="40.75866" lon="9.6523676"><ele>35.0</ele><time>2026-04-17T08:04:11.678Z</time></trkpt><trkpt lat="40.7585641" lon="9.6523181"><ele>35.0</ele><time>2026-04-17T08:04:12.677Z</time></trkpt><trkpt lat="40.7584706" lon="9.6522645"><ele>35.0</ele><time>2026-04-17T08:04:13.667Z</time></trkpt><trkpt lat="40.7583794" lon="9.6522172"><ele>35.0</ele><time>2026-04-17T08:04:14.673Z</time></trkpt><trkpt lat="40.7582857" lon="9.6521554"><ele>35.0</ele><time>2026-04-17T08:04:15.673Z</time></trkpt><trkpt lat="40.7581715" lon="9.6520791"><ele>35.0</ele><time>2026-04-17T08:04:16.679Z</time></trkpt><trkpt lat="40.7580478" lon="9.6519971"><ele>36.25</ele><time>2026-04-17T08:04:17.681Z</time></trkpt><trkpt lat="40.7579164" lon="9.6519227"><ele>37.5</ele><time>2026-04-17T08:04:18.681Z</time></trkpt><trkpt lat="40.757784" lon="9.6518554"><ele>38.75</ele><time>2026-04-17T08:04:19.682Z</time></trkpt><trkpt lat="40.7576479" lon="9.651785"><ele>40.0</ele><time>2026-04-17T08:04:20.68Z</time></trkpt><trkpt lat="40.757501" lon="9.6517012"><ele>40.0</ele><time>2026-04-17T08:04:21.677Z</time></trkpt><trkpt lat="40.7573622" lon="9.6516188"><ele>40.0</ele><time>2026-04-17T08:04:22.695Z</time></trkpt><trkpt lat="40.7572238" lon="9.6515369"><ele>40.0</ele><time>2026-04-17T08:04:23.674Z</time></trkpt><trkpt lat="40.7570859" lon="9.6514574"><ele>40.0</ele><time>2026-04-17T08:04:24.682Z</time></trkpt><trkpt lat="40.7569539" lon="9.6513637"><ele>40.0</ele><time>2026-04-17T08:04:25.682Z</time></trkpt><trkpt lat="40.756821" lon="9.651236"><ele>40.0</ele><time>2026-04-17T08:04:26.681Z</time></trkpt><trkpt lat="40.7566947" lon="9.651111"><ele>40.66666666666667</ele><time>2026-04-17T08:04:27.677Z</time></trkpt><trkpt lat="40.7565576" lon="9.6509779"><ele>41.333333333333336</ele><time>2026-04-17T08:04:28.68Z</time></trkpt><trkpt lat="40.7564295" lon="9.6508472"><ele>42.0</ele><time>2026-04-17T08:04:29.681Z</time></trkpt><trkpt lat="40.7563085" lon="9.650717"><ele>42.0</ele><time>2026-04-17T08:04:30.678Z</time></trkpt><trkpt lat="40.7561848" lon="9.6505882"><ele>42.0</ele><time>2026-04-17T08:04:31.675Z</time></trkpt><trkpt lat="40.7560514" lon="9.6504662"><ele>42.0</ele><time>2026-04-17T08:04:32.671Z</time></trkpt><trkpt lat="40.7559112" lon="9.6503638"><ele>45.33333333333333</ele><time>2026-04-17T08:04:33.677Z</time></trkpt><trkpt lat="40.7557747" lon="9.650274"><ele>48.666666666666664</ele><time>2026-04-17T08:04:34.669Z</time></trkpt><trkpt lat="40.7556319" lon="9.6501949"><ele>52.0</ele><time>2026-04-17T08:04:35.665Z</time></trkpt><trkpt lat="40.7554819" lon="9.6501321"><ele>52.0</ele><time>2026-04-17T08:04:36.662Z</time></trkpt><trkpt lat="40.7553261" lon="9.6500811"><ele>52.0</ele><time>2026-04-17T08:04:37.657Z</time></trkpt><trkpt lat="40.755161" lon="9.6500324"><ele>52.0</ele><time>2026-04-17T08:04:38.661Z</time></trkpt><trkpt lat="40.755013" lon="9.6499889"><ele>51.0</ele><time>2026-04-17T08:04:39.661Z</time></trkpt><trkpt lat="40.7548581" lon="9.6499404"><ele>50.0</ele><time>2026-04-17T08:04:40.66Z</time></trkpt><trkpt lat="40.7547192" lon="9.6498848"><ele>49.0</ele><time>2026-04-17T08:04:41.66Z</time></trkpt><trkpt lat="40.7545892" lon="9.6497994"><ele>49.0</ele><time>2026-04-17T08:04:42.657Z</time></trkpt><trkpt lat="40.754463" lon="9.6496947"><ele>49.0</ele><time>2026-04-17T08:04:43.668Z</time></trkpt><trkpt lat="40.7543513" lon="9.6495853"><ele>49.0</ele><time>2026-04-17T08:04:44.67Z</time></trkpt><trkpt lat="40.7542393" lon="9.6494794"><ele>49.0</ele><time>2026-04-17T08:04:45.676Z</time></trkpt><trkpt lat="40.7541233" lon="9.6493762"><ele>50.0</ele><time>2026-04-17T08:04:46.679Z</time></trkpt><trkpt lat="40.7539917" lon="9.6492647"><ele>51.0</ele><time>2026-04-17T08:04:47.684Z</time></trkpt><trkpt lat="40.7538541" lon="9.6491527"><ele>52.0</ele><time>2026-04-17T08:04:48.675Z</time></trkpt><trkpt lat="40.7537168" lon="9.6490441"><ele>52.0</ele><time>2026-04-17T08:04:49.685Z</time></trkpt><trkpt lat="40.7535816" lon="9.6489241"><ele>52.0</ele><time>2026-04-17T08:04:50.69Z</time></trkpt><trkpt lat="40.7534492" lon="9.6487986"><ele>52.0</ele><time>2026-04-17T08:04:51.684Z</time></trkpt><trkpt lat="40.7533043" lon="9.648671"><ele>51.33333333333333</ele><time>2026-04-17T08:04:52.687Z</time></trkpt><trkpt lat="40.7531621" lon="9.6485495"><ele>50.66666666666667</ele><time>2026-04-17T08:04:53.693Z</time></trkpt><trkpt lat="40.7530258" lon="9.6484335"><ele>50.0</ele><time>2026-04-17T08:04:54.679Z</time></trkpt><trkpt lat="40.7528855" lon="9.6483133"><ele>50.0</ele><time>2026-04-17T08:04:55.683Z</time></trkpt><trkpt lat="40.7527426" lon="9.648201"><ele>50.0</ele><time>2026-04-17T08:04:56.679Z</time></trkpt><trkpt lat="40.7525968" lon="9.6480857"><ele>50.0</ele><time>2026-04-17T08:04:57.683Z</time></trkpt><trkpt lat="40.7524512" lon="9.6479758"><ele>50.66666666666667</ele><time>2026-04-17T08:04:58.684Z</time></trkpt><trkpt lat="40.7523094" lon="9.6478741"><ele>51.33333333333333</ele><time>2026-04-17T08:04:59.677Z</time></trkpt><trkpt lat="40.7521639" lon="9.6477741"><ele>52.0</ele><time>2026-04-17T08:05:00.681Z</time></trkpt><trkpt lat="40.7520225" lon="9.6476844"><ele>53.0</ele><time>2026-04-17T08:05:01.682Z</time></trkpt><trkpt lat="40.7518762" lon="9.6475977"><ele>54.0</ele><time>2026-04-17T08:05:02.679Z</time></trkpt><trkpt lat="40.7517433" lon="9.6475099"><ele>55.0</ele><time>2026-04-17T08:05:03.678Z</time></trkpt><trkpt lat="40.7516166" lon="9.6474211"><ele>55.25</ele><time>2026-04-17T08:05:04.677Z</time></trkpt><trkpt lat="40.7514901" lon="9.6473437"><ele>55.5</ele><time>2026-04-17T08:05:05.676Z</time></trkpt><trkpt lat="40.7513708" lon="9.6472756"><ele>55.75</ele><time>2026-04-17T08:05:06.676Z</time></trkpt><trkpt lat="40.751274" lon="9.6472164"><ele>56.0</ele><time>2026-04-17T08:05:07.675Z</time></trkpt><trkpt lat="40.7511778" lon="9.6471496"><ele>56.00000000000001</ele><time>2026-04-17T08:05:08.673Z</time></trkpt><trkpt lat="40.7510833" lon="9.6470984"><ele>56.0</ele><time>2026-04-17T08:05:09.67Z</time></trkpt><trkpt lat="40.7510024" lon="9.6470439"><ele>56.0</ele><time>2026-04-17T08:05:10.668Z</time></trkpt><trkpt lat="40.7509348" lon="9.6469941"><ele>56.0</ele><time>2026-04-17T08:05:11.66Z</time></trkpt><trkpt lat="40.7508554" lon="9.6469617"><ele>56.00000000000001</ele><time>2026-04-17T08:05:13.671Z</time></trkpt><trkpt lat="40.7507862" lon="9.6469742"><ele>56.0</ele><time>2026-04-17T08:06:33.674Z</time></trkpt><trkpt lat="40.7506882" lon="9.6470075"><ele>55.4</ele><time>2026-04-17T08:06:35.674Z</time></trkpt><trkpt lat="40.7506055" lon="9.6470293"><ele>54.8</ele><time>2026-04-17T08:06:36.671Z</time></trkpt><trkpt lat="40.7505075" lon="9.647075"><ele>54.199999999999996</ele><time>2026-04-17T08:06:37.67Z</time></trkpt><trkpt lat="40.750418" lon="9.647131"><ele>53.599999999999994</ele><time>2026-04-17T08:06:38.747Z</time></trkpt><trkpt lat="40.7503236" lon="9.6471846"><ele>53.0</ele><time>2026-04-17T08:06:39.751Z</time></trkpt><trkpt lat="40.7502279" lon="9.6472424"><ele>53.75</ele><time>2026-04-17T08:06:40.748Z</time></trkpt><trkpt lat="40.7501177" lon="9.6472689"><ele>54.5</ele><time>2026-04-17T08:06:41.729Z</time></trkpt><trkpt lat="40.7500001" lon="9.6472793"><ele>55.25</ele><time>2026-04-17T08:06:42.73Z</time></trkpt><trkpt lat="40.7498791" lon="9.6472781"><ele>56.0</ele><time>2026-04-17T08:06:43.726Z</time></trkpt><trkpt lat="40.7497698" lon="9.6472599"><ele>56.0</ele><time>2026-04-17T08:06:44.724Z</time></trkpt><trkpt lat="40.7496705" lon="9.6472231"><ele>56.0</ele><time>2026-04-17T08:06:45.749Z</time></trkpt><trkpt lat="40.7495322" lon="9.6471798"><ele>56.0</ele><time>2026-04-17T08:06:46.749Z</time></trkpt><trkpt lat="40.749414" lon="9.6471406"><ele>56.0</ele><time>2026-04-17T08:06:47.755Z</time></trkpt><trkpt lat="40.749293" lon="9.6470959"><ele>56.75</ele><time>2026-04-17T08:06:48.746Z</time></trkpt><trkpt lat="40.7491705" lon="9.6470775"><ele>57.5</ele><time>2026-04-17T08:06:49.741Z</time></trkpt><trkpt lat="40.7490455" lon="9.647064"><ele>58.25</ele><time>2026-04-17T08:06:50.752Z</time></trkpt><trkpt lat="40.7489134" lon="9.6470552"><ele>59.0</ele><time>2026-04-17T08:06:51.731Z</time></trkpt><trkpt lat="40.7487792" lon="9.647048"><ele>59.0</ele><time>2026-04-17T08:06:52.738Z</time></trkpt><trkpt lat="40.7486428" lon="9.6470431"><ele>59.0</ele><time>2026-04-17T08:06:53.733Z</time></trkpt><trkpt lat="40.7485061" lon="9.6470414"><ele>59.0</ele><time>2026-04-17T08:06:54.726Z</time></trkpt><trkpt lat="40.74837" lon="9.6470401"><ele>59.0</ele><time>2026-04-17T08:06:55.743Z</time></trkpt><trkpt lat="40.7482372" lon="9.6470397"><ele>59.75</ele><time>2026-04-17T08:06:56.739Z</time></trkpt><trkpt lat="40.7481057" lon="9.6470385"><ele>60.5</ele><time>2026-04-17T08:06:57.756Z</time></trkpt><trkpt lat="40.7479768" lon="9.6470352"><ele>61.25</ele><time>2026-04-17T08:06:58.74Z</time></trkpt><trkpt lat="40.7478437" lon="9.6470323"><ele>62.0</ele><time>2026-04-17T08:06:59.741Z</time></trkpt><trkpt lat="40.7477044" lon="9.6470286"><ele>62.5</ele><time>2026-04-17T08:07:00.741Z</time></trkpt><trkpt lat="40.7475664" lon="9.6470283"><ele>63.0</ele><time>2026-04-17T08:07:01.746Z</time></trkpt><trkpt lat="40.7474204" lon="9.6470249"><ele>63.5</ele><time>2026-04-17T08:07:02.741Z</time></trkpt><trkpt lat="40.74727" lon="9.6470217"><ele>64.0</ele><time>2026-04-17T08:07:03.743Z</time></trkpt><trkpt lat="40.7471168" lon="9.6470201"><ele>64.0</ele><time>2026-04-17T08:07:04.745Z</time></trkpt><trkpt lat="40.7469641" lon="9.6470172"><ele>64.0</ele><time>2026-04-17T08:07:05.749Z</time></trkpt><trkpt lat="40.7468091" lon="9.6470132"><ele>64.0</ele><time>2026-04-17T08:07:06.746Z</time></trkpt><trkpt lat="40.7466538" lon="9.6470112"><ele>64.5</ele><time>2026-04-17T08:07:07.747Z</time></trkpt><trkpt lat="40.7465009" lon="9.6470094"><ele>65.0</ele><time>2026-04-17T08:07:08.745Z</time></trkpt><trkpt lat="40.7463546" lon="9.6469997"><ele>65.5</ele><time>2026-04-17T08:07:09.746Z</time></trkpt><trkpt lat="40.7462064" lon="9.646994"><ele>66.0</ele><time>2026-04-17T08:07:10.742Z</time></trkpt><trkpt lat="40.7460597" lon="9.6469962"><ele>66.25</ele><time>2026-04-17T08:07:11.746Z</time></trkpt><trkpt lat="40.7459124" lon="9.6469922"><ele>66.5</ele><time>2026-04-17T08:07:12.742Z</time></trkpt><trkpt lat="40.7457659" lon="9.6469874"><ele>66.75</ele><time>2026-04-17T08:07:13.741Z</time></trkpt><trkpt lat="40.7456165" lon="9.6469773"><ele>67.0</ele><time>2026-04-17T08:07:14.739Z</time></trkpt><trkpt lat="40.7454686" lon="9.6469577"><ele>67.0</ele><time>2026-04-17T08:07:15.738Z</time></trkpt><trkpt lat="40.7453164" lon="9.6469231"><ele>67.0</ele><time>2026-04-17T08:07:16.741Z</time></trkpt><trkpt lat="40.745165" lon="9.6468829"><ele>67.0</ele><time>2026-04-17T08:07:17.732Z</time></trkpt><trkpt lat="40.7450106" lon="9.6468377"><ele>69.0</ele><time>2026-04-17T08:07:18.726Z</time></trkpt><trkpt lat="40.7448592" lon="9.6467969"><ele>71.0</ele><time>2026-04-17T08:07:19.731Z</time></trkpt><trkpt lat="40.7447094" lon="9.6467512"><ele>73.0</ele><time>2026-04-17T08:07:20.729Z</time></trkpt><trkpt lat="40.7445616" lon="9.6467033"><ele>73.0</ele><time>2026-04-17T08:07:21.748Z</time></trkpt><trkpt lat="40.7444191" lon="9.6466582"><ele>73.0</ele><time>2026-04-17T08:07:22.745Z</time></trkpt><trkpt lat="40.74427" lon="9.6466206"><ele>73.0</ele><time>2026-04-17T08:07:23.736Z</time></trkpt><trkpt lat="40.7441257" lon="9.646593"><ele>73.0</ele><time>2026-04-17T08:07:24.737Z</time></trkpt><trkpt lat="40.7439751" lon="9.6465707"><ele>73.66666666666666</ele><time>2026-04-17T08:07:25.735Z</time></trkpt><trkpt lat="40.7438182" lon="9.6465496"><ele>74.33333333333333</ele><time>2026-04-17T08:07:26.737Z</time></trkpt><trkpt lat="40.7436657" lon="9.6465296"><ele>75.0</ele><time>2026-04-17T08:07:27.736Z</time></trkpt><trkpt lat="40.7435135" lon="9.6465092"><ele>75.0</ele><time>2026-04-17T08:07:28.75Z</time></trkpt><trkpt lat="40.7433598" lon="9.6464861"><ele>75.0</ele><time>2026-04-17T08:07:29.738Z</time></trkpt><trkpt lat="40.7432054" lon="9.646464"><ele>75.0</ele><time>2026-04-17T08:07:30.738Z</time></trkpt><trkpt lat="40.7430478" lon="9.6464427"><ele>75.0</ele><time>2026-04-17T08:07:31.742Z</time></trkpt><trkpt lat="40.7428984" lon="9.646421"><ele>75.0</ele><time>2026-04-17T08:07:32.742Z</time></trkpt><trkpt lat="40.7427468" lon="9.6464005"><ele>75.0</ele><time>2026-04-17T08:07:33.743Z</time></trkpt><trkpt lat="40.7425968" lon="9.6463769"><ele>76.66666666666667</ele><time>2026-04-17T08:07:34.744Z</time></trkpt><trkpt lat="40.7424454" lon="9.6463564"><ele>78.33333333333334</ele><time>2026-04-17T08:07:35.743Z</time></trkpt><trkpt lat="40.7422995" lon="9.6463365"><ele>80.0</ele><time>2026-04-17T08:07:36.738Z</time></trkpt><trkpt lat="40.7421475" lon="9.6463145"><ele>80.0</ele><time>2026-04-17T08:07:37.736Z</time></trkpt><trkpt lat="40.7419917" lon="9.6462942"><ele>80.0</ele><time>2026-04-17T08:07:38.736Z</time></trkpt><trkpt lat="40.7418336" lon="9.6462734"><ele>80.0</ele><time>2026-04-17T08:07:39.737Z</time></trkpt><trkpt lat="40.7416761" lon="9.6462519"><ele>81.0</ele><time>2026-04-17T08:07:40.735Z</time></trkpt><trkpt lat="40.7415164" lon="9.6462293"><ele>82.0</ele><time>2026-04-17T08:07:41.731Z</time></trkpt><trkpt lat="40.7413543" lon="9.6462061"><ele>83.0</ele><time>2026-04-17T08:07:42.732Z</time></trkpt><trkpt lat="40.7411941" lon="9.6461814"><ele>83.66666666666667</ele><time>2026-04-17T08:07:43.732Z</time></trkpt><trkpt lat="40.7410362" lon="9.646157"><ele>84.33333333333333</ele><time>2026-04-17T08:07:44.73Z</time></trkpt><trkpt lat="40.7408832" lon="9.6461327"><ele>85.0</ele><time>2026-04-17T08:07:45.738Z</time></trkpt><trkpt lat="40.7407299" lon="9.6461091"><ele>89.0</ele><time>2026-04-17T08:07:46.734Z</time></trkpt><trkpt lat="40.7405731" lon="9.6460857"><ele>93.0</ele><time>2026-04-17T08:07:47.737Z</time></trkpt><trkpt lat="40.7404162" lon="9.6460628"><ele>97.0</ele><time>2026-04-17T08:07:48.738Z</time></trkpt><trkpt lat="40.7402549" lon="9.6460443"><ele>95.66666666666667</ele><time>2026-04-17T08:07:49.737Z</time></trkpt><trkpt lat="40.7400993" lon="9.6460534"><ele>94.33333333333334</ele><time>2026-04-17T08:07:50.726Z</time></trkpt><trkpt lat="40.7399421" lon="9.6460946"><ele>93.0</ele><time>2026-04-17T08:07:51.723Z</time></trkpt><trkpt lat="40.7397842" lon="9.6461571"><ele>92.0</ele><time>2026-04-17T08:07:52.714Z</time></trkpt><trkpt lat="40.7396264" lon="9.6462319"><ele>91.0</ele><time>2026-04-17T08:07:53.717Z</time></trkpt><trkpt lat="40.7394692" lon="9.6463038"><ele>90.0</ele><time>2026-04-17T08:07:54.714Z</time></trkpt><trkpt lat="40.7393163" lon="9.6463665"><ele>90.0</ele><time>2026-04-17T08:07:55.723Z</time></trkpt><trkpt lat="40.7391647" lon="9.6464288"><ele>90.0</ele><time>2026-04-17T08:07:56.73Z</time></trkpt><trkpt lat="40.7390145" lon="9.6464907"><ele>90.0</ele><time>2026-04-17T08:07:57.734Z</time></trkpt><trkpt lat="40.7388676" lon="9.6465481"><ele>90.0</ele><time>2026-04-17T08:07:58.741Z</time></trkpt><trkpt lat="40.7387229" lon="9.6466093"><ele>90.0</ele><time>2026-04-17T08:07:59.754Z</time></trkpt><trkpt lat="40.738578" lon="9.6466713"><ele>90.0</ele><time>2026-04-17T08:08:00.738Z</time></trkpt><trkpt lat="40.7384309" lon="9.6467327"><ele>91.0</ele><time>2026-04-17T08:08:01.74Z</time></trkpt><trkpt lat="40.7382806" lon="9.6467966"><ele>92.0</ele><time>2026-04-17T08:08:02.735Z</time></trkpt><trkpt lat="40.7381354" lon="9.6468579"><ele>93.0</ele><time>2026-04-17T08:08:03.737Z</time></trkpt><trkpt lat="40.7379948" lon="9.6469166"><ele>94.0</ele><time>2026-04-17T08:08:04.735Z</time></trkpt><trkpt lat="40.7378547" lon="9.6469774"><ele>95.0</ele><time>2026-04-17T08:08:05.736Z</time></trkpt><trkpt lat="40.7377135" lon="9.6470396"><ele>96.0</ele><time>2026-04-17T08:08:06.737Z</time></trkpt><trkpt lat="40.7375707" lon="9.6471068"><ele>97.0</ele><time>2026-04-17T08:08:07.742Z</time></trkpt><trkpt lat="40.7374279" lon="9.647179"><ele>99.0</ele><time>2026-04-17T08:08:08.739Z</time></trkpt><trkpt lat="40.7372873" lon="9.6472548"><ele>101.0</ele><time>2026-04-17T08:08:09.742Z</time></trkpt><trkpt lat="40.7371515" lon="9.6473354"><ele>103.0</ele><time>2026-04-17T08:08:10.739Z</time></trkpt><trkpt lat="40.7370149" lon="9.6474167"><ele>103.33333333333334</ele><time>2026-04-17T08:08:11.74Z</time></trkpt><trkpt lat="40.7368745" lon="9.6475013"><ele>103.66666666666666</ele><time>2026-04-17T08:08:12.742Z</time></trkpt><trkpt lat="40.7367368" lon="9.6475837"><ele>104.0</ele><time>2026-04-17T08:08:13.745Z</time></trkpt><trkpt lat="40.7365972" lon="9.6476477"><ele>104.0</ele><time>2026-04-17T08:08:14.736Z</time></trkpt><trkpt lat="40.7364594" lon="9.6476933"><ele>104.0</ele><time>2026-04-17T08:08:15.733Z</time></trkpt><trkpt lat="40.7363156" lon="9.6477144"><ele>104.0</ele><time>2026-04-17T08:08:16.724Z</time></trkpt><trkpt lat="40.7361603" lon="9.6477051"><ele>104.0</ele><time>2026-04-17T08:08:17.71Z</time></trkpt><trkpt lat="40.7359959" lon="9.6477012"><ele>101.33333333333333</ele><time>2026-04-17T08:08:18.702Z</time></trkpt><trkpt lat="40.7358327" lon="9.6476944"><ele>98.66666666666666</ele><time>2026-04-17T08:08:19.711Z</time></trkpt><trkpt lat="40.7356695" lon="9.6476866"><ele>96.0</ele><time>2026-04-17T08:08:20.706Z</time></trkpt><trkpt lat="40.7355026" lon="9.6476788"><ele>96.0</ele><time>2026-04-17T08:08:21.723Z</time></trkpt><trkpt lat="40.7353393" lon="9.6476755"><ele>96.0</ele><time>2026-04-17T08:08:22.726Z</time></trkpt><trkpt lat="40.7351802" lon="9.6476811"><ele>96.0</ele><time>2026-04-17T08:08:23.725Z</time></trkpt><trkpt lat="40.735027" lon="9.6476943"><ele>93.33333333333333</ele><time>2026-04-17T08:08:24.724Z</time></trkpt><trkpt lat="40.7348672" lon="9.6477212"><ele>90.66666666666666</ele><time>2026-04-17T08:08:25.731Z</time></trkpt><trkpt lat="40.7347077" lon="9.6477563"><ele>88.0</ele><time>2026-04-17T08:08:26.731Z</time></trkpt><trkpt lat="40.7345584" lon="9.6477872"><ele>87.75</ele><time>2026-04-17T08:08:27.733Z</time></trkpt><trkpt lat="40.7344186" lon="9.6478139"><ele>87.5</ele><time>2026-04-17T08:08:28.724Z</time></trkpt><trkpt lat="40.7342958" lon="9.6478415"><ele>87.25</ele><time>2026-04-17T08:08:29.732Z</time></trkpt><trkpt lat="40.7341836" lon="9.6478904"><ele>87.0</ele><time>2026-04-17T08:08:30.748Z</time></trkpt><trkpt lat="40.7340856" lon="9.6479464"><ele>87.0</ele><time>2026-04-17T08:08:31.738Z</time></trkpt><trkpt lat="40.7340027" lon="9.6479927"><ele>87.0</ele><time>2026-04-17T08:08:32.716Z</time></trkpt><trkpt lat="40.7339321" lon="9.6480363"><ele>87.0</ele><time>2026-04-17T08:08:33.717Z</time></trkpt><trkpt lat="40.7338687" lon="9.6480837"><ele>87.0</ele><time>2026-04-17T08:08:34.714Z</time></trkpt><trkpt lat="40.7338101" lon="9.6481351"><ele>87.0</ele><time>2026-04-17T08:08:35.716Z</time></trkpt><trkpt lat="40.7337561" lon="9.6481918"><ele>87.0</ele><time>2026-04-17T08:08:36.649Z</time></trkpt><trkpt lat="40.7336835" lon="9.6481946"><ele>87.0</ele><time>2026-04-17T08:08:37.648Z</time></trkpt><trkpt lat="40.7335973" lon="9.6481416"><ele>87.0</ele><time>2026-04-17T08:08:38.644Z</time></trkpt><trkpt lat="40.7335137" lon="9.6480487"><ele>87.0</ele><time>2026-04-17T08:08:39.644Z</time></trkpt><trkpt lat="40.7334281" lon="9.6479438"><ele>87.0</ele><time>2026-04-17T08:08:40.646Z</time></trkpt><trkpt lat="40.733348" lon="9.6478479"><ele>87.0</ele><time>2026-04-17T08:08:41.645Z</time></trkpt><trkpt lat="40.7332864" lon="9.6477487"><ele>85.83333333333333</ele><time>2026-04-17T08:08:42.646Z</time></trkpt><trkpt lat="40.7332548" lon="9.6476521"><ele>84.66666666666667</ele><time>2026-04-17T08:08:43.644Z</time></trkpt><trkpt lat="40.7332298" lon="9.6475671"><ele>83.5</ele><time>2026-04-17T08:08:44.649Z</time></trkpt><trkpt lat="40.7332248" lon="9.6474059"><ele>82.33333333333334</ele><time>2026-04-17T08:08:46.64Z</time></trkpt><trkpt lat="40.7332403" lon="9.6473112"><ele>81.16666666666667</ele><time>2026-04-17T08:08:47.646Z</time></trkpt><trkpt lat="40.7332627" lon="9.6471925"><ele>80.0</ele><time>2026-04-17T08:08:48.645Z</time></trkpt><trkpt lat="40.7332788" lon="9.6470672"><ele>80.4</ele><time>2026-04-17T08:08:49.648Z</time></trkpt><trkpt lat="40.7332852" lon="9.6469464"><ele>80.8</ele><time>2026-04-17T08:08:50.644Z</time></trkpt><trkpt lat="40.7332818" lon="9.6468144"><ele>81.19999999999999</ele><time>2026-04-17T08:08:51.646Z</time></trkpt><trkpt lat="40.7332648" lon="9.6466896"><ele>81.6</ele><time>2026-04-17T08:08:52.645Z</time></trkpt><trkpt lat="40.7332416" lon="9.6465802"><ele>82.0</ele><time>2026-04-17T08:08:53.649Z</time></trkpt><trkpt lat="40.7332192" lon="9.6464721"><ele>82.0</ele><time>2026-04-17T08:08:54.647Z</time></trkpt><trkpt lat="40.7332095" lon="9.6463701"><ele>82.0</ele><time>2026-04-17T08:08:55.645Z</time></trkpt><trkpt lat="40.7332153" lon="9.6462647"><ele>82.0</ele><time>2026-04-17T08:08:56.643Z</time></trkpt><trkpt lat="40.7332547" lon="9.6461642"><ele>82.0</ele><time>2026-04-17T08:08:57.646Z</time></trkpt><trkpt lat="40.7333076" lon="9.6460575"><ele>82.0</ele><time>2026-04-17T08:08:58.657Z</time></trkpt><trkpt lat="40.7333455" lon="9.6459436"><ele>82.0</ele><time>2026-04-17T08:08:59.654Z</time></trkpt><trkpt lat="40.7333728" lon="9.6458271"><ele>83.33333333333333</ele><time>2026-04-17T08:09:00.657Z</time></trkpt><trkpt lat="40.7334061" lon="9.6457019"><ele>84.66666666666666</ele><time>2026-04-17T08:09:01.673Z</time></trkpt><trkpt lat="40.7334312" lon="9.6455881"><ele>86.0</ele><time>2026-04-17T08:09:02.653Z</time></trkpt><trkpt lat="40.7334443" lon="9.6455016"><ele>87.33333333333333</ele><time>2026-04-17T08:09:03.653Z</time></trkpt><trkpt lat="40.7333745" lon="9.6454164"><ele>88.66666666666667</ele><time>2026-04-17T08:09:05.639Z</time></trkpt><trkpt lat="40.7333042" lon="9.6454076"><ele>90.0</ele><time>2026-04-17T08:09:06.653Z</time></trkpt><trkpt lat="40.7332189" lon="9.6454242"><ele>90.0</ele><time>2026-04-17T08:09:07.654Z</time></trkpt><trkpt lat="40.7331327" lon="9.6454134"><ele>90.0</ele><time>2026-04-17T08:09:08.646Z</time></trkpt><trkpt lat="40.7330553" lon="9.6453667"><ele>90.0</ele><time>2026-04-17T08:09:09.657Z</time></trkpt><trkpt lat="40.7329996" lon="9.645286"><ele>90.0</ele><time>2026-04-17T08:09:10.644Z</time></trkpt><trkpt lat="40.7329496" lon="9.6451954"><ele>90.0</ele><time>2026-04-17T08:09:11.656Z</time></trkpt><trkpt lat="40.7328955" lon="9.6450775"><ele>90.0</ele><time>2026-04-17T08:09:12.656Z</time></trkpt><trkpt lat="40.7328411" lon="9.6449423"><ele>92.0</ele><time>2026-04-17T08:09:13.663Z</time></trkpt><trkpt lat="40.7327872" lon="9.6448294"><ele>94.0</ele><time>2026-04-17T08:09:14.653Z</time></trkpt><trkpt lat="40.7327505" lon="9.6447314"><ele>96.0</ele><time>2026-04-17T08:09:15.657Z</time></trkpt><trkpt lat="40.732738" lon="9.6446365"><ele>98.0</ele><time>2026-04-17T08:09:16.654Z</time></trkpt><trkpt lat="40.7327439" lon="9.6445488"><ele>100.0</ele><time>2026-04-17T08:09:17.651Z</time></trkpt><trkpt lat="40.7328089" lon="9.6444186"><ele>102.0</ele><time>2026-04-17T08:09:19.651Z</time></trkpt><trkpt lat="40.7328698" lon="9.6443878"><ele>102.0</ele><time>2026-04-17T08:09:20.666Z</time></trkpt><trkpt lat="40.7329436" lon="9.6444121"><ele>102.0</ele><time>2026-04-17T08:09:21.651Z</time></trkpt><trkpt lat="40.7330119" lon="9.6444686"><ele>102.0</ele><time>2026-04-17T08:09:22.659Z</time></trkpt><trkpt lat="40.7330751" lon="9.6445353"><ele>102.0</ele><time>2026-04-17T08:09:23.654Z</time></trkpt><trkpt lat="40.7331677" lon="9.644594"><ele>102.0</ele><time>2026-04-17T08:09:25.653Z</time></trkpt><trkpt lat="40.7332629" lon="9.644581"><ele>102.0</ele><time>2026-04-17T08:09:27.661Z</time></trkpt><trkpt lat="40.7333543" lon="9.6444676"><ele>104.0</ele><time>2026-04-17T08:09:29.653Z</time></trkpt><trkpt lat="40.7333844" lon="9.6443868"><ele>106.0</ele><time>2026-04-17T08:09:30.645Z</time></trkpt><trkpt lat="40.7333869" lon="9.6442921"><ele>108.0</ele><time>2026-04-17T08:09:31.647Z</time></trkpt><trkpt lat="40.733362" lon="9.644179"><ele>110.0</ele><time>2026-04-17T08:09:32.669Z</time></trkpt><trkpt lat="40.7333371" lon="9.6440776"><ele>112.0</ele><time>2026-04-17T08:09:33.649Z</time></trkpt><trkpt lat="40.7333092" lon="9.6439813"><ele>114.0</ele><time>2026-04-17T08:09:34.656Z</time></trkpt><trkpt lat="40.7332809" lon="9.6438803"><ele>114.0</ele><time>2026-04-17T08:09:35.651Z</time></trkpt><trkpt lat="40.7332585" lon="9.6437562"><ele>114.0</ele><time>2026-04-17T08:09:36.651Z</time></trkpt><trkpt lat="40.733251" lon="9.6436248"><ele>114.0</ele><time>2026-04-17T08:09:37.651Z</time></trkpt><trkpt lat="40.7332541" lon="9.6435033"><ele>114.0</ele><time>2026-04-17T08:09:38.657Z</time></trkpt><trkpt lat="40.7332617" lon="9.6433862"><ele>114.0</ele><time>2026-04-17T08:09:39.657Z</time></trkpt><trkpt lat="40.7332768" lon="9.6432614"><ele>114.83333333333333</ele><time>2026-04-17T08:09:40.655Z</time></trkpt><trkpt lat="40.7332964" lon="9.6431359"><ele>115.66666666666666</ele><time>2026-04-17T08:09:41.658Z</time></trkpt><trkpt lat="40.7333191" lon="9.6430078"><ele>116.5</ele><time>2026-04-17T08:09:42.648Z</time></trkpt><trkpt lat="40.7333319" lon="9.6428879"><ele>117.33333333333333</ele><time>2026-04-17T08:09:43.646Z</time></trkpt><trkpt lat="40.7333402" lon="9.6427854"><ele>118.16666666666666</ele><time>2026-04-17T08:09:44.648Z</time></trkpt><trkpt lat="40.7333316" lon="9.6426908"><ele>119.0</ele><time>2026-04-17T08:09:45.647Z</time></trkpt><trkpt lat="40.7333087" lon="9.6426036"><ele>118.99999999999999</ele><time>2026-04-17T08:09:46.646Z</time></trkpt><trkpt lat="40.7332505" lon="9.6424804"><ele>119.0</ele><time>2026-04-17T08:09:48.635Z</time></trkpt><trkpt lat="40.7331559" lon="9.6424595"><ele>119.0</ele><time>2026-04-17T08:09:50.644Z</time></trkpt><trkpt lat="40.7330722" lon="9.6425563"><ele>119.0</ele><time>2026-04-17T08:09:52.639Z</time></trkpt><trkpt lat="40.7330352" lon="9.6426272"><ele>118.99999999999999</ele><time>2026-04-17T08:09:53.639Z</time></trkpt><trkpt lat="40.7330055" lon="9.6427041"><ele>119.0</ele><time>2026-04-17T08:09:54.639Z</time></trkpt><trkpt lat="40.7329195" lon="9.6428044"><ele>118.99999999999999</ele><time>2026-04-17T08:09:56.643Z</time></trkpt><trkpt lat="40.7328605" lon="9.6428366"><ele>119.0</ele><time>2026-04-17T08:09:57.645Z</time></trkpt><trkpt lat="40.7327462" lon="9.64283"><ele>119.0</ele><time>2026-04-17T08:09:59.645Z</time></trkpt><trkpt lat="40.7326874" lon="9.6427973"><ele>119.0</ele><time>2026-04-17T08:10:00.644Z</time></trkpt><trkpt lat="40.7326165" lon="9.6427513"><ele>118.99999999999999</ele><time>2026-04-17T08:10:01.649Z</time></trkpt><trkpt lat="40.7325405" lon="9.6426977"><ele>119.0</ele><time>2026-04-17T08:10:02.646Z</time></trkpt><trkpt lat="40.7324635" lon="9.6426409"><ele>119.83333333333333</ele><time>2026-04-17T08:10:03.653Z</time></trkpt><trkpt lat="40.7323879" lon="9.6425756"><ele>120.66666666666666</ele><time>2026-04-17T08:10:04.64Z</time></trkpt><trkpt lat="40.7323168" lon="9.642493"><ele>121.5</ele><time>2026-04-17T08:10:05.645Z</time></trkpt><trkpt lat="40.7322442" lon="9.6424167"><ele>122.33333333333334</ele><time>2026-04-17T08:10:06.632Z</time></trkpt><trkpt lat="40.7321758" lon="9.6423766"><ele>123.16666666666667</ele><time>2026-04-17T08:10:07.636Z</time></trkpt><trkpt lat="40.7320925" lon="9.642375"><ele>124.0</ele><time>2026-04-17T08:10:08.634Z</time></trkpt><trkpt lat="40.7320034" lon="9.6423927"><ele>124.00000000000001</ele><time>2026-04-17T08:10:09.649Z</time></trkpt><trkpt lat="40.731926" lon="9.642406"><ele>124.0</ele><time>2026-04-17T08:10:10.639Z</time></trkpt><trkpt lat="40.7318471" lon="9.6423803"><ele>124.0</ele><time>2026-04-17T08:10:11.636Z</time></trkpt><trkpt lat="40.7317766" lon="9.6423246"><ele>124.0</ele><time>2026-04-17T08:10:12.641Z</time></trkpt><trkpt lat="40.7317099" lon="9.6422567"><ele>124.00000000000001</ele><time>2026-04-17T08:10:13.644Z</time></trkpt><trkpt lat="40.7316501" lon="9.6421875"><ele>124.0</ele><time>2026-04-17T08:10:14.642Z</time></trkpt><trkpt lat="40.7315899" lon="9.6421194"><ele>124.66666666666667</ele><time>2026-04-17T08:10:15.642Z</time></trkpt><trkpt lat="40.7315187" lon="9.642045"><ele>125.33333333333334</ele><time>2026-04-17T08:10:16.65Z</time></trkpt><trkpt lat="40.7314395" lon="9.6419964"><ele>126.0</ele><time>2026-04-17T08:10:17.65Z</time></trkpt><trkpt lat="40.7313732" lon="9.6419354"><ele>126.66666666666666</ele><time>2026-04-17T08:10:18.648Z</time></trkpt><trkpt lat="40.7313171" lon="9.6418572"><ele>127.33333333333333</ele><time>2026-04-17T08:10:19.644Z</time></trkpt><trkpt lat="40.7312659" lon="9.6417541"><ele>128.0</ele><time>2026-04-17T08:10:20.648Z</time></trkpt><trkpt lat="40.7312304" lon="9.6416531"><ele>130.16666666666666</ele><time>2026-04-17T08:10:21.648Z</time></trkpt><trkpt lat="40.7312057" lon="9.6415423"><ele>132.33333333333331</ele><time>2026-04-17T08:10:22.649Z</time></trkpt><trkpt lat="40.7311887" lon="9.6414284"><ele>134.5</ele><time>2026-04-17T08:10:23.648Z</time></trkpt><trkpt lat="40.7311815" lon="9.6413086"><ele>136.66666666666666</ele><time>2026-04-17T08:10:24.653Z</time></trkpt><trkpt lat="40.7311682" lon="9.6411895"><ele>138.83333333333334</ele><time>2026-04-17T08:10:25.655Z</time></trkpt><trkpt lat="40.731146" lon="9.6410791"><ele>141.0</ele><time>2026-04-17T08:10:26.66Z</time></trkpt><trkpt lat="40.7311195" lon="9.6409786"><ele>142.0</ele><time>2026-04-17T08:10:27.656Z</time></trkpt><trkpt lat="40.7310975" lon="9.6408775"><ele>143.0</ele><time>2026-04-17T08:10:28.651Z</time></trkpt><trkpt lat="40.731079" lon="9.6407968"><ele>144.0</ele><time>2026-04-17T08:10:29.655Z</time></trkpt><trkpt lat="40.7310512" lon="9.6406582"><ele>145.0</ele><time>2026-04-17T08:10:31.649Z</time></trkpt><trkpt lat="40.7310646" lon="9.6405706"><ele>146.0</ele><time>2026-04-17T08:10:32.649Z</time></trkpt><trkpt lat="40.7310963" lon="9.6404753"><ele>147.0</ele><time>2026-04-17T08:10:33.651Z</time></trkpt><trkpt lat="40.7311273" lon="9.6403572"><ele>146.79999999999998</ele><time>2026-04-17T08:10:34.669Z</time></trkpt><trkpt lat="40.7311388" lon="9.6402307"><ele>146.6</ele><time>2026-04-17T08:10:35.652Z</time></trkpt><trkpt lat="40.7311389" lon="9.6400861"><ele>146.39999999999998</ele><time>2026-04-17T08:10:36.651Z</time></trkpt><trkpt lat="40.7311305" lon="9.6399366"><ele>146.2</ele><time>2026-04-17T08:10:37.649Z</time></trkpt><trkpt lat="40.7311178" lon="9.6398093"><ele>146.0</ele><time>2026-04-17T08:10:38.656Z</time></trkpt><trkpt lat="40.7311199" lon="9.6396882"><ele>146.0</ele><time>2026-04-17T08:10:39.652Z</time></trkpt><trkpt lat="40.7311278" lon="9.6395646"><ele>146.0</ele><time>2026-04-17T08:10:40.653Z</time></trkpt><trkpt lat="40.7311446" lon="9.6394575"><ele>146.0</ele><time>2026-04-17T08:10:41.65Z</time></trkpt><trkpt lat="40.7311527" lon="9.6393499"><ele>146.0</ele><time>2026-04-17T08:10:42.651Z</time></trkpt><trkpt lat="40.7311558" lon="9.6392414"><ele>146.0</ele><time>2026-04-17T08:10:43.651Z</time></trkpt><trkpt lat="40.7311556" lon="9.6391206"><ele>146.0</ele><time>2026-04-17T08:10:44.646Z</time></trkpt><trkpt lat="40.7311501" lon="9.6390148"><ele>146.0</ele><time>2026-04-17T08:10:45.648Z</time></trkpt><trkpt lat="40.7311636" lon="9.6389198"><ele>146.0</ele><time>2026-04-17T08:10:46.64Z</time></trkpt><trkpt lat="40.7311899" lon="9.6388335"><ele>146.0</ele><time>2026-04-17T08:10:47.645Z</time></trkpt><trkpt lat="40.7312295" lon="9.6387246"><ele>146.0</ele><time>2026-04-17T08:10:48.644Z</time></trkpt><trkpt lat="40.7312623" lon="9.6385921"><ele>146.0</ele><time>2026-04-17T08:10:49.643Z</time></trkpt><trkpt lat="40.7312763" lon="9.6384548"><ele>146.0</ele><time>2026-04-17T08:10:50.639Z</time></trkpt><trkpt lat="40.7312762" lon="9.6383148"><ele>146.0</ele><time>2026-04-17T08:10:51.636Z</time></trkpt><trkpt lat="40.7312742" lon="9.6381813"><ele>146.0</ele><time>2026-04-17T08:10:52.639Z</time></trkpt><trkpt lat="40.7312814" lon="9.6380496"><ele>146.0</ele><time>2026-04-17T08:10:53.637Z</time></trkpt><trkpt lat="40.7312905" lon="9.6379266"><ele>146.0</ele><time>2026-04-17T08:10:54.632Z</time></trkpt><trkpt lat="40.7313103" lon="9.6378162"><ele>146.0</ele><time>2026-04-17T08:10:55.633Z</time></trkpt><trkpt lat="40.7313382" lon="9.6377169"><ele>145.66666666666666</ele><time>2026-04-17T08:10:56.633Z</time></trkpt><trkpt lat="40.7313742" lon="9.637631"><ele>145.33333333333331</ele><time>2026-04-17T08:10:57.631Z</time></trkpt><trkpt lat="40.7314286" lon="9.6375656"><ele>145.0</ele><time>2026-04-17T08:10:58.632Z</time></trkpt><trkpt lat="40.7314822" lon="9.6375122"><ele>144.66666666666666</ele><time>2026-04-17T08:10:59.635Z</time></trkpt><trkpt lat="40.7315292" lon="9.6374502"><ele>144.33333333333334</ele><time>2026-04-17T08:11:00.642Z</time></trkpt><trkpt lat="40.7315399" lon="9.6372848"><ele>144.0</ele><time>2026-04-17T08:11:02.629Z</time></trkpt><trkpt lat="40.731497" lon="9.6371222"><ele>144.0</ele><time>2026-04-17T08:11:04.642Z</time></trkpt><trkpt lat="40.7314809" lon="9.637038"><ele>144.0</ele><time>2026-04-17T08:11:05.652Z</time></trkpt><trkpt lat="40.731507" lon="9.6368647"><ele>144.0</ele><time>2026-04-17T08:11:07.639Z</time></trkpt><trkpt lat="40.7315487" lon="9.6367667"><ele>144.0</ele><time>2026-04-17T08:11:08.648Z</time></trkpt><trkpt lat="40.7316015" lon="9.636674"><ele>144.0</ele><time>2026-04-17T08:11:09.648Z</time></trkpt><trkpt lat="40.7316544" lon="9.6366058"><ele>144.0</ele><time>2026-04-17T08:11:10.644Z</time></trkpt><trkpt lat="40.7317041" lon="9.6365421"><ele>144.2857142857143</ele><time>2026-04-17T08:11:11.648Z</time></trkpt><trkpt lat="40.7317609" lon="9.6364989"><ele>144.57142857142858</ele><time>2026-04-17T08:11:12.647Z</time></trkpt><trkpt lat="40.7318277" lon="9.6364686"><ele>144.85714285714286</ele><time>2026-04-17T08:11:13.646Z</time></trkpt><trkpt lat="40.7319011" lon="9.6364583"><ele>145.14285714285717</ele><time>2026-04-17T08:11:14.651Z</time></trkpt><trkpt lat="40.7319792" lon="9.6364515"><ele>145.42857142857144</ele><time>2026-04-17T08:11:15.648Z</time></trkpt><trkpt lat="40.7320451" lon="9.6364155"><ele>145.71428571428572</ele><time>2026-04-17T08:11:16.64Z</time></trkpt><trkpt lat="40.7320934" lon="9.6363522"><ele>146.0</ele><time>2026-04-17T08:11:17.648Z</time></trkpt><trkpt lat="40.7321336" lon="9.6362607"><ele>148.8</ele><time>2026-04-17T08:11:18.646Z</time></trkpt><trkpt lat="40.7321741" lon="9.636159"><ele>151.6</ele><time>2026-04-17T08:11:19.647Z</time></trkpt><trkpt lat="40.7322037" lon="9.6360386"><ele>154.4</ele><time>2026-04-17T08:11:20.647Z</time></trkpt><trkpt lat="40.7322338" lon="9.6359061"><ele>157.2</ele><time>2026-04-17T08:11:21.645Z</time></trkpt><trkpt lat="40.7322421" lon="9.6357887"><ele>160.0</ele><time>2026-04-17T08:11:22.63Z</time></trkpt><trkpt lat="40.7322314" lon="9.6356878"><ele>160.0</ele><time>2026-04-17T08:11:23.624Z</time></trkpt><trkpt lat="40.7321987" lon="9.6355845"><ele>160.0</ele><time>2026-04-17T08:11:24.641Z</time></trkpt><trkpt lat="40.7321715" lon="9.6354781"><ele>160.0</ele><time>2026-04-17T08:11:25.64Z</time></trkpt><trkpt lat="40.7321387" lon="9.6353787"><ele>160.0</ele><time>2026-04-17T08:11:26.634Z</time></trkpt><trkpt lat="40.732135" lon="9.6352858"><ele>160.0</ele><time>2026-04-17T08:11:27.63Z</time></trkpt><trkpt lat="40.7321479" lon="9.6351844"><ele>160.0</ele><time>2026-04-17T08:11:28.638Z</time></trkpt><trkpt lat="40.7321714" lon="9.6350738"><ele>160.2</ele><time>2026-04-17T08:11:29.635Z</time></trkpt><trkpt lat="40.7322055" lon="9.6349553"><ele>160.4</ele><time>2026-04-17T08:11:30.637Z</time></trkpt><trkpt lat="40.7322471" lon="9.63486"><ele>160.60000000000002</ele><time>2026-04-17T08:11:31.642Z</time></trkpt><trkpt lat="40.7322999" lon="9.6347803"><ele>160.8</ele><time>2026-04-17T08:11:32.638Z</time></trkpt><trkpt lat="40.7323607" lon="9.6346886"><ele>161.0</ele><time>2026-04-17T08:11:33.64Z</time></trkpt><trkpt lat="40.7324178" lon="9.634581"><ele>161.0</ele><time>2026-04-17T08:11:34.639Z</time></trkpt><trkpt lat="40.7324616" lon="9.6344784"><ele>161.0</ele><time>2026-04-17T08:11:35.647Z</time></trkpt><trkpt lat="40.7324955" lon="9.6343744"><ele>161.0</ele><time>2026-04-17T08:11:36.657Z</time></trkpt><trkpt lat="40.7325218" lon="9.6342673"><ele>161.0</ele><time>2026-04-17T08:11:37.639Z</time></trkpt><trkpt lat="40.7325386" lon="9.634176"><ele>161.0</ele><time>2026-04-17T08:11:38.643Z</time></trkpt><trkpt lat="40.7325455" lon="9.6340848"><ele>161.0</ele><time>2026-04-17T08:11:39.647Z</time></trkpt><trkpt lat="40.7325696" lon="9.6339791"><ele>162.0</ele><time>2026-04-17T08:11:40.639Z</time></trkpt><trkpt lat="40.7326014" lon="9.6338776"><ele>163.0</ele><time>2026-04-17T08:11:41.644Z</time></trkpt><trkpt lat="40.7326124" lon="9.633725"><ele>164.0</ele><time>2026-04-17T08:11:43.634Z</time></trkpt><trkpt lat="40.7325459" lon="9.6336165"><ele>165.0</ele><time>2026-04-17T08:11:45.639Z</time></trkpt><trkpt lat="40.7324544" lon="9.6336065"><ele>166.0</ele><time>2026-04-17T08:11:47.648Z</time></trkpt><trkpt lat="40.7323577" lon="9.6335128"><ele>167.33333333333334</ele><time>2026-04-17T08:11:49.637Z</time></trkpt><trkpt lat="40.7323196" lon="9.633427"><ele>168.66666666666669</ele><time>2026-04-17T08:11:50.64Z</time></trkpt><trkpt lat="40.7322905" lon="9.6333354"><ele>170.0</ele><time>2026-04-17T08:11:51.644Z</time></trkpt><trkpt lat="40.7322659" lon="9.6332501"><ele>171.33333333333334</ele><time>2026-04-17T08:11:52.643Z</time></trkpt><trkpt lat="40.7322909" lon="9.6331151"><ele>172.66666666666666</ele><time>2026-04-17T08:11:54.633Z</time></trkpt><trkpt lat="40.7323338" lon="9.6330439"><ele>174.0</ele><time>2026-04-17T08:11:55.641Z</time></trkpt><trkpt lat="40.7323731" lon="9.6329567"><ele>174.0</ele><time>2026-04-17T08:11:56.641Z</time></trkpt><trkpt lat="40.7324127" lon="9.6328645"><ele>174.0</ele><time>2026-04-17T08:11:57.638Z</time></trkpt><trkpt lat="40.7324381" lon="9.6327849"><ele>174.0</ele><time>2026-04-17T08:11:58.637Z</time></trkpt><trkpt lat="40.732423" lon="9.6326378"><ele>174.0</ele><time>2026-04-17T08:12:00.63Z</time></trkpt><trkpt lat="40.7323396" lon="9.6325231"><ele>174.0</ele><time>2026-04-17T08:12:02.639Z</time></trkpt><trkpt lat="40.7322841" lon="9.6324643"><ele>176.0</ele><time>2026-04-17T08:12:03.639Z</time></trkpt><trkpt lat="40.7322158" lon="9.6323981"><ele>178.0</ele><time>2026-04-17T08:12:04.638Z</time></trkpt><trkpt lat="40.7321428" lon="9.6323393"><ele>180.0</ele><time>2026-04-17T08:12:05.641Z</time></trkpt><trkpt lat="40.7320815" lon="9.6322984"><ele>182.0</ele><time>2026-04-17T08:12:06.641Z</time></trkpt><trkpt lat="40.7320221" lon="9.632254"><ele>184.0</ele><time>2026-04-17T08:12:07.656Z</time></trkpt><trkpt lat="40.7319493" lon="9.6322145"><ele>186.0</ele><time>2026-04-17T08:12:08.64Z</time></trkpt><trkpt lat="40.731873" lon="9.6321771"><ele>186.66666666666666</ele><time>2026-04-17T08:12:09.637Z</time></trkpt><trkpt lat="40.7318003" lon="9.6321379"><ele>187.33333333333334</ele><time>2026-04-17T08:12:10.636Z</time></trkpt><trkpt lat="40.7317289" lon="9.6321086"><ele>188.0</ele><time>2026-04-17T08:12:11.637Z</time></trkpt><trkpt lat="40.7316626" lon="9.632073"><ele>188.66666666666669</ele><time>2026-04-17T08:12:12.639Z</time></trkpt><trkpt lat="40.7315927" lon="9.6320309"><ele>189.33333333333334</ele><time>2026-04-17T08:12:13.639Z</time></trkpt><trkpt lat="40.7315178" lon="9.6319966"><ele>190.0</ele><time>2026-04-17T08:12:14.639Z</time></trkpt><trkpt lat="40.7314374" lon="9.6319712"><ele>191.0</ele><time>2026-04-17T08:12:15.64Z</time></trkpt><trkpt lat="40.7313669" lon="9.6319398"><ele>192.0</ele><time>2026-04-17T08:12:16.639Z</time></trkpt><trkpt lat="40.7313025" lon="9.6319132"><ele>193.0</ele><time>2026-04-17T08:12:17.644Z</time></trkpt><trkpt lat="40.7311962" lon="9.6318597"><ele>194.0</ele><time>2026-04-17T08:12:19.642Z</time></trkpt><trkpt lat="40.7311208" lon="9.6317472"><ele>194.99999999999997</ele><time>2026-04-17T08:12:21.649Z</time></trkpt><trkpt lat="40.7310864" lon="9.6316714"><ele>196.0</ele><time>2026-04-17T08:12:22.655Z</time></trkpt><trkpt lat="40.7310517" lon="9.6315816"><ele>196.0</ele><time>2026-04-17T08:12:23.653Z</time></trkpt><trkpt lat="40.7310226" lon="9.6314883"><ele>196.0</ele><time>2026-04-17T08:12:24.647Z</time></trkpt><trkpt lat="40.7310005" lon="9.6313971"><ele>196.0</ele><time>2026-04-17T08:12:25.646Z</time></trkpt><trkpt lat="40.7309802" lon="9.6313115"><ele>196.0</ele><time>2026-04-17T08:12:26.645Z</time></trkpt><trkpt lat="40.7309543" lon="9.6312339"><ele>196.0</ele><time>2026-04-17T08:12:27.643Z</time></trkpt><trkpt lat="40.7309216" lon="9.6311573"><ele>196.0</ele><time>2026-04-17T08:12:28.649Z</time></trkpt><trkpt lat="40.7308887" lon="9.631074"><ele>196.0</ele><time>2026-04-17T08:12:29.641Z</time></trkpt><trkpt lat="40.7308502" lon="9.6309885"><ele>195.16666666666666</ele><time>2026-04-17T08:12:30.645Z</time></trkpt><trkpt lat="40.7308014" lon="9.6309022"><ele>194.33333333333331</ele><time>2026-04-17T08:12:31.643Z</time></trkpt><trkpt lat="40.7307571" lon="9.6308151"><ele>193.5</ele><time>2026-04-17T08:12:32.641Z</time></trkpt><trkpt lat="40.7307253" lon="9.630722"><ele>192.66666666666666</ele><time>2026-04-17T08:12:33.641Z</time></trkpt><trkpt lat="40.7307169" lon="9.6306321"><ele>191.83333333333331</ele><time>2026-04-17T08:12:34.643Z</time></trkpt><trkpt lat="40.7307089" lon="9.6305411"><ele>191.0</ele><time>2026-04-17T08:12:35.644Z</time></trkpt><trkpt lat="40.7306986" lon="9.630442"><ele>191.0</ele><time>2026-04-17T08:12:36.641Z</time></trkpt><trkpt lat="40.7306802" lon="9.630336"><ele>191.0</ele><time>2026-04-17T08:12:37.642Z</time></trkpt><trkpt lat="40.7306601" lon="9.6302377"><ele>191.0</ele><time>2026-04-17T08:12:38.655Z</time></trkpt><trkpt lat="40.7306385" lon="9.6301418"><ele>191.0</ele><time>2026-04-17T08:12:39.642Z</time></trkpt><trkpt lat="40.7306075" lon="9.6300584"><ele>191.0</ele><time>2026-04-17T08:12:40.636Z</time></trkpt><trkpt lat="40.7305149" lon="9.6299647"><ele>191.0</ele><time>2026-04-17T08:12:42.635Z</time></trkpt><trkpt lat="40.7303891" lon="9.629926"><ele>192.0</ele><time>2026-04-17T08:12:44.643Z</time></trkpt><trkpt lat="40.7303304" lon="9.6298921"><ele>193.0</ele><time>2026-04-17T08:12:45.642Z</time></trkpt><trkpt lat="40.7302778" lon="9.6298455"><ele>194.0</ele><time>2026-04-17T08:12:46.646Z</time></trkpt><trkpt lat="40.7302297" lon="9.629782"><ele>195.0</ele><time>2026-04-17T08:12:47.648Z</time></trkpt><trkpt lat="40.7301825" lon="9.6296972"><ele>196.00000000000003</ele><time>2026-04-17T08:12:48.647Z</time></trkpt><trkpt lat="40.7301483" lon="9.6295972"><ele>197.0</ele><time>2026-04-17T08:12:49.648Z</time></trkpt><trkpt lat="40.7300909" lon="9.629501"><ele>194.33333333333334</ele><time>2026-04-17T08:12:50.652Z</time></trkpt><trkpt lat="40.7300331" lon="9.6294272"><ele>191.66666666666669</ele><time>2026-04-17T08:12:51.651Z</time></trkpt><trkpt lat="40.7299745" lon="9.62937"><ele>189.0</ele><time>2026-04-17T08:12:52.65Z</time></trkpt><trkpt lat="40.7299193" lon="9.6293281"><ele>186.33333333333334</ele><time>2026-04-17T08:12:53.652Z</time></trkpt><trkpt lat="40.7298608" lon="9.6292893"><ele>183.66666666666669</ele><time>2026-04-17T08:12:54.654Z</time></trkpt><trkpt lat="40.7297551" lon="9.6292114"><ele>181.0</ele><time>2026-04-17T08:12:56.65Z</time></trkpt><trkpt lat="40.7297035" lon="9.6291533"><ele>181.0</ele><time>2026-04-17T08:12:57.648Z</time></trkpt><trkpt lat="40.7295988" lon="9.6290372"><ele>181.0</ele><time>2026-04-17T08:12:59.645Z</time></trkpt><trkpt lat="40.7295414" lon="9.6289786"><ele>181.0</ele><time>2026-04-17T08:13:00.652Z</time></trkpt><trkpt lat="40.7294871" lon="9.6289218"><ele>181.0</ele><time>2026-04-17T08:13:01.652Z</time></trkpt><trkpt lat="40.7294301" lon="9.6288546"><ele>181.0</ele><time>2026-04-17T08:13:02.649Z</time></trkpt><trkpt lat="40.7293692" lon="9.6287822"><ele>181.0</ele><time>2026-04-17T08:13:03.647Z</time></trkpt><trkpt lat="40.7292897" lon="9.6286516"><ele>178.33333333333334</ele><time>2026-04-17T08:13:05.647Z</time></trkpt><trkpt lat="40.7292455" lon="9.6284899"><ele>175.66666666666669</ele><time>2026-04-17T08:13:07.647Z</time></trkpt><trkpt lat="40.7292437" lon="9.6283985"><ele>173.0</ele><time>2026-04-17T08:13:08.644Z</time></trkpt><trkpt lat="40.7292529" lon="9.6283086"><ele>170.33333333333334</ele><time>2026-04-17T08:13:09.66Z</time></trkpt><trkpt lat="40.7292519" lon="9.6282142"><ele>167.66666666666666</ele><time>2026-04-17T08:13:10.643Z</time></trkpt><trkpt lat="40.7292487" lon="9.6281135"><ele>165.0</ele><time>2026-04-17T08:13:11.632Z</time></trkpt><trkpt lat="40.7292395" lon="9.6279873"><ele>165.0</ele><time>2026-04-17T08:13:12.636Z</time></trkpt><trkpt lat="40.7292418" lon="9.6278416"><ele>165.0</ele><time>2026-04-17T08:13:13.644Z</time></trkpt><trkpt lat="40.7292478" lon="9.627714"><ele>165.0</ele><time>2026-04-17T08:13:14.644Z</time></trkpt><trkpt lat="40.7292517" lon="9.6276053"><ele>165.0</ele><time>2026-04-17T08:13:15.643Z</time></trkpt><trkpt lat="40.7292455" lon="9.627508"><ele>165.0</ele><time>2026-04-17T08:13:16.639Z</time></trkpt><trkpt lat="40.729239" lon="9.6274163"><ele>165.0</ele><time>2026-04-17T08:13:17.647Z</time></trkpt><trkpt lat="40.7292346" lon="9.6273333"><ele>164.83333333333334</ele><time>2026-04-17T08:13:18.646Z</time></trkpt><trkpt lat="40.729231" lon="9.6272444"><ele>164.66666666666666</ele><time>2026-04-17T08:13:19.651Z</time></trkpt><trkpt lat="40.7292314" lon="9.627142"><ele>164.5</ele><time>2026-04-17T08:13:20.643Z</time></trkpt><trkpt lat="40.7292256" lon="9.6270366"><ele>164.33333333333331</ele><time>2026-04-17T08:13:21.64Z</time></trkpt><trkpt lat="40.7292141" lon="9.62695"><ele>164.16666666666666</ele><time>2026-04-17T08:13:22.643Z</time></trkpt><trkpt lat="40.7292042" lon="9.6268002"><ele>164.0</ele><time>2026-04-17T08:13:24.646Z</time></trkpt><trkpt lat="40.729197" lon="9.626673"><ele>163.6</ele><time>2026-04-17T08:13:26.648Z</time></trkpt><trkpt lat="40.729168" lon="9.6265282"><ele>163.2</ele><time>2026-04-17T08:13:28.647Z</time></trkpt><trkpt lat="40.7290975" lon="9.6264381"><ele>162.79999999999998</ele><time>2026-04-17T08:13:30.644Z</time></trkpt><trkpt lat="40.7289807" lon="9.6264167"><ele>162.39999999999998</ele><time>2026-04-17T08:13:32.641Z</time></trkpt><trkpt lat="40.7289197" lon="9.6264407"><ele>162.0</ele><time>2026-04-17T08:13:33.646Z</time></trkpt><trkpt lat="40.7288656" lon="9.6264956"><ele>162.0</ele><time>2026-04-17T08:13:34.643Z</time></trkpt><trkpt lat="40.7287948" lon="9.626602"><ele>162.0</ele><time>2026-04-17T08:13:36.641Z</time></trkpt><trkpt lat="40.7287479" lon="9.6267451"><ele>162.0</ele><time>2026-04-17T08:13:38.641Z</time></trkpt><trkpt lat="40.7287244" lon="9.6268256"><ele>162.0</ele><time>2026-04-17T08:13:39.645Z</time></trkpt><trkpt lat="40.7286916" lon="9.6269117"><ele>162.0</ele><time>2026-04-17T08:13:40.652Z</time></trkpt><trkpt lat="40.7286621" lon="9.6269951"><ele>162.0</ele><time>2026-04-17T08:13:41.643Z</time></trkpt><trkpt lat="40.7286034" lon="9.6271406"><ele>162.16666666666666</ele><time>2026-04-17T08:13:43.636Z</time></trkpt><trkpt lat="40.7285522" lon="9.6272314"><ele>162.33333333333334</ele><time>2026-04-17T08:13:44.641Z</time></trkpt><trkpt lat="40.7285053" lon="9.6273357"><ele>162.5</ele><time>2026-04-17T08:13:45.642Z</time></trkpt><trkpt lat="40.7284625" lon="9.6274333"><ele>162.66666666666669</ele><time>2026-04-17T08:13:46.64Z</time></trkpt><trkpt lat="40.7284229" lon="9.6275319"><ele>162.83333333333334</ele><time>2026-04-17T08:13:47.642Z</time></trkpt><trkpt lat="40.7283815" lon="9.6276434"><ele>163.0</ele><time>2026-04-17T08:13:48.638Z</time></trkpt><trkpt lat="40.728334" lon="9.6277539"><ele>161.33333333333334</ele><time>2026-04-17T08:13:49.64Z</time></trkpt><trkpt lat="40.7282859" lon="9.6278614"><ele>159.66666666666669</ele><time>2026-04-17T08:13:50.638Z</time></trkpt><trkpt lat="40.7282382" lon="9.6279496"><ele>158.0</ele><time>2026-04-17T08:13:51.639Z</time></trkpt><trkpt lat="40.7281775" lon="9.6280246"><ele>156.33333333333334</ele><time>2026-04-17T08:13:52.644Z</time></trkpt><trkpt lat="40.7281072" lon="9.6280782"><ele>154.66666666666666</ele><time>2026-04-17T08:13:53.637Z</time></trkpt><trkpt lat="40.7280272" lon="9.6281244"><ele>153.0</ele><time>2026-04-17T08:13:54.639Z</time></trkpt><trkpt lat="40.7279531" lon="9.6281761"><ele>153.0</ele><time>2026-04-17T08:13:55.637Z</time></trkpt><trkpt lat="40.7278827" lon="9.6282137"><ele>153.0</ele><time>2026-04-17T08:13:56.636Z</time></trkpt><trkpt lat="40.7278087" lon="9.6282301"><ele>153.0</ele><time>2026-04-17T08:13:57.64Z</time></trkpt><trkpt lat="40.7277365" lon="9.6282369"><ele>153.0</ele><time>2026-04-17T08:13:58.64Z</time></trkpt><trkpt lat="40.7276595" lon="9.6282416"><ele>153.0</ele><time>2026-04-17T08:13:59.642Z</time></trkpt><trkpt lat="40.7275781" lon="9.6282495"><ele>153.0</ele><time>2026-04-17T08:14:00.642Z</time></trkpt><trkpt lat="40.7274969" lon="9.6282478"><ele>154.16666666666666</ele><time>2026-04-17T08:14:01.643Z</time></trkpt><trkpt lat="40.7274166" lon="9.6282339"><ele>155.33333333333334</ele><time>2026-04-17T08:14:02.636Z</time></trkpt><trkpt lat="40.7273299" lon="9.6282066"><ele>156.5</ele><time>2026-04-17T08:14:03.64Z</time></trkpt><trkpt lat="40.7272453" lon="9.628181"><ele>157.66666666666669</ele><time>2026-04-17T08:14:04.639Z</time></trkpt><trkpt lat="40.7271709" lon="9.6281508"><ele>158.83333333333334</ele><time>2026-04-17T08:14:05.641Z</time></trkpt><trkpt lat="40.7271021" lon="9.6281082"><ele>160.0</ele><time>2026-04-17T08:14:06.639Z</time></trkpt><trkpt lat="40.7270417" lon="9.6280417"><ele>160.0</ele><time>2026-04-17T08:14:07.64Z</time></trkpt><trkpt lat="40.7269716" lon="9.6279573"><ele>160.0</ele><time>2026-04-17T08:14:08.642Z</time></trkpt><trkpt lat="40.7268944" lon="9.6278762"><ele>160.0</ele><time>2026-04-17T08:14:09.641Z</time></trkpt><trkpt lat="40.726831" lon="9.6278018"><ele>160.0</ele><time>2026-04-17T08:14:10.641Z</time></trkpt><trkpt lat="40.7267677" lon="9.6277206"><ele>160.0</ele><time>2026-04-17T08:14:11.658Z</time></trkpt><trkpt lat="40.7267063" lon="9.627636"><ele>161.5</ele><time>2026-04-17T08:14:12.644Z</time></trkpt><trkpt lat="40.7266322" lon="9.6275572"><ele>163.0</ele><time>2026-04-17T08:14:13.64Z</time></trkpt><trkpt lat="40.7265554" lon="9.6275058"><ele>164.5</ele><time>2026-04-17T08:14:14.646Z</time></trkpt><trkpt lat="40.7264776" lon="9.6274484"><ele>166.0</ele><time>2026-04-17T08:14:15.646Z</time></trkpt><trkpt lat="40.7264086" lon="9.6273732"><ele>167.5</ele><time>2026-04-17T08:14:16.647Z</time></trkpt><trkpt lat="40.7263331" lon="9.6273107"><ele>169.0</ele><time>2026-04-17T08:14:17.648Z</time></trkpt><trkpt lat="40.7262525" lon="9.6272603"><ele>169.0</ele><time>2026-04-17T08:14:18.644Z</time></trkpt><trkpt lat="40.7261699" lon="9.6272255"><ele>169.0</ele><time>2026-04-17T08:14:19.643Z</time></trkpt><trkpt lat="40.7260911" lon="9.6272111"><ele>169.0</ele><time>2026-04-17T08:14:20.647Z</time></trkpt><trkpt lat="40.7260163" lon="9.6271941"><ele>169.0</ele><time>2026-04-17T08:14:21.64Z</time></trkpt><trkpt lat="40.7259351" lon="9.6271418"><ele>169.0</ele><time>2026-04-17T08:14:22.645Z</time></trkpt><trkpt lat="40.7258569" lon="9.6270676"><ele>169.0</ele><time>2026-04-17T08:14:23.647Z</time></trkpt><trkpt lat="40.7257731" lon="9.6269911"><ele>171.39999999999998</ele><time>2026-04-17T08:14:24.643Z</time></trkpt><trkpt lat="40.7256767" lon="9.6269152"><ele>173.8</ele><time>2026-04-17T08:14:25.644Z</time></trkpt><trkpt lat="40.7255835" lon="9.6268464"><ele>176.2</ele><time>2026-04-17T08:14:26.643Z</time></trkpt><trkpt lat="40.7254943" lon="9.6267957"><ele>178.60000000000002</ele><time>2026-04-17T08:14:27.638Z</time></trkpt><trkpt lat="40.7254376" lon="9.6267587"><ele>181.0</ele><time>2026-04-17T08:14:28.645Z</time></trkpt><trkpt lat="40.7253365" lon="9.6266597"><ele>181.0</ele><time>2026-04-17T08:14:30.643Z</time></trkpt><trkpt lat="40.7252809" lon="9.6265769"><ele>181.0</ele><time>2026-04-17T08:14:31.642Z</time></trkpt><trkpt lat="40.7252279" lon="9.6264693"><ele>181.0</ele><time>2026-04-17T08:14:32.644Z</time></trkpt><trkpt lat="40.7251887" lon="9.6263542"><ele>181.0</ele><time>2026-04-17T08:14:33.65Z</time></trkpt><trkpt lat="40.7251764" lon="9.6262298"><ele>181.0</ele><time>2026-04-17T08:14:34.65Z</time></trkpt><trkpt lat="40.7251626" lon="9.6261124"><ele>179.33333333333334</ele><time>2026-04-17T08:14:35.645Z</time></trkpt><trkpt lat="40.7251468" lon="9.6259888"><ele>177.66666666666669</ele><time>2026-04-17T08:14:36.65Z</time></trkpt><trkpt lat="40.7251236" lon="9.6258712"><ele>176.0</ele><time>2026-04-17T08:14:37.654Z</time></trkpt><trkpt lat="40.7251102" lon="9.6257455"><ele>174.33333333333334</ele><time>2026-04-17T08:14:38.651Z</time></trkpt><trkpt lat="40.7250851" lon="9.6256334"><ele>172.66666666666666</ele><time>2026-04-17T08:14:39.649Z</time></trkpt><trkpt lat="40.7250597" lon="9.6255378"><ele>171.0</ele><time>2026-04-17T08:14:40.65Z</time></trkpt><trkpt lat="40.7250373" lon="9.6254293"><ele>171.16666666666666</ele><time>2026-04-17T08:14:41.65Z</time></trkpt><trkpt lat="40.7250212" lon="9.6253083"><ele>171.33333333333334</ele><time>2026-04-17T08:14:42.663Z</time></trkpt><trkpt lat="40.7250049" lon="9.6251979"><ele>171.5</ele><time>2026-04-17T08:14:43.654Z</time></trkpt><trkpt lat="40.724988" lon="9.6250859"><ele>171.66666666666669</ele><time>2026-04-17T08:14:44.654Z</time></trkpt><trkpt lat="40.7249705" lon="9.6249783"><ele>171.83333333333334</ele><time>2026-04-17T08:14:45.651Z</time></trkpt><trkpt lat="40.7249628" lon="9.624868"><ele>172.0</ele><time>2026-04-17T08:14:46.652Z</time></trkpt><trkpt lat="40.7249528" lon="9.6247523"><ele>172.0</ele><time>2026-04-17T08:14:47.653Z</time></trkpt><trkpt lat="40.7249468" lon="9.6246442"><ele>172.0</ele><time>2026-04-17T08:14:48.65Z</time></trkpt><trkpt lat="40.7249475" lon="9.6245295"><ele>172.0</ele><time>2026-04-17T08:14:49.65Z</time></trkpt><trkpt lat="40.7249517" lon="9.6244145"><ele>172.0</ele><time>2026-04-17T08:14:50.653Z</time></trkpt><trkpt lat="40.7249636" lon="9.6243113"><ele>172.0</ele><time>2026-04-17T08:14:51.65Z</time></trkpt><trkpt lat="40.7249844" lon="9.624214"><ele>172.0</ele><time>2026-04-17T08:14:52.653Z</time></trkpt><trkpt lat="40.7250028" lon="9.6241291"><ele>170.39999999999998</ele><time>2026-04-17T08:14:53.652Z</time></trkpt><trkpt lat="40.7250697" lon="9.6240017"><ele>168.79999999999998</ele><time>2026-04-17T08:14:55.645Z</time></trkpt><trkpt lat="40.7251295" lon="9.6239579"><ele>167.2</ele><time>2026-04-17T08:14:56.648Z</time></trkpt><trkpt lat="40.7252512" lon="9.6238993"><ele>165.6</ele><time>2026-04-17T08:14:58.647Z</time></trkpt><trkpt lat="40.7253232" lon="9.6238655"><ele>164.0</ele><time>2026-04-17T08:14:59.644Z</time></trkpt><trkpt lat="40.725403" lon="9.6238283"><ele>167.0</ele><time>2026-04-17T08:15:00.642Z</time></trkpt><trkpt lat="40.7254706" lon="9.6237925"><ele>170.0</ele><time>2026-04-17T08:15:01.637Z</time></trkpt><trkpt lat="40.7255567" lon="9.6237157"><ele>173.0</ele><time>2026-04-17T08:15:03.629Z</time></trkpt><trkpt lat="40.7255278" lon="9.6236216"><ele>176.0</ele><time>2026-04-17T08:15:05.636Z</time></trkpt><trkpt lat="40.7254293" lon="9.6235865"><ele>179.0</ele><time>2026-04-17T08:15:07.634Z</time></trkpt><trkpt lat="40.7253211" lon="9.623567"><ele>179.0</ele><time>2026-04-17T08:15:09.62Z</time></trkpt><trkpt lat="40.725262" lon="9.6235357"><ele>179.0</ele><time>2026-04-17T08:15:10.628Z</time></trkpt><trkpt lat="40.7251958" lon="9.6234913"><ele>179.0</ele><time>2026-04-17T08:15:11.621Z</time></trkpt><trkpt lat="40.7251299" lon="9.623467"><ele>179.0</ele><time>2026-04-17T08:15:12.621Z</time></trkpt><trkpt lat="40.7250596" lon="9.623472"><ele>179.0</ele><time>2026-04-17T08:15:13.641Z</time></trkpt><trkpt lat="40.7249821" lon="9.6234978"><ele>179.0</ele><time>2026-04-17T08:15:14.634Z</time></trkpt><trkpt lat="40.7248688" lon="9.6235362"><ele>176.0</ele><time>2026-04-17T08:15:16.635Z</time></trkpt><trkpt lat="40.7248059" lon="9.6235771"><ele>173.0</ele><time>2026-04-17T08:15:18.639Z</time></trkpt><trkpt lat="40.7247924" lon="9.6236997"><ele>170.0</ele><time>2026-04-17T08:15:21.628Z</time></trkpt><trkpt lat="40.724737" lon="9.6238338"><ele>167.0</ele><time>2026-04-17T08:15:23.63Z</time></trkpt><trkpt lat="40.7246673" lon="9.6239336"><ele>164.0</ele><time>2026-04-17T08:15:25.64Z</time></trkpt><trkpt lat="40.7246264" lon="9.6240461"><ele>164.0</ele><time>2026-04-17T08:15:27.642Z</time></trkpt><trkpt lat="40.7245848" lon="9.6241226"><ele>164.0</ele><time>2026-04-17T08:15:28.643Z</time></trkpt><trkpt lat="40.7244934" lon="9.6242047"><ele>164.0</ele><time>2026-04-17T08:15:30.638Z</time></trkpt><trkpt lat="40.7244235" lon="9.6242009"><ele>164.0</ele><time>2026-04-17T08:15:31.646Z</time></trkpt><trkpt lat="40.7243313" lon="9.6241881"><ele>164.0</ele><time>2026-04-17T08:15:33.644Z</time></trkpt><trkpt lat="40.7242376" lon="9.6241866"><ele>164.0</ele><time>2026-04-17T08:15:35.648Z</time></trkpt><trkpt lat="40.7241529" lon="9.6241678"><ele>158.6</ele><time>2026-04-17T08:15:37.638Z</time></trkpt><trkpt lat="40.7240409" lon="9.6241528"><ele>153.2</ele><time>2026-04-17T08:15:39.646Z</time></trkpt><trkpt lat="40.7239186" lon="9.6241958"><ele>147.79999999999998</ele><time>2026-04-17T08:15:41.639Z</time></trkpt><trkpt lat="40.7238525" lon="9.624212"><ele>142.39999999999998</ele><time>2026-04-17T08:15:42.638Z</time></trkpt><trkpt lat="40.7237326" lon="9.6242048"><ele>137.0</ele><time>2026-04-17T08:15:44.647Z</time></trkpt><trkpt lat="40.723638" lon="9.6241507"><ele>135.0</ele><time>2026-04-17T08:15:46.637Z</time></trkpt><trkpt lat="40.723553" lon="9.6242116"><ele>133.0</ele><time>2026-04-17T08:15:48.643Z</time></trkpt><trkpt lat="40.7235175" lon="9.6243799"><ele>131.0</ele><time>2026-04-17T08:15:50.633Z</time></trkpt><trkpt lat="40.723516" lon="9.6244823"><ele>129.0</ele><time>2026-04-17T08:15:51.63Z</time></trkpt><trkpt lat="40.7235173" lon="9.6245974"><ele>127.0</ele><time>2026-04-17T08:15:52.633Z</time></trkpt><trkpt lat="40.7235265" lon="9.6247117"><ele>126.8</ele><time>2026-04-17T08:15:53.628Z</time></trkpt><trkpt lat="40.7235453" lon="9.6248233"><ele>126.6</ele><time>2026-04-17T08:15:54.628Z</time></trkpt><trkpt lat="40.7235657" lon="9.6249168"><ele>126.39999999999999</ele><time>2026-04-17T08:15:55.627Z</time></trkpt><trkpt lat="40.7235965" lon="9.6249982"><ele>126.19999999999999</ele><time>2026-04-17T08:15:56.63Z</time></trkpt><trkpt lat="40.7236353" lon="9.6251304"><ele>126.0</ele><time>2026-04-17T08:15:58.627Z</time></trkpt><trkpt lat="40.7236515" lon="9.6253074"><ele>127.83333333333333</ele><time>2026-04-17T08:16:00.626Z</time></trkpt><trkpt lat="40.7236539" lon="9.6253986"><ele>129.66666666666666</ele><time>2026-04-17T08:16:01.633Z</time></trkpt><trkpt lat="40.7236659" lon="9.6255023"><ele>131.5</ele><time>2026-04-17T08:16:02.627Z</time></trkpt><trkpt lat="40.7236949" lon="9.6255956"><ele>133.33333333333331</ele><time>2026-04-17T08:16:03.631Z</time></trkpt><trkpt lat="40.7237269" lon="9.6256906"><ele>135.16666666666666</ele><time>2026-04-17T08:16:04.629Z</time></trkpt><trkpt lat="40.723749" lon="9.625796"><ele>137.0</ele><time>2026-04-17T08:16:05.63Z</time></trkpt><trkpt lat="40.7237638" lon="9.6258891"><ele>137.00000000000003</ele><time>2026-04-17T08:16:06.63Z</time></trkpt><trkpt lat="40.7237643" lon="9.6259764"><ele>137.0</ele><time>2026-04-17T08:16:07.628Z</time></trkpt><trkpt lat="40.7237591" lon="9.6260644"><ele>137.0</ele><time>2026-04-17T08:16:08.629Z</time></trkpt><trkpt lat="40.7237403" lon="9.6261461"><ele>137.0</ele><time>2026-04-17T08:16:09.624Z</time></trkpt><trkpt lat="40.723711" lon="9.6262295"><ele>137.0</ele><time>2026-04-17T08:16:10.632Z</time></trkpt><trkpt lat="40.7236695" lon="9.6262991"><ele>137.00000000000003</ele><time>2026-04-17T08:16:11.627Z</time></trkpt><trkpt lat="40.7236099" lon="9.6263644"><ele>137.0</ele><time>2026-04-17T08:16:12.629Z</time></trkpt><trkpt lat="40.7235517" lon="9.6264192"><ele>133.5</ele><time>2026-04-17T08:16:13.629Z</time></trkpt><trkpt lat="40.7234615" lon="9.6264986"><ele>130.0</ele><time>2026-04-17T08:16:15.64Z</time></trkpt><trkpt lat="40.7234111" lon="9.6265576"><ele>126.5</ele><time>2026-04-17T08:16:16.624Z</time></trkpt><trkpt lat="40.7233489" lon="9.6266135"><ele>123.0</ele><time>2026-04-17T08:16:17.632Z</time></trkpt><trkpt lat="40.7232833" lon="9.6266677"><ele>119.49999999999999</ele><time>2026-04-17T08:16:18.634Z</time></trkpt><trkpt lat="40.7232119" lon="9.6267233"><ele>116.0</ele><time>2026-04-17T08:16:19.634Z</time></trkpt><trkpt lat="40.7231347" lon="9.6267699"><ele>115.99999999999999</ele><time>2026-04-17T08:16:20.634Z</time></trkpt><trkpt lat="40.7230622" lon="9.6268265"><ele>116.0</ele><time>2026-04-17T08:16:21.639Z</time></trkpt><trkpt lat="40.7229923" lon="9.6269097"><ele>116.0</ele><time>2026-04-17T08:16:22.636Z</time></trkpt><trkpt lat="40.7229308" lon="9.626993"><ele>116.0</ele><time>2026-04-17T08:16:23.637Z</time></trkpt><trkpt lat="40.7228692" lon="9.6270774"><ele>115.99999999999999</ele><time>2026-04-17T08:16:24.638Z</time></trkpt><trkpt lat="40.722815" lon="9.6271765"><ele>116.0</ele><time>2026-04-17T08:16:25.635Z</time></trkpt><trkpt lat="40.7227845" lon="9.6272769"><ele>115.66666666666666</ele><time>2026-04-17T08:16:26.636Z</time></trkpt><trkpt lat="40.7227751" lon="9.6273797"><ele>115.33333333333333</ele><time>2026-04-17T08:16:27.637Z</time></trkpt><trkpt lat="40.7227753" lon="9.6274892"><ele>115.0</ele><time>2026-04-17T08:16:28.639Z</time></trkpt><trkpt lat="40.7227861" lon="9.6276063"><ele>114.66666666666666</ele><time>2026-04-17T08:16:29.64Z</time></trkpt><trkpt lat="40.7228136" lon="9.6277165"><ele>114.33333333333333</ele><time>2026-04-17T08:16:30.637Z</time></trkpt><trkpt lat="40.7228353" lon="9.6278138"><ele>114.0</ele><time>2026-04-17T08:16:31.641Z</time></trkpt><trkpt lat="40.7228609" lon="9.6278946"><ele>114.0</ele><time>2026-04-17T08:16:32.637Z</time></trkpt><trkpt lat="40.7228766" lon="9.6279772"><ele>114.0</ele><time>2026-04-17T08:16:33.632Z</time></trkpt><trkpt lat="40.7228967" lon="9.6280561"><ele>114.0</ele><time>2026-04-17T08:16:34.633Z</time></trkpt><trkpt lat="40.7229023" lon="9.6281439"><ele>114.0</ele><time>2026-04-17T08:16:35.633Z</time></trkpt><trkpt lat="40.7229081" lon="9.6283048"><ele>114.0</ele><time>2026-04-17T08:16:37.636Z</time></trkpt><trkpt lat="40.7229148" lon="9.6283996"><ele>114.0</ele><time>2026-04-17T08:16:38.635Z</time></trkpt><trkpt lat="40.7229341" lon="9.6284975"><ele>114.0</ele><time>2026-04-17T08:16:39.632Z</time></trkpt><trkpt lat="40.7229812" lon="9.6286332"><ele>114.0</ele><time>2026-04-17T08:16:41.635Z</time></trkpt><trkpt lat="40.7230256" lon="9.628737"><ele>114.0</ele><time>2026-04-17T08:16:43.631Z</time></trkpt><trkpt lat="40.7230343" lon="9.6288471"><ele>114.0</ele><time>2026-04-17T08:16:45.634Z</time></trkpt><trkpt lat="40.7230156" lon="9.6289798"><ele>114.0</ele><time>2026-04-17T08:16:47.64Z</time></trkpt><trkpt lat="40.7230136" lon="9.6291217"><ele>113.5</ele><time>2026-04-17T08:16:49.639Z</time></trkpt><trkpt lat="40.723035" lon="9.6292877"><ele>113.0</ele><time>2026-04-17T08:16:51.637Z</time></trkpt><trkpt lat="40.723039" lon="9.6293822"><ele>112.5</ele><time>2026-04-17T08:16:52.643Z</time></trkpt><trkpt lat="40.723052" lon="9.6294805"><ele>112.0</ele><time>2026-04-17T08:16:53.641Z</time></trkpt><trkpt lat="40.7230627" lon="9.6295892"><ele>111.5</ele><time>2026-04-17T08:16:54.642Z</time></trkpt><trkpt lat="40.7230568" lon="9.6296965"><ele>111.0</ele><time>2026-04-17T08:16:55.639Z</time></trkpt><trkpt lat="40.723049" lon="9.6298049"><ele>111.0</ele><time>2026-04-17T08:16:56.633Z</time></trkpt><trkpt lat="40.7230453" lon="9.6299273"><ele>111.0</ele><time>2026-04-17T08:16:57.634Z</time></trkpt><trkpt lat="40.7230484" lon="9.6300454"><ele>111.0</ele><time>2026-04-17T08:16:58.637Z</time></trkpt><trkpt lat="40.7230527" lon="9.6301574"><ele>111.0</ele><time>2026-04-17T08:16:59.632Z</time></trkpt><trkpt lat="40.7230507" lon="9.6302769"><ele>111.0</ele><time>2026-04-17T08:17:00.637Z</time></trkpt><trkpt lat="40.7230371" lon="9.6303854"><ele>111.0</ele><time>2026-04-17T08:17:01.639Z</time></trkpt><trkpt lat="40.7230265" lon="9.6304843"><ele>110.66666666666667</ele><time>2026-04-17T08:17:02.641Z</time></trkpt><trkpt lat="40.7229982" lon="9.6305892"><ele>110.33333333333334</ele><time>2026-04-17T08:17:03.638Z</time></trkpt><trkpt lat="40.7229629" lon="9.6306955"><ele>110.0</ele><time>2026-04-17T08:17:04.633Z</time></trkpt><trkpt lat="40.7229276" lon="9.6307716"><ele>109.66666666666667</ele><time>2026-04-17T08:17:05.635Z</time></trkpt><trkpt lat="40.7228757" lon="9.630835"><ele>109.33333333333334</ele><time>2026-04-17T08:17:06.634Z</time></trkpt><trkpt lat="40.7227769" lon="9.6308934"><ele>109.0</ele><time>2026-04-17T08:17:08.636Z</time></trkpt><trkpt lat="40.722667" lon="9.6309092"><ele>109.00000000000001</ele><time>2026-04-17T08:17:10.639Z</time></trkpt><trkpt lat="40.7225826" lon="9.6309313"><ele>109.0</ele><time>2026-04-17T08:17:12.66Z</time></trkpt><trkpt lat="40.7225163" lon="9.630987"><ele>109.0</ele><time>2026-04-17T08:17:14.653Z</time></trkpt><trkpt lat="40.7224003" lon="9.6310524"><ele>109.0</ele><time>2026-04-17T08:17:16.633Z</time></trkpt><trkpt lat="40.722326" lon="9.6310617"><ele>109.00000000000001</ele><time>2026-04-17T08:17:17.652Z</time></trkpt><trkpt lat="40.7222479" lon="9.6310668"><ele>109.0</ele><time>2026-04-17T08:17:18.638Z</time></trkpt><trkpt lat="40.7221682" lon="9.6310797"><ele>109.00000000000001</ele><time>2026-04-17T08:17:19.637Z</time></trkpt><trkpt lat="40.7220976" lon="9.6311084"><ele>109.0</ele><time>2026-04-17T08:17:20.637Z</time></trkpt><trkpt lat="40.7220222" lon="9.6311434"><ele>109.0</ele><time>2026-04-17T08:17:21.636Z</time></trkpt><trkpt lat="40.7219419" lon="9.6311911"><ele>109.0</ele><time>2026-04-17T08:17:22.64Z</time></trkpt><trkpt lat="40.7218678" lon="9.6312334"><ele>109.00000000000001</ele><time>2026-04-17T08:17:23.638Z</time></trkpt><trkpt lat="40.7218103" lon="9.6312753"><ele>109.0</ele><time>2026-04-17T08:17:24.634Z</time></trkpt><trkpt lat="40.7217536" lon="9.6313334"><ele>108.33333333333334</ele><time>2026-04-17T08:17:25.636Z</time></trkpt><trkpt lat="40.7217036" lon="9.6313861"><ele>107.66666666666667</ele><time>2026-04-17T08:17:26.639Z</time></trkpt><trkpt lat="40.7216467" lon="9.6314366"><ele>107.0</ele><time>2026-04-17T08:17:27.639Z</time></trkpt><trkpt lat="40.7215858" lon="9.6314953"><ele>106.33333333333334</ele><time>2026-04-17T08:17:30.635Z</time></trkpt><trkpt lat="40.7215438" lon="9.6316204"><ele>105.66666666666667</ele><time>2026-04-17T08:24:47.654Z</time></trkpt><trkpt lat="40.7215218" lon="9.6317088"><ele>105.0</ele><time>2026-04-17T08:24:48.643Z</time></trkpt><trkpt lat="40.7214961" lon="9.6318168"><ele>105.0</ele><time>2026-04-17T08:24:50.638Z</time></trkpt><trkpt lat="40.7214818" lon="9.6319148"><ele>105.0</ele><time>2026-04-17T08:24:56.655Z</time></trkpt><trkpt lat="40.7214716" lon="9.6320155"><ele>105.0</ele><time>2026-04-17T08:25:13.662Z</time></trkpt><trkpt lat="40.7214707" lon="9.6321176"><ele>105.0</ele><time>2026-04-17T08:25:15.656Z</time></trkpt><trkpt lat="40.7214823" lon="9.6322398"><ele>105.0</ele><time>2026-04-17T08:25:17.659Z</time></trkpt><trkpt lat="40.7215191" lon="9.6323304"><ele>105.0</ele><time>2026-04-17T08:25:19.656Z</time></trkpt><trkpt lat="40.7215604" lon="9.6324233"><ele>105.0</ele><time>2026-04-17T08:25:21.652Z</time></trkpt><trkpt lat="40.7215994" lon="9.6325154"><ele>105.0</ele><time>2026-04-17T08:25:23.651Z</time></trkpt></trkseg><trkseg><trkpt lat="40.7232283" lon="9.6358003"><ele>117.0</ele><time>2026-04-17T08:26:01.644Z</time></trkpt><trkpt lat="40.7233341" lon="9.6359375"><ele>116.99999999999999</ele><time>2026-04-17T08:26:03.634Z</time></trkpt><trkpt lat="40.7234004" lon="9.636027"><ele>116.99999999999999</ele><time>2026-04-17T08:26:04.659Z</time></trkpt><trkpt lat="40.7234753" lon="9.6361164"><ele>117.0</ele><time>2026-04-17T08:26:05.642Z</time></trkpt><trkpt lat="40.7235312" lon="9.6361931"><ele>117.0</ele><time>2026-04-17T08:26:06.643Z</time></trkpt><trkpt lat="40.7235775" lon="9.6363"><ele>117.33333333333333</ele><time>2026-04-17T08:26:07.64Z</time></trkpt><trkpt lat="40.7236109" lon="9.6364085"><ele>117.66666666666666</ele><time>2026-04-17T08:26:08.639Z</time></trkpt><trkpt lat="40.7236243" lon="9.6365163"><ele>118.0</ele><time>2026-04-17T08:26:09.639Z</time></trkpt><trkpt lat="40.7236249" lon="9.6366269"><ele>118.33333333333333</ele><time>2026-04-17T08:26:10.646Z</time></trkpt><trkpt lat="40.7236363" lon="9.6367493"><ele>118.66666666666666</ele><time>2026-04-17T08:26:11.642Z</time></trkpt><trkpt lat="40.7236618" lon="9.6368651"><ele>119.0</ele><time>2026-04-17T08:26:12.641Z</time></trkpt><trkpt lat="40.7236977" lon="9.6369693"><ele>116.66666666666666</ele><time>2026-04-17T08:26:13.646Z</time></trkpt><trkpt lat="40.7237373" lon="9.6370604"><ele>114.33333333333333</ele><time>2026-04-17T08:26:14.64Z</time></trkpt><trkpt lat="40.7237729" lon="9.6371423"><ele>112.0</ele><time>2026-04-17T08:26:15.639Z</time></trkpt><trkpt lat="40.7238102" lon="9.6372315"><ele>109.66666666666666</ele><time>2026-04-17T08:26:16.648Z</time></trkpt><trkpt lat="40.7238579" lon="9.6373218"><ele>107.33333333333333</ele><time>2026-04-17T08:26:17.65Z</time></trkpt><trkpt lat="40.7238939" lon="9.6374103"><ele>105.0</ele><time>2026-04-17T08:26:18.644Z</time></trkpt><trkpt lat="40.7239255" lon="9.6374906"><ele>105.0</ele><time>2026-04-17T08:26:19.65Z</time></trkpt><trkpt lat="40.7239535" lon="9.63758"><ele>105.0</ele><time>2026-04-17T08:26:20.643Z</time></trkpt><trkpt lat="40.72396" lon="9.637672"><ele>105.0</ele><time>2026-04-17T08:26:21.637Z</time></trkpt><trkpt lat="40.7239574" lon="9.6377771"><ele>105.0</ele><time>2026-04-17T08:26:22.644Z</time></trkpt><trkpt lat="40.7239486" lon="9.6378953"><ele>105.0</ele><time>2026-04-17T08:26:23.647Z</time></trkpt><trkpt lat="40.7239345" lon="9.6380138"><ele>105.0</ele><time>2026-04-17T08:26:24.641Z</time></trkpt><trkpt lat="40.7238999" lon="9.6381239"><ele>103.4</ele><time>2026-04-17T08:26:25.648Z</time></trkpt><trkpt lat="40.7238437" lon="9.6382181"><ele>101.8</ele><time>2026-04-17T08:26:26.645Z</time></trkpt><trkpt lat="40.7237667" lon="9.6383061"><ele>100.19999999999999</ele><time>2026-04-17T08:26:27.65Z</time></trkpt><trkpt lat="40.7236945" lon="9.6383998"><ele>98.6</ele><time>2026-04-17T08:26:28.652Z</time></trkpt><trkpt lat="40.7236292" lon="9.6385051"><ele>97.0</ele><time>2026-04-17T08:26:29.643Z</time></trkpt><trkpt lat="40.7235667" lon="9.6385965"><ele>94.8</ele><time>2026-04-17T08:26:30.651Z</time></trkpt><trkpt lat="40.7235035" lon="9.6386811"><ele>92.6</ele><time>2026-04-17T08:26:31.651Z</time></trkpt><trkpt lat="40.7234343" lon="9.6387571"><ele>90.39999999999999</ele><time>2026-04-17T08:26:32.642Z</time></trkpt><trkpt lat="40.7233565" lon="9.6388406"><ele>88.19999999999999</ele><time>2026-04-17T08:26:33.647Z</time></trkpt><trkpt lat="40.7232742" lon="9.6389288"><ele>86.0</ele><time>2026-04-17T08:26:34.641Z</time></trkpt><trkpt lat="40.7232051" lon="9.6390182"><ele>86.0</ele><time>2026-04-17T08:26:35.656Z</time></trkpt><trkpt lat="40.7231536" lon="9.6391105"><ele>86.0</ele><time>2026-04-17T08:26:36.646Z</time></trkpt><trkpt lat="40.7231361" lon="9.6392174"><ele>86.0</ele><time>2026-04-17T08:26:37.648Z</time></trkpt><trkpt lat="40.7231415" lon="9.6393372"><ele>86.0</ele><time>2026-04-17T08:26:38.64Z</time></trkpt><trkpt lat="40.7231473" lon="9.6394671"><ele>86.0</ele><time>2026-04-17T08:26:39.649Z</time></trkpt><trkpt lat="40.7231584" lon="9.6395932"><ele>85.19999999999999</ele><time>2026-04-17T08:26:40.653Z</time></trkpt><trkpt lat="40.7231767" lon="9.6396979"><ele>84.39999999999999</ele><time>2026-04-17T08:26:41.654Z</time></trkpt><trkpt lat="40.7231975" lon="9.6397912"><ele>83.6</ele><time>2026-04-17T08:26:42.652Z</time></trkpt><trkpt lat="40.7232305" lon="9.639897"><ele>82.8</ele><time>2026-04-17T08:26:43.647Z</time></trkpt><trkpt lat="40.7232684" lon="9.6400277"><ele>82.0</ele><time>2026-04-17T08:26:44.654Z</time></trkpt><trkpt lat="40.7232967" lon="9.6401696"><ele>81.25</ele><time>2026-04-17T08:26:45.651Z</time></trkpt><trkpt lat="40.7233233" lon="9.6403272"><ele>80.5</ele><time>2026-04-17T08:26:46.653Z</time></trkpt><trkpt lat="40.7233483" lon="9.6405001"><ele>79.75</ele><time>2026-04-17T08:26:47.655Z</time></trkpt><trkpt lat="40.7233818" lon="9.6406676"><ele>79.0</ele><time>2026-04-17T08:26:48.652Z</time></trkpt><trkpt lat="40.7234172" lon="9.6408279"><ele>79.0</ele><time>2026-04-17T08:26:49.658Z</time></trkpt><trkpt lat="40.7234641" lon="9.640984"><ele>79.0</ele><time>2026-04-17T08:26:50.653Z</time></trkpt><trkpt lat="40.7235284" lon="9.6411472"><ele>79.0</ele><time>2026-04-17T08:26:51.649Z</time></trkpt><trkpt lat="40.7236129" lon="9.6413073"><ele>79.0</ele><time>2026-04-17T08:26:52.651Z</time></trkpt><trkpt lat="40.7237026" lon="9.6414425"><ele>78.4</ele><time>2026-04-17T08:26:53.648Z</time></trkpt><trkpt lat="40.723786" lon="9.6415569"><ele>77.80000000000001</ele><time>2026-04-17T08:26:54.653Z</time></trkpt><trkpt lat="40.7238653" lon="9.64166"><ele>77.19999999999999</ele><time>2026-04-17T08:26:55.649Z</time></trkpt><trkpt lat="40.7239356" lon="9.6417374"><ele>76.6</ele><time>2026-04-17T08:26:56.651Z</time></trkpt><trkpt lat="40.7240045" lon="9.6418092"><ele>76.0</ele><time>2026-04-17T08:26:57.651Z</time></trkpt><trkpt lat="40.7240649" lon="9.6418744"><ele>76.39999999999999</ele><time>2026-04-17T08:26:58.654Z</time></trkpt><trkpt lat="40.7241294" lon="9.6420039"><ele>76.8</ele><time>2026-04-17T08:27:00.65Z</time></trkpt><trkpt lat="40.7241243" lon="9.6420906"><ele>77.19999999999999</ele><time>2026-04-17T08:27:01.657Z</time></trkpt><trkpt lat="40.724082" lon="9.6421841"><ele>77.6</ele><time>2026-04-17T08:27:02.647Z</time></trkpt><trkpt lat="40.7240333" lon="9.6423023"><ele>78.0</ele><time>2026-04-17T08:27:03.643Z</time></trkpt><trkpt lat="40.7240249" lon="9.6424239"><ele>78.0</ele><time>2026-04-17T08:27:04.636Z</time></trkpt><trkpt lat="40.724047" lon="9.6425604"><ele>78.0</ele><time>2026-04-17T08:27:05.646Z</time></trkpt><trkpt lat="40.7240809" lon="9.6426998"><ele>78.0</ele><time>2026-04-17T08:27:06.661Z</time></trkpt><trkpt lat="40.724112" lon="9.642844"><ele>78.0</ele><time>2026-04-17T08:27:07.652Z</time></trkpt><trkpt lat="40.7241477" lon="9.6429976"><ele>79.5</ele><time>2026-04-17T08:27:08.652Z</time></trkpt><trkpt lat="40.7241867" lon="9.6431609"><ele>81.0</ele><time>2026-04-17T08:27:09.647Z</time></trkpt><trkpt lat="40.7242312" lon="9.643322"><ele>82.5</ele><time>2026-04-17T08:27:10.65Z</time></trkpt><trkpt lat="40.7242634" lon="9.6434774"><ele>84.0</ele><time>2026-04-17T08:27:11.654Z</time></trkpt><trkpt lat="40.7242908" lon="9.6436336"><ele>84.4</ele><time>2026-04-17T08:27:12.644Z</time></trkpt><trkpt lat="40.7243179" lon="9.643782"><ele>84.80000000000001</ele><time>2026-04-17T08:27:13.648Z</time></trkpt><trkpt lat="40.7243439" lon="9.6439146"><ele>85.19999999999999</ele><time>2026-04-17T08:27:14.641Z</time></trkpt><trkpt lat="40.7243603" lon="9.6440233"><ele>85.6</ele><time>2026-04-17T08:27:15.646Z</time></trkpt><trkpt lat="40.7243781" lon="9.644164"><ele>86.0</ele><time>2026-04-17T08:27:17.651Z</time></trkpt><trkpt lat="40.7244145" lon="9.6442571"><ele>84.33333333333334</ele><time>2026-04-17T08:27:19.653Z</time></trkpt><trkpt lat="40.7244814" lon="9.644353"><ele>82.66666666666667</ele><time>2026-04-17T08:27:21.644Z</time></trkpt><trkpt lat="40.7245481" lon="9.6444159"><ele>81.0</ele><time>2026-04-17T08:27:22.648Z</time></trkpt><trkpt lat="40.7246312" lon="9.6444746"><ele>79.33333333333333</ele><time>2026-04-17T08:27:23.65Z</time></trkpt><trkpt lat="40.7247085" lon="9.6445211"><ele>77.66666666666666</ele><time>2026-04-17T08:27:24.651Z</time></trkpt><trkpt lat="40.7247752" lon="9.6445658"><ele>76.0</ele><time>2026-04-17T08:27:25.659Z</time></trkpt><trkpt lat="40.7248314" lon="9.6446208"><ele>76.0</ele><time>2026-04-17T08:27:26.645Z</time></trkpt><trkpt lat="40.7248626" lon="9.6447006"><ele>76.0</ele><time>2026-04-17T08:27:27.643Z</time></trkpt><trkpt lat="40.7248705" lon="9.6448089"><ele>76.0</ele><time>2026-04-17T08:27:28.652Z</time></trkpt><trkpt lat="40.7248613" lon="9.6449388"><ele>76.0</ele><time>2026-04-17T08:27:29.653Z</time></trkpt><trkpt lat="40.7248614" lon="9.6450702"><ele>76.0</ele><time>2026-04-17T08:27:30.654Z</time></trkpt><trkpt lat="40.7248742" lon="9.645203"><ele>75.83333333333333</ele><time>2026-04-17T08:27:31.662Z</time></trkpt><trkpt lat="40.7248836" lon="9.6453312"><ele>75.66666666666666</ele><time>2026-04-17T08:27:32.658Z</time></trkpt><trkpt lat="40.7248964" lon="9.6454387"><ele>75.5</ele><time>2026-04-17T08:27:33.652Z</time></trkpt><trkpt lat="40.7249187" lon="9.6455352"><ele>75.33333333333333</ele><time>2026-04-17T08:27:34.654Z</time></trkpt><trkpt lat="40.7249333" lon="9.6456275"><ele>75.16666666666667</ele><time>2026-04-17T08:27:35.658Z</time></trkpt><trkpt lat="40.7249453" lon="9.6457229"><ele>75.0</ele><time>2026-04-17T08:27:36.674Z</time></trkpt><trkpt lat="40.7249485" lon="9.6458098"><ele>75.0</ele><time>2026-04-17T08:27:37.674Z</time></trkpt><trkpt lat="40.7249453" lon="9.6458934"><ele>75.0</ele><time>2026-04-17T08:27:38.664Z</time></trkpt><trkpt lat="40.7249324" lon="9.6459816"><ele>75.0</ele><time>2026-04-17T08:27:39.667Z</time></trkpt><trkpt lat="40.7249089" lon="9.6460658"><ele>75.0</ele><time>2026-04-17T08:27:40.667Z</time></trkpt><trkpt lat="40.7248458" lon="9.6461757"><ele>75.0</ele><time>2026-04-17T08:27:42.656Z</time></trkpt><trkpt lat="40.7247325" lon="9.6461741"><ele>75.0</ele><time>2026-04-17T08:27:44.665Z</time></trkpt><trkpt lat="40.7246567" lon="9.6461543"><ele>75.5</ele><time>2026-04-17T08:27:45.666Z</time></trkpt><trkpt lat="40.7245713" lon="9.6461542"><ele>76.0</ele><time>2026-04-17T08:27:46.667Z</time></trkpt><trkpt lat="40.7244811" lon="9.6461603"><ele>76.5</ele><time>2026-04-17T08:27:47.674Z</time></trkpt><trkpt lat="40.7244019" lon="9.6461536"><ele>77.0</ele><time>2026-04-17T08:27:48.666Z</time></trkpt><trkpt lat="40.7243225" lon="9.6461402"><ele>77.5</ele><time>2026-04-17T08:27:49.669Z</time></trkpt><trkpt lat="40.7242481" lon="9.6461223"><ele>78.0</ele><time>2026-04-17T08:27:50.663Z</time></trkpt><trkpt lat="40.7241379" lon="9.6461266"><ele>79.16666666666667</ele><time>2026-04-17T08:27:52.669Z</time></trkpt><trkpt lat="40.7240744" lon="9.6461778"><ele>80.33333333333333</ele><time>2026-04-17T08:27:54.669Z</time></trkpt><trkpt lat="40.7240596" lon="9.646298"><ele>81.5</ele><time>2026-04-17T08:27:56.663Z</time></trkpt><trkpt lat="40.7240607" lon="9.6463904"><ele>82.66666666666666</ele><time>2026-04-17T08:27:57.665Z</time></trkpt><trkpt lat="40.7240627" lon="9.6464973"><ele>83.83333333333333</ele><time>2026-04-17T08:27:58.671Z</time></trkpt><trkpt lat="40.7240668" lon="9.646613"><ele>85.0</ele><time>2026-04-17T08:27:59.67Z</time></trkpt><trkpt lat="40.7240716" lon="9.6467338"><ele>85.0</ele><time>2026-04-17T08:28:00.668Z</time></trkpt><trkpt lat="40.7240731" lon="9.6468497"><ele>85.0</ele><time>2026-04-17T08:28:01.666Z</time></trkpt><trkpt lat="40.7240753" lon="9.6469495"><ele>85.0</ele><time>2026-04-17T08:28:02.663Z</time></trkpt><trkpt lat="40.7240804" lon="9.6470709"><ele>85.0</ele><time>2026-04-17T08:28:04.666Z</time></trkpt><trkpt lat="40.724083" lon="9.6471673"><ele>85.0</ele><time>2026-04-17T08:28:07.673Z</time></trkpt><trkpt lat="40.7240298" lon="9.6472769"><ele>85.0</ele><time>2026-04-17T08:28:09.661Z</time></trkpt><trkpt lat="40.7239851" lon="9.647351"><ele>86.0</ele><time>2026-04-17T08:28:10.668Z</time></trkpt><trkpt lat="40.7239426" lon="9.6474356"><ele>87.0</ele><time>2026-04-17T08:28:11.667Z</time></trkpt><trkpt lat="40.7238952" lon="9.6475379"><ele>88.0</ele><time>2026-04-17T08:28:12.666Z</time></trkpt><trkpt lat="40.7238466" lon="9.6476469"><ele>89.0</ele><time>2026-04-17T08:28:13.669Z</time></trkpt><trkpt lat="40.7238001" lon="9.6477546"><ele>90.0</ele><time>2026-04-17T08:28:14.737Z</time></trkpt><trkpt lat="40.7237588" lon="9.6478435"><ele>91.0</ele><time>2026-04-17T08:28:15.656Z</time></trkpt><trkpt lat="40.7237216" lon="9.6479184"><ele>92.33333333333333</ele><time>2026-04-17T08:28:16.657Z</time></trkpt><trkpt lat="40.7236833" lon="9.6479976"><ele>93.66666666666666</ele><time>2026-04-17T08:28:17.655Z</time></trkpt><trkpt lat="40.7236397" lon="9.6480847"><ele>95.0</ele><time>2026-04-17T08:28:18.657Z</time></trkpt><trkpt lat="40.723594" lon="9.6481774"><ele>96.33333333333333</ele><time>2026-04-17T08:28:19.659Z</time></trkpt><trkpt lat="40.723548" lon="9.6482745"><ele>97.66666666666667</ele><time>2026-04-17T08:28:20.653Z</time></trkpt><trkpt lat="40.7235007" lon="9.6483759"><ele>99.0</ele><time>2026-04-17T08:28:21.66Z</time></trkpt><trkpt lat="40.7234585" lon="9.6484724"><ele>99.33333333333333</ele><time>2026-04-17T08:28:22.662Z</time></trkpt><trkpt lat="40.7234216" lon="9.6485708"><ele>99.66666666666666</ele><time>2026-04-17T08:28:23.661Z</time></trkpt><trkpt lat="40.7233887" lon="9.6486813"><ele>100.0</ele><time>2026-04-17T08:28:24.658Z</time></trkpt><trkpt lat="40.723372" lon="9.6487821"><ele>100.33333333333333</ele><time>2026-04-17T08:28:25.66Z</time></trkpt><trkpt lat="40.7233667" lon="9.6488879"><ele>100.66666666666666</ele><time>2026-04-17T08:28:26.659Z</time></trkpt><trkpt lat="40.7233524" lon="9.6489931"><ele>101.0</ele><time>2026-04-17T08:28:27.659Z</time></trkpt><trkpt lat="40.7233287" lon="9.6490995"><ele>103.49999999999999</ele><time>2026-04-17T08:28:28.659Z</time></trkpt><trkpt lat="40.723302" lon="9.6492009"><ele>106.0</ele><time>2026-04-17T08:28:29.657Z</time></trkpt><trkpt lat="40.7232726" lon="9.6493002"><ele>108.5</ele><time>2026-04-17T08:28:30.66Z</time></trkpt><trkpt lat="40.7232406" lon="9.6493959"><ele>111.0</ele><time>2026-04-17T08:28:31.662Z</time></trkpt><trkpt lat="40.7232109" lon="9.6494934"><ele>113.49999999999999</ele><time>2026-04-17T08:28:32.658Z</time></trkpt><trkpt lat="40.7231874" lon="9.6495916"><ele>116.0</ele><time>2026-04-17T08:28:33.66Z</time></trkpt><trkpt lat="40.7231646" lon="9.649693"><ele>118.6</ele><time>2026-04-17T08:28:34.66Z</time></trkpt><trkpt lat="40.7231423" lon="9.6498099"><ele>121.19999999999999</ele><time>2026-04-17T08:28:35.648Z</time></trkpt><trkpt lat="40.7231156" lon="9.6499309"><ele>123.80000000000001</ele><time>2026-04-17T08:28:36.653Z</time></trkpt><trkpt lat="40.7230939" lon="9.6500573"><ele>126.4</ele><time>2026-04-17T08:28:37.658Z</time></trkpt><trkpt lat="40.7230714" lon="9.6501883"><ele>129.0</ele><time>2026-04-17T08:28:38.659Z</time></trkpt><trkpt lat="40.7230504" lon="9.6503062"><ele>130.83333333333334</ele><time>2026-04-17T08:28:39.674Z</time></trkpt><trkpt lat="40.7230312" lon="9.6504119"><ele>132.66666666666666</ele><time>2026-04-17T08:28:40.66Z</time></trkpt><trkpt lat="40.7230111" lon="9.6505255"><ele>134.5</ele><time>2026-04-17T08:28:41.655Z</time></trkpt><trkpt lat="40.7229943" lon="9.650639"><ele>136.33333333333331</ele><time>2026-04-17T08:28:42.655Z</time></trkpt><trkpt lat="40.7229761" lon="9.6507322"><ele>138.16666666666666</ele><time>2026-04-17T08:28:43.65Z</time></trkpt><trkpt lat="40.7229637" lon="9.6508209"><ele>140.0</ele><time>2026-04-17T08:28:44.658Z</time></trkpt><trkpt lat="40.7229523" lon="9.6509077"><ele>140.0</ele><time>2026-04-17T08:28:45.652Z</time></trkpt><trkpt lat="40.7229394" lon="9.6510691"><ele>140.0</ele><time>2026-04-17T08:28:47.663Z</time></trkpt><trkpt lat="40.7228969" lon="9.651215"><ele>140.0</ele><time>2026-04-17T08:28:49.668Z</time></trkpt><trkpt lat="40.7228606" lon="9.6512844"><ele>140.0</ele><time>2026-04-17T08:28:50.662Z</time></trkpt><trkpt lat="40.722768" lon="9.6514117"><ele>140.0</ele><time>2026-04-17T08:28:52.666Z</time></trkpt><trkpt lat="40.7227117" lon="9.6514841"><ele>141.83333333333331</ele><time>2026-04-17T08:28:53.664Z</time></trkpt><trkpt lat="40.722653" lon="9.6515623"><ele>143.66666666666666</ele><time>2026-04-17T08:28:54.668Z</time></trkpt><trkpt lat="40.7225972" lon="9.6516389"><ele>145.5</ele><time>2026-04-17T08:28:55.667Z</time></trkpt><trkpt lat="40.722544" lon="9.6517115"><ele>147.33333333333334</ele><time>2026-04-17T08:28:56.665Z</time></trkpt><trkpt lat="40.7224918" lon="9.6517803"><ele>149.16666666666669</ele><time>2026-04-17T08:28:57.662Z</time></trkpt><trkpt lat="40.7224089" lon="9.6518712"><ele>151.0</ele><time>2026-04-17T08:28:59.663Z</time></trkpt><trkpt lat="40.7223563" lon="9.6519588"><ele>151.0</ele><time>2026-04-17T08:29:01.662Z</time></trkpt><trkpt lat="40.7223122" lon="9.6520588"><ele>151.0</ele><time>2026-04-17T08:29:03.67Z</time></trkpt><trkpt lat="40.7222662" lon="9.6521557"><ele>151.0</ele><time>2026-04-17T08:29:05.669Z</time></trkpt><trkpt lat="40.7222026" lon="9.6522347"><ele>151.0</ele><time>2026-04-17T08:29:07.667Z</time></trkpt><trkpt lat="40.7221145" lon="9.6523059"><ele>151.0</ele><time>2026-04-17T08:29:09.663Z</time></trkpt><trkpt lat="40.7220196" lon="9.6523761"><ele>151.0</ele><time>2026-04-17T08:29:11.656Z</time></trkpt><trkpt lat="40.7219447" lon="9.6524309"><ele>151.0</ele><time>2026-04-17T08:29:13.661Z</time></trkpt><trkpt lat="40.7218565" lon="9.6524701"><ele>151.0</ele><time>2026-04-17T08:29:15.662Z</time></trkpt><trkpt lat="40.7217652" lon="9.6524809"><ele>151.0</ele><time>2026-04-17T08:29:17.664Z</time></trkpt><trkpt lat="40.7216624" lon="9.6524555"><ele>151.0</ele><time>2026-04-17T08:29:19.656Z</time></trkpt><trkpt lat="40.7215593" lon="9.6524284"><ele>150.6</ele><time>2026-04-17T08:29:21.651Z</time></trkpt><trkpt lat="40.7214888" lon="9.6524456"><ele>150.2</ele><time>2026-04-17T08:29:22.652Z</time></trkpt><trkpt lat="40.7214227" lon="9.6524734"><ele>149.8</ele><time>2026-04-17T08:29:23.649Z</time></trkpt><trkpt lat="40.7213185" lon="9.6525357"><ele>149.4</ele><time>2026-04-17T08:29:25.652Z</time></trkpt><trkpt lat="40.7212311" lon="9.6525896"><ele>149.0</ele><time>2026-04-17T08:29:27.653Z</time></trkpt><trkpt lat="40.7211319" lon="9.6526371"><ele>147.8</ele><time>2026-04-17T08:29:29.652Z</time></trkpt><trkpt lat="40.7210187" lon="9.652672"><ele>146.60000000000002</ele><time>2026-04-17T08:29:31.66Z</time></trkpt><trkpt lat="40.7209556" lon="9.6526732"><ele>145.4</ele><time>2026-04-17T08:29:32.656Z</time></trkpt><trkpt lat="40.7208431" lon="9.6526609"><ele>144.20000000000002</ele><time>2026-04-17T08:29:34.653Z</time></trkpt><trkpt lat="40.7207551" lon="9.6526394"><ele>143.0</ele><time>2026-04-17T08:29:36.658Z</time></trkpt><trkpt lat="40.7206689" lon="9.6525698"><ele>143.0</ele><time>2026-04-17T08:29:38.651Z</time></trkpt><trkpt lat="40.7205914" lon="9.6524851"><ele>143.0</ele><time>2026-04-17T08:29:40.645Z</time></trkpt><trkpt lat="40.7205359" lon="9.6524438"><ele>143.0</ele><time>2026-04-17T08:29:41.664Z</time></trkpt><trkpt lat="40.7204752" lon="9.6524038"><ele>143.0</ele><time>2026-04-17T08:29:42.653Z</time></trkpt><trkpt lat="40.7204168" lon="9.6523683"><ele>143.0</ele><time>2026-04-17T08:29:43.643Z</time></trkpt><trkpt lat="40.7203021" lon="9.6523544"><ele>143.0</ele><time>2026-04-17T08:29:45.65Z</time></trkpt><trkpt lat="40.7201878" lon="9.6523435"><ele>139.6</ele><time>2026-04-17T08:29:47.649Z</time></trkpt><trkpt lat="40.7200678" lon="9.6523582"><ele>136.20000000000002</ele><time>2026-04-17T08:29:49.649Z</time></trkpt><trkpt lat="40.7199982" lon="9.6523743"><ele>132.8</ele><time>2026-04-17T08:29:50.651Z</time></trkpt><trkpt lat="40.7199301" lon="9.6523948"><ele>129.4</ele><time>2026-04-17T08:29:51.649Z</time></trkpt><trkpt lat="40.7198659" lon="9.6524106"><ele>126.0</ele><time>2026-04-17T08:29:52.653Z</time></trkpt><trkpt lat="40.7197376" lon="9.6524409"><ele>126.0</ele><time>2026-04-17T08:29:54.653Z</time></trkpt><trkpt lat="40.7196628" lon="9.6524506"><ele>126.0</ele><time>2026-04-17T08:29:55.654Z</time></trkpt><trkpt lat="40.7195876" lon="9.652451"><ele>126.0</ele><time>2026-04-17T08:29:56.649Z</time></trkpt><trkpt lat="40.7195188" lon="9.6524545"><ele>126.0</ele><time>2026-04-17T08:29:57.651Z</time></trkpt><trkpt lat="40.7194022" lon="9.6524697"><ele>126.0</ele><time>2026-04-17T08:29:59.653Z</time></trkpt><trkpt lat="40.7192989" lon="9.6524884"><ele>126.0</ele><time>2026-04-17T08:30:01.658Z</time></trkpt><trkpt lat="40.7192039" lon="9.6524731"><ele>124.6</ele><time>2026-04-17T08:30:03.657Z</time></trkpt><trkpt lat="40.7190972" lon="9.6524595"><ele>123.19999999999999</ele><time>2026-04-17T08:30:05.664Z</time></trkpt><trkpt lat="40.7190092" lon="9.6525186"><ele>121.80000000000001</ele><time>2026-04-17T08:30:07.661Z</time></trkpt><trkpt lat="40.7189324" lon="9.652603"><ele>120.4</ele><time>2026-04-17T08:30:09.665Z</time></trkpt><trkpt lat="40.7188226" lon="9.6526075"><ele>119.0</ele><time>2026-04-17T08:30:11.663Z</time></trkpt><trkpt lat="40.7187004" lon="9.6526313"><ele>119.0</ele><time>2026-04-17T08:30:13.661Z</time></trkpt><trkpt lat="40.7185775" lon="9.6526042"><ele>119.0</ele><time>2026-04-17T08:30:15.651Z</time></trkpt><trkpt lat="40.7185065" lon="9.652566"><ele>119.0</ele><time>2026-04-17T08:30:16.654Z</time></trkpt><trkpt lat="40.7184282" lon="9.6525051"><ele>119.0</ele><time>2026-04-17T08:30:17.655Z</time></trkpt><trkpt lat="40.7183635" lon="9.6524733"><ele>119.0</ele><time>2026-04-17T08:30:18.65Z</time></trkpt><trkpt lat="40.7182721" lon="9.6524664"><ele>118.33333333333333</ele><time>2026-04-17T08:30:20.65Z</time></trkpt><trkpt lat="40.718205" lon="9.6524835"><ele>117.66666666666666</ele><time>2026-04-17T08:30:23.66Z</time></trkpt><trkpt lat="40.7181533" lon="9.6525636"><ele>117.0</ele><time>2026-04-17T08:30:26.663Z</time></trkpt><trkpt lat="40.7181778" lon="9.6526606"><ele>116.33333333333334</ele><time>2026-04-17T08:31:03.665Z</time></trkpt><trkpt lat="40.7181373" lon="9.6527534"><ele>115.66666666666667</ele><time>2026-04-17T08:31:06.667Z</time></trkpt><trkpt lat="40.7180549" lon="9.6527837"><ele>115.0</ele><time>2026-04-17T08:31:08.662Z</time></trkpt><trkpt lat="40.7179922" lon="9.6526936"><ele>115.0</ele><time>2026-04-17T08:31:12.652Z</time></trkpt><trkpt lat="40.7179761" lon="9.6525352"><ele>115.0</ele><time>2026-04-17T08:31:14.663Z</time></trkpt><trkpt lat="40.7179597" lon="9.6524295"><ele>115.0</ele><time>2026-04-17T08:31:15.652Z</time></trkpt><trkpt lat="40.7178987" lon="9.6523073"><ele>115.0</ele><time>2026-04-17T08:31:16.644Z</time></trkpt><trkpt lat="40.7178156" lon="9.6522024"><ele>115.0</ele><time>2026-04-17T08:31:17.648Z</time></trkpt><trkpt lat="40.7177182" lon="9.6521361"><ele>115.4</ele><time>2026-04-17T08:31:18.649Z</time></trkpt><trkpt lat="40.7176174" lon="9.6520847"><ele>115.8</ele><time>2026-04-17T08:31:19.65Z</time></trkpt><trkpt lat="40.7175378" lon="9.6520115"><ele>116.19999999999999</ele><time>2026-04-17T08:31:20.652Z</time></trkpt><trkpt lat="40.7174691" lon="9.6519408"><ele>116.6</ele><time>2026-04-17T08:31:21.646Z</time></trkpt><trkpt lat="40.717396" lon="9.6518857"><ele>117.0</ele><time>2026-04-17T08:31:22.652Z</time></trkpt><trkpt lat="40.7173231" lon="9.6518545"><ele>117.0</ele><time>2026-04-17T08:31:23.651Z</time></trkpt><trkpt lat="40.7172522" lon="9.6518395"><ele>117.00000000000001</ele><time>2026-04-17T08:31:24.654Z</time></trkpt><trkpt lat="40.7171889" lon="9.6518255"><ele>117.0</ele><time>2026-04-17T08:31:25.659Z</time></trkpt><trkpt lat="40.717124" lon="9.6518178"><ele>117.0</ele><time>2026-04-17T08:31:26.659Z</time></trkpt><trkpt lat="40.7170554" lon="9.6518063"><ele>117.00000000000001</ele><time>2026-04-17T08:31:27.658Z</time></trkpt><trkpt lat="40.7169825" lon="9.6517934"><ele>117.0</ele><time>2026-04-17T08:31:28.656Z</time></trkpt><trkpt lat="40.7169183" lon="9.6517942"><ele>117.0</ele><time>2026-04-17T08:31:29.659Z</time></trkpt><trkpt lat="40.7168052" lon="9.6518427"><ele>117.0</ele><time>2026-04-17T08:31:31.663Z</time></trkpt><trkpt lat="40.716712" lon="9.6519389"><ele>117.0</ele><time>2026-04-17T08:31:33.652Z</time></trkpt><trkpt lat="40.7166743" lon="9.6520164"><ele>117.0</ele><time>2026-04-17T08:31:34.652Z</time></trkpt><trkpt lat="40.7166477" lon="9.6521"><ele>117.0</ele><time>2026-04-17T08:31:35.66Z</time></trkpt><trkpt lat="40.7166217" lon="9.6521813"><ele>117.0</ele><time>2026-04-17T08:31:36.651Z</time></trkpt><trkpt lat="40.7165884" lon="9.6522532"><ele>117.0</ele><time>2026-04-17T08:31:37.654Z</time></trkpt><trkpt lat="40.7165068" lon="9.6523681"><ele>114.66666666666667</ele><time>2026-04-17T08:31:39.656Z</time></trkpt><trkpt lat="40.7164496" lon="9.6524181"><ele>112.33333333333334</ele><time>2026-04-17T08:31:40.659Z</time></trkpt><trkpt lat="40.7163846" lon="9.6524599"><ele>110.0</ele><time>2026-04-17T08:31:41.658Z</time></trkpt><trkpt lat="40.7163104" lon="9.6524979"><ele>107.66666666666667</ele><time>2026-04-17T08:31:42.66Z</time></trkpt><trkpt lat="40.7162399" lon="9.6525381"><ele>105.33333333333334</ele><time>2026-04-17T08:31:43.661Z</time></trkpt><trkpt lat="40.716165" lon="9.6525922"><ele>103.0</ele><time>2026-04-17T08:31:44.659Z</time></trkpt><trkpt lat="40.716089" lon="9.6526385"><ele>102.83333333333334</ele><time>2026-04-17T08:31:45.671Z</time></trkpt><trkpt lat="40.7160123" lon="9.6526601"><ele>102.66666666666667</ele><time>2026-04-17T08:31:46.658Z</time></trkpt><trkpt lat="40.715933" lon="9.6526588"><ele>102.5</ele><time>2026-04-17T08:31:47.652Z</time></trkpt><trkpt lat="40.7158493" lon="9.6526402"><ele>102.33333333333334</ele><time>2026-04-17T08:31:48.656Z</time></trkpt><trkpt lat="40.7157693" lon="9.6526176"><ele>102.16666666666667</ele><time>2026-04-17T08:31:49.656Z</time></trkpt><trkpt lat="40.7156971" lon="9.652594"><ele>102.0</ele><time>2026-04-17T08:31:50.657Z</time></trkpt><trkpt lat="40.7156132" lon="9.65257"><ele>102.0</ele><time>2026-04-17T08:31:51.656Z</time></trkpt><trkpt lat="40.7155297" lon="9.6525275"><ele>102.0</ele><time>2026-04-17T08:31:52.656Z</time></trkpt><trkpt lat="40.7154622" lon="9.6524821"><ele>102.0</ele><time>2026-04-17T08:31:53.658Z</time></trkpt><trkpt lat="40.7153994" lon="9.6524621"><ele>102.0</ele><time>2026-04-17T08:31:54.657Z</time></trkpt><trkpt lat="40.7152804" lon="9.6524485"><ele>102.0</ele><time>2026-04-17T08:31:56.656Z</time></trkpt><trkpt lat="40.7151593" lon="9.6524705"><ele>101.19999999999999</ele><time>2026-04-17T08:31:58.659Z</time></trkpt><trkpt lat="40.7150556" lon="9.6525113"><ele>100.4</ele><time>2026-04-17T08:32:00.652Z</time></trkpt><trkpt lat="40.7149377" lon="9.6525573"><ele>99.6</ele><time>2026-04-17T08:32:02.653Z</time></trkpt><trkpt lat="40.7148689" lon="9.6525668"><ele>98.80000000000001</ele><time>2026-04-17T08:32:03.646Z</time></trkpt><trkpt lat="40.7147888" lon="9.6525579"><ele>98.0</ele><time>2026-04-17T08:32:04.653Z</time></trkpt><trkpt lat="40.7147031" lon="9.6525559"><ele>97.99999999999999</ele><time>2026-04-17T08:32:05.653Z</time></trkpt><trkpt lat="40.7146201" lon="9.6525656"><ele>98.0</ele><time>2026-04-17T08:32:06.652Z</time></trkpt><trkpt lat="40.7145407" lon="9.6525797"><ele>98.0</ele><time>2026-04-17T08:32:07.653Z</time></trkpt><trkpt lat="40.7144513" lon="9.6525857"><ele>98.0</ele><time>2026-04-17T08:32:08.648Z</time></trkpt><trkpt lat="40.7143732" lon="9.6525855"><ele>97.99999999999999</ele><time>2026-04-17T08:32:09.655Z</time></trkpt><trkpt lat="40.7142854" lon="9.6525805"><ele>98.0</ele><time>2026-04-17T08:32:10.653Z</time></trkpt><trkpt lat="40.7141986" lon="9.652561"><ele>97.0</ele><time>2026-04-17T08:32:11.657Z</time></trkpt><trkpt lat="40.7141177" lon="9.6525341"><ele>96.0</ele><time>2026-04-17T08:32:12.648Z</time></trkpt><trkpt lat="40.7140465" lon="9.6524864"><ele>95.0</ele><time>2026-04-17T08:32:13.655Z</time></trkpt><trkpt lat="40.7139705" lon="9.6524107"><ele>94.0</ele><time>2026-04-17T08:32:14.643Z</time></trkpt><trkpt lat="40.7138944" lon="9.6523107"><ele>93.0</ele><time>2026-04-17T08:32:15.649Z</time></trkpt><trkpt lat="40.7138212" lon="9.6522052"><ele>93.0</ele><time>2026-04-17T08:32:16.667Z</time></trkpt><trkpt lat="40.7137437" lon="9.6520955"><ele>93.0</ele><time>2026-04-17T08:32:17.654Z</time></trkpt><trkpt lat="40.7136577" lon="9.6519928"><ele>93.0</ele><time>2026-04-17T08:32:18.653Z</time></trkpt><trkpt lat="40.7135616" lon="9.651899"><ele>93.0</ele><time>2026-04-17T08:32:19.651Z</time></trkpt><trkpt lat="40.7134603" lon="9.6518206"><ele>93.4</ele><time>2026-04-17T08:32:20.651Z</time></trkpt><trkpt lat="40.7133643" lon="9.6517626"><ele>93.80000000000001</ele><time>2026-04-17T08:32:21.649Z</time></trkpt><trkpt lat="40.7132761" lon="9.6517094"><ele>94.2</ele><time>2026-04-17T08:32:22.656Z</time></trkpt><trkpt lat="40.7131924" lon="9.6516611"><ele>94.6</ele><time>2026-04-17T08:32:23.653Z</time></trkpt><trkpt lat="40.713105" lon="9.6516088"><ele>95.0</ele><time>2026-04-17T08:32:24.656Z</time></trkpt><trkpt lat="40.7130372" lon="9.6515494"><ele>95.0</ele><time>2026-04-17T08:32:25.658Z</time></trkpt><trkpt lat="40.712977" lon="9.6514736"><ele>95.0</ele><time>2026-04-17T08:32:26.653Z</time></trkpt><trkpt lat="40.7129308" lon="9.6513677"><ele>95.0</ele><time>2026-04-17T08:32:27.663Z</time></trkpt><trkpt lat="40.7128804" lon="9.6512591"><ele>95.0</ele><time>2026-04-17T08:32:28.661Z</time></trkpt><trkpt lat="40.7128299" lon="9.6511578"><ele>95.0</ele><time>2026-04-17T08:32:29.662Z</time></trkpt><trkpt lat="40.7127832" lon="9.6510736"><ele>95.0</ele><time>2026-04-17T08:32:30.661Z</time></trkpt><trkpt lat="40.7127511" lon="9.6509856"><ele>95.66666666666667</ele><time>2026-04-17T08:32:31.659Z</time></trkpt><trkpt lat="40.7127399" lon="9.6508983"><ele>96.33333333333334</ele><time>2026-04-17T08:32:32.661Z</time></trkpt><trkpt lat="40.7128064" lon="9.6507675"><ele>97.0</ele><time>2026-04-17T08:32:34.661Z</time></trkpt><trkpt lat="40.7128472" lon="9.6506995"><ele>97.66666666666667</ele><time>2026-04-17T08:32:35.649Z</time></trkpt><trkpt lat="40.7129135" lon="9.6506051"><ele>98.33333333333333</ele><time>2026-04-17T08:32:36.648Z</time></trkpt><trkpt lat="40.7129871" lon="9.6505183"><ele>99.0</ele><time>2026-04-17T08:32:37.657Z</time></trkpt><trkpt lat="40.713058" lon="9.650447"><ele>99.0</ele><time>2026-04-17T08:32:38.657Z</time></trkpt><trkpt lat="40.7131198" lon="9.6503706"><ele>99.0</ele><time>2026-04-17T08:32:39.655Z</time></trkpt><trkpt lat="40.7131543" lon="9.6502996"><ele>99.0</ele><time>2026-04-17T08:32:40.652Z</time></trkpt><trkpt lat="40.7131394" lon="9.6501534"><ele>99.0</ele><time>2026-04-17T08:32:42.66Z</time></trkpt><trkpt lat="40.7130905" lon="9.6500177"><ele>99.0</ele><time>2026-04-17T08:32:44.659Z</time></trkpt><trkpt lat="40.7130442" lon="9.6499542"><ele>99.0</ele><time>2026-04-17T08:32:45.66Z</time></trkpt><trkpt lat="40.7129868" lon="9.6498811"><ele>100.33333333333333</ele><time>2026-04-17T08:32:46.661Z</time></trkpt><trkpt lat="40.7129303" lon="9.6497976"><ele>101.66666666666666</ele><time>2026-04-17T08:32:47.679Z</time></trkpt><trkpt lat="40.7128747" lon="9.6497036"><ele>103.0</ele><time>2026-04-17T08:32:48.661Z</time></trkpt><trkpt lat="40.7128156" lon="9.6496028"><ele>104.33333333333333</ele><time>2026-04-17T08:32:49.66Z</time></trkpt><trkpt lat="40.7127533" lon="9.6495145"><ele>105.66666666666666</ele><time>2026-04-17T08:32:50.662Z</time></trkpt><trkpt lat="40.712697" lon="9.6494311"><ele>107.0</ele><time>2026-04-17T08:32:51.662Z</time></trkpt><trkpt lat="40.7126512" lon="9.649338"><ele>107.99999999999999</ele><time>2026-04-17T08:32:52.664Z</time></trkpt><trkpt lat="40.7126165" lon="9.6492523"><ele>109.0</ele><time>2026-04-17T08:32:53.656Z</time></trkpt><trkpt lat="40.7125825" lon="9.6491725"><ele>110.0</ele><time>2026-04-17T08:32:54.66Z</time></trkpt><trkpt lat="40.7124878" lon="9.6490893"><ele>111.0</ele><time>2026-04-17T08:32:56.662Z</time></trkpt><trkpt lat="40.7124251" lon="9.6490527"><ele>111.99999999999999</ele><time>2026-04-17T08:32:57.662Z</time></trkpt><trkpt lat="40.7123417" lon="9.64901"><ele>113.0</ele><time>2026-04-17T08:32:58.664Z</time></trkpt><trkpt lat="40.7122504" lon="9.6489722"><ele>113.0</ele><time>2026-04-17T08:32:59.659Z</time></trkpt><trkpt lat="40.7121696" lon="9.6489309"><ele>113.00000000000001</ele><time>2026-04-17T08:33:00.664Z</time></trkpt><trkpt lat="40.7120815" lon="9.6488832"><ele>113.00000000000001</ele><time>2026-04-17T08:33:01.668Z</time></trkpt><trkpt lat="40.7119981" lon="9.6488158"><ele>113.0</ele><time>2026-04-17T08:33:02.663Z</time></trkpt><trkpt lat="40.7119129" lon="9.6487222"><ele>113.0</ele><time>2026-04-17T08:33:03.652Z</time></trkpt><trkpt lat="40.7118385" lon="9.648611"><ele>114.2</ele><time>2026-04-17T08:33:04.647Z</time></trkpt><trkpt lat="40.7117741" lon="9.6484902"><ele>115.4</ele><time>2026-04-17T08:33:05.645Z</time></trkpt><trkpt lat="40.7117308" lon="9.6483732"><ele>116.60000000000001</ele><time>2026-04-17T08:33:06.651Z</time></trkpt><trkpt lat="40.7116874" lon="9.6482397"><ele>117.80000000000001</ele><time>2026-04-17T08:33:07.659Z</time></trkpt><trkpt lat="40.7116434" lon="9.6480814"><ele>119.0</ele><time>2026-04-17T08:33:08.653Z</time></trkpt><trkpt lat="40.7115885" lon="9.6479159"><ele>120.0</ele><time>2026-04-17T08:33:09.657Z</time></trkpt><trkpt lat="40.7115265" lon="9.6477934"><ele>121.0</ele><time>2026-04-17T08:33:10.642Z</time></trkpt><trkpt lat="40.7114572" lon="9.6476924"><ele>122.0</ele><time>2026-04-17T08:33:11.651Z</time></trkpt><trkpt lat="40.7113863" lon="9.6476371"><ele>123.0</ele><time>2026-04-17T08:33:12.647Z</time></trkpt><trkpt lat="40.711295" lon="9.6476107"><ele>124.0</ele><time>2026-04-17T08:33:13.649Z</time></trkpt><trkpt lat="40.7111912" lon="9.6476083"><ele>124.0</ele><time>2026-04-17T08:33:14.635Z</time></trkpt><trkpt lat="40.711084" lon="9.6476232"><ele>124.0</ele><time>2026-04-17T08:33:15.648Z</time></trkpt><trkpt lat="40.7109694" lon="9.6476439"><ele>124.0</ele><time>2026-04-17T08:33:16.656Z</time></trkpt><trkpt lat="40.7108651" lon="9.6476572"><ele>124.0</ele><time>2026-04-17T08:33:17.656Z</time></trkpt><trkpt lat="40.7107775" lon="9.6476686"><ele>124.0</ele><time>2026-04-17T08:33:18.667Z</time></trkpt><trkpt lat="40.7106895" lon="9.6476664"><ele>123.16666666666667</ele><time>2026-04-17T08:33:19.653Z</time></trkpt><trkpt lat="40.7106106" lon="9.647649"><ele>122.33333333333334</ele><time>2026-04-17T08:33:20.653Z</time></trkpt><trkpt lat="40.7105415" lon="9.6476117"><ele>121.5</ele><time>2026-04-17T08:33:21.647Z</time></trkpt><trkpt lat="40.7104685" lon="9.6475401"><ele>120.66666666666666</ele><time>2026-04-17T08:33:22.652Z</time></trkpt><trkpt lat="40.7104069" lon="9.6474509"><ele>119.83333333333333</ele><time>2026-04-17T08:33:23.649Z</time></trkpt><trkpt lat="40.7103488" lon="9.6473513"><ele>119.0</ele><time>2026-04-17T08:33:24.642Z</time></trkpt><trkpt lat="40.7102997" lon="9.6472294"><ele>119.0</ele><time>2026-04-17T08:33:25.654Z</time></trkpt><trkpt lat="40.7102625" lon="9.6470959"><ele>119.0</ele><time>2026-04-17T08:33:26.645Z</time></trkpt><trkpt lat="40.7102437" lon="9.6469669"><ele>119.0</ele><time>2026-04-17T08:33:27.641Z</time></trkpt><trkpt lat="40.7102494" lon="9.6468224"><ele>119.0</ele><time>2026-04-17T08:33:28.649Z</time></trkpt><trkpt lat="40.7102643" lon="9.6466835"><ele>119.0</ele><time>2026-04-17T08:33:29.648Z</time></trkpt><trkpt lat="40.710282" lon="9.6465646"><ele>120.4</ele><time>2026-04-17T08:33:30.643Z</time></trkpt><trkpt lat="40.7102905" lon="9.6464441"><ele>121.80000000000001</ele><time>2026-04-17T08:33:31.656Z</time></trkpt><trkpt lat="40.7102873" lon="9.6463157"><ele>123.19999999999999</ele><time>2026-04-17T08:33:32.652Z</time></trkpt><trkpt lat="40.7102685" lon="9.6461748"><ele>124.6</ele><time>2026-04-17T08:33:33.652Z</time></trkpt><trkpt lat="40.7102415" lon="9.6460519"><ele>126.0</ele><time>2026-04-17T08:33:34.652Z</time></trkpt><trkpt lat="40.7102032" lon="9.6459544"><ele>126.0</ele><time>2026-04-17T08:33:35.65Z</time></trkpt><trkpt lat="40.710149" lon="9.6458803"><ele>126.0</ele><time>2026-04-17T08:33:36.649Z</time></trkpt><trkpt lat="40.7100872" lon="9.6458176"><ele>126.0</ele><time>2026-04-17T08:33:37.652Z</time></trkpt><trkpt lat="40.7100188" lon="9.6457595"><ele>126.0</ele><time>2026-04-17T08:33:38.642Z</time></trkpt><trkpt lat="40.7099352" lon="9.6457064"><ele>126.0</ele><time>2026-04-17T08:33:39.653Z</time></trkpt><trkpt lat="40.7098467" lon="9.6456957"><ele>126.0</ele><time>2026-04-17T08:33:40.649Z</time></trkpt><trkpt lat="40.7097546" lon="9.6457099"><ele>126.0</ele><time>2026-04-17T08:33:41.649Z</time></trkpt><trkpt lat="40.7096558" lon="9.6457146"><ele>126.0</ele><time>2026-04-17T08:33:42.651Z</time></trkpt><trkpt lat="40.7095746" lon="9.6456885"><ele>126.0</ele><time>2026-04-17T08:33:43.655Z</time></trkpt><trkpt lat="40.7094957" lon="9.6456517"><ele>126.0</ele><time>2026-04-17T08:33:44.661Z</time></trkpt><trkpt lat="40.7094124" lon="9.6456094"><ele>126.0</ele><time>2026-04-17T08:33:45.652Z</time></trkpt><trkpt lat="40.7093299" lon="9.6455457"><ele>127.4</ele><time>2026-04-17T08:33:46.65Z</time></trkpt><trkpt lat="40.7092411" lon="9.6454612"><ele>128.8</ele><time>2026-04-17T08:33:47.659Z</time></trkpt><trkpt lat="40.7091519" lon="9.6453663"><ele>130.20000000000002</ele><time>2026-04-17T08:33:48.656Z</time></trkpt><trkpt lat="40.709064" lon="9.6452718"><ele>131.6</ele><time>2026-04-17T08:33:49.672Z</time></trkpt><trkpt lat="40.7089932" lon="9.6451867"><ele>133.0</ele><time>2026-04-17T08:33:50.657Z</time></trkpt><trkpt lat="40.7089322" lon="9.645077"><ele>133.0</ele><time>2026-04-17T08:33:51.66Z</time></trkpt><trkpt lat="40.7088799" lon="9.6449574"><ele>133.0</ele><time>2026-04-17T08:33:52.662Z</time></trkpt><trkpt lat="40.7088333" lon="9.6448486"><ele>133.0</ele><time>2026-04-17T08:33:53.662Z</time></trkpt><trkpt lat="40.708783" lon="9.6447596"><ele>133.0</ele><time>2026-04-17T08:33:54.665Z</time></trkpt><trkpt lat="40.7087244" lon="9.6446905"><ele>133.0</ele><time>2026-04-17T08:33:55.664Z</time></trkpt><trkpt lat="40.7086642" lon="9.6446181"><ele>133.0</ele><time>2026-04-17T08:33:56.668Z</time></trkpt><trkpt lat="40.7085991" lon="9.6445471"><ele>133.0</ele><time>2026-04-17T08:33:57.667Z</time></trkpt><trkpt lat="40.7085394" lon="9.6444777"><ele>133.0</ele><time>2026-04-17T08:33:58.669Z</time></trkpt><trkpt lat="40.7084816" lon="9.6443991"><ele>133.0</ele><time>2026-04-17T08:33:59.664Z</time></trkpt><trkpt lat="40.7084207" lon="9.6443195"><ele>133.0</ele><time>2026-04-17T08:34:00.66Z</time></trkpt><trkpt lat="40.7083587" lon="9.6442668"><ele>133.0</ele><time>2026-04-17T08:34:01.664Z</time></trkpt><trkpt lat="40.7082877" lon="9.6442352"><ele>133.0</ele><time>2026-04-17T08:34:02.656Z</time></trkpt><trkpt lat="40.7081968" lon="9.6442207"><ele>133.0</ele><time>2026-04-17T08:34:03.654Z</time></trkpt><trkpt lat="40.7080996" lon="9.6442053"><ele>133.0</ele><time>2026-04-17T08:34:04.659Z</time></trkpt><trkpt lat="40.7080029" lon="9.6441703"><ele>133.0</ele><time>2026-04-17T08:34:05.66Z</time></trkpt><trkpt lat="40.70791" lon="9.6441187"><ele>133.0</ele><time>2026-04-17T08:34:06.663Z</time></trkpt><trkpt lat="40.7078147" lon="9.6440563"><ele>133.0</ele><time>2026-04-17T08:34:07.664Z</time></trkpt><trkpt lat="40.7077192" lon="9.6439876"><ele>135.75</ele><time>2026-04-17T08:34:08.663Z</time></trkpt><trkpt lat="40.7076177" lon="9.6439311"><ele>138.5</ele><time>2026-04-17T08:34:09.664Z</time></trkpt><trkpt lat="40.7075071" lon="9.6438838"><ele>141.25</ele><time>2026-04-17T08:34:10.659Z</time></trkpt><trkpt lat="40.7073957" lon="9.6438588"><ele>144.0</ele><time>2026-04-17T08:34:11.662Z</time></trkpt><trkpt lat="40.7072842" lon="9.6438496"><ele>144.0</ele><time>2026-04-17T08:34:12.664Z</time></trkpt><trkpt lat="40.7071763" lon="9.6438489"><ele>144.0</ele><time>2026-04-17T08:34:13.662Z</time></trkpt><trkpt lat="40.707085" lon="9.6438231"><ele>144.0</ele><time>2026-04-17T08:34:14.657Z</time></trkpt><trkpt lat="40.7070049" lon="9.6437905"><ele>144.0</ele><time>2026-04-17T08:34:15.666Z</time></trkpt><trkpt lat="40.7069335" lon="9.6437384"><ele>144.0</ele><time>2026-04-17T08:34:16.653Z</time></trkpt><trkpt lat="40.7068718" lon="9.6436738"><ele>144.0</ele><time>2026-04-17T08:34:17.657Z</time></trkpt><trkpt lat="40.7068186" lon="9.6435969"><ele>144.00000000000003</ele><time>2026-04-17T08:34:18.661Z</time></trkpt><trkpt lat="40.706785" lon="9.6435131"><ele>144.0</ele><time>2026-04-17T08:34:19.663Z</time></trkpt><trkpt lat="40.7067407" lon="9.6434525"><ele>144.0</ele><time>2026-04-17T08:34:20.676Z</time></trkpt><trkpt lat="40.706684" lon="9.6434157"><ele>144.0</ele><time>2026-04-17T08:34:21.657Z</time></trkpt><trkpt lat="40.70662" lon="9.6434038"><ele>144.0</ele><time>2026-04-17T08:34:22.66Z</time></trkpt><trkpt lat="40.7065446" lon="9.6434097"><ele>144.00000000000003</ele><time>2026-04-17T08:34:23.665Z</time></trkpt><trkpt lat="40.70646" lon="9.6434311"><ele>144.0</ele><time>2026-04-17T08:34:24.659Z</time></trkpt><trkpt lat="40.7063679" lon="9.6434522"><ele>144.00000000000003</ele><time>2026-04-17T08:34:25.664Z</time></trkpt><trkpt lat="40.7062861" lon="9.643486"><ele>144.0</ele><time>2026-04-17T08:34:26.663Z</time></trkpt><trkpt lat="40.7062101" lon="9.6435216"><ele>144.0</ele><time>2026-04-17T08:34:27.661Z</time></trkpt><trkpt lat="40.706134" lon="9.6435359"><ele>144.0</ele><time>2026-04-17T08:34:28.658Z</time></trkpt><trkpt lat="40.70607" lon="9.6435172"><ele>144.0</ele><time>2026-04-17T08:34:29.654Z</time></trkpt><trkpt lat="40.7060208" lon="9.6434637"><ele>144.00000000000003</ele><time>2026-04-17T08:34:30.665Z</time></trkpt><trkpt lat="40.7059685" lon="9.6434041"><ele>144.0</ele><time>2026-04-17T08:34:31.663Z</time></trkpt><trkpt lat="40.7058973" lon="9.6433292"><ele>145.6</ele><time>2026-04-17T08:34:32.654Z</time></trkpt><trkpt lat="40.7058048" lon="9.6432717"><ele>147.2</ele><time>2026-04-17T08:34:33.652Z</time></trkpt><trkpt lat="40.7057028" lon="9.6432272"><ele>148.79999999999998</ele><time>2026-04-17T08:34:34.651Z</time></trkpt><trkpt lat="40.7055913" lon="9.6431879"><ele>150.4</ele><time>2026-04-17T08:34:35.663Z</time></trkpt><trkpt lat="40.7054819" lon="9.6431802"><ele>152.0</ele><time>2026-04-17T08:34:36.66Z</time></trkpt><trkpt lat="40.7053784" lon="9.6431791"><ele>152.0</ele><time>2026-04-17T08:34:37.664Z</time></trkpt><trkpt lat="40.7052884" lon="9.6431719"><ele>152.0</ele><time>2026-04-17T08:34:38.652Z</time></trkpt><trkpt lat="40.7052002" lon="9.6431662"><ele>152.0</ele><time>2026-04-17T08:34:39.66Z</time></trkpt><trkpt lat="40.7051058" lon="9.6431612"><ele>152.0</ele><time>2026-04-17T08:34:40.653Z</time></trkpt><trkpt lat="40.7050026" lon="9.6431502"><ele>152.0</ele><time>2026-04-17T08:34:41.66Z</time></trkpt><trkpt lat="40.7048955" lon="9.6431465"><ele>153.0</ele><time>2026-04-17T08:34:42.658Z</time></trkpt><trkpt lat="40.7047926" lon="9.6431343"><ele>154.0</ele><time>2026-04-17T08:34:43.662Z</time></trkpt><trkpt lat="40.7046905" lon="9.6431122"><ele>155.0</ele><time>2026-04-17T08:34:44.656Z</time></trkpt><trkpt lat="40.7045894" lon="9.6430845"><ele>156.0</ele><time>2026-04-17T08:34:45.656Z</time></trkpt><trkpt lat="40.7044979" lon="9.6430715"><ele>157.0</ele><time>2026-04-17T08:34:46.66Z</time></trkpt><trkpt lat="40.704434" lon="9.6430655"><ele>156.83333333333334</ele><time>2026-04-17T08:34:47.658Z</time></trkpt><trkpt lat="40.704335" lon="9.6429839"><ele>156.66666666666669</ele><time>2026-04-17T08:34:49.654Z</time></trkpt><trkpt lat="40.7042973" lon="9.6429102"><ele>156.5</ele><time>2026-04-17T08:34:50.658Z</time></trkpt><trkpt lat="40.7042721" lon="9.6428177"><ele>156.33333333333334</ele><time>2026-04-17T08:34:51.674Z</time></trkpt><trkpt lat="40.7042476" lon="9.6427132"><ele>156.16666666666666</ele><time>2026-04-17T08:34:52.659Z</time></trkpt><trkpt lat="40.7042164" lon="9.6426023"><ele>156.0</ele><time>2026-04-17T08:34:53.657Z</time></trkpt><trkpt lat="40.7041832" lon="9.6424804"><ele>156.8</ele><time>2026-04-17T08:34:54.656Z</time></trkpt><trkpt lat="40.7041433" lon="9.64234"><ele>157.6</ele><time>2026-04-17T08:34:55.658Z</time></trkpt><trkpt lat="40.7040986" lon="9.6422077"><ele>158.4</ele><time>2026-04-17T08:34:56.654Z</time></trkpt><trkpt lat="40.7040469" lon="9.6421028"><ele>159.2</ele><time>2026-04-17T08:34:57.653Z</time></trkpt><trkpt lat="40.7039892" lon="9.6420188"><ele>160.0</ele><time>2026-04-17T08:34:58.655Z</time></trkpt><trkpt lat="40.7039277" lon="9.6419401"><ele>161.6</ele><time>2026-04-17T08:34:59.659Z</time></trkpt><trkpt lat="40.7038646" lon="9.6418607"><ele>163.2</ele><time>2026-04-17T08:35:00.658Z</time></trkpt><trkpt lat="40.7037876" lon="9.6417836"><ele>164.8</ele><time>2026-04-17T08:35:01.657Z</time></trkpt><trkpt lat="40.7037" lon="9.641714"><ele>166.4</ele><time>2026-04-17T08:35:02.656Z</time></trkpt><trkpt lat="40.70361" lon="9.6416483"><ele>168.0</ele><time>2026-04-17T08:35:03.656Z</time></trkpt><trkpt lat="40.7035281" lon="9.6415971"><ele>168.66666666666666</ele><time>2026-04-17T08:35:04.653Z</time></trkpt><trkpt lat="40.7034624" lon="9.6415484"><ele>169.33333333333334</ele><time>2026-04-17T08:35:05.655Z</time></trkpt><trkpt lat="40.7034051" lon="9.6414925"><ele>170.0</ele><time>2026-04-17T08:35:06.658Z</time></trkpt><trkpt lat="40.703359" lon="9.6414125"><ele>170.66666666666669</ele><time>2026-04-17T08:35:07.649Z</time></trkpt><trkpt lat="40.7033173" lon="9.641326"><ele>171.33333333333334</ele><time>2026-04-17T08:35:08.652Z</time></trkpt><trkpt lat="40.7032907" lon="9.6412335"><ele>172.0</ele><time>2026-04-17T08:35:09.652Z</time></trkpt><trkpt lat="40.7032307" lon="9.6411092"><ele>172.0</ele><time>2026-04-17T08:35:11.652Z</time></trkpt><trkpt lat="40.7031387" lon="9.6410206"><ele>172.0</ele><time>2026-04-17T08:35:13.659Z</time></trkpt><trkpt lat="40.7030437" lon="9.6410183"><ele>172.0</ele><time>2026-04-17T08:35:15.649Z</time></trkpt><trkpt lat="40.7029649" lon="9.6411177"><ele>172.0</ele><time>2026-04-17T08:35:17.658Z</time></trkpt><trkpt lat="40.70294" lon="9.6411941"><ele>172.0</ele><time>2026-04-17T08:35:18.659Z</time></trkpt><trkpt lat="40.7029163" lon="9.6413576"><ele>172.00000000000003</ele><time>2026-04-17T08:35:20.652Z</time></trkpt><trkpt lat="40.7029197" lon="9.6414551"><ele>172.0</ele><time>2026-04-17T08:35:21.657Z</time></trkpt><trkpt lat="40.7029265" lon="9.6415593"><ele>172.0</ele><time>2026-04-17T08:35:22.672Z</time></trkpt><trkpt lat="40.7029446" lon="9.6416599"><ele>172.0</ele><time>2026-04-17T08:35:23.654Z</time></trkpt><trkpt lat="40.7029687" lon="9.6417438"><ele>172.0</ele><time>2026-04-17T08:35:24.649Z</time></trkpt><trkpt lat="40.7029802" lon="9.6418465"><ele>172.00000000000003</ele><time>2026-04-17T08:35:26.655Z</time></trkpt><trkpt lat="40.7029434" lon="9.6419175"><ele>172.0</ele><time>2026-04-17T08:35:28.666Z</time></trkpt><trkpt lat="40.7028769" lon="9.6419206"><ele>172.0</ele><time>2026-04-17T08:35:30.661Z</time></trkpt><trkpt lat="40.7027759" lon="9.6418293"><ele>172.0</ele><time>2026-04-17T08:35:32.652Z</time></trkpt><trkpt lat="40.70273" lon="9.6417607"><ele>172.0</ele><time>2026-04-17T08:35:33.663Z</time></trkpt><trkpt lat="40.7026815" lon="9.6417012"><ele>172.0</ele><time>2026-04-17T08:35:34.657Z</time></trkpt><trkpt lat="40.7025793" lon="9.6416307"><ele>172.0</ele><time>2026-04-17T08:35:36.651Z</time></trkpt><trkpt lat="40.7024772" lon="9.6416522"><ele>173.83333333333334</ele><time>2026-04-17T08:35:38.659Z</time></trkpt><trkpt lat="40.7023899" lon="9.6416782"><ele>175.66666666666669</ele><time>2026-04-17T08:35:40.667Z</time></trkpt><trkpt lat="40.7023137" lon="9.6416839"><ele>177.5</ele><time>2026-04-17T08:35:42.66Z</time></trkpt><trkpt lat="40.7022581" lon="9.6415999"><ele>179.33333333333334</ele><time>2026-04-17T08:35:44.642Z</time></trkpt><trkpt lat="40.7022438" lon="9.6415114"><ele>181.16666666666666</ele><time>2026-04-17T08:35:45.648Z</time></trkpt><trkpt lat="40.7022226" lon="9.6414078"><ele>183.0</ele><time>2026-04-17T08:35:46.653Z</time></trkpt><trkpt lat="40.7021969" lon="9.6413204"><ele>183.0</ele><time>2026-04-17T08:35:47.652Z</time></trkpt><trkpt lat="40.7021604" lon="9.6412481"><ele>183.0</ele><time>2026-04-17T08:35:48.654Z</time></trkpt><trkpt lat="40.7021145" lon="9.6411877"><ele>183.0</ele><time>2026-04-17T08:35:49.65Z</time></trkpt><trkpt lat="40.7020379" lon="9.6411037"><ele>183.0</ele><time>2026-04-17T08:35:51.656Z</time></trkpt><trkpt lat="40.7019827" lon="9.6410471"><ele>183.0</ele><time>2026-04-17T08:35:53.681Z</time></trkpt><trkpt lat="40.7019006" lon="9.6409522"><ele>183.0</ele><time>2026-04-17T08:35:55.663Z</time></trkpt><trkpt lat="40.7018376" lon="9.6409114"><ele>183.66666666666666</ele><time>2026-04-17T08:35:56.665Z</time></trkpt><trkpt lat="40.7017704" lon="9.6408884"><ele>184.33333333333334</ele><time>2026-04-17T08:35:57.657Z</time></trkpt><trkpt lat="40.701707" lon="9.6408686"><ele>185.0</ele><time>2026-04-17T08:35:58.662Z</time></trkpt><trkpt lat="40.701638" lon="9.6408428"><ele>185.66666666666669</ele><time>2026-04-17T08:35:59.665Z</time></trkpt><trkpt lat="40.7015614" lon="9.6408405"><ele>186.33333333333334</ele><time>2026-04-17T08:36:00.666Z</time></trkpt><trkpt lat="40.7014793" lon="9.6408279"><ele>187.0</ele><time>2026-04-17T08:36:01.668Z</time></trkpt><trkpt lat="40.7013943" lon="9.6407972"><ele>187.0</ele><time>2026-04-17T08:36:02.66Z</time></trkpt><trkpt lat="40.7013178" lon="9.6407516"><ele>187.0</ele><time>2026-04-17T08:36:03.661Z</time></trkpt><trkpt lat="40.7012503" lon="9.6406874"><ele>187.0</ele><time>2026-04-17T08:36:04.657Z</time></trkpt><trkpt lat="40.7011835" lon="9.6406156"><ele>187.0</ele><time>2026-04-17T08:36:05.653Z</time></trkpt><trkpt lat="40.7011127" lon="9.6405315"><ele>187.0</ele><time>2026-04-17T08:36:06.653Z</time></trkpt><trkpt lat="40.7010332" lon="9.6404461"><ele>187.75</ele><time>2026-04-17T08:36:07.652Z</time></trkpt><trkpt lat="40.7009322" lon="9.6403634"><ele>188.5</ele><time>2026-04-17T08:36:08.652Z</time></trkpt><trkpt lat="40.7008265" lon="9.6403077"><ele>189.25</ele><time>2026-04-17T08:36:09.651Z</time></trkpt><trkpt lat="40.7007163" lon="9.6402718"><ele>190.0</ele><time>2026-04-17T08:36:10.652Z</time></trkpt><trkpt lat="40.7006026" lon="9.640243"><ele>190.0</ele><time>2026-04-17T08:36:11.647Z</time></trkpt><trkpt lat="40.7004981" lon="9.6402001"><ele>190.0</ele><time>2026-04-17T08:36:12.65Z</time></trkpt><trkpt lat="40.7003965" lon="9.6401806"><ele>190.0</ele><time>2026-04-17T08:36:13.646Z</time></trkpt><trkpt lat="40.700311" lon="9.6402014"><ele>190.0</ele><time>2026-04-17T08:36:14.65Z</time></trkpt><trkpt lat="40.7002616" lon="9.6402712"><ele>190.0</ele><time>2026-04-17T08:36:15.65Z</time></trkpt><trkpt lat="40.7002469" lon="9.6403738"><ele>185.6</ele><time>2026-04-17T08:36:16.643Z</time></trkpt><trkpt lat="40.7002619" lon="9.6404689"><ele>181.2</ele><time>2026-04-17T08:36:17.654Z</time></trkpt><trkpt lat="40.7003209" lon="9.6405711"><ele>176.8</ele><time>2026-04-17T08:36:18.642Z</time></trkpt><trkpt lat="40.7003979" lon="9.6406922"><ele>172.4</ele><time>2026-04-17T08:36:19.646Z</time></trkpt><trkpt lat="40.7004695" lon="9.6408238"><ele>168.0</ele><time>2026-04-17T08:36:20.648Z</time></trkpt><trkpt lat="40.7005373" lon="9.6409667"><ele>168.0</ele><time>2026-04-17T08:36:21.652Z</time></trkpt><trkpt lat="40.7005808" lon="9.6411049"><ele>168.0</ele><time>2026-04-17T08:36:22.657Z</time></trkpt><trkpt lat="40.7006152" lon="9.641245"><ele>168.0</ele><time>2026-04-17T08:36:23.641Z</time></trkpt><trkpt lat="40.7006478" lon="9.6413822"><ele>168.0</ele><time>2026-04-17T08:36:24.666Z</time></trkpt><trkpt lat="40.7006765" lon="9.64151"><ele>168.0</ele><time>2026-04-17T08:36:25.652Z</time></trkpt><trkpt lat="40.7007044" lon="9.6416335"><ele>165.20000000000002</ele><time>2026-04-17T08:36:26.655Z</time></trkpt><trkpt lat="40.7007316" lon="9.6417633"><ele>162.4</ele><time>2026-04-17T08:36:27.667Z</time></trkpt><trkpt lat="40.7007391" lon="9.641897"><ele>159.60000000000002</ele><time>2026-04-17T08:36:28.658Z</time></trkpt><trkpt lat="40.7007151" lon="9.6420234"><ele>156.8</ele><time>2026-04-17T08:36:29.658Z</time></trkpt><trkpt lat="40.7006679" lon="9.6421496"><ele>154.0</ele><time>2026-04-17T08:36:30.654Z</time></trkpt><trkpt lat="40.700627" lon="9.642285"><ele>152.66666666666669</ele><time>2026-04-17T08:36:31.657Z</time></trkpt><trkpt lat="40.7005947" lon="9.6424246"><ele>151.33333333333334</ele><time>2026-04-17T08:36:32.654Z</time></trkpt><trkpt lat="40.7005695" lon="9.6425589"><ele>150.0</ele><time>2026-04-17T08:36:33.654Z</time></trkpt><trkpt lat="40.7005455" lon="9.642672"><ele>148.66666666666666</ele><time>2026-04-17T08:36:34.645Z</time></trkpt><trkpt lat="40.7005256" lon="9.6427617"><ele>147.33333333333331</ele><time>2026-04-17T08:36:35.65Z</time></trkpt><trkpt lat="40.7005154" lon="9.642845"><ele>146.0</ele><time>2026-04-17T08:36:37.667Z</time></trkpt><trkpt lat="40.7005429" lon="9.6429223"><ele>145.5</ele><time>2026-04-17T08:37:18.665Z</time></trkpt><trkpt lat="40.7004732" lon="9.6429852"><ele>145.0</ele><time>2026-04-17T08:37:28.656Z</time></trkpt><trkpt lat="40.7004717" lon="9.6430697"><ele>144.5</ele><time>2026-04-17T08:37:29.656Z</time></trkpt><trkpt lat="40.7004986" lon="9.6431574"><ele>144.0</ele><time>2026-04-17T08:37:30.648Z</time></trkpt><trkpt lat="40.7005298" lon="9.6432422"><ele>143.5</ele><time>2026-04-17T08:37:31.654Z</time></trkpt><trkpt lat="40.7005675" lon="9.6433468"><ele>143.0</ele><time>2026-04-17T08:37:32.652Z</time></trkpt><trkpt lat="40.7005869" lon="9.6434476"><ele>143.0</ele><time>2026-04-17T08:37:33.647Z</time></trkpt><trkpt lat="40.7005782" lon="9.6436137"><ele>143.0</ele><time>2026-04-17T08:37:35.649Z</time></trkpt><trkpt lat="40.7005295" lon="9.6437085"><ele>143.0</ele><time>2026-04-17T08:37:37.641Z</time></trkpt><trkpt lat="40.7004563" lon="9.6437012"><ele>143.0</ele><time>2026-04-17T08:37:39.654Z</time></trkpt><trkpt lat="40.7003433" lon="9.6436523"><ele>143.0</ele><time>2026-04-17T08:37:41.657Z</time></trkpt><trkpt lat="40.7002466" lon="9.6436026"><ele>146.66666666666666</ele><time>2026-04-17T08:37:43.651Z</time></trkpt><trkpt lat="40.7002117" lon="9.6434895"><ele>150.33333333333331</ele><time>2026-04-17T08:37:45.648Z</time></trkpt><trkpt lat="40.7001813" lon="9.6433999"><ele>154.0</ele><time>2026-04-17T08:37:46.656Z</time></trkpt><trkpt lat="40.7001455" lon="9.6433013"><ele>157.66666666666666</ele><time>2026-04-17T08:37:47.658Z</time></trkpt><trkpt lat="40.7001113" lon="9.6432141"><ele>161.33333333333334</ele><time>2026-04-17T08:37:48.653Z</time></trkpt><trkpt lat="40.700071" lon="9.6431184"><ele>165.0</ele><time>2026-04-17T08:37:49.647Z</time></trkpt><trkpt lat="40.7000285" lon="9.6430241"><ele>165.0</ele><time>2026-04-17T08:37:50.649Z</time></trkpt><trkpt lat="40.6999937" lon="9.6429374"><ele>165.0</ele><time>2026-04-17T08:37:51.649Z</time></trkpt><trkpt lat="40.6999632" lon="9.6428356"><ele>165.0</ele><time>2026-04-17T08:37:52.655Z</time></trkpt><trkpt lat="40.6999271" lon="9.6427235"><ele>165.0</ele><time>2026-04-17T08:37:53.652Z</time></trkpt><trkpt lat="40.6998911" lon="9.6426203"><ele>165.0</ele><time>2026-04-17T08:37:54.646Z</time></trkpt><trkpt lat="40.6998504" lon="9.6425129"><ele>165.0</ele><time>2026-04-17T08:37:55.653Z</time></trkpt><trkpt lat="40.6998082" lon="9.6423991"><ele>164.66666666666666</ele><time>2026-04-17T08:37:56.653Z</time></trkpt><trkpt lat="40.699766" lon="9.6422968"><ele>164.33333333333334</ele><time>2026-04-17T08:37:57.665Z</time></trkpt><trkpt lat="40.6997321" lon="9.6422104"><ele>164.0</ele><time>2026-04-17T08:37:58.653Z</time></trkpt><trkpt lat="40.6996971" lon="9.6421134"><ele>163.66666666666669</ele><time>2026-04-17T08:37:59.65Z</time></trkpt><trkpt lat="40.6996693" lon="9.6420178"><ele>163.33333333333334</ele><time>2026-04-17T08:38:00.649Z</time></trkpt><trkpt lat="40.6996566" lon="9.6419354"><ele>163.0</ele><time>2026-04-17T08:38:01.655Z</time></trkpt><trkpt lat="40.6996465" lon="9.6418458"><ele>162.83333333333334</ele><time>2026-04-17T08:38:02.651Z</time></trkpt><trkpt lat="40.6996406" lon="9.6417444"><ele>162.66666666666669</ele><time>2026-04-17T08:38:03.65Z</time></trkpt><trkpt lat="40.6996359" lon="9.6416262"><ele>162.5</ele><time>2026-04-17T08:38:04.65Z</time></trkpt><trkpt lat="40.6996299" lon="9.6415178"><ele>162.33333333333334</ele><time>2026-04-17T08:38:05.652Z</time></trkpt><trkpt lat="40.6996119" lon="9.6414144"><ele>162.16666666666666</ele><time>2026-04-17T08:38:06.652Z</time></trkpt><trkpt lat="40.6995791" lon="9.6413207"><ele>162.0</ele><time>2026-04-17T08:38:07.643Z</time></trkpt><trkpt lat="40.6995323" lon="9.6412468"><ele>162.0</ele><time>2026-04-17T08:38:08.649Z</time></trkpt><trkpt lat="40.6994797" lon="9.6411881"><ele>162.0</ele><time>2026-04-17T08:38:09.651Z</time></trkpt><trkpt lat="40.6994294" lon="9.6411241"><ele>162.0</ele><time>2026-04-17T08:38:10.65Z</time></trkpt><trkpt lat="40.6993909" lon="9.6410535"><ele>162.0</ele><time>2026-04-17T08:38:11.648Z</time></trkpt><trkpt lat="40.6993694" lon="9.6408858"><ele>162.0</ele><time>2026-04-17T08:38:13.654Z</time></trkpt><trkpt lat="40.6993716" lon="9.6407961"><ele>162.0</ele><time>2026-04-17T08:38:14.652Z</time></trkpt><trkpt lat="40.6993738" lon="9.6407022"><ele>166.33333333333334</ele><time>2026-04-17T08:38:15.648Z</time></trkpt><trkpt lat="40.6993638" lon="9.6406029"><ele>170.66666666666666</ele><time>2026-04-17T08:38:16.652Z</time></trkpt><trkpt lat="40.6993444" lon="9.6405004"><ele>175.0</ele><time>2026-04-17T08:38:17.654Z</time></trkpt><trkpt lat="40.6993177" lon="9.6404061"><ele>179.33333333333331</ele><time>2026-04-17T08:38:18.655Z</time></trkpt><trkpt lat="40.6992846" lon="9.6403144"><ele>183.66666666666666</ele><time>2026-04-17T08:38:19.655Z</time></trkpt><trkpt lat="40.6992395" lon="9.640216"><ele>188.0</ele><time>2026-04-17T08:38:20.652Z</time></trkpt><trkpt lat="40.6991902" lon="9.640118"><ele>188.0</ele><time>2026-04-17T08:38:21.655Z</time></trkpt><trkpt lat="40.6991374" lon="9.6400235"><ele>188.0</ele><time>2026-04-17T08:38:22.659Z</time></trkpt><trkpt lat="40.6990856" lon="9.6399235"><ele>188.0</ele><time>2026-04-17T08:38:23.65Z</time></trkpt><trkpt lat="40.6990378" lon="9.639833"><ele>188.0</ele><time>2026-04-17T08:38:24.655Z</time></trkpt><trkpt lat="40.6989857" lon="9.639757"><ele>188.0</ele><time>2026-04-17T08:38:25.647Z</time></trkpt><trkpt lat="40.698925" lon="9.6396988"><ele>188.0</ele><time>2026-04-17T08:38:26.651Z</time></trkpt><trkpt lat="40.6988555" lon="9.6396535"><ele>188.0</ele><time>2026-04-17T08:38:27.651Z</time></trkpt><trkpt lat="40.698783" lon="9.6396125"><ele>188.0</ele><time>2026-04-17T08:38:28.67Z</time></trkpt><trkpt lat="40.6987067" lon="9.6395627"><ele>188.0</ele><time>2026-04-17T08:38:29.648Z</time></trkpt><trkpt lat="40.6986355" lon="9.6394981"><ele>188.0</ele><time>2026-04-17T08:38:30.65Z</time></trkpt><trkpt lat="40.69857" lon="9.6394234"><ele>188.0</ele><time>2026-04-17T08:38:31.65Z</time></trkpt><trkpt lat="40.6985072" lon="9.6393577"><ele>188.0</ele><time>2026-04-17T08:38:32.643Z</time></trkpt><trkpt lat="40.6984372" lon="9.6392939"><ele>191.66666666666666</ele><time>2026-04-17T08:38:33.641Z</time></trkpt><trkpt lat="40.6983655" lon="9.6392286"><ele>195.33333333333331</ele><time>2026-04-17T08:38:34.637Z</time></trkpt><trkpt lat="40.6982925" lon="9.6391565"><ele>199.0</ele><time>2026-04-17T08:38:35.638Z</time></trkpt><trkpt lat="40.6982226" lon="9.6391021"><ele>202.66666666666666</ele><time>2026-04-17T08:38:36.639Z</time></trkpt><trkpt lat="40.6981553" lon="9.6390439"><ele>206.33333333333334</ele><time>2026-04-17T08:38:37.642Z</time></trkpt><trkpt lat="40.6980989" lon="9.6389815"><ele>210.0</ele><time>2026-04-17T08:38:38.641Z</time></trkpt><trkpt lat="40.6980446" lon="9.6389108"><ele>210.0</ele><time>2026-04-17T08:38:39.634Z</time></trkpt><trkpt lat="40.6979715" lon="9.6388099"><ele>210.0</ele><time>2026-04-17T08:38:41.634Z</time></trkpt><trkpt lat="40.6979615" lon="9.6386764"><ele>210.0</ele><time>2026-04-17T08:38:43.648Z</time></trkpt><trkpt lat="40.6979666" lon="9.6385777"><ele>210.0</ele><time>2026-04-17T08:38:44.647Z</time></trkpt><trkpt lat="40.6979686" lon="9.6384709"><ele>210.0</ele><time>2026-04-17T08:38:45.644Z</time></trkpt><trkpt lat="40.6979562" lon="9.6383696"><ele>210.0</ele><time>2026-04-17T08:38:46.649Z</time></trkpt><trkpt lat="40.6979342" lon="9.6382274"><ele>209.6</ele><time>2026-04-17T08:38:48.649Z</time></trkpt><trkpt lat="40.6978477" lon="9.6381032"><ele>209.2</ele><time>2026-04-17T08:38:50.648Z</time></trkpt><trkpt lat="40.6978028" lon="9.6380275"><ele>208.8</ele><time>2026-04-17T08:38:51.649Z</time></trkpt><trkpt lat="40.6977667" lon="9.6379422"><ele>208.4</ele><time>2026-04-17T08:38:52.65Z</time></trkpt><trkpt lat="40.6977369" lon="9.6378031"><ele>208.0</ele><time>2026-04-17T08:38:54.645Z</time></trkpt><trkpt lat="40.6977424" lon="9.6376441"><ele>209.83333333333331</ele><time>2026-04-17T08:38:56.649Z</time></trkpt><trkpt lat="40.6977582" lon="9.6375015"><ele>211.66666666666666</ele><time>2026-04-17T08:38:58.652Z</time></trkpt><trkpt lat="40.6977388" lon="9.6373667"><ele>213.5</ele><time>2026-04-17T08:39:00.654Z</time></trkpt><trkpt lat="40.6977083" lon="9.6372913"><ele>215.33333333333331</ele><time>2026-04-17T08:39:01.656Z</time></trkpt><trkpt lat="40.6976718" lon="9.6372077"><ele>217.16666666666666</ele><time>2026-04-17T08:39:02.652Z</time></trkpt><trkpt lat="40.6976348" lon="9.6371329"><ele>219.0</ele><time>2026-04-17T08:39:03.654Z</time></trkpt><trkpt lat="40.6975851" lon="9.6370608"><ele>224.0</ele><time>2026-04-17T08:39:04.65Z</time></trkpt><trkpt lat="40.6975216" lon="9.6369895"><ele>229.0</ele><time>2026-04-17T08:39:05.652Z</time></trkpt><trkpt lat="40.6974541" lon="9.6369275"><ele>234.0</ele><time>2026-04-17T08:39:06.652Z</time></trkpt><trkpt lat="40.6973951" lon="9.6368598"><ele>239.0</ele><time>2026-04-17T08:39:07.653Z</time></trkpt><trkpt lat="40.6973318" lon="9.6367826"><ele>244.0</ele><time>2026-04-17T08:39:08.648Z</time></trkpt><trkpt lat="40.6972648" lon="9.6367154"><ele>249.0</ele><time>2026-04-17T08:39:09.65Z</time></trkpt><trkpt lat="40.697202" lon="9.6366736"><ele>249.0</ele><time>2026-04-17T08:39:10.644Z</time></trkpt><trkpt lat="40.6971352" lon="9.6366471"><ele>249.0</ele><time>2026-04-17T08:39:11.649Z</time></trkpt><trkpt lat="40.6970725" lon="9.6366212"><ele>249.0</ele><time>2026-04-17T08:39:12.647Z</time></trkpt><trkpt lat="40.6970084" lon="9.6366067"><ele>249.0</ele><time>2026-04-17T08:39:13.644Z</time></trkpt><trkpt lat="40.6969389" lon="9.6366748"><ele>249.0</ele><time>2026-04-17T08:39:15.646Z</time></trkpt><trkpt lat="40.6969957" lon="9.6367801"><ele>249.0</ele><time>2026-04-17T08:39:17.655Z</time></trkpt><trkpt lat="40.6970753" lon="9.6369222"><ele>249.0</ele><time>2026-04-17T08:39:19.649Z</time></trkpt><trkpt lat="40.6971273" lon="9.6370179"><ele>249.0</ele><time>2026-04-17T08:39:20.643Z</time></trkpt><trkpt lat="40.6971738" lon="9.6371246"><ele>249.0</ele><time>2026-04-17T08:39:21.645Z</time></trkpt><trkpt lat="40.6972051" lon="9.6372177"><ele>249.0</ele><time>2026-04-17T08:39:22.647Z</time></trkpt><trkpt lat="40.697234" lon="9.6373214"><ele>249.0</ele><time>2026-04-17T08:39:23.649Z</time></trkpt><trkpt lat="40.6972529" lon="9.6374404"><ele>249.0</ele><time>2026-04-17T08:39:24.65Z</time></trkpt><trkpt lat="40.6972624" lon="9.6375453"><ele>249.0</ele><time>2026-04-17T08:39:25.645Z</time></trkpt><trkpt lat="40.697248" lon="9.6377145"><ele>248.99999999999997</ele><time>2026-04-17T08:39:27.648Z</time></trkpt><trkpt lat="40.6972182" lon="9.6378055"><ele>248.99999999999997</ele><time>2026-04-17T08:39:28.644Z</time></trkpt><trkpt lat="40.6971933" lon="9.6379112"><ele>249.0</ele><time>2026-04-17T08:39:29.649Z</time></trkpt><trkpt lat="40.6971742" lon="9.6380226"><ele>249.0</ele><time>2026-04-17T08:39:30.662Z</time></trkpt><trkpt lat="40.6971669" lon="9.6381239"><ele>248.83333333333334</ele><time>2026-04-17T08:39:31.651Z</time></trkpt><trkpt lat="40.6971802" lon="9.6382167"><ele>248.66666666666669</ele><time>2026-04-17T08:39:32.642Z</time></trkpt><trkpt lat="40.6972094" lon="9.6383242"><ele>248.5</ele><time>2026-04-17T08:39:34.644Z</time></trkpt><trkpt lat="40.6972101" lon="9.6384318"><ele>248.33333333333334</ele><time>2026-04-17T08:40:06.648Z</time></trkpt><trkpt lat="40.6971615" lon="9.638572"><ele>248.16666666666669</ele><time>2026-04-17T08:40:08.653Z</time></trkpt><trkpt lat="40.697108" lon="9.6386342"><ele>248.0</ele><time>2026-04-17T08:40:09.651Z</time></trkpt><trkpt lat="40.6970617" lon="9.6386985"><ele>248.42857142857144</ele><time>2026-04-17T08:40:10.655Z</time></trkpt><trkpt lat="40.6970105" lon="9.6387627"><ele>248.8571428571429</ele><time>2026-04-17T08:40:11.651Z</time></trkpt><trkpt lat="40.6969631" lon="9.6388359"><ele>249.28571428571428</ele><time>2026-04-17T08:40:12.655Z</time></trkpt><trkpt lat="40.6969193" lon="9.6389211"><ele>249.71428571428572</ele><time>2026-04-17T08:40:13.654Z</time></trkpt><trkpt lat="40.6968875" lon="9.6390047"><ele>250.14285714285714</ele><time>2026-04-17T08:40:14.645Z</time></trkpt><trkpt lat="40.6968491" lon="9.639074"><ele>250.57142857142856</ele><time>2026-04-17T08:40:15.649Z</time></trkpt><trkpt lat="40.6968177" lon="9.6391604"><ele>250.99999999999997</ele><time>2026-04-17T08:40:16.65Z</time></trkpt><trkpt lat="40.6968073" lon="9.6392578"><ele>254.60000000000002</ele><time>2026-04-17T08:40:17.655Z</time></trkpt><trkpt lat="40.6968026" lon="9.6393471"><ele>258.20000000000005</ele><time>2026-04-17T08:40:18.648Z</time></trkpt><trkpt lat="40.6968442" lon="9.6394922"><ele>261.79999999999995</ele><time>2026-04-17T08:40:20.646Z</time></trkpt><trkpt lat="40.696907" lon="9.6396349"><ele>265.4</ele><time>2026-04-17T08:40:22.651Z</time></trkpt><trkpt lat="40.6969402" lon="9.6397263"><ele>269.0</ele><time>2026-04-17T08:40:23.642Z</time></trkpt><trkpt lat="40.6969716" lon="9.6398064"><ele>269.0</ele><time>2026-04-17T08:40:24.65Z</time></trkpt><trkpt lat="40.6970142" lon="9.6398869"><ele>269.0</ele><time>2026-04-17T08:40:25.656Z</time></trkpt><trkpt lat="40.6970432" lon="9.6399701"><ele>269.0</ele><time>2026-04-17T08:40:26.655Z</time></trkpt><trkpt lat="40.6970611" lon="9.6401035"><ele>269.0</ele><time>2026-04-17T08:40:28.654Z</time></trkpt><trkpt lat="40.6969684" lon="9.6400889"><ele>269.0</ele><time>2026-04-17T08:40:32.668Z</time></trkpt><trkpt lat="40.6969029" lon="9.6399779"><ele>269.0</ele><time>2026-04-17T08:40:34.648Z</time></trkpt><trkpt lat="40.6968485" lon="9.6399035"><ele>272.83333333333337</ele><time>2026-04-17T08:40:35.65Z</time></trkpt><trkpt lat="40.6967817" lon="9.6398426"><ele>276.6666666666667</ele><time>2026-04-17T08:40:36.655Z</time></trkpt><trkpt lat="40.6967114" lon="9.6398026"><ele>280.5</ele><time>2026-04-17T08:40:37.648Z</time></trkpt><trkpt lat="40.6966334" lon="9.6397812"><ele>284.3333333333333</ele><time>2026-04-17T08:40:38.651Z</time></trkpt><trkpt lat="40.6965583" lon="9.6397675"><ele>288.16666666666663</ele><time>2026-04-17T08:40:39.651Z</time></trkpt><trkpt lat="40.6964932" lon="9.6397591"><ele>292.0</ele><time>2026-04-17T08:40:40.658Z</time></trkpt><trkpt lat="40.6963773" lon="9.6397293"><ele>292.0</ele><time>2026-04-17T08:40:42.653Z</time></trkpt><trkpt lat="40.6962565" lon="9.6397102"><ele>292.0</ele><time>2026-04-17T08:40:44.652Z</time></trkpt><trkpt lat="40.6961299" lon="9.6397351"><ele>292.0</ele><time>2026-04-17T08:40:46.656Z</time></trkpt><trkpt lat="40.6960603" lon="9.6397534"><ele>292.0</ele><time>2026-04-17T08:40:47.659Z</time></trkpt><trkpt lat="40.695994" lon="9.639763"><ele>292.0</ele><time>2026-04-17T08:40:48.657Z</time></trkpt><trkpt lat="40.6958715" lon="9.6397584"><ele>294.0</ele><time>2026-04-17T08:40:50.656Z</time></trkpt><trkpt lat="40.6958059" lon="9.6397583"><ele>296.0</ele><time>2026-04-17T08:40:51.654Z</time></trkpt><trkpt lat="40.6957401" lon="9.639779"><ele>298.0</ele><time>2026-04-17T08:40:52.655Z</time></trkpt><trkpt lat="40.6956418" lon="9.6398178"><ele>300.0</ele><time>2026-04-17T08:40:54.654Z</time></trkpt><trkpt lat="40.6955514" lon="9.639811"><ele>302.0</ele><time>2026-04-17T08:40:56.655Z</time></trkpt><trkpt lat="40.6954474" lon="9.6397401"><ele>304.0</ele><time>2026-04-17T08:40:58.647Z</time></trkpt><trkpt lat="40.6953725" lon="9.6396958"><ele>304.0</ele><time>2026-04-17T08:40:59.646Z</time></trkpt><trkpt lat="40.6952979" lon="9.6396581"><ele>304.0</ele><time>2026-04-17T08:41:00.645Z</time></trkpt><trkpt lat="40.6952333" lon="9.6396297"><ele>304.0</ele><time>2026-04-17T08:41:01.65Z</time></trkpt><trkpt lat="40.6951664" lon="9.6396068"><ele>304.0</ele><time>2026-04-17T08:41:02.649Z</time></trkpt><trkpt lat="40.6950912" lon="9.6395776"><ele>304.0</ele><time>2026-04-17T08:41:03.657Z</time></trkpt><trkpt lat="40.6950206" lon="9.6395553"><ele>304.0</ele><time>2026-04-17T08:41:04.644Z</time></trkpt><trkpt lat="40.6949551" lon="9.6395453"><ele>304.0</ele><time>2026-04-17T08:41:05.639Z</time></trkpt><trkpt lat="40.6948328" lon="9.6395601"><ele>303.8</ele><time>2026-04-17T08:41:07.648Z</time></trkpt><trkpt lat="40.6947663" lon="9.6395808"><ele>303.59999999999997</ele><time>2026-04-17T08:41:08.646Z</time></trkpt><trkpt lat="40.6946601" lon="9.6395983"><ele>303.4</ele><time>2026-04-17T08:41:10.647Z</time></trkpt><trkpt lat="40.6945602" lon="9.639578"><ele>303.2</ele><time>2026-04-17T08:41:12.65Z</time></trkpt><trkpt lat="40.6944411" lon="9.6395301"><ele>303.0</ele><time>2026-04-17T08:41:14.649Z</time></trkpt><trkpt lat="40.6943337" lon="9.6395455"><ele>303.8</ele><time>2026-04-17T08:41:16.653Z</time></trkpt><trkpt lat="40.6942069" lon="9.6395785"><ele>304.6</ele><time>2026-04-17T08:41:18.647Z</time></trkpt><trkpt lat="40.6941283" lon="9.6395928"><ele>305.4</ele><time>2026-04-17T08:41:19.651Z</time></trkpt><trkpt lat="40.6940425" lon="9.6396016"><ele>306.2</ele><time>2026-04-17T08:41:20.648Z</time></trkpt><trkpt lat="40.6939461" lon="9.6396069"><ele>307.0</ele><time>2026-04-17T08:41:21.648Z</time></trkpt><trkpt lat="40.6938553" lon="9.6396203"><ele>307.0</ele><time>2026-04-17T08:41:22.651Z</time></trkpt><trkpt lat="40.6937749" lon="9.6396365"><ele>307.0</ele><time>2026-04-17T08:41:23.65Z</time></trkpt><trkpt lat="40.6936916" lon="9.6396545"><ele>307.0</ele><time>2026-04-17T08:41:24.648Z</time></trkpt><trkpt lat="40.6936276" lon="9.6396746"><ele>307.0</ele><time>2026-04-17T08:41:25.65Z</time></trkpt><trkpt lat="40.69353" lon="9.6397324"><ele>307.0</ele><time>2026-04-17T08:41:27.654Z</time></trkpt><trkpt lat="40.6934733" lon="9.6397777"><ele>307.0</ele><time>2026-04-17T08:41:28.665Z</time></trkpt><trkpt lat="40.6934038" lon="9.6398441"><ele>308.0</ele><time>2026-04-17T08:41:29.653Z</time></trkpt><trkpt lat="40.6933502" lon="9.6399208"><ele>309.0</ele><time>2026-04-17T08:41:30.651Z</time></trkpt><trkpt lat="40.6933047" lon="9.6400091"><ele>310.0</ele><time>2026-04-17T08:41:31.653Z</time></trkpt><trkpt lat="40.6932542" lon="9.6400815"><ele>311.0</ele><time>2026-04-17T08:41:32.649Z</time></trkpt><trkpt lat="40.6932083" lon="9.6401577"><ele>312.0</ele><time>2026-04-17T08:41:33.65Z</time></trkpt><trkpt lat="40.693167" lon="9.6402422"><ele>313.0</ele><time>2026-04-17T08:41:34.661Z</time></trkpt><trkpt lat="40.6931392" lon="9.640336"><ele>313.0</ele><time>2026-04-17T08:41:35.647Z</time></trkpt><trkpt lat="40.693111" lon="9.6404463"><ele>313.0</ele><time>2026-04-17T08:41:36.65Z</time></trkpt><trkpt lat="40.6930865" lon="9.6405506"><ele>313.0</ele><time>2026-04-17T08:41:37.65Z</time></trkpt><trkpt lat="40.6930673" lon="9.6406416"><ele>313.0</ele><time>2026-04-17T08:41:38.648Z</time></trkpt><trkpt lat="40.6930508" lon="9.6407281"><ele>313.0</ele><time>2026-04-17T08:41:39.646Z</time></trkpt><trkpt lat="40.6930075" lon="9.6408865"><ele>313.0</ele><time>2026-04-17T08:41:41.649Z</time></trkpt><trkpt lat="40.6929435" lon="9.6409989"><ele>313.0</ele><time>2026-04-17T08:41:43.651Z</time></trkpt><trkpt lat="40.6929059" lon="9.6409082"><ele>313.0</ele><time>2026-04-17T08:41:49.668Z</time></trkpt><trkpt lat="40.6929329" lon="9.6407932"><ele>313.0</ele><time>2026-04-17T08:41:51.668Z</time></trkpt><trkpt lat="40.6929297" lon="9.6407038"><ele>313.0</ele><time>2026-04-17T08:41:52.657Z</time></trkpt><trkpt lat="40.6929219" lon="9.6406133"><ele>313.0</ele><time>2026-04-17T08:41:53.658Z</time></trkpt><trkpt lat="40.6929191" lon="9.6405167"><ele>313.0</ele><time>2026-04-17T08:41:54.657Z</time></trkpt><trkpt lat="40.6929278" lon="9.6404036"><ele>313.0</ele><time>2026-04-17T08:41:55.658Z</time></trkpt><trkpt lat="40.6929588" lon="9.640304"><ele>313.0</ele><time>2026-04-17T08:41:56.656Z</time></trkpt><trkpt lat="40.6929872" lon="9.6402131"><ele>313.0</ele><time>2026-04-17T08:41:57.654Z</time></trkpt><trkpt lat="40.6929999" lon="9.6400842"><ele>313.0</ele><time>2026-04-17T08:41:59.651Z</time></trkpt><trkpt lat="40.6930768" lon="9.639967"><ele>313.0</ele><time>2026-04-17T08:42:01.656Z</time></trkpt><trkpt lat="40.6931208" lon="9.6398847"><ele>313.0</ele><time>2026-04-17T08:42:02.651Z</time></trkpt><trkpt lat="40.6931698" lon="9.6397852"><ele>316.5</ele><time>2026-04-17T08:42:03.652Z</time></trkpt><trkpt lat="40.6932268" lon="9.6396691"><ele>320.0</ele><time>2026-04-17T08:42:04.656Z</time></trkpt><trkpt lat="40.693289" lon="9.6395517"><ele>323.5</ele><time>2026-04-17T08:42:05.668Z</time></trkpt><trkpt lat="40.6933681" lon="9.6394293"><ele>327.0</ele><time>2026-04-17T08:42:06.656Z</time></trkpt><trkpt lat="40.6934528" lon="9.6393208"><ele>328.0</ele><time>2026-04-17T08:42:07.657Z</time></trkpt><trkpt lat="40.6935553" lon="9.6392075"><ele>329.0</ele><time>2026-04-17T08:42:08.646Z</time></trkpt><trkpt lat="40.6936448" lon="9.639098"><ele>330.0</ele><time>2026-04-17T08:42:09.657Z</time></trkpt><trkpt lat="40.6937298" lon="9.6389892"><ele>331.0</ele><time>2026-04-17T08:42:10.654Z</time></trkpt><trkpt lat="40.6938052" lon="9.6388826"><ele>332.5</ele><time>2026-04-17T08:42:11.657Z</time></trkpt><trkpt lat="40.6938767" lon="9.6388007"><ele>334.0</ele><time>2026-04-17T08:42:12.652Z</time></trkpt><trkpt lat="40.6939492" lon="9.63874"><ele>335.5</ele><time>2026-04-17T08:42:13.658Z</time></trkpt><trkpt lat="40.6940148" lon="9.6386936"><ele>337.0</ele><time>2026-04-17T08:42:14.661Z</time></trkpt><trkpt lat="40.6940835" lon="9.6386415"><ele>338.5</ele><time>2026-04-17T08:42:15.661Z</time></trkpt><trkpt lat="40.694152" lon="9.6385804"><ele>340.0</ele><time>2026-04-17T08:42:16.659Z</time></trkpt><trkpt lat="40.6942149" lon="9.6385209"><ele>342.8333333333333</ele><time>2026-04-17T08:42:17.669Z</time></trkpt><trkpt lat="40.6942834" lon="9.6384679"><ele>345.66666666666663</ele><time>2026-04-17T08:42:18.66Z</time></trkpt><trkpt lat="40.694356" lon="9.6384135"><ele>348.5</ele><time>2026-04-17T08:42:19.665Z</time></trkpt><trkpt lat="40.6944303" lon="9.6383485"><ele>351.3333333333333</ele><time>2026-04-17T08:42:20.666Z</time></trkpt><trkpt lat="40.6945044" lon="9.6382974"><ele>354.1666666666667</ele><time>2026-04-17T08:42:21.662Z</time></trkpt><trkpt lat="40.6945625" lon="9.6382391"><ele>357.0</ele><time>2026-04-17T08:42:22.663Z</time></trkpt><trkpt lat="40.6946231" lon="9.6381748"><ele>359.5</ele><time>2026-04-17T08:42:23.663Z</time></trkpt><trkpt lat="40.694685" lon="9.6381118"><ele>362.0</ele><time>2026-04-17T08:42:24.66Z</time></trkpt><trkpt lat="40.6947385" lon="9.6380635"><ele>364.5</ele><time>2026-04-17T08:42:25.666Z</time></trkpt><trkpt lat="40.6948415" lon="9.6379851"><ele>367.0</ele><time>2026-04-17T08:42:27.664Z</time></trkpt><trkpt lat="40.6948753" lon="9.6378939"><ele>369.5</ele><time>2026-04-17T08:42:31.675Z</time></trkpt><trkpt lat="40.694814" lon="9.6378348"><ele>372.0</ele><time>2026-04-17T08:47:19.666Z</time></trkpt><trkpt lat="40.6947745" lon="9.6377521"><ele>372.20000000000005</ele><time>2026-04-17T08:47:21.66Z</time></trkpt><trkpt lat="40.6947532" lon="9.637626"><ele>372.4</ele><time>2026-04-17T08:47:23.659Z</time></trkpt><trkpt lat="40.6947613" lon="9.6374524"><ele>372.6</ele><time>2026-04-17T08:47:25.663Z</time></trkpt><trkpt lat="40.694762" lon="9.6373542"><ele>372.79999999999995</ele><time>2026-04-17T08:47:26.666Z</time></trkpt><trkpt lat="40.6947474" lon="9.6372524"><ele>373.0</ele><time>2026-04-17T08:47:27.662Z</time></trkpt><trkpt lat="40.694732" lon="9.6371559"><ele>373.0</ele><time>2026-04-17T08:47:28.66Z</time></trkpt><trkpt lat="40.6947108" lon="9.6370576"><ele>373.0</ele><time>2026-04-17T08:47:29.661Z</time></trkpt><trkpt lat="40.6946873" lon="9.6369671"><ele>373.0</ele><time>2026-04-17T08:47:30.661Z</time></trkpt><trkpt lat="40.6946717" lon="9.6368747"><ele>373.0</ele><time>2026-04-17T08:47:31.664Z</time></trkpt><trkpt lat="40.6946554" lon="9.6367881"><ele>373.0</ele><time>2026-04-17T08:47:32.661Z</time></trkpt><trkpt lat="40.6946472" lon="9.6366923"><ele>373.0</ele><time>2026-04-17T08:47:33.657Z</time></trkpt><trkpt lat="40.6946545" lon="9.6365953"><ele>373.0</ele><time>2026-04-17T08:47:34.658Z</time></trkpt><trkpt lat="40.6946638" lon="9.6365083"><ele>373.0</ele><time>2026-04-17T08:47:35.658Z</time></trkpt><trkpt lat="40.6946693" lon="9.6364247"><ele>373.0</ele><time>2026-04-17T08:47:36.665Z</time></trkpt><trkpt lat="40.6946912" lon="9.6362784"><ele>373.0</ele><time>2026-04-17T08:47:38.66Z</time></trkpt><trkpt lat="40.6946897" lon="9.6361255"><ele>373.0</ele><time>2026-04-17T08:47:40.659Z</time></trkpt><trkpt lat="40.6946727" lon="9.6360404"><ele>373.0</ele><time>2026-04-17T08:47:41.661Z</time></trkpt><trkpt lat="40.6946523" lon="9.63596"><ele>373.0</ele><time>2026-04-17T08:47:42.658Z</time></trkpt><trkpt lat="40.6946343" lon="9.6358794"><ele>373.0</ele><time>2026-04-17T08:47:43.659Z</time></trkpt><trkpt lat="40.6945811" lon="9.6357278"><ele>373.0</ele><time>2026-04-17T08:47:45.661Z</time></trkpt><trkpt lat="40.694545" lon="9.6356519"><ele>373.0</ele><time>2026-04-17T08:47:46.674Z</time></trkpt><trkpt lat="40.6944876" lon="9.6355233"><ele>373.0</ele><time>2026-04-17T08:47:48.66Z</time></trkpt><trkpt lat="40.6944654" lon="9.6354223"><ele>373.0</ele><time>2026-04-17T08:47:50.661Z</time></trkpt><trkpt lat="40.694491" lon="9.6352631"><ele>374.16666666666663</ele><time>2026-04-17T08:47:52.66Z</time></trkpt><trkpt lat="40.6945188" lon="9.6351866"><ele>375.3333333333333</ele><time>2026-04-17T08:47:53.657Z</time></trkpt><trkpt lat="40.6945607" lon="9.6351174"><ele>376.5</ele><time>2026-04-17T08:47:54.654Z</time></trkpt><trkpt lat="40.6946075" lon="9.6350368"><ele>377.6666666666667</ele><time>2026-04-17T08:47:55.651Z</time></trkpt><trkpt lat="40.6946568" lon="9.6349515"><ele>378.83333333333337</ele><time>2026-04-17T08:47:56.65Z</time></trkpt><trkpt lat="40.6947046" lon="9.6348856"><ele>380.0</ele><time>2026-04-17T08:47:57.647Z</time></trkpt><trkpt lat="40.6947545" lon="9.6347335"><ele>380.0</ele><time>2026-04-17T08:47:59.654Z</time></trkpt><trkpt lat="40.6947869" lon="9.6346328"><ele>380.0</ele><time>2026-04-17T08:48:00.651Z</time></trkpt><trkpt lat="40.6948248" lon="9.6345379"><ele>380.0</ele><time>2026-04-17T08:48:01.661Z</time></trkpt><trkpt lat="40.6948575" lon="9.6344454"><ele>380.0</ele><time>2026-04-17T08:48:02.651Z</time></trkpt><trkpt lat="40.6948862" lon="9.6343576"><ele>380.0</ele><time>2026-04-17T08:48:03.655Z</time></trkpt><trkpt lat="40.6949163" lon="9.6342783"><ele>380.0</ele><time>2026-04-17T08:48:04.661Z</time></trkpt><trkpt lat="40.6949443" lon="9.6341979"><ele>380.0</ele><time>2026-04-17T08:48:05.656Z</time></trkpt><trkpt lat="40.6949738" lon="9.6341113"><ele>379.5</ele><time>2026-04-17T08:48:06.656Z</time></trkpt><trkpt lat="40.6950141" lon="9.634031"><ele>379.0</ele><time>2026-04-17T08:48:07.658Z</time></trkpt><trkpt lat="40.6950553" lon="9.6339677"><ele>378.5</ele><time>2026-04-17T08:48:08.659Z</time></trkpt><trkpt lat="40.6951443" lon="9.6338806"><ele>378.0</ele><time>2026-04-17T08:48:10.66Z</time></trkpt><trkpt lat="40.6952203" lon="9.633839"><ele>377.5</ele><time>2026-04-17T08:48:12.666Z</time></trkpt><trkpt lat="40.6952743" lon="9.6337724"><ele>377.0</ele><time>2026-04-17T08:48:14.666Z</time></trkpt><trkpt lat="40.6953162" lon="9.6337004"><ele>374.33333333333337</ele><time>2026-04-17T08:48:15.661Z</time></trkpt><trkpt lat="40.6953509" lon="9.6336088"><ele>371.6666666666667</ele><time>2026-04-17T08:48:16.66Z</time></trkpt><trkpt lat="40.6953827" lon="9.6335204"><ele>369.0</ele><time>2026-04-17T08:48:17.677Z</time></trkpt><trkpt lat="40.6954109" lon="9.6334416"><ele>366.3333333333333</ele><time>2026-04-17T08:48:18.664Z</time></trkpt><trkpt lat="40.6954494" lon="9.633359"><ele>363.66666666666663</ele><time>2026-04-17T08:48:19.664Z</time></trkpt><trkpt lat="40.6954837" lon="9.6332827"><ele>361.0</ele><time>2026-04-17T08:48:20.663Z</time></trkpt><trkpt lat="40.6955573" lon="9.6331604"><ele>361.0</ele><time>2026-04-17T08:48:22.66Z</time></trkpt><trkpt lat="40.6956021" lon="9.6330903"><ele>361.0</ele><time>2026-04-17T08:48:23.658Z</time></trkpt><trkpt lat="40.6956347" lon="9.6330008"><ele>361.0</ele><time>2026-04-17T08:48:24.659Z</time></trkpt><trkpt lat="40.6956566" lon="9.6328969"><ele>361.0</ele><time>2026-04-17T08:48:25.659Z</time></trkpt><trkpt lat="40.6956778" lon="9.6327796"><ele>361.0</ele><time>2026-04-17T08:48:26.662Z</time></trkpt><trkpt lat="40.6956883" lon="9.6326609"><ele>361.0</ele><time>2026-04-17T08:48:27.66Z</time></trkpt><trkpt lat="40.6956903" lon="9.6325374"><ele>363.16666666666663</ele><time>2026-04-17T08:48:28.657Z</time></trkpt><trkpt lat="40.6956939" lon="9.6324243"><ele>365.3333333333333</ele><time>2026-04-17T08:48:29.656Z</time></trkpt><trkpt lat="40.6956804" lon="9.6323398"><ele>367.5</ele><time>2026-04-17T08:48:30.657Z</time></trkpt><trkpt lat="40.6956663" lon="9.632254"><ele>369.6666666666667</ele><time>2026-04-17T08:48:31.663Z</time></trkpt><trkpt lat="40.6956478" lon="9.6321567"><ele>371.83333333333337</ele><time>2026-04-17T08:48:32.654Z</time></trkpt><trkpt lat="40.6956224" lon="9.6320491"><ele>374.0</ele><time>2026-04-17T08:48:33.657Z</time></trkpt><trkpt lat="40.6955871" lon="9.6319444"><ele>377.33333333333337</ele><time>2026-04-17T08:48:34.651Z</time></trkpt><trkpt lat="40.6955502" lon="9.6318301"><ele>380.6666666666667</ele><time>2026-04-17T08:48:35.653Z</time></trkpt><trkpt lat="40.6955157" lon="9.63172"><ele>384.0</ele><time>2026-04-17T08:48:36.654Z</time></trkpt><trkpt lat="40.6954819" lon="9.6316195"><ele>387.33333333333337</ele><time>2026-04-17T08:48:37.654Z</time></trkpt><trkpt lat="40.6954377" lon="9.6315438"><ele>390.6666666666667</ele><time>2026-04-17T08:48:38.652Z</time></trkpt><trkpt lat="40.6953821" lon="9.6314824"><ele>394.0</ele><time>2026-04-17T08:48:39.66Z</time></trkpt><trkpt lat="40.6953256" lon="9.6314217"><ele>394.00000000000006</ele><time>2026-04-17T08:48:40.654Z</time></trkpt><trkpt lat="40.6952689" lon="9.6313291"><ele>394.0</ele><time>2026-04-17T08:48:42.656Z</time></trkpt><trkpt lat="40.695194" lon="9.6313071"><ele>394.0</ele><time>2026-04-17T08:48:45.665Z</time></trkpt><trkpt lat="40.6951139" lon="9.6313424"><ele>394.0</ele><time>2026-04-17T08:48:49.669Z</time></trkpt><trkpt lat="40.6950382" lon="9.6313476"><ele>394.00000000000006</ele><time>2026-04-17T08:48:50.652Z</time></trkpt><trkpt lat="40.6949369" lon="9.6313484"><ele>394.0</ele><time>2026-04-17T08:48:51.66Z</time></trkpt><trkpt lat="40.6948346" lon="9.6313326"><ele>390.4</ele><time>2026-04-17T08:48:52.654Z</time></trkpt><trkpt lat="40.6947477" lon="9.6312864"><ele>386.79999999999995</ele><time>2026-04-17T08:48:53.656Z</time></trkpt><trkpt lat="40.6946579" lon="9.6312175"><ele>383.20000000000005</ele><time>2026-04-17T08:48:54.655Z</time></trkpt><trkpt lat="40.6945648" lon="9.631159"><ele>379.6</ele><time>2026-04-17T08:48:55.66Z</time></trkpt><trkpt lat="40.6944792" lon="9.6311205"><ele>376.0</ele><time>2026-04-17T08:48:56.661Z</time></trkpt><trkpt lat="40.6943943" lon="9.6310859"><ele>375.5</ele><time>2026-04-17T08:48:57.661Z</time></trkpt><trkpt lat="40.6943112" lon="9.6310473"><ele>375.0</ele><time>2026-04-17T08:48:58.664Z</time></trkpt><trkpt lat="40.694225" lon="9.6310034"><ele>374.5</ele><time>2026-04-17T08:48:59.661Z</time></trkpt><trkpt lat="40.6941558" lon="9.6309662"><ele>374.0</ele><time>2026-04-17T08:49:00.656Z</time></trkpt><trkpt lat="40.6940529" lon="9.6309353"><ele>373.5</ele><time>2026-04-17T08:49:02.657Z</time></trkpt><trkpt lat="40.6939721" lon="9.6308924"><ele>373.0</ele><time>2026-04-17T08:49:04.659Z</time></trkpt><trkpt lat="40.6938721" lon="9.630826"><ele>373.0</ele><time>2026-04-17T08:49:06.656Z</time></trkpt><trkpt lat="40.6938118" lon="9.6307931"><ele>373.0</ele><time>2026-04-17T08:49:07.658Z</time></trkpt><trkpt lat="40.6937424" lon="9.6307725"><ele>373.0</ele><time>2026-04-17T08:49:08.66Z</time></trkpt><trkpt lat="40.6936762" lon="9.6307605"><ele>373.0</ele><time>2026-04-17T08:49:09.658Z</time></trkpt><trkpt lat="40.6936017" lon="9.6307498"><ele>373.0</ele><time>2026-04-17T08:49:10.662Z</time></trkpt><trkpt lat="40.6935223" lon="9.6307287"><ele>373.0</ele><time>2026-04-17T08:49:11.661Z</time></trkpt><trkpt lat="40.6934475" lon="9.6306987"><ele>373.0</ele><time>2026-04-17T08:49:12.662Z</time></trkpt><trkpt lat="40.6933837" lon="9.6306779"><ele>371.4</ele><time>2026-04-17T08:49:13.655Z</time></trkpt><trkpt lat="40.6933098" lon="9.6306673"><ele>369.79999999999995</ele><time>2026-04-17T08:49:14.655Z</time></trkpt><trkpt lat="40.6932385" lon="9.6306505"><ele>368.2</ele><time>2026-04-17T08:49:15.656Z</time></trkpt><trkpt lat="40.6931283" lon="9.6306274"><ele>366.6</ele><time>2026-04-17T08:49:17.66Z</time></trkpt><trkpt lat="40.6930214" lon="9.6306263"><ele>365.0</ele><time>2026-04-17T08:49:19.674Z</time></trkpt><trkpt lat="40.6929094" lon="9.630633"><ele>365.0</ele><time>2026-04-17T08:49:21.662Z</time></trkpt><trkpt lat="40.6928053" lon="9.6306466"><ele>365.0</ele><time>2026-04-17T08:49:23.665Z</time></trkpt><trkpt lat="40.6926932" lon="9.6306618"><ele>365.0</ele><time>2026-04-17T08:49:25.666Z</time></trkpt><trkpt lat="40.6926206" lon="9.630679"><ele>365.0</ele><time>2026-04-17T08:49:26.662Z</time></trkpt><trkpt lat="40.6925492" lon="9.6306858"><ele>365.0</ele><time>2026-04-17T08:49:27.664Z</time></trkpt><trkpt lat="40.6924741" lon="9.6307011"><ele>365.0</ele><time>2026-04-17T08:49:28.667Z</time></trkpt><trkpt lat="40.6924007" lon="9.6307108"><ele>362.5</ele><time>2026-04-17T08:49:29.66Z</time></trkpt><trkpt lat="40.6923239" lon="9.6307185"><ele>360.0</ele><time>2026-04-17T08:49:30.657Z</time></trkpt><trkpt lat="40.6922399" lon="9.6307255"><ele>357.5</ele><time>2026-04-17T08:49:31.666Z</time></trkpt><trkpt lat="40.6921578" lon="9.6307356"><ele>355.0</ele><time>2026-04-17T08:49:32.659Z</time></trkpt><trkpt lat="40.6920882" lon="9.6307502"><ele>352.5</ele><time>2026-04-17T08:49:33.656Z</time></trkpt><trkpt lat="40.6919897" lon="9.6307728"><ele>350.0</ele><time>2026-04-17T08:49:35.663Z</time></trkpt><trkpt lat="40.6919248" lon="9.6307857"><ele>345.2</ele><time>2026-04-17T08:49:36.662Z</time></trkpt><trkpt lat="40.6918165" lon="9.63079"><ele>340.4</ele><time>2026-04-17T08:49:38.659Z</time></trkpt><trkpt lat="40.6917482" lon="9.6307878"><ele>335.6</ele><time>2026-04-17T08:49:40.666Z</time></trkpt><trkpt lat="40.6916503" lon="9.6307988"><ele>330.8</ele><time>2026-04-17T08:49:42.665Z</time></trkpt><trkpt lat="40.6915903" lon="9.6308296"><ele>326.0</ele><time>2026-04-17T08:49:43.665Z</time></trkpt><trkpt lat="40.6914768" lon="9.6309079"><ele>326.0</ele><time>2026-04-17T08:49:45.661Z</time></trkpt><trkpt lat="40.6914057" lon="9.6309423"><ele>326.0</ele><time>2026-04-17T08:49:46.657Z</time></trkpt><trkpt lat="40.6913356" lon="9.6309848"><ele>326.0</ele><time>2026-04-17T08:49:47.648Z</time></trkpt><trkpt lat="40.6912599" lon="9.6310311"><ele>326.0</ele><time>2026-04-17T08:49:49.644Z</time></trkpt><trkpt lat="40.6911976" lon="9.6310623"><ele>326.0</ele><time>2026-04-17T08:59:59.681Z</time></trkpt><trkpt lat="40.6911207" lon="9.631071"><ele>326.0</ele><time>2026-04-17T09:00:03.673Z</time></trkpt><trkpt lat="40.691023" lon="9.6310526"><ele>322.6</ele><time>2026-04-17T09:00:05.673Z</time></trkpt><trkpt lat="40.6909566" lon="9.6310279"><ele>319.20000000000005</ele><time>2026-04-17T09:00:06.676Z</time></trkpt><trkpt lat="40.6908911" lon="9.63103"><ele>315.79999999999995</ele><time>2026-04-17T09:00:07.669Z</time></trkpt><trkpt lat="40.6907754" lon="9.6310288"><ele>312.4</ele><time>2026-04-17T09:00:09.692Z</time></trkpt><trkpt lat="40.6906533" lon="9.6309922"><ele>309.0</ele><time>2026-04-17T09:00:11.673Z</time></trkpt><trkpt lat="40.6905788" lon="9.6309851"><ele>309.0</ele><time>2026-04-17T09:00:12.674Z</time></trkpt><trkpt lat="40.690498" lon="9.6309898"><ele>309.0</ele><time>2026-04-17T09:00:13.675Z</time></trkpt><trkpt lat="40.6904153" lon="9.6309912"><ele>309.0</ele><time>2026-04-17T09:00:14.677Z</time></trkpt><trkpt lat="40.6903421" lon="9.6309986"><ele>309.0</ele><time>2026-04-17T09:00:15.674Z</time></trkpt><trkpt lat="40.6902681" lon="9.6310064"><ele>309.0</ele><time>2026-04-17T09:00:16.68Z</time></trkpt><trkpt lat="40.6901946" lon="9.6310075"><ele>309.0</ele><time>2026-04-17T09:00:17.673Z</time></trkpt><trkpt lat="40.6901218" lon="9.6310241"><ele>308.5</ele><time>2026-04-17T09:00:18.672Z</time></trkpt><trkpt lat="40.6900555" lon="9.6310352"><ele>308.0</ele><time>2026-04-17T09:00:19.681Z</time></trkpt><trkpt lat="40.689931" lon="9.6310485"><ele>307.5</ele><time>2026-04-17T09:00:21.677Z</time></trkpt><trkpt lat="40.6898679" lon="9.6310724"><ele>307.0</ele><time>2026-04-17T09:00:22.678Z</time></trkpt><trkpt lat="40.689795" lon="9.6311049"><ele>306.5</ele><time>2026-04-17T09:00:23.673Z</time></trkpt><trkpt lat="40.6897069" lon="9.6311361"><ele>306.0</ele><time>2026-04-17T09:00:24.679Z</time></trkpt><trkpt lat="40.6896166" lon="9.6311747"><ele>305.40000000000003</ele><time>2026-04-17T09:00:25.671Z</time></trkpt><trkpt lat="40.6895306" lon="9.6312234"><ele>304.8</ele><time>2026-04-17T09:00:26.68Z</time></trkpt><trkpt lat="40.6894508" lon="9.6312597"><ele>304.20000000000005</ele><time>2026-04-17T09:00:27.667Z</time></trkpt><trkpt lat="40.6893672" lon="9.6313366"><ele>303.6</ele><time>2026-04-17T09:00:29.683Z</time></trkpt><trkpt lat="40.6892852" lon="9.6314477"><ele>303.0</ele><time>2026-04-17T09:00:31.684Z</time></trkpt><trkpt lat="40.6891978" lon="9.6315107"><ele>305.8</ele><time>2026-04-17T09:00:33.677Z</time></trkpt><trkpt lat="40.6891271" lon="9.6315401"><ele>308.6</ele><time>2026-04-17T09:00:51.692Z</time></trkpt><trkpt lat="40.689062" lon="9.6315955"><ele>311.4</ele><time>2026-04-17T09:00:53.696Z</time></trkpt><trkpt lat="40.6889843" lon="9.6316956"><ele>314.2</ele><time>2026-04-17T09:00:55.686Z</time></trkpt><trkpt lat="40.6888935" lon="9.6317939"><ele>317.0</ele><time>2026-04-17T09:00:57.683Z</time></trkpt><trkpt lat="40.6888091" lon="9.631894"><ele>313.0</ele><time>2026-04-17T09:00:59.683Z</time></trkpt><trkpt lat="40.6887264" lon="9.6319886"><ele>309.0</ele><time>2026-04-17T09:01:01.684Z</time></trkpt><trkpt lat="40.6886461" lon="9.6320522"><ele>305.0</ele><time>2026-04-17T09:01:03.679Z</time></trkpt><trkpt lat="40.6885914" lon="9.6320933"><ele>301.0</ele><time>2026-04-17T09:01:05.69Z</time></trkpt><trkpt lat="40.6885215" lon="9.6321943"><ele>297.0</ele><time>2026-04-17T09:01:07.678Z</time></trkpt><trkpt lat="40.6884812" lon="9.6322592"><ele>293.0</ele><time>2026-04-17T09:01:08.683Z</time></trkpt><trkpt lat="40.6884347" lon="9.6323223"><ele>292.5</ele><time>2026-04-17T09:01:09.678Z</time></trkpt><trkpt lat="40.6883466" lon="9.6324333"><ele>292.0</ele><time>2026-04-17T09:01:11.687Z</time></trkpt><trkpt lat="40.6882791" lon="9.6325452"><ele>291.5</ele><time>2026-04-17T09:01:13.681Z</time></trkpt><trkpt lat="40.6882008" lon="9.6326548"><ele>291.0</ele><time>2026-04-17T09:01:15.68Z</time></trkpt><trkpt lat="40.6881085" lon="9.6327636"><ele>287.6666666666667</ele><time>2026-04-17T09:01:17.679Z</time></trkpt><trkpt lat="40.688061" lon="9.6328229"><ele>284.3333333333333</ele><time>2026-04-17T09:01:18.682Z</time></trkpt><trkpt lat="40.6880128" lon="9.6328788"><ele>281.0</ele><time>2026-04-17T09:01:19.681Z</time></trkpt><trkpt lat="40.6879364" lon="9.6329677"><ele>277.66666666666663</ele><time>2026-04-17T09:01:21.678Z</time></trkpt><trkpt lat="40.6879136" lon="9.6330543"><ele>274.3333333333333</ele><time>2026-04-17T09:01:39.688Z</time></trkpt><trkpt lat="40.6879275" lon="9.6331726"><ele>271.0</ele><time>2026-04-17T09:01:42.688Z</time></trkpt><trkpt lat="40.6879778" lon="9.6332567"><ele>271.0</ele><time>2026-04-17T09:01:44.679Z</time></trkpt><trkpt lat="40.6880374" lon="9.633356"><ele>271.0</ele><time>2026-04-17T09:01:46.684Z</time></trkpt><trkpt lat="40.688105" lon="9.6334117"><ele>271.0</ele><time>2026-04-17T09:01:48.681Z</time></trkpt><trkpt lat="40.6881843" lon="9.6334326"><ele>271.0</ele><time>2026-04-17T09:01:50.678Z</time></trkpt><trkpt lat="40.6882728" lon="9.6333875"><ele>271.0</ele><time>2026-04-17T09:01:53.677Z</time></trkpt><trkpt lat="40.688342" lon="9.6333717"><ele>271.0</ele><time>2026-04-17T09:01:55.664Z</time></trkpt><trkpt lat="40.6884349" lon="9.6333613"><ele>271.0</ele><time>2026-04-17T09:01:57.662Z</time></trkpt><trkpt lat="40.688524" lon="9.6333358"><ele>271.0</ele><time>2026-04-17T09:01:59.671Z</time></trkpt><trkpt lat="40.6885999" lon="9.6333206"><ele>271.0</ele><time>2026-04-17T09:02:01.673Z</time></trkpt><trkpt lat="40.688668" lon="9.6333263"><ele>271.0</ele><time>2026-04-17T09:02:03.678Z</time></trkpt><trkpt lat="40.6887737" lon="9.6333472"><ele>271.0</ele><time>2026-04-17T09:02:05.668Z</time></trkpt><trkpt lat="40.688887" lon="9.6333591"><ele>268.0</ele><time>2026-04-17T09:02:07.66Z</time></trkpt><trkpt lat="40.6889827" lon="9.6333625"><ele>265.0</ele><time>2026-04-17T09:02:09.674Z</time></trkpt><trkpt lat="40.6890517" lon="9.633381"><ele>262.0</ele><time>2026-04-17T09:02:11.67Z</time></trkpt><trkpt lat="40.6891177" lon="9.6334159"><ele>259.0</ele><time>2026-04-17T09:02:13.677Z</time></trkpt><trkpt lat="40.6891791" lon="9.6334383"><ele>255.99999999999997</ele><time>2026-04-17T09:02:15.67Z</time></trkpt><trkpt lat="40.6892828" lon="9.6334301"><ele>253.0</ele><time>2026-04-17T09:02:17.674Z</time></trkpt><trkpt lat="40.6893697" lon="9.6333898"><ele>247.0</ele><time>2026-04-17T09:02:19.663Z</time></trkpt><trkpt lat="40.6894732" lon="9.6333002"><ele>241.0</ele><time>2026-04-17T09:02:21.665Z</time></trkpt><trkpt lat="40.6895664" lon="9.6331993"><ele>235.0</ele><time>2026-04-17T09:02:23.666Z</time></trkpt><trkpt lat="40.6896707" lon="9.6331028"><ele>229.0</ele><time>2026-04-17T09:02:25.667Z</time></trkpt><trkpt lat="40.6897684" lon="9.6330322"><ele>229.0</ele><time>2026-04-17T09:02:27.664Z</time></trkpt><trkpt lat="40.6898612" lon="9.6329758"><ele>228.99999999999997</ele><time>2026-04-17T09:02:29.661Z</time></trkpt><trkpt lat="40.689965" lon="9.6329372"><ele>228.99999999999997</ele><time>2026-04-17T09:02:31.662Z</time></trkpt><trkpt lat="40.6900701" lon="9.6329226"><ele>229.0</ele><time>2026-04-17T09:02:33.663Z</time></trkpt><trkpt lat="40.6901743" lon="9.6329804"><ele>229.0</ele><time>2026-04-17T09:02:35.656Z</time></trkpt><trkpt lat="40.690243" lon="9.6329896"><ele>228.66666666666666</ele><time>2026-04-17T09:02:36.664Z</time></trkpt><trkpt lat="40.6903163" lon="9.6329797"><ele>228.33333333333331</ele><time>2026-04-17T09:02:37.657Z</time></trkpt><trkpt lat="40.6904342" lon="9.6329468"><ele>228.0</ele><time>2026-04-17T09:02:39.665Z</time></trkpt><trkpt lat="40.6905312" lon="9.6329111"><ele>227.66666666666669</ele><time>2026-04-17T09:02:41.662Z</time></trkpt><trkpt lat="40.6905966" lon="9.6328855"><ele>227.33333333333334</ele><time>2026-04-17T09:02:42.66Z</time></trkpt><trkpt lat="40.6906593" lon="9.6328713"><ele>227.0</ele><time>2026-04-17T09:02:43.661Z</time></trkpt><trkpt lat="40.6907577" lon="9.6329159"><ele>227.00000000000003</ele><time>2026-04-17T09:02:45.661Z</time></trkpt><trkpt lat="40.6908266" lon="9.6329601"><ele>227.0</ele><time>2026-04-17T09:02:47.673Z</time></trkpt><trkpt lat="40.6908902" lon="9.6329669"><ele>227.0</ele><time>2026-04-17T09:02:49.67Z</time></trkpt><trkpt lat="40.6908951" lon="9.6330691"><ele>227.0</ele><time>2026-04-17T09:02:53.669Z</time></trkpt><trkpt lat="40.6908338" lon="9.6331049"><ele>227.00000000000003</ele><time>2026-04-17T09:02:55.674Z</time></trkpt><trkpt lat="40.6907154" lon="9.6331636"><ele>227.0</ele><time>2026-04-17T09:02:57.671Z</time></trkpt><trkpt lat="40.69064" lon="9.6332058"><ele>227.00000000000003</ele><time>2026-04-17T09:02:58.661Z</time></trkpt><trkpt lat="40.6905762" lon="9.6332423"><ele>227.0</ele><time>2026-04-17T09:02:59.665Z</time></trkpt><trkpt lat="40.6905112" lon="9.6332762"><ele>227.0</ele><time>2026-04-17T09:03:00.659Z</time></trkpt><trkpt lat="40.6904017" lon="9.6333061"><ele>227.0</ele><time>2026-04-17T09:03:02.666Z</time></trkpt><trkpt lat="40.6903159" lon="9.6333383"><ele>227.00000000000003</ele><time>2026-04-17T09:03:04.667Z</time></trkpt><trkpt lat="40.6902651" lon="9.6334226"><ele>227.0</ele><time>2026-04-17T09:03:06.671Z</time></trkpt><trkpt lat="40.6901568" lon="9.6334359"><ele>227.33333333333334</ele><time>2026-04-17T09:03:08.676Z</time></trkpt><trkpt lat="40.6900936" lon="9.6334553"><ele>227.66666666666669</ele><time>2026-04-17T09:03:09.655Z</time></trkpt><trkpt lat="40.6900157" lon="9.6335379"><ele>228.0</ele><time>2026-04-17T09:03:11.666Z</time></trkpt><trkpt lat="40.6899269" lon="9.6335847"><ele>228.33333333333331</ele><time>2026-04-17T09:03:13.66Z</time></trkpt><trkpt lat="40.6898548" lon="9.6336451"><ele>228.66666666666666</ele><time>2026-04-17T09:03:15.681Z</time></trkpt><trkpt lat="40.6897894" lon="9.6337409"><ele>229.0</ele><time>2026-04-17T09:03:17.664Z</time></trkpt><trkpt lat="40.689737" lon="9.6338285"><ele>227.0</ele><time>2026-04-17T09:03:19.657Z</time></trkpt><trkpt lat="40.6896644" lon="9.6339014"><ele>224.99999999999997</ele><time>2026-04-17T09:03:21.656Z</time></trkpt><trkpt lat="40.6895751" lon="9.6339881"><ele>222.99999999999997</ele><time>2026-04-17T09:03:23.667Z</time></trkpt><trkpt lat="40.6894809" lon="9.6340675"><ele>221.0</ele><time>2026-04-17T09:03:25.661Z</time></trkpt><trkpt lat="40.6893883" lon="9.6341453"><ele>219.0</ele><time>2026-04-17T09:03:27.662Z</time></trkpt><trkpt lat="40.6893098" lon="9.6342335"><ele>219.0</ele><time>2026-04-17T09:03:29.653Z</time></trkpt><trkpt lat="40.6892703" lon="9.6343472"><ele>218.99999999999997</ele><time>2026-04-17T09:03:31.657Z</time></trkpt><trkpt lat="40.68924" lon="9.6344853"><ele>218.99999999999997</ele><time>2026-04-17T09:03:33.645Z</time></trkpt><trkpt lat="40.6892547" lon="9.6346477"><ele>219.0</ele><time>2026-04-17T09:03:35.646Z</time></trkpt><trkpt lat="40.6892462" lon="9.6347597"><ele>219.0</ele><time>2026-04-17T09:03:37.653Z</time></trkpt><trkpt lat="40.68921" lon="9.6348682"><ele>214.83333333333334</ele><time>2026-04-17T09:03:39.669Z</time></trkpt><trkpt lat="40.6891559" lon="9.6349823"><ele>210.66666666666669</ele><time>2026-04-17T09:03:41.658Z</time></trkpt><trkpt lat="40.6891227" lon="9.6350585"><ele>206.5</ele><time>2026-04-17T09:03:42.657Z</time></trkpt><trkpt lat="40.6890942" lon="9.63514"><ele>202.33333333333334</ele><time>2026-04-17T09:03:43.652Z</time></trkpt><trkpt lat="40.6890789" lon="9.6352308"><ele>198.16666666666669</ele><time>2026-04-17T09:03:44.649Z</time></trkpt><trkpt lat="40.6890501" lon="9.6353277"><ele>194.0</ele><time>2026-04-17T09:03:45.654Z</time></trkpt><trkpt lat="40.6890123" lon="9.6354357"><ele>191.6</ele><time>2026-04-17T09:03:46.651Z</time></trkpt><trkpt lat="40.6889625" lon="9.6355113"><ele>189.2</ele><time>2026-04-17T09:03:47.654Z</time></trkpt><trkpt lat="40.6888988" lon="9.6355719"><ele>186.79999999999998</ele><time>2026-04-17T09:03:48.65Z</time></trkpt><trkpt lat="40.6888324" lon="9.6356306"><ele>184.39999999999998</ele><time>2026-04-17T09:03:49.651Z</time></trkpt><trkpt lat="40.688733" lon="9.635683"><ele>182.0</ele><time>2026-04-17T09:03:51.654Z</time></trkpt><trkpt lat="40.688635" lon="9.6357709"><ele>182.5</ele><time>2026-04-17T09:03:53.646Z</time></trkpt><trkpt lat="40.6885821" lon="9.6358185"><ele>183.0</ele><time>2026-04-17T09:03:54.653Z</time></trkpt><trkpt lat="40.688488" lon="9.6358852"><ele>183.5</ele><time>2026-04-17T09:03:56.65Z</time></trkpt><trkpt lat="40.6884449" lon="9.6359529"><ele>184.0</ele><time>2026-04-17T09:03:58.667Z</time></trkpt><trkpt lat="40.6883741" lon="9.6359589"><ele>184.5</ele><time>2026-04-17T09:10:45.661Z</time></trkpt><trkpt lat="40.6883018" lon="9.6359851"><ele>185.0</ele><time>2026-04-17T09:10:47.666Z</time></trkpt><trkpt lat="40.688222" lon="9.6360536"><ele>185.0</ele><time>2026-04-17T09:10:49.655Z</time></trkpt><trkpt lat="40.6881165" lon="9.6360602"><ele>185.0</ele><time>2026-04-17T09:10:51.656Z</time></trkpt><trkpt lat="40.6882083" lon="9.6360597"><ele>185.0</ele><time>2026-04-17T09:10:56.655Z</time></trkpt><trkpt lat="40.6882784" lon="9.6360251"><ele>185.0</ele><time>2026-04-17T09:10:57.662Z</time></trkpt><trkpt lat="40.6883847" lon="9.6359531"><ele>185.0</ele><time>2026-04-17T09:10:59.651Z</time></trkpt><trkpt lat="40.6882964" lon="9.6359835"><ele>185.0</ele><time>2026-04-17T09:18:42.655Z</time></trkpt><trkpt lat="40.6881996" lon="9.6360228"><ele>185.0</ele><time>2026-04-17T09:18:43.641Z</time></trkpt><trkpt lat="40.6881053" lon="9.6360657"><ele>185.0</ele><time>2026-04-17T09:18:44.645Z</time></trkpt><trkpt lat="40.688008" lon="9.6360691"><ele>185.0</ele><time>2026-04-17T09:18:45.654Z</time></trkpt><trkpt lat="40.6879079" lon="9.6360565"><ele>185.0</ele><time>2026-04-17T09:18:46.653Z</time></trkpt><trkpt lat="40.6878161" lon="9.6360587"><ele>186.6</ele><time>2026-04-17T09:18:47.649Z</time></trkpt><trkpt lat="40.687724" lon="9.6360651"><ele>188.2</ele><time>2026-04-17T09:18:48.649Z</time></trkpt><trkpt lat="40.6876317" lon="9.6360693"><ele>189.8</ele><time>2026-04-17T09:18:49.651Z</time></trkpt><trkpt lat="40.6875643" lon="9.6360774"><ele>191.4</ele><time>2026-04-17T09:18:50.646Z</time></trkpt><trkpt lat="40.6874328" lon="9.636095"><ele>193.0</ele><time>2026-04-17T09:18:52.655Z</time></trkpt><trkpt lat="40.6873592" lon="9.6361008"><ele>192.99999999999997</ele><time>2026-04-17T09:18:53.648Z</time></trkpt><trkpt lat="40.6872768" lon="9.6361007"><ele>193.0</ele><time>2026-04-17T09:18:54.649Z</time></trkpt><trkpt lat="40.6871822" lon="9.6361013"><ele>193.0</ele><time>2026-04-17T09:18:55.649Z</time></trkpt><trkpt lat="40.6870859" lon="9.6361108"><ele>193.0</ele><time>2026-04-17T09:18:56.66Z</time></trkpt><trkpt lat="40.6869974" lon="9.6361147"><ele>192.99999999999997</ele><time>2026-04-17T09:18:57.654Z</time></trkpt><trkpt lat="40.6869162" lon="9.6360952"><ele>193.0</ele><time>2026-04-17T09:18:58.648Z</time></trkpt><trkpt lat="40.6868341" lon="9.6360528"><ele>193.60000000000002</ele><time>2026-04-17T09:18:59.652Z</time></trkpt><trkpt lat="40.6867621" lon="9.6359802"><ele>194.20000000000002</ele><time>2026-04-17T09:19:00.645Z</time></trkpt><trkpt lat="40.6867092" lon="9.6358849"><ele>194.8</ele><time>2026-04-17T09:19:01.644Z</time></trkpt><trkpt lat="40.6866832" lon="9.635756"><ele>195.4</ele><time>2026-04-17T09:19:02.647Z</time></trkpt><trkpt lat="40.6866682" lon="9.6356008"><ele>196.0</ele><time>2026-04-17T09:19:03.641Z</time></trkpt><trkpt lat="40.686639" lon="9.6354419"><ele>198.5</ele><time>2026-04-17T09:19:04.647Z</time></trkpt><trkpt lat="40.6866046" lon="9.6352875"><ele>201.0</ele><time>2026-04-17T09:19:05.65Z</time></trkpt><trkpt lat="40.6865589" lon="9.6351375"><ele>203.5</ele><time>2026-04-17T09:19:06.638Z</time></trkpt><trkpt lat="40.686506" lon="9.6350095"><ele>206.0</ele><time>2026-04-17T09:19:07.645Z</time></trkpt><trkpt lat="40.6864366" lon="9.6349111"><ele>206.0</ele><time>2026-04-17T09:19:08.651Z</time></trkpt><trkpt lat="40.6863555" lon="9.6348359"><ele>206.0</ele><time>2026-04-17T09:19:09.645Z</time></trkpt><trkpt lat="40.6862778" lon="9.6347528"><ele>206.0</ele><time>2026-04-17T09:19:10.654Z</time></trkpt><trkpt lat="40.6861902" lon="9.6346672"><ele>206.0</ele><time>2026-04-17T09:19:11.658Z</time></trkpt><trkpt lat="40.6860958" lon="9.6345845"><ele>206.0</ele><time>2026-04-17T09:19:12.657Z</time></trkpt><trkpt lat="40.6860055" lon="9.6345174"><ele>204.8</ele><time>2026-04-17T09:19:13.657Z</time></trkpt><trkpt lat="40.6859176" lon="9.6344519"><ele>203.60000000000002</ele><time>2026-04-17T09:19:14.66Z</time></trkpt><trkpt lat="40.685834" lon="9.6343896"><ele>202.4</ele><time>2026-04-17T09:19:15.654Z</time></trkpt><trkpt lat="40.6857479" lon="9.6342917"><ele>201.2</ele><time>2026-04-17T09:19:16.662Z</time></trkpt><trkpt lat="40.6856759" lon="9.6341624"><ele>200.0</ele><time>2026-04-17T09:19:17.652Z</time></trkpt><trkpt lat="40.6856161" lon="9.6340007"><ele>200.0</ele><time>2026-04-17T09:19:18.653Z</time></trkpt><trkpt lat="40.6855528" lon="9.6338336"><ele>200.0</ele><time>2026-04-17T09:19:19.659Z</time></trkpt><trkpt lat="40.6854914" lon="9.6336881"><ele>200.0</ele><time>2026-04-17T09:19:20.657Z</time></trkpt><trkpt lat="40.6854297" lon="9.6335364"><ele>200.0</ele><time>2026-04-17T09:19:21.652Z</time></trkpt><trkpt lat="40.6853813" lon="9.6333743"><ele>201.75</ele><time>2026-04-17T09:19:22.651Z</time></trkpt><trkpt lat="40.6853457" lon="9.633188"><ele>203.5</ele><time>2026-04-17T09:19:23.657Z</time></trkpt><trkpt lat="40.6853098" lon="9.6329913"><ele>205.25</ele><time>2026-04-17T09:19:24.649Z</time></trkpt><trkpt lat="40.6852653" lon="9.6328046"><ele>207.0</ele><time>2026-04-17T09:19:25.652Z</time></trkpt><trkpt lat="40.6852232" lon="9.6326332"><ele>199.75</ele><time>2026-04-17T09:19:26.65Z</time></trkpt><trkpt lat="40.6851758" lon="9.6324723"><ele>192.5</ele><time>2026-04-17T09:19:27.656Z</time></trkpt><trkpt lat="40.6851301" lon="9.6323261"><ele>185.25</ele><time>2026-04-17T09:19:28.652Z</time></trkpt><trkpt lat="40.6850976" lon="9.6321798"><ele>178.0</ele><time>2026-04-17T09:19:29.644Z</time></trkpt><trkpt lat="40.685086" lon="9.6320322"><ele>178.0</ele><time>2026-04-17T09:19:30.648Z</time></trkpt><trkpt lat="40.685106" lon="9.63189"><ele>178.0</ele><time>2026-04-17T09:19:31.647Z</time></trkpt><trkpt lat="40.6851137" lon="9.6317537"><ele>178.0</ele><time>2026-04-17T09:19:32.641Z</time></trkpt><trkpt lat="40.6850895" lon="9.6316543"><ele>178.0</ele><time>2026-04-17T09:19:33.638Z</time></trkpt><trkpt lat="40.6850218" lon="9.6315763"><ele>178.0</ele><time>2026-04-17T09:19:34.639Z</time></trkpt><trkpt lat="40.6849457" lon="9.6315069"><ele>178.0</ele><time>2026-04-17T09:19:35.645Z</time></trkpt><trkpt lat="40.6848443" lon="9.63147"><ele>178.0</ele><time>2026-04-17T09:19:36.649Z</time></trkpt><trkpt lat="40.6847456" lon="9.6314514"><ele>178.0</ele><time>2026-04-17T09:19:37.646Z</time></trkpt><trkpt lat="40.6846443" lon="9.6314518"><ele>178.0</ele><time>2026-04-17T09:19:38.65Z</time></trkpt><trkpt lat="40.6845416" lon="9.631494"><ele>178.0</ele><time>2026-04-17T09:19:39.651Z</time></trkpt><trkpt lat="40.6844465" lon="9.6315702"><ele>179.2</ele><time>2026-04-17T09:19:40.647Z</time></trkpt><trkpt lat="40.6843582" lon="9.6316731"><ele>180.4</ele><time>2026-04-17T09:19:41.644Z</time></trkpt><trkpt lat="40.6842804" lon="9.6317756"><ele>181.6</ele><time>2026-04-17T09:19:42.648Z</time></trkpt><trkpt lat="40.6842103" lon="9.6318834"><ele>182.79999999999998</ele><time>2026-04-17T09:19:43.646Z</time></trkpt><trkpt lat="40.6841499" lon="9.6319913"><ele>184.0</ele><time>2026-04-17T09:19:44.648Z</time></trkpt><trkpt lat="40.6841047" lon="9.6320984"><ele>184.0</ele><time>2026-04-17T09:19:45.643Z</time></trkpt><trkpt lat="40.6840549" lon="9.6322228"><ele>184.0</ele><time>2026-04-17T09:19:46.638Z</time></trkpt><trkpt lat="40.6839982" lon="9.6323562"><ele>184.0</ele><time>2026-04-17T09:19:47.65Z</time></trkpt><trkpt lat="40.6839416" lon="9.6324724"><ele>184.0</ele><time>2026-04-17T09:19:48.648Z</time></trkpt><trkpt lat="40.6838977" lon="9.632588"><ele>184.0</ele><time>2026-04-17T09:19:49.652Z</time></trkpt><trkpt lat="40.6838572" lon="9.6327289"><ele>183.0</ele><time>2026-04-17T09:19:50.645Z</time></trkpt><trkpt lat="40.6838222" lon="9.6328832"><ele>182.0</ele><time>2026-04-17T09:19:51.639Z</time></trkpt><trkpt lat="40.6838057" lon="9.6330374"><ele>181.0</ele><time>2026-04-17T09:19:52.634Z</time></trkpt><trkpt lat="40.6838146" lon="9.6332061"><ele>180.0</ele><time>2026-04-17T09:19:53.631Z</time></trkpt><trkpt lat="40.6838396" lon="9.6333615"><ele>180.0</ele><time>2026-04-17T09:19:54.635Z</time></trkpt><trkpt lat="40.6838724" lon="9.6335108"><ele>180.0</ele><time>2026-04-17T09:19:55.636Z</time></trkpt><trkpt lat="40.6838987" lon="9.6336632"><ele>180.0</ele><time>2026-04-17T09:19:56.64Z</time></trkpt><trkpt lat="40.6839022" lon="9.633817"><ele>180.0</ele><time>2026-04-17T09:19:57.645Z</time></trkpt><trkpt lat="40.6839049" lon="9.6339737"><ele>180.5</ele><time>2026-04-17T09:19:58.649Z</time></trkpt><trkpt lat="40.6838909" lon="9.634143"><ele>181.0</ele><time>2026-04-17T09:19:59.64Z</time></trkpt><trkpt lat="40.6838835" lon="9.6343212"><ele>181.5</ele><time>2026-04-17T09:20:00.641Z</time></trkpt><trkpt lat="40.6838781" lon="9.6344871"><ele>182.0</ele><time>2026-04-17T09:20:01.636Z</time></trkpt><trkpt lat="40.6838626" lon="9.6346647"><ele>181.5</ele><time>2026-04-17T09:20:02.633Z</time></trkpt><trkpt lat="40.6838525" lon="9.6348455"><ele>181.0</ele><time>2026-04-17T09:20:03.65Z</time></trkpt><trkpt lat="40.6838564" lon="9.6350216"><ele>180.5</ele><time>2026-04-17T09:20:04.64Z</time></trkpt><trkpt lat="40.6838666" lon="9.6351911"><ele>180.0</ele><time>2026-04-17T09:20:05.635Z</time></trkpt><trkpt lat="40.6838678" lon="9.6353475"><ele>180.0</ele><time>2026-04-17T09:20:06.649Z</time></trkpt><trkpt lat="40.6838664" lon="9.6354937"><ele>180.0</ele><time>2026-04-17T09:20:07.655Z</time></trkpt><trkpt lat="40.683859" lon="9.6355898"><ele>180.0</ele><time>2026-04-17T09:20:08.648Z</time></trkpt><trkpt lat="40.6838308" lon="9.6356681"><ele>180.0</ele><time>2026-04-17T09:20:09.666Z</time></trkpt><trkpt lat="40.6837699" lon="9.6357009"><ele>180.0</ele><time>2026-04-17T09:20:10.66Z</time></trkpt><trkpt lat="40.6836802" lon="9.6356254"><ele>180.0</ele><time>2026-04-17T09:20:12.654Z</time></trkpt><trkpt lat="40.6836582" lon="9.6355263"><ele>180.0</ele><time>2026-04-17T09:20:13.653Z</time></trkpt><trkpt lat="40.6836561" lon="9.6354122"><ele>180.0</ele><time>2026-04-17T09:20:14.65Z</time></trkpt><trkpt lat="40.6836706" lon="9.6352762"><ele>180.0</ele><time>2026-04-17T09:20:15.658Z</time></trkpt><trkpt lat="40.6836786" lon="9.6351356"><ele>180.0</ele><time>2026-04-17T09:20:16.656Z</time></trkpt><trkpt lat="40.6836873" lon="9.6349897"><ele>180.0</ele><time>2026-04-17T09:20:17.657Z</time></trkpt><trkpt lat="40.6836972" lon="9.6348339"><ele>180.5</ele><time>2026-04-17T09:20:18.653Z</time></trkpt><trkpt lat="40.6837121" lon="9.6346744"><ele>181.0</ele><time>2026-04-17T09:20:19.658Z</time></trkpt><trkpt lat="40.683715" lon="9.6345185"><ele>181.5</ele><time>2026-04-17T09:20:20.647Z</time></trkpt><trkpt lat="40.6837036" lon="9.6343619"><ele>182.0</ele><time>2026-04-17T09:20:21.647Z</time></trkpt><trkpt lat="40.6836898" lon="9.6342042"><ele>182.0</ele><time>2026-04-17T09:20:22.65Z</time></trkpt><trkpt lat="40.6836724" lon="9.6340555"><ele>182.0</ele><time>2026-04-17T09:20:23.659Z</time></trkpt><trkpt lat="40.683652" lon="9.6339135"><ele>182.0</ele><time>2026-04-17T09:20:24.646Z</time></trkpt><trkpt lat="40.6836274" lon="9.6337623"><ele>182.0</ele><time>2026-04-17T09:20:25.646Z</time></trkpt><trkpt lat="40.6836019" lon="9.6336163"><ele>190.75</ele><time>2026-04-17T09:20:26.641Z</time></trkpt><trkpt lat="40.6835595" lon="9.63348"><ele>199.5</ele><time>2026-04-17T09:20:27.65Z</time></trkpt><trkpt lat="40.6835057" lon="9.6333534"><ele>208.25</ele><time>2026-04-17T09:20:28.647Z</time></trkpt><trkpt lat="40.683418" lon="9.6332533"><ele>217.0</ele><time>2026-04-17T09:20:29.656Z</time></trkpt><trkpt lat="40.6833214" lon="9.6331604"><ele>217.0</ele><time>2026-04-17T09:20:30.653Z</time></trkpt><trkpt lat="40.6832271" lon="9.6330754"><ele>217.0</ele><time>2026-04-17T09:20:31.651Z</time></trkpt><trkpt lat="40.68314" lon="9.6329775"><ele>217.0</ele><time>2026-04-17T09:20:32.651Z</time></trkpt><trkpt lat="40.6830495" lon="9.6328893"><ele>217.0</ele><time>2026-04-17T09:20:33.663Z</time></trkpt><trkpt lat="40.6829713" lon="9.6328224"><ele>217.0</ele><time>2026-04-17T09:20:34.644Z</time></trkpt><trkpt lat="40.6829118" lon="9.632761"><ele>216.0</ele><time>2026-04-17T09:20:35.665Z</time></trkpt><trkpt lat="40.6828652" lon="9.6326103"><ele>215.0</ele><time>2026-04-17T09:20:37.662Z</time></trkpt><trkpt lat="40.6828605" lon="9.6325085"><ele>214.0</ele><time>2026-04-17T09:20:38.655Z</time></trkpt><trkpt lat="40.6828826" lon="9.6324106"><ele>213.0</ele><time>2026-04-17T09:20:39.673Z</time></trkpt><trkpt lat="40.6829469" lon="9.6323137"><ele>212.0</ele><time>2026-04-17T09:20:40.646Z</time></trkpt><trkpt lat="40.6830292" lon="9.6322042"><ele>212.0</ele><time>2026-04-17T09:20:41.648Z</time></trkpt><trkpt lat="40.6831172" lon="9.6320981"><ele>212.0</ele><time>2026-04-17T09:20:42.654Z</time></trkpt><trkpt lat="40.6831919" lon="9.6319627"><ele>212.0</ele><time>2026-04-17T09:20:43.666Z</time></trkpt><trkpt lat="40.6832625" lon="9.6318074"><ele>212.0</ele><time>2026-04-17T09:20:44.661Z</time></trkpt><trkpt lat="40.6833393" lon="9.6316626"><ele>216.25</ele><time>2026-04-17T09:20:45.656Z</time></trkpt><trkpt lat="40.6834134" lon="9.6315295"><ele>220.5</ele><time>2026-04-17T09:20:46.66Z</time></trkpt><trkpt lat="40.6834939" lon="9.6314112"><ele>224.75</ele><time>2026-04-17T09:20:47.655Z</time></trkpt><trkpt lat="40.6835435" lon="9.6312886"><ele>229.0</ele><time>2026-04-17T09:20:48.652Z</time></trkpt><trkpt lat="40.6835762" lon="9.6311426"><ele>232.5</ele><time>2026-04-17T09:20:49.676Z</time></trkpt><trkpt lat="40.6835614" lon="9.6309741"><ele>236.0</ele><time>2026-04-17T09:20:50.654Z</time></trkpt><trkpt lat="40.6835254" lon="9.6308158"><ele>239.5</ele><time>2026-04-17T09:20:51.656Z</time></trkpt><trkpt lat="40.6834809" lon="9.630656"><ele>243.0</ele><time>2026-04-17T09:20:52.658Z</time></trkpt><trkpt lat="40.6834341" lon="9.6304995"><ele>243.0</ele><time>2026-04-17T09:20:53.657Z</time></trkpt><trkpt lat="40.6833902" lon="9.6303344"><ele>243.0</ele><time>2026-04-17T09:20:54.647Z</time></trkpt><trkpt lat="40.6833488" lon="9.6301809"><ele>243.0</ele><time>2026-04-17T09:20:55.64Z</time></trkpt><trkpt lat="40.6833222" lon="9.6300248"><ele>243.0</ele><time>2026-04-17T09:20:56.633Z</time></trkpt><trkpt lat="40.6833144" lon="9.6298542"><ele>243.75</ele><time>2026-04-17T09:20:57.63Z</time></trkpt><trkpt lat="40.6833244" lon="9.6296887"><ele>244.5</ele><time>2026-04-17T09:20:58.625Z</time></trkpt><trkpt lat="40.6833453" lon="9.6295243"><ele>245.25</ele><time>2026-04-17T09:20:59.635Z</time></trkpt><trkpt lat="40.68333" lon="9.6293603"><ele>246.0</ele><time>2026-04-17T09:21:00.625Z</time></trkpt><trkpt lat="40.6833059" lon="9.6292008"><ele>246.0</ele><time>2026-04-17T09:21:01.63Z</time></trkpt><trkpt lat="40.6832729" lon="9.6290438"><ele>246.0</ele><time>2026-04-17T09:21:02.625Z</time></trkpt><trkpt lat="40.6832572" lon="9.6288899"><ele>246.0</ele><time>2026-04-17T09:21:03.639Z</time></trkpt><trkpt lat="40.6832575" lon="9.6287211"><ele>246.0</ele><time>2026-04-17T09:21:04.634Z</time></trkpt><trkpt lat="40.6832633" lon="9.6285575"><ele>248.0</ele><time>2026-04-17T09:21:05.628Z</time></trkpt><trkpt lat="40.6832594" lon="9.6283932"><ele>250.0</ele><time>2026-04-17T09:21:06.633Z</time></trkpt><trkpt lat="40.6832492" lon="9.6282219"><ele>252.0</ele><time>2026-04-17T09:21:07.63Z</time></trkpt><trkpt lat="40.6832528" lon="9.6280567"><ele>254.0</ele><time>2026-04-17T09:21:08.63Z</time></trkpt><trkpt lat="40.683278" lon="9.6278946"><ele>257.0</ele><time>2026-04-17T09:21:09.637Z</time></trkpt><trkpt lat="40.6833125" lon="9.6277248"><ele>260.0</ele><time>2026-04-17T09:21:10.637Z</time></trkpt><trkpt lat="40.683344" lon="9.6275373"><ele>263.0</ele><time>2026-04-17T09:21:11.635Z</time></trkpt><trkpt lat="40.6833468" lon="9.6273657"><ele>266.0</ele><time>2026-04-17T09:21:12.64Z</time></trkpt><trkpt lat="40.6833317" lon="9.6272009"><ele>266.0</ele><time>2026-04-17T09:21:13.649Z</time></trkpt><trkpt lat="40.6833031" lon="9.6270568"><ele>266.0</ele><time>2026-04-17T09:21:14.64Z</time></trkpt><trkpt lat="40.6832713" lon="9.6269337"><ele>266.0</ele><time>2026-04-17T09:21:15.641Z</time></trkpt><trkpt lat="40.6832519" lon="9.6268111"><ele>266.0</ele><time>2026-04-17T09:21:16.636Z</time></trkpt><trkpt lat="40.6832453" lon="9.6266903"><ele>266.0</ele><time>2026-04-17T09:21:17.638Z</time></trkpt><trkpt lat="40.683275" lon="9.626569"><ele>267.6</ele><time>2026-04-17T09:21:18.629Z</time></trkpt><trkpt lat="40.6833389" lon="9.6264656"><ele>269.20000000000005</ele><time>2026-04-17T09:21:19.635Z</time></trkpt><trkpt lat="40.6834238" lon="9.6263769"><ele>270.79999999999995</ele><time>2026-04-17T09:21:20.644Z</time></trkpt><trkpt lat="40.6835254" lon="9.6263392"><ele>272.4</ele><time>2026-04-17T09:21:21.657Z</time></trkpt><trkpt lat="40.6836316" lon="9.6263656"><ele>274.0</ele><time>2026-04-17T09:21:22.648Z</time></trkpt><trkpt lat="40.6837327" lon="9.6264261"><ele>277.5</ele><time>2026-04-17T09:21:23.652Z</time></trkpt><trkpt lat="40.683834" lon="9.626523"><ele>281.0</ele><time>2026-04-17T09:21:24.643Z</time></trkpt><trkpt lat="40.6839384" lon="9.6266229"><ele>284.5</ele><time>2026-04-17T09:21:25.649Z</time></trkpt><trkpt lat="40.6840361" lon="9.6267315"><ele>288.0</ele><time>2026-04-17T09:21:26.648Z</time></trkpt><trkpt lat="40.6841368" lon="9.6268489"><ele>288.0</ele><time>2026-04-17T09:21:27.642Z</time></trkpt><trkpt lat="40.6842455" lon="9.6269715"><ele>288.0</ele><time>2026-04-17T09:21:28.651Z</time></trkpt><trkpt lat="40.68435" lon="9.6270975"><ele>288.0</ele><time>2026-04-17T09:21:29.646Z</time></trkpt><trkpt lat="40.684454" lon="9.6272075"><ele>288.0</ele><time>2026-04-17T09:21:30.668Z</time></trkpt><trkpt lat="40.6845578" lon="9.6273284"><ele>288.0</ele><time>2026-04-17T09:21:31.725Z</time></trkpt><trkpt lat="40.6846561" lon="9.6274596"><ele>288.0</ele><time>2026-04-17T09:21:32.728Z</time></trkpt><trkpt lat="40.6847439" lon="9.6275868"><ele>288.0</ele><time>2026-04-17T09:21:33.735Z</time></trkpt><trkpt lat="40.6848327" lon="9.6276933"><ele>288.0</ele><time>2026-04-17T09:21:34.707Z</time></trkpt><trkpt lat="40.6849181" lon="9.6277637"><ele>288.0</ele><time>2026-04-17T09:21:35.713Z</time></trkpt><trkpt lat="40.6850083" lon="9.6277894"><ele>288.0</ele><time>2026-04-17T09:21:36.717Z</time></trkpt><trkpt lat="40.6850964" lon="9.6277648"><ele>288.0</ele><time>2026-04-17T09:21:37.715Z</time></trkpt><trkpt lat="40.6851724" lon="9.627726"><ele>288.0</ele><time>2026-04-17T09:21:38.73Z</time></trkpt><trkpt lat="40.6852434" lon="9.6276191"><ele>288.0</ele><time>2026-04-17T09:21:39.73Z</time></trkpt><trkpt lat="40.6853181" lon="9.6274943"><ele>285.25</ele><time>2026-04-17T09:21:40.635Z</time></trkpt><trkpt lat="40.6853941" lon="9.6273423"><ele>282.5</ele><time>2026-04-17T09:21:41.629Z</time></trkpt><trkpt lat="40.685476" lon="9.6272393"><ele>279.75</ele><time>2026-04-17T09:21:42.623Z</time></trkpt><trkpt lat="40.6855821" lon="9.6271626"><ele>277.0</ele><time>2026-04-17T09:21:43.63Z</time></trkpt><trkpt lat="40.6857003" lon="9.6271387"><ele>277.0</ele><time>2026-04-17T09:21:44.642Z</time></trkpt><trkpt lat="40.6858011" lon="9.6271108"><ele>277.0</ele><time>2026-04-17T09:21:45.639Z</time></trkpt><trkpt lat="40.6858763" lon="9.6270595"><ele>277.0</ele><time>2026-04-17T09:21:46.644Z</time></trkpt><trkpt lat="40.6859192" lon="9.6269696"><ele>277.0</ele><time>2026-04-17T09:21:47.648Z</time></trkpt><trkpt lat="40.6859104" lon="9.6268686"><ele>277.0</ele><time>2026-04-17T09:21:48.65Z</time></trkpt><trkpt lat="40.6858598" lon="9.6267817"><ele>277.0</ele><time>2026-04-17T09:21:49.648Z</time></trkpt><trkpt lat="40.6857799" lon="9.6267484"><ele>277.0</ele><time>2026-04-17T09:21:50.654Z</time></trkpt><trkpt lat="40.6856831" lon="9.6267827"><ele>277.0</ele><time>2026-04-17T09:21:51.647Z</time></trkpt><trkpt lat="40.685598" lon="9.6268388"><ele>277.0</ele><time>2026-04-17T09:21:52.644Z</time></trkpt><trkpt lat="40.6855044" lon="9.6269188"><ele>277.0</ele><time>2026-04-17T09:21:53.648Z</time></trkpt><trkpt lat="40.6854001" lon="9.6270035"><ele>277.0</ele><time>2026-04-17T09:21:54.645Z</time></trkpt><trkpt lat="40.6852925" lon="9.627084"><ele>279.75</ele><time>2026-04-17T09:21:55.644Z</time></trkpt><trkpt lat="40.6851801" lon="9.6271519"><ele>282.5</ele><time>2026-04-17T09:21:56.644Z</time></trkpt><trkpt lat="40.6850683" lon="9.627187"><ele>285.25</ele><time>2026-04-17T09:21:57.645Z</time></trkpt><trkpt lat="40.6849613" lon="9.6271622"><ele>288.0</ele><time>2026-04-17T09:21:58.644Z</time></trkpt><trkpt lat="40.68487" lon="9.6270858"><ele>294.25</ele><time>2026-04-17T09:21:59.645Z</time></trkpt><trkpt lat="40.6847987" lon="9.6269723"><ele>300.5</ele><time>2026-04-17T09:22:00.64Z</time></trkpt><trkpt lat="40.6847289" lon="9.6268513"><ele>306.75</ele><time>2026-04-17T09:22:01.652Z</time></trkpt><trkpt lat="40.6846557" lon="9.6267324"><ele>313.0</ele><time>2026-04-17T09:22:02.648Z</time></trkpt><trkpt lat="40.6845751" lon="9.6266113"><ele>313.0</ele><time>2026-04-17T09:22:03.65Z</time></trkpt><trkpt lat="40.6844995" lon="9.6264763"><ele>313.0</ele><time>2026-04-17T09:22:04.65Z</time></trkpt><trkpt lat="40.6844263" lon="9.6263391"><ele>313.0</ele><time>2026-04-17T09:22:05.653Z</time></trkpt><trkpt lat="40.6843588" lon="9.6261925"><ele>313.0</ele><time>2026-04-17T09:22:06.651Z</time></trkpt><trkpt lat="40.684299" lon="9.626039"><ele>314.5</ele><time>2026-04-17T09:22:07.65Z</time></trkpt><trkpt lat="40.6842439" lon="9.6258894"><ele>316.0</ele><time>2026-04-17T09:22:08.649Z</time></trkpt><trkpt lat="40.6841816" lon="9.6257464"><ele>317.5</ele><time>2026-04-17T09:22:09.65Z</time></trkpt><trkpt lat="40.684106" lon="9.6256231"><ele>319.0</ele><time>2026-04-17T09:22:10.634Z</time></trkpt><trkpt lat="40.6840145" lon="9.6255048"><ele>319.0</ele><time>2026-04-17T09:22:11.641Z</time></trkpt><trkpt lat="40.6839089" lon="9.6254255"><ele>319.0</ele><time>2026-04-17T09:22:12.646Z</time></trkpt><trkpt lat="40.6837985" lon="9.6253817"><ele>319.0</ele><time>2026-04-17T09:22:13.649Z</time></trkpt><trkpt lat="40.6836983" lon="9.6253204"><ele>319.0</ele><time>2026-04-17T09:22:14.647Z</time></trkpt><trkpt lat="40.6836182" lon="9.62523"><ele>321.2</ele><time>2026-04-17T09:22:15.642Z</time></trkpt><trkpt lat="40.6835511" lon="9.6251268"><ele>323.4</ele><time>2026-04-17T09:22:16.65Z</time></trkpt><trkpt lat="40.6834832" lon="9.6250178"><ele>325.6</ele><time>2026-04-17T09:22:17.651Z</time></trkpt><trkpt lat="40.683421" lon="9.6248995"><ele>327.8</ele><time>2026-04-17T09:22:18.649Z</time></trkpt><trkpt lat="40.6833626" lon="9.6248008"><ele>330.0</ele><time>2026-04-17T09:22:19.649Z</time></trkpt><trkpt lat="40.6832888" lon="9.624725"><ele>330.0</ele><time>2026-04-17T09:22:20.645Z</time></trkpt><trkpt lat="40.6832001" lon="9.6246826"><ele>330.0</ele><time>2026-04-17T09:22:21.647Z</time></trkpt><trkpt lat="40.6830962" lon="9.624666"><ele>330.0</ele><time>2026-04-17T09:22:22.648Z</time></trkpt><trkpt lat="40.6829971" lon="9.624672"><ele>330.0</ele><time>2026-04-17T09:22:23.653Z</time></trkpt><trkpt lat="40.6828933" lon="9.6246723"><ele>330.0</ele><time>2026-04-17T09:22:24.648Z</time></trkpt><trkpt lat="40.682794" lon="9.624672"><ele>329.5</ele><time>2026-04-17T09:22:25.648Z</time></trkpt><trkpt lat="40.682706" lon="9.6246719"><ele>329.0</ele><time>2026-04-17T09:22:26.653Z</time></trkpt><trkpt lat="40.6826222" lon="9.6246686"><ele>328.5</ele><time>2026-04-17T09:22:27.664Z</time></trkpt><trkpt lat="40.6825523" lon="9.6246773"><ele>328.0</ele><time>2026-04-17T09:22:28.655Z</time></trkpt><trkpt lat="40.6824523" lon="9.6246725"><ele>327.5</ele><time>2026-04-17T09:22:30.659Z</time></trkpt><trkpt lat="40.6823606" lon="9.6246124"><ele>327.0</ele><time>2026-04-17T09:22:32.654Z</time></trkpt><trkpt lat="40.6822981" lon="9.6245555"><ele>330.5</ele><time>2026-04-17T09:22:35.659Z</time></trkpt><trkpt lat="40.6822594" lon="9.624421"><ele>334.0</ele><time>2026-04-17T09:22:38.661Z</time></trkpt><trkpt lat="40.6822575" lon="9.6243255"><ele>337.5</ele><time>2026-04-17T09:22:39.65Z</time></trkpt><trkpt lat="40.6822711" lon="9.6242196"><ele>341.0</ele><time>2026-04-17T09:22:40.654Z</time></trkpt><trkpt lat="40.6822852" lon="9.6241047"><ele>344.5</ele><time>2026-04-17T09:22:41.656Z</time></trkpt><trkpt lat="40.6823121" lon="9.6239852"><ele>348.0</ele><time>2026-04-17T09:22:42.649Z</time></trkpt><trkpt lat="40.6823454" lon="9.6238663"><ele>348.0</ele><time>2026-04-17T09:22:43.651Z</time></trkpt><trkpt lat="40.6823926" lon="9.6237609"><ele>348.0</ele><time>2026-04-17T09:22:44.655Z</time></trkpt><trkpt lat="40.6824528" lon="9.6236492"><ele>348.0</ele><time>2026-04-17T09:22:45.654Z</time></trkpt><trkpt lat="40.6825104" lon="9.6235587"><ele>348.0</ele><time>2026-04-17T09:22:46.652Z</time></trkpt><trkpt lat="40.682569" lon="9.6234648"><ele>348.0</ele><time>2026-04-17T09:22:47.649Z</time></trkpt><trkpt lat="40.6826266" lon="9.6233743"><ele>348.59999999999997</ele><time>2026-04-17T09:22:48.644Z</time></trkpt><trkpt lat="40.6826808" lon="9.6232547"><ele>349.2</ele><time>2026-04-17T09:22:49.646Z</time></trkpt><trkpt lat="40.6827178" lon="9.6231385"><ele>349.8</ele><time>2026-04-17T09:22:50.632Z</time></trkpt><trkpt lat="40.6827356" lon="9.6230194"><ele>350.4</ele><time>2026-04-17T09:22:51.644Z</time></trkpt><trkpt lat="40.682719" lon="9.6228957"><ele>351.0</ele><time>2026-04-17T09:22:52.659Z</time></trkpt><trkpt lat="40.6826662" lon="9.6227713"><ele>354.25</ele><time>2026-04-17T09:22:53.637Z</time></trkpt><trkpt lat="40.6825846" lon="9.6226667"><ele>357.5</ele><time>2026-04-17T09:22:54.648Z</time></trkpt><trkpt lat="40.6825057" lon="9.6225661"><ele>360.75</ele><time>2026-04-17T09:22:55.645Z</time></trkpt><trkpt lat="40.6824395" lon="9.6224424"><ele>364.0</ele><time>2026-04-17T09:22:56.644Z</time></trkpt><trkpt lat="40.6823965" lon="9.6223034"><ele>364.0</ele><time>2026-04-17T09:22:57.653Z</time></trkpt><trkpt lat="40.6823777" lon="9.6221684"><ele>364.0</ele><time>2026-04-17T09:22:58.65Z</time></trkpt><trkpt lat="40.6823373" lon="9.6220505"><ele>364.0</ele><time>2026-04-17T09:22:59.644Z</time></trkpt><trkpt lat="40.6822643" lon="9.6219609"><ele>364.0</ele><time>2026-04-17T09:23:00.643Z</time></trkpt><trkpt lat="40.6821649" lon="9.6219"><ele>364.0</ele><time>2026-04-17T09:23:01.638Z</time></trkpt><trkpt lat="40.6820542" lon="9.6218696"><ele>362.4</ele><time>2026-04-17T09:23:02.646Z</time></trkpt><trkpt lat="40.6819488" lon="9.6218509"><ele>360.79999999999995</ele><time>2026-04-17T09:23:03.647Z</time></trkpt><trkpt lat="40.6818574" lon="9.6217774"><ele>359.20000000000005</ele><time>2026-04-17T09:23:04.652Z</time></trkpt><trkpt lat="40.6817976" lon="9.6216619"><ele>357.6</ele><time>2026-04-17T09:23:05.642Z</time></trkpt><trkpt lat="40.6817657" lon="9.6215216"><ele>356.0</ele><time>2026-04-17T09:23:06.64Z</time></trkpt><trkpt lat="40.681739" lon="9.6213724"><ele>356.0</ele><time>2026-04-17T09:23:07.644Z</time></trkpt><trkpt lat="40.6817204" lon="9.6212195"><ele>356.0</ele><time>2026-04-17T09:23:08.649Z</time></trkpt><trkpt lat="40.6817144" lon="9.6210498"><ele>356.0</ele><time>2026-04-17T09:23:09.651Z</time></trkpt><trkpt lat="40.681715" lon="9.6208799"><ele>356.0</ele><time>2026-04-17T09:23:10.652Z</time></trkpt><trkpt lat="40.6817201" lon="9.6207131"><ele>360.0</ele><time>2026-04-17T09:23:11.646Z</time></trkpt><trkpt lat="40.6817282" lon="9.6205544"><ele>364.0</ele><time>2026-04-17T09:23:12.649Z</time></trkpt><trkpt lat="40.6817428" lon="9.6203997"><ele>368.0</ele><time>2026-04-17T09:23:13.649Z</time></trkpt><trkpt lat="40.6817661" lon="9.6202521"><ele>372.0</ele><time>2026-04-17T09:23:14.644Z</time></trkpt><trkpt lat="40.6818034" lon="9.6201141"><ele>372.40000000000003</ele><time>2026-04-17T09:23:15.643Z</time></trkpt><trkpt lat="40.6818444" lon="9.6199826"><ele>372.8</ele><time>2026-04-17T09:23:16.645Z</time></trkpt><trkpt lat="40.6818861" lon="9.6198479"><ele>373.2</ele><time>2026-04-17T09:23:17.643Z</time></trkpt><trkpt lat="40.6819288" lon="9.6197127"><ele>373.6</ele><time>2026-04-17T09:23:18.643Z</time></trkpt><trkpt lat="40.6819738" lon="9.6195792"><ele>374.0</ele><time>2026-04-17T09:23:19.644Z</time></trkpt><trkpt lat="40.6819886" lon="9.6194502"><ele>378.0</ele><time>2026-04-17T09:23:20.645Z</time></trkpt><trkpt lat="40.6819708" lon="9.6193282"><ele>382.0</ele><time>2026-04-17T09:23:21.645Z</time></trkpt><trkpt lat="40.6819279" lon="9.6192262"><ele>386.0</ele><time>2026-04-17T09:23:22.65Z</time></trkpt><trkpt lat="40.68185" lon="9.619139"><ele>390.0</ele><time>2026-04-17T09:23:23.649Z</time></trkpt><trkpt lat="40.6817669" lon="9.6190633"><ele>394.0</ele><time>2026-04-17T09:23:24.636Z</time></trkpt><trkpt lat="40.6816615" lon="9.6190094"><ele>394.0</ele><time>2026-04-17T09:23:25.648Z</time></trkpt><trkpt lat="40.6815487" lon="9.6189659"><ele>394.0</ele><time>2026-04-17T09:23:26.652Z</time></trkpt><trkpt lat="40.6814354" lon="9.6189163"><ele>394.0</ele><time>2026-04-17T09:23:27.654Z</time></trkpt><trkpt lat="40.6813172" lon="9.6188557"><ele>394.0</ele><time>2026-04-17T09:23:28.651Z</time></trkpt><trkpt lat="40.6812045" lon="9.6187998"><ele>390.25</ele><time>2026-04-17T09:23:29.651Z</time></trkpt><trkpt lat="40.6810838" lon="9.618745"><ele>386.5</ele><time>2026-04-17T09:23:30.648Z</time></trkpt><trkpt lat="40.6809658" lon="9.6186935"><ele>382.75</ele><time>2026-04-17T09:23:31.649Z</time></trkpt><trkpt lat="40.6808526" lon="9.6186208"><ele>379.0</ele><time>2026-04-17T09:23:32.643Z</time></trkpt><trkpt lat="40.6807449" lon="9.6185209"><ele>387.75</ele><time>2026-04-17T09:23:33.643Z</time></trkpt><trkpt lat="40.6806533" lon="9.6184033"><ele>396.5</ele><time>2026-04-17T09:23:34.648Z</time></trkpt><trkpt lat="40.68057" lon="9.618275"><ele>405.25</ele><time>2026-04-17T09:23:35.646Z</time></trkpt><trkpt lat="40.6804956" lon="9.6181389"><ele>414.0</ele><time>2026-04-17T09:23:36.65Z</time></trkpt><trkpt lat="40.6804212" lon="9.6180079"><ele>414.0</ele><time>2026-04-17T09:23:37.647Z</time></trkpt><trkpt lat="40.6803474" lon="9.6178724"><ele>414.0</ele><time>2026-04-17T09:23:38.644Z</time></trkpt><trkpt lat="40.6802978" lon="9.6177188"><ele>414.0</ele><time>2026-04-17T09:23:39.641Z</time></trkpt><trkpt lat="40.680272" lon="9.6175575"><ele>414.0</ele><time>2026-04-17T09:23:40.64Z</time></trkpt><trkpt lat="40.680271" lon="9.6173887"><ele>420.75</ele><time>2026-04-17T09:23:41.642Z</time></trkpt><trkpt lat="40.6802885" lon="9.6172185"><ele>427.5</ele><time>2026-04-17T09:23:42.643Z</time></trkpt><trkpt lat="40.6803276" lon="9.6170485"><ele>434.25</ele><time>2026-04-17T09:23:43.646Z</time></trkpt><trkpt lat="40.6803792" lon="9.6168789"><ele>441.0</ele><time>2026-04-17T09:23:44.646Z</time></trkpt><trkpt lat="40.6804263" lon="9.6167116"><ele>442.5</ele><time>2026-04-17T09:23:45.645Z</time></trkpt><trkpt lat="40.6804766" lon="9.616557"><ele>444.0</ele><time>2026-04-17T09:23:46.64Z</time></trkpt><trkpt lat="40.6805322" lon="9.6164076"><ele>445.5</ele><time>2026-04-17T09:23:47.634Z</time></trkpt><trkpt lat="40.6805883" lon="9.6162788"><ele>447.0</ele><time>2026-04-17T09:23:48.633Z</time></trkpt><trkpt lat="40.6806294" lon="9.6161646"><ele>448.40000000000003</ele><time>2026-04-17T09:23:49.63Z</time></trkpt><trkpt lat="40.6806504" lon="9.6160482"><ele>449.80000000000007</ele><time>2026-04-17T09:23:50.639Z</time></trkpt><trkpt lat="40.6806288" lon="9.6159295"><ele>451.2</ele><time>2026-04-17T09:23:51.629Z</time></trkpt><trkpt lat="40.6805656" lon="9.6158336"><ele>452.6</ele><time>2026-04-17T09:23:52.633Z</time></trkpt><trkpt lat="40.6804677" lon="9.6157716"><ele>454.0</ele><time>2026-04-17T09:23:53.631Z</time></trkpt><trkpt lat="40.6803714" lon="9.615733"><ele>447.0</ele><time>2026-04-17T09:23:54.647Z</time></trkpt><trkpt lat="40.6802595" lon="9.6157041"><ele>440.0</ele><time>2026-04-17T09:23:55.64Z</time></trkpt><trkpt lat="40.6801525" lon="9.6156591"><ele>433.0</ele><time>2026-04-17T09:23:56.639Z</time></trkpt><trkpt lat="40.6800519" lon="9.6155855"><ele>426.0</ele><time>2026-04-17T09:23:57.638Z</time></trkpt><trkpt lat="40.6799809" lon="9.6154701"><ele>426.0</ele><time>2026-04-17T09:23:58.636Z</time></trkpt><trkpt lat="40.6799325" lon="9.6153324"><ele>426.0</ele><time>2026-04-17T09:23:59.636Z</time></trkpt><trkpt lat="40.6799113" lon="9.6151899"><ele>426.0</ele><time>2026-04-17T09:24:00.636Z</time></trkpt><trkpt lat="40.6799146" lon="9.6150285"><ele>426.0</ele><time>2026-04-17T09:24:01.64Z</time></trkpt><trkpt lat="40.6799075" lon="9.6148771"><ele>430.8</ele><time>2026-04-17T09:24:02.636Z</time></trkpt><trkpt lat="40.6798652" lon="9.6147564"><ele>435.6</ele><time>2026-04-17T09:24:03.631Z</time></trkpt><trkpt lat="40.6797902" lon="9.6146871"><ele>440.4</ele><time>2026-04-17T09:24:04.634Z</time></trkpt><trkpt lat="40.6796917" lon="9.6146542"><ele>445.2</ele><time>2026-04-17T09:24:05.641Z</time></trkpt><trkpt lat="40.6795802" lon="9.6146504"><ele>450.0</ele><time>2026-04-17T09:24:06.639Z</time></trkpt><trkpt lat="40.6794641" lon="9.6146291"><ele>452.75</ele><time>2026-04-17T09:24:07.64Z</time></trkpt><trkpt lat="40.6793431" lon="9.6145819"><ele>455.5</ele><time>2026-04-17T09:24:08.644Z</time></trkpt><trkpt lat="40.6792347" lon="9.61449"><ele>458.25</ele><time>2026-04-17T09:24:09.638Z</time></trkpt><trkpt lat="40.6791454" lon="9.6143763"><ele>461.0</ele><time>2026-04-17T09:24:10.64Z</time></trkpt><trkpt lat="40.6790609" lon="9.6142395"><ele>461.0</ele><time>2026-04-17T09:24:11.644Z</time></trkpt><trkpt lat="40.678967" lon="9.6141073"><ele>461.0</ele><time>2026-04-17T09:24:12.642Z</time></trkpt><trkpt lat="40.6788563" lon="9.6139946"><ele>461.0</ele><time>2026-04-17T09:24:13.64Z</time></trkpt><trkpt lat="40.6787493" lon="9.613923"><ele>461.0</ele><time>2026-04-17T09:24:14.638Z</time></trkpt><trkpt lat="40.6786254" lon="9.6138877"><ele>458.0</ele><time>2026-04-17T09:24:15.644Z</time></trkpt><trkpt lat="40.6784963" lon="9.6138831"><ele>455.0</ele><time>2026-04-17T09:24:16.642Z</time></trkpt><trkpt lat="40.6783611" lon="9.6138736"><ele>452.0</ele><time>2026-04-17T09:24:17.645Z</time></trkpt><trkpt lat="40.678234" lon="9.6138196"><ele>449.0</ele><time>2026-04-17T09:24:18.639Z</time></trkpt><trkpt lat="40.6781167" lon="9.6137401"><ele>452.75</ele><time>2026-04-17T09:24:19.643Z</time></trkpt><trkpt lat="40.6780047" lon="9.6136306"><ele>456.5</ele><time>2026-04-17T09:24:20.649Z</time></trkpt><trkpt lat="40.6778996" lon="9.6135124"><ele>460.25</ele><time>2026-04-17T09:24:21.647Z</time></trkpt><trkpt lat="40.6777896" lon="9.6134041"><ele>464.0</ele><time>2026-04-17T09:24:22.653Z</time></trkpt><trkpt lat="40.6776725" lon="9.6133097"><ele>464.0</ele><time>2026-04-17T09:24:23.65Z</time></trkpt><trkpt lat="40.6775673" lon="9.6132135"><ele>464.0</ele><time>2026-04-17T09:24:24.646Z</time></trkpt><trkpt lat="40.6774769" lon="9.6131165"><ele>464.0</ele><time>2026-04-17T09:24:25.65Z</time></trkpt><trkpt lat="40.6773934" lon="9.6129851"><ele>464.0</ele><time>2026-04-17T09:24:26.647Z</time></trkpt><trkpt lat="40.677316" lon="9.6128583"><ele>466.79999999999995</ele><time>2026-04-17T09:24:27.673Z</time></trkpt><trkpt lat="40.6772402" lon="9.612757"><ele>469.59999999999997</ele><time>2026-04-17T09:24:28.732Z</time></trkpt><trkpt lat="40.6771533" lon="9.6126827"><ele>472.4</ele><time>2026-04-17T09:24:29.728Z</time></trkpt><trkpt lat="40.6770622" lon="9.6126371"><ele>475.2</ele><time>2026-04-17T09:24:30.734Z</time></trkpt><trkpt lat="40.6769914" lon="9.6126305"><ele>478.0</ele><time>2026-04-17T09:24:31.711Z</time></trkpt><trkpt lat="40.6768781" lon="9.6126608"><ele>478.0</ele><time>2026-04-17T09:24:33.715Z</time></trkpt><trkpt lat="40.6767672" lon="9.6126592"><ele>477.99999999999994</ele><time>2026-04-17T09:24:35.728Z</time></trkpt><trkpt lat="40.6766682" lon="9.6126689"><ele>477.99999999999994</ele><time>2026-04-17T09:24:37.716Z</time></trkpt><trkpt lat="40.6765508" lon="9.61266"><ele>478.0</ele><time>2026-04-17T09:24:39.633Z</time></trkpt><trkpt lat="40.6764863" lon="9.6125671"><ele>478.0</ele><time>2026-04-17T09:24:41.65Z</time></trkpt><trkpt lat="40.6764315" lon="9.6124967"><ele>478.00000000000006</ele><time>2026-04-17T09:24:43.65Z</time></trkpt><trkpt lat="40.6763038" lon="9.6124626"><ele>478.0</ele><time>2026-04-17T09:24:45.64Z</time></trkpt><trkpt lat="40.6762243" lon="9.6124662"><ele>478.0</ele><time>2026-04-17T09:24:46.641Z</time></trkpt><trkpt lat="40.6761395" lon="9.612467"><ele>478.0</ele><time>2026-04-17T09:24:47.643Z</time></trkpt><trkpt lat="40.6760604" lon="9.612456"><ele>478.00000000000006</ele><time>2026-04-17T09:24:48.637Z</time></trkpt><trkpt lat="40.6759862" lon="9.6124433"><ele>478.0</ele><time>2026-04-17T09:24:49.64Z</time></trkpt><trkpt lat="40.6759147" lon="9.6124262"><ele>478.33333333333337</ele><time>2026-04-17T09:24:50.641Z</time></trkpt><trkpt lat="40.6758382" lon="9.6123984"><ele>478.6666666666667</ele><time>2026-04-17T09:24:51.642Z</time></trkpt><trkpt lat="40.6757627" lon="9.6123736"><ele>479.0</ele><time>2026-04-17T09:24:52.639Z</time></trkpt><trkpt lat="40.6756838" lon="9.6123289"><ele>479.33333333333337</ele><time>2026-04-17T09:24:53.636Z</time></trkpt><trkpt lat="40.6756204" lon="9.6122689"><ele>479.6666666666667</ele><time>2026-04-17T09:24:54.634Z</time></trkpt><trkpt lat="40.6755592" lon="9.6122277"><ele>480.0</ele><time>2026-04-17T09:24:55.632Z</time></trkpt><trkpt lat="40.6755049" lon="9.612184"><ele>480.0</ele><time>2026-04-17T09:24:56.642Z</time></trkpt><trkpt lat="40.6754488" lon="9.6121416"><ele>480.0</ele><time>2026-04-17T09:24:57.635Z</time></trkpt><trkpt lat="40.6753879" lon="9.6121069"><ele>480.0</ele><time>2026-04-17T09:24:58.633Z</time></trkpt><trkpt lat="40.6753197" lon="9.6120762"><ele>480.0</ele><time>2026-04-17T09:24:59.63Z</time></trkpt><trkpt lat="40.6752466" lon="9.6120512"><ele>480.0</ele><time>2026-04-17T09:25:00.631Z</time></trkpt><trkpt lat="40.6751333" lon="9.6120082"><ele>480.0</ele><time>2026-04-17T09:25:02.633Z</time></trkpt><trkpt lat="40.6750834" lon="9.6119511"><ele>478.3333333333333</ele><time>2026-04-17T09:25:03.632Z</time></trkpt><trkpt lat="40.6750484" lon="9.6118805"><ele>476.66666666666663</ele><time>2026-04-17T09:25:04.631Z</time></trkpt><trkpt lat="40.6750247" lon="9.6117943"><ele>475.0</ele><time>2026-04-17T09:25:05.635Z</time></trkpt><trkpt lat="40.6750036" lon="9.6116895"><ele>473.3333333333333</ele><time>2026-04-17T09:25:06.635Z</time></trkpt><trkpt lat="40.6749841" lon="9.6116086"><ele>471.66666666666663</ele><time>2026-04-17T09:25:07.634Z</time></trkpt><trkpt lat="40.6749455" lon="9.6114627"><ele>470.0</ele><time>2026-04-17T09:25:09.638Z</time></trkpt><trkpt lat="40.6749261" lon="9.6113705"><ele>470.0</ele><time>2026-04-17T09:25:10.635Z</time></trkpt><trkpt lat="40.6749074" lon="9.6112716"><ele>469.99999999999994</ele><time>2026-04-17T09:25:11.637Z</time></trkpt><trkpt lat="40.6748917" lon="9.6111736"><ele>470.0</ele><time>2026-04-17T09:25:12.638Z</time></trkpt><trkpt lat="40.6748736" lon="9.6110876"><ele>470.0</ele><time>2026-04-17T09:25:13.64Z</time></trkpt><trkpt lat="40.6748618" lon="9.6109935"><ele>469.99999999999994</ele><time>2026-04-17T09:25:14.642Z</time></trkpt><trkpt lat="40.6748514" lon="9.6109045"><ele>470.0</ele><time>2026-04-17T09:25:15.64Z</time></trkpt><trkpt lat="40.6748403" lon="9.6108121"><ele>470.0</ele><time>2026-04-17T09:25:16.641Z</time></trkpt><trkpt lat="40.6748221" lon="9.6107148"><ele>467.16666666666663</ele><time>2026-04-17T09:25:17.639Z</time></trkpt><trkpt lat="40.6747999" lon="9.6106235"><ele>464.3333333333333</ele><time>2026-04-17T09:25:18.638Z</time></trkpt><trkpt lat="40.6747687" lon="9.6105143"><ele>461.5</ele><time>2026-04-17T09:25:19.64Z</time></trkpt><trkpt lat="40.674723" lon="9.6104188"><ele>458.66666666666663</ele><time>2026-04-17T09:25:20.639Z</time></trkpt><trkpt lat="40.6746829" lon="9.6103301"><ele>455.8333333333333</ele><time>2026-04-17T09:25:21.636Z</time></trkpt><trkpt lat="40.6746414" lon="9.610246"><ele>453.0</ele><time>2026-04-17T09:25:22.641Z</time></trkpt><trkpt lat="40.6746029" lon="9.6101799"><ele>452.6666666666667</ele><time>2026-04-17T09:25:23.64Z</time></trkpt><trkpt lat="40.6745022" lon="9.6100995"><ele>452.33333333333337</ele><time>2026-04-17T09:25:25.644Z</time></trkpt><trkpt lat="40.6744354" lon="9.6100659"><ele>452.0</ele><time>2026-04-17T09:25:26.635Z</time></trkpt><trkpt lat="40.6743666" lon="9.6100252"><ele>451.6666666666667</ele><time>2026-04-17T09:25:27.644Z</time></trkpt><trkpt lat="40.6742877" lon="9.6100061"><ele>451.33333333333337</ele><time>2026-04-17T09:25:28.64Z</time></trkpt><trkpt lat="40.6742131" lon="9.6099857"><ele>451.0</ele><time>2026-04-17T09:25:29.639Z</time></trkpt><trkpt lat="40.6741287" lon="9.609959"><ele>451.0</ele><time>2026-04-17T09:25:30.635Z</time></trkpt><trkpt lat="40.6740465" lon="9.6099297"><ele>451.0</ele><time>2026-04-17T09:25:31.638Z</time></trkpt><trkpt lat="40.6739748" lon="9.609884"><ele>451.0</ele><time>2026-04-17T09:25:32.629Z</time></trkpt><trkpt lat="40.6739058" lon="9.6098218"><ele>451.0</ele><time>2026-04-17T09:25:33.626Z</time></trkpt><trkpt lat="40.673841" lon="9.6097539"><ele>451.0</ele><time>2026-04-17T09:25:34.627Z</time></trkpt><trkpt lat="40.6737531" lon="9.6096336"><ele>451.0</ele><time>2026-04-17T09:25:36.627Z</time></trkpt><trkpt lat="40.6737106" lon="9.6095613"><ele>451.0</ele><time>2026-04-17T09:25:37.632Z</time></trkpt><trkpt lat="40.67365" lon="9.6094242"><ele>451.0</ele><time>2026-04-17T09:25:39.628Z</time></trkpt><trkpt lat="40.6736478" lon="9.6092677"><ele>451.0</ele><time>2026-04-17T09:25:41.626Z</time></trkpt><trkpt lat="40.6737166" lon="9.6091245"><ele>451.0</ele><time>2026-04-17T09:25:43.629Z</time></trkpt><trkpt lat="40.6737657" lon="9.609064"><ele>447.1666666666667</ele><time>2026-04-17T09:25:44.631Z</time></trkpt><trkpt lat="40.6738201" lon="9.6090058"><ele>443.33333333333337</ele><time>2026-04-17T09:25:45.632Z</time></trkpt><trkpt lat="40.673864" lon="9.6089413"><ele>439.5</ele><time>2026-04-17T09:25:46.628Z</time></trkpt><trkpt lat="40.6738943" lon="9.6088585"><ele>435.66666666666663</ele><time>2026-04-17T09:25:47.635Z</time></trkpt><trkpt lat="40.6738847" lon="9.6086901"><ele>431.8333333333333</ele><time>2026-04-17T09:25:49.625Z</time></trkpt><trkpt lat="40.6738543" lon="9.6085892"><ele>428.0</ele><time>2026-04-17T09:25:50.628Z</time></trkpt><trkpt lat="40.6738354" lon="9.6084839"><ele>426.3333333333333</ele><time>2026-04-17T09:25:51.628Z</time></trkpt><trkpt lat="40.6738382" lon="9.6083956"><ele>424.66666666666663</ele><time>2026-04-17T09:25:52.633Z</time></trkpt><trkpt lat="40.6738523" lon="9.6083046"><ele>423.0</ele><time>2026-04-17T09:25:53.626Z</time></trkpt><trkpt lat="40.6738745" lon="9.6082131"><ele>421.33333333333337</ele><time>2026-04-17T09:25:54.622Z</time></trkpt><trkpt lat="40.6738936" lon="9.6081153"><ele>419.6666666666667</ele><time>2026-04-17T09:25:55.625Z</time></trkpt><trkpt lat="40.6739118" lon="9.6079994"><ele>418.0</ele><time>2026-04-17T09:25:56.631Z</time></trkpt><trkpt lat="40.6739207" lon="9.6078923"><ele>416.42857142857144</ele><time>2026-04-17T09:25:57.633Z</time></trkpt><trkpt lat="40.673926" lon="9.6077922"><ele>414.85714285714283</ele><time>2026-04-17T09:25:58.641Z</time></trkpt><trkpt lat="40.6739247" lon="9.60769"><ele>413.28571428571433</ele><time>2026-04-17T09:25:59.628Z</time></trkpt><trkpt lat="40.6739208" lon="9.6075892"><ele>411.7142857142857</ele><time>2026-04-17T09:26:00.637Z</time></trkpt><trkpt lat="40.6738974" lon="9.6074953"><ele>410.14285714285717</ele><time>2026-04-17T09:26:01.634Z</time></trkpt><trkpt lat="40.6738727" lon="9.6074186"><ele>408.5714285714286</ele><time>2026-04-17T09:26:02.634Z</time></trkpt><trkpt lat="40.6738337" lon="9.6073425"><ele>407.0</ele><time>2026-04-17T09:26:03.632Z</time></trkpt><trkpt lat="40.6737863" lon="9.6072822"><ele>406.99999999999994</ele><time>2026-04-17T09:26:04.632Z</time></trkpt><trkpt lat="40.673729" lon="9.6072354"><ele>407.0</ele><time>2026-04-17T09:26:05.627Z</time></trkpt><trkpt lat="40.6736746" lon="9.607191"><ele>407.0</ele><time>2026-04-17T09:26:06.633Z</time></trkpt><trkpt lat="40.6735974" lon="9.6070948"><ele>407.0</ele><time>2026-04-17T09:26:08.627Z</time></trkpt><trkpt lat="40.6735788" lon="9.606972"><ele>406.99999999999994</ele><time>2026-04-17T09:26:10.628Z</time></trkpt><trkpt lat="40.6736439" lon="9.606876"><ele>407.0</ele><time>2026-04-17T09:26:12.642Z</time></trkpt><trkpt lat="40.6736775" lon="9.6068042"><ele>405.16666666666663</ele><time>2026-04-17T09:26:13.633Z</time></trkpt><trkpt lat="40.6736985" lon="9.6067242"><ele>403.3333333333333</ele><time>2026-04-17T09:26:14.635Z</time></trkpt><trkpt lat="40.6737033" lon="9.6066295"><ele>401.5</ele><time>2026-04-17T09:26:15.63Z</time></trkpt><trkpt lat="40.6737099" lon="9.606531"><ele>399.66666666666663</ele><time>2026-04-17T09:26:16.633Z</time></trkpt><trkpt lat="40.6737089" lon="9.6064287"><ele>397.8333333333333</ele><time>2026-04-17T09:26:17.631Z</time></trkpt><trkpt lat="40.6736878" lon="9.60628"><ele>396.0</ele><time>2026-04-17T09:26:19.635Z</time></trkpt><trkpt lat="40.6736535" lon="9.6062032"><ele>397.8</ele><time>2026-04-17T09:26:20.632Z</time></trkpt><trkpt lat="40.6736087" lon="9.606144"><ele>399.6</ele><time>2026-04-17T09:26:21.635Z</time></trkpt><trkpt lat="40.67352" lon="9.6060314"><ele>401.4</ele><time>2026-04-17T09:26:23.634Z</time></trkpt><trkpt lat="40.6734813" lon="9.6058696"><ele>403.2</ele><time>2026-04-17T09:26:25.634Z</time></trkpt><trkpt lat="40.6734649" lon="9.6057836"><ele>405.0</ele><time>2026-04-17T09:26:26.635Z</time></trkpt><trkpt lat="40.6734633" lon="9.6056736"><ele>405.0</ele><time>2026-04-17T09:26:27.634Z</time></trkpt><trkpt lat="40.6734601" lon="9.6055567"><ele>405.0</ele><time>2026-04-17T09:26:28.632Z</time></trkpt><trkpt lat="40.673444" lon="9.6054623"><ele>405.0</ele><time>2026-04-17T09:26:29.633Z</time></trkpt><trkpt lat="40.673434" lon="9.6053686"><ele>405.0</ele><time>2026-04-17T09:26:30.632Z</time></trkpt><trkpt lat="40.6734113" lon="9.6052354"><ele>405.0</ele><time>2026-04-17T09:26:32.631Z</time></trkpt><trkpt lat="40.673346" lon="9.6051011"><ele>402.6</ele><time>2026-04-17T09:26:34.625Z</time></trkpt><trkpt lat="40.673314" lon="9.6050233"><ele>400.2</ele><time>2026-04-17T09:26:35.626Z</time></trkpt><trkpt lat="40.673263" lon="9.604913"><ele>397.79999999999995</ele><time>2026-04-17T09:26:37.633Z</time></trkpt><trkpt lat="40.673272" lon="9.6047802"><ele>395.4</ele><time>2026-04-17T09:26:39.625Z</time></trkpt><trkpt lat="40.6733548" lon="9.6046323"><ele>393.0</ele><time>2026-04-17T09:26:41.632Z</time></trkpt><trkpt lat="40.6734114" lon="9.6045571"><ele>391.1666666666667</ele><time>2026-04-17T09:26:42.636Z</time></trkpt><trkpt lat="40.6734616" lon="9.6044807"><ele>389.3333333333333</ele><time>2026-04-17T09:26:43.63Z</time></trkpt><trkpt lat="40.6734907" lon="9.6043966"><ele>387.5</ele><time>2026-04-17T09:26:44.632Z</time></trkpt><trkpt lat="40.6735083" lon="9.6042956"><ele>385.66666666666663</ele><time>2026-04-17T09:26:45.629Z</time></trkpt><trkpt lat="40.6735074" lon="9.6041998"><ele>383.8333333333333</ele><time>2026-04-17T09:26:46.63Z</time></trkpt><trkpt lat="40.6734864" lon="9.6041029"><ele>382.0</ele><time>2026-04-17T09:26:47.636Z</time></trkpt><trkpt lat="40.6734545" lon="9.6040002"><ele>382.0</ele><time>2026-04-17T09:26:48.635Z</time></trkpt><trkpt lat="40.6734337" lon="9.6039007"><ele>382.0</ele><time>2026-04-17T09:26:49.639Z</time></trkpt><trkpt lat="40.6733938" lon="9.603808"><ele>382.0</ele><time>2026-04-17T09:26:50.635Z</time></trkpt><trkpt lat="40.6733675" lon="9.603702"><ele>382.0</ele><time>2026-04-17T09:26:51.635Z</time></trkpt><trkpt lat="40.6733396" lon="9.603593"><ele>382.0</ele><time>2026-04-17T09:26:52.634Z</time></trkpt><trkpt lat="40.6733062" lon="9.6034978"><ele>382.0</ele><time>2026-04-17T09:26:53.64Z</time></trkpt><trkpt lat="40.6732628" lon="9.6034075"><ele>379.8333333333333</ele><time>2026-04-17T09:26:54.642Z</time></trkpt><trkpt lat="40.6732294" lon="9.6033054"><ele>377.66666666666663</ele><time>2026-04-17T09:26:55.639Z</time></trkpt><trkpt lat="40.6732082" lon="9.6032049"><ele>375.5</ele><time>2026-04-17T09:26:56.641Z</time></trkpt><trkpt lat="40.6731888" lon="9.6031029"><ele>373.3333333333333</ele><time>2026-04-17T09:26:57.639Z</time></trkpt><trkpt lat="40.6731614" lon="9.6030101"><ele>371.1666666666667</ele><time>2026-04-17T09:26:58.638Z</time></trkpt><trkpt lat="40.6731231" lon="9.6029265"><ele>369.0</ele><time>2026-04-17T09:26:59.633Z</time></trkpt><trkpt lat="40.6730931" lon="9.6028491"><ele>367.3333333333333</ele><time>2026-04-17T09:27:00.647Z</time></trkpt><trkpt lat="40.6730763" lon="9.6027674"><ele>365.6666666666667</ele><time>2026-04-17T09:27:01.636Z</time></trkpt><trkpt lat="40.6730454" lon="9.6026447"><ele>364.0</ele><time>2026-04-17T09:27:03.641Z</time></trkpt><trkpt lat="40.6730292" lon="9.6025429"><ele>362.33333333333337</ele><time>2026-04-17T09:27:05.65Z</time></trkpt><trkpt lat="40.6729806" lon="9.60244"><ele>360.6666666666667</ele><time>2026-04-17T09:27:08.653Z</time></trkpt><trkpt lat="40.6729284" lon="9.6023926"><ele>359.0</ele><time>2026-04-17T09:27:16.646Z</time></trkpt><trkpt lat="40.6728441" lon="9.602289"><ele>359.0</ele><time>2026-04-17T09:27:33.64Z</time></trkpt><trkpt lat="40.6727896" lon="9.6022095"><ele>359.0</ele><time>2026-04-17T09:27:34.636Z</time></trkpt><trkpt lat="40.6727194" lon="9.6021401"><ele>359.0</ele><time>2026-04-17T09:27:35.642Z</time></trkpt><trkpt lat="40.6726559" lon="9.6020756"><ele>359.0</ele><time>2026-04-17T09:27:36.642Z</time></trkpt><trkpt lat="40.6725967" lon="9.602015"><ele>359.0</ele><time>2026-04-17T09:27:37.639Z</time></trkpt><trkpt lat="40.67254" lon="9.6019524"><ele>359.0</ele><time>2026-04-17T09:27:38.642Z</time></trkpt><trkpt lat="40.6724876" lon="9.6018753"><ele>359.6666666666667</ele><time>2026-04-17T09:27:39.643Z</time></trkpt><trkpt lat="40.6724228" lon="9.6018135"><ele>360.33333333333337</ele><time>2026-04-17T09:27:40.642Z</time></trkpt><trkpt lat="40.6723487" lon="9.6017523"><ele>361.0</ele><time>2026-04-17T09:27:41.643Z</time></trkpt><trkpt lat="40.6722771" lon="9.6016948"><ele>361.6666666666667</ele><time>2026-04-17T09:27:42.639Z</time></trkpt><trkpt lat="40.6722188" lon="9.601652"><ele>362.3333333333333</ele><time>2026-04-17T09:27:43.635Z</time></trkpt><trkpt lat="40.6720977" lon="9.6016386"><ele>363.0</ele><time>2026-04-17T09:27:45.634Z</time></trkpt><trkpt lat="40.6720236" lon="9.6016442"><ele>363.0</ele><time>2026-04-17T09:27:46.642Z</time></trkpt><trkpt lat="40.6719504" lon="9.6016683"><ele>363.0</ele><time>2026-04-17T09:27:47.641Z</time></trkpt><trkpt lat="40.6718766" lon="9.6017129"><ele>363.0</ele><time>2026-04-17T09:27:48.642Z</time></trkpt><trkpt lat="40.671805" lon="9.6017628"><ele>363.0</ele><time>2026-04-17T09:27:49.637Z</time></trkpt><trkpt lat="40.6717317" lon="9.6018126"><ele>363.0</ele><time>2026-04-17T09:27:50.639Z</time></trkpt><trkpt lat="40.6716569" lon="9.6018564"><ele>363.0</ele><time>2026-04-17T09:27:51.637Z</time></trkpt><trkpt lat="40.6715824" lon="9.6018968"><ele>364.3333333333333</ele><time>2026-04-17T09:27:52.639Z</time></trkpt><trkpt lat="40.6715016" lon="9.6019346"><ele>365.6666666666667</ele><time>2026-04-17T09:27:53.639Z</time></trkpt><trkpt lat="40.6714208" lon="9.601981"><ele>367.0</ele><time>2026-04-17T09:27:54.638Z</time></trkpt><trkpt lat="40.6713418" lon="9.6020076"><ele>368.33333333333337</ele><time>2026-04-17T09:27:55.641Z</time></trkpt><trkpt lat="40.6712629" lon="9.6020317"><ele>369.6666666666667</ele><time>2026-04-17T09:27:56.639Z</time></trkpt><trkpt lat="40.6711812" lon="9.6020598"><ele>371.0</ele><time>2026-04-17T09:27:57.64Z</time></trkpt><trkpt lat="40.6710933" lon="9.6020715"><ele>373.6666666666667</ele><time>2026-04-17T09:27:58.635Z</time></trkpt><trkpt lat="40.67101" lon="9.602062"><ele>376.33333333333337</ele><time>2026-04-17T09:27:59.638Z</time></trkpt><trkpt lat="40.670942" lon="9.6019948"><ele>379.0</ele><time>2026-04-17T09:28:00.641Z</time></trkpt><trkpt lat="40.6708835" lon="9.6019163"><ele>381.6666666666667</ele><time>2026-04-17T09:28:01.635Z</time></trkpt><trkpt lat="40.670813" lon="9.6018452"><ele>384.3333333333333</ele><time>2026-04-17T09:28:02.642Z</time></trkpt><trkpt lat="40.6707408" lon="9.6017744"><ele>387.0</ele><time>2026-04-17T09:28:03.636Z</time></trkpt><trkpt lat="40.6706678" lon="9.6016916"><ele>387.0</ele><time>2026-04-17T09:28:04.632Z</time></trkpt><trkpt lat="40.6706046" lon="9.6016101"><ele>387.0</ele><time>2026-04-17T09:28:05.633Z</time></trkpt><trkpt lat="40.6705331" lon="9.6015332"><ele>387.0</ele><time>2026-04-17T09:28:06.632Z</time></trkpt><trkpt lat="40.6704663" lon="9.6014784"><ele>387.0</ele><time>2026-04-17T09:28:07.638Z</time></trkpt><trkpt lat="40.6703901" lon="9.6014441"><ele>387.0</ele><time>2026-04-17T09:28:08.635Z</time></trkpt><trkpt lat="40.6702992" lon="9.6014052"><ele>387.0</ele><time>2026-04-17T09:28:09.639Z</time></trkpt><trkpt lat="40.6702097" lon="9.6013796"><ele>390.0</ele><time>2026-04-17T09:28:10.636Z</time></trkpt><trkpt lat="40.6701157" lon="9.6013582"><ele>393.0</ele><time>2026-04-17T09:28:11.64Z</time></trkpt><trkpt lat="40.6700205" lon="9.6013494"><ele>396.0</ele><time>2026-04-17T09:28:12.637Z</time></trkpt><trkpt lat="40.6699189" lon="9.6013299"><ele>399.0</ele><time>2026-04-17T09:28:13.643Z</time></trkpt><trkpt lat="40.6698336" lon="9.6013028"><ele>402.0</ele><time>2026-04-17T09:28:14.643Z</time></trkpt><trkpt lat="40.6697438" lon="9.6012828"><ele>402.0</ele><time>2026-04-17T09:28:15.635Z</time></trkpt><trkpt lat="40.6696646" lon="9.6012824"><ele>402.0</ele><time>2026-04-17T09:28:16.635Z</time></trkpt><trkpt lat="40.669586" lon="9.6013028"><ele>402.0</ele><time>2026-04-17T09:28:17.641Z</time></trkpt><trkpt lat="40.6694979" lon="9.6013405"><ele>402.0</ele><time>2026-04-17T09:28:18.64Z</time></trkpt><trkpt lat="40.6694143" lon="9.6013805"><ele>402.0</ele><time>2026-04-17T09:28:19.643Z</time></trkpt><trkpt lat="40.669317" lon="9.6014357"><ele>402.0</ele><time>2026-04-17T09:28:20.641Z</time></trkpt><trkpt lat="40.669213" lon="9.6014869"><ele>402.6</ele><time>2026-04-17T09:28:21.644Z</time></trkpt><trkpt lat="40.6691207" lon="9.6015525"><ele>403.20000000000005</ele><time>2026-04-17T09:28:22.64Z</time></trkpt><trkpt lat="40.6690399" lon="9.6016394"><ele>403.8</ele><time>2026-04-17T09:28:23.631Z</time></trkpt><trkpt lat="40.6689671" lon="9.6017404"><ele>404.4</ele><time>2026-04-17T09:28:24.637Z</time></trkpt><trkpt lat="40.6689026" lon="9.6018472"><ele>405.0</ele><time>2026-04-17T09:28:25.639Z</time></trkpt><trkpt lat="40.6688332" lon="9.6019526"><ele>408.0</ele><time>2026-04-17T09:28:26.641Z</time></trkpt><trkpt lat="40.6687612" lon="9.6020616"><ele>411.0</ele><time>2026-04-17T09:28:27.638Z</time></trkpt><trkpt lat="40.6686902" lon="9.6021663"><ele>414.0</ele><time>2026-04-17T09:28:28.638Z</time></trkpt><trkpt lat="40.6686299" lon="9.6022669"><ele>417.0</ele><time>2026-04-17T09:28:29.633Z</time></trkpt><trkpt lat="40.6685853" lon="9.6023627"><ele>420.0</ele><time>2026-04-17T09:28:30.638Z</time></trkpt><trkpt lat="40.6685398" lon="9.6024495"><ele>420.0</ele><time>2026-04-17T09:28:31.633Z</time></trkpt><trkpt lat="40.6684974" lon="9.6025226"><ele>420.0</ele><time>2026-04-17T09:28:32.627Z</time></trkpt><trkpt lat="40.668384" lon="9.6025508"><ele>420.0</ele><time>2026-04-17T09:28:34.622Z</time></trkpt><trkpt lat="40.6682938" lon="9.6024255"><ele>420.0</ele><time>2026-04-17T09:28:36.629Z</time></trkpt><trkpt lat="40.6682414" lon="9.6023764"><ele>420.0</ele><time>2026-04-17T09:28:37.624Z</time></trkpt><trkpt lat="40.6681812" lon="9.6023517"><ele>420.0</ele><time>2026-04-17T09:28:38.63Z</time></trkpt><trkpt lat="40.6680988" lon="9.6023496"><ele>420.0</ele><time>2026-04-17T09:28:39.629Z</time></trkpt><trkpt lat="40.668002" lon="9.6023584"><ele>420.0</ele><time>2026-04-17T09:28:40.635Z</time></trkpt><trkpt lat="40.6678988" lon="9.6023493"><ele>420.0</ele><time>2026-04-17T09:28:41.632Z</time></trkpt><trkpt lat="40.6678239" lon="9.6022971"><ele>420.0</ele><time>2026-04-17T09:28:42.632Z</time></trkpt><trkpt lat="40.6677696" lon="9.6022105"><ele>420.0</ele><time>2026-04-17T09:28:43.628Z</time></trkpt><trkpt lat="40.6677422" lon="9.6021035"><ele>421.0</ele><time>2026-04-17T09:28:44.629Z</time></trkpt><trkpt lat="40.667734" lon="9.6020033"><ele>422.0</ele><time>2026-04-17T09:28:45.63Z</time></trkpt><trkpt lat="40.6676826" lon="9.6019313"><ele>423.0</ele><time>2026-04-17T09:28:47.642Z</time></trkpt><trkpt lat="40.6675889" lon="9.6019883"><ele>424.0</ele><time>2026-04-17T09:28:49.647Z</time></trkpt><trkpt lat="40.6675449" lon="9.60207"><ele>425.0</ele><time>2026-04-17T09:28:50.63Z</time></trkpt><trkpt lat="40.6675139" lon="9.6021825"><ele>426.0</ele><time>2026-04-17T09:28:51.635Z</time></trkpt><trkpt lat="40.6674725" lon="9.602288"><ele>427.1428571428571</ele><time>2026-04-17T09:28:52.634Z</time></trkpt><trkpt lat="40.6674218" lon="9.6023487"><ele>428.2857142857143</ele><time>2026-04-17T09:28:53.645Z</time></trkpt><trkpt lat="40.6673492" lon="9.602347"><ele>429.42857142857144</ele><time>2026-04-17T09:28:54.641Z</time></trkpt><trkpt lat="40.667278" lon="9.6022994"><ele>430.57142857142856</ele><time>2026-04-17T09:28:55.634Z</time></trkpt><trkpt lat="40.6672274" lon="9.6022192"><ele>431.7142857142857</ele><time>2026-04-17T09:28:56.638Z</time></trkpt><trkpt lat="40.6671728" lon="9.6021495"><ele>432.85714285714283</ele><time>2026-04-17T09:28:57.636Z</time></trkpt><trkpt lat="40.6671131" lon="9.6021143"><ele>434.0</ele><time>2026-04-17T09:28:58.639Z</time></trkpt><trkpt lat="40.6670409" lon="9.6021433"><ele>434.0</ele><time>2026-04-17T09:28:59.635Z</time></trkpt><trkpt lat="40.6669625" lon="9.6021777"><ele>434.0</ele><time>2026-04-17T09:29:00.635Z</time></trkpt><trkpt lat="40.6668683" lon="9.6022211"><ele>434.0</ele><time>2026-04-17T09:29:01.639Z</time></trkpt><trkpt lat="40.6667801" lon="9.6022708"><ele>434.0</ele><time>2026-04-17T09:29:02.634Z</time></trkpt><trkpt lat="40.6667014" lon="9.6023455"><ele>434.0</ele><time>2026-04-17T09:29:03.633Z</time></trkpt><trkpt lat="40.6666217" lon="9.6024358"><ele>434.79999999999995</ele><time>2026-04-17T09:29:04.642Z</time></trkpt><trkpt lat="40.6665461" lon="9.6025393"><ele>435.59999999999997</ele><time>2026-04-17T09:29:05.638Z</time></trkpt><trkpt lat="40.6664661" lon="9.602638"><ele>436.4</ele><time>2026-04-17T09:29:06.661Z</time></trkpt><trkpt lat="40.6663794" lon="9.6027447"><ele>437.2</ele><time>2026-04-17T09:29:07.718Z</time></trkpt><trkpt lat="40.6663036" lon="9.6028468"><ele>438.0</ele><time>2026-04-17T09:29:08.717Z</time></trkpt><trkpt lat="40.6662197" lon="9.6029338"><ele>441.0</ele><time>2026-04-17T09:29:09.718Z</time></trkpt><trkpt lat="40.6661337" lon="9.603018"><ele>444.0</ele><time>2026-04-17T09:29:10.711Z</time></trkpt><trkpt lat="40.6660467" lon="9.6031062"><ele>447.0</ele><time>2026-04-17T09:29:11.706Z</time></trkpt><trkpt lat="40.6659536" lon="9.6031957"><ele>450.0</ele><time>2026-04-17T09:29:12.7Z</time></trkpt><trkpt lat="40.6658521" lon="9.6032815"><ele>450.0</ele><time>2026-04-17T09:29:13.705Z</time></trkpt><trkpt lat="40.6657489" lon="9.6033631"><ele>450.0</ele><time>2026-04-17T09:29:14.717Z</time></trkpt><trkpt lat="40.6656548" lon="9.6034348"><ele>450.0</ele><time>2026-04-17T09:29:15.718Z</time></trkpt><trkpt lat="40.6655699" lon="9.6035078"><ele>450.0</ele><time>2026-04-17T09:29:16.721Z</time></trkpt><trkpt lat="40.6654971" lon="9.6035719"><ele>450.0</ele><time>2026-04-17T09:29:17.718Z</time></trkpt><trkpt lat="40.6654404" lon="9.6036376"><ele>449.4</ele><time>2026-04-17T09:29:18.724Z</time></trkpt><trkpt lat="40.6653872" lon="9.6036962"><ele>448.8</ele><time>2026-04-17T09:29:19.727Z</time></trkpt><trkpt lat="40.6652929" lon="9.6038054"><ele>448.20000000000005</ele><time>2026-04-17T09:29:21.732Z</time></trkpt><trkpt lat="40.6652099" lon="9.6039163"><ele>447.6</ele><time>2026-04-17T09:29:23.642Z</time></trkpt><trkpt lat="40.66513" lon="9.6040242"><ele>447.0</ele><time>2026-04-17T09:29:25.64Z</time></trkpt><trkpt lat="40.665031" lon="9.6041229"><ele>447.0</ele><time>2026-04-17T09:29:27.646Z</time></trkpt><trkpt lat="40.6649804" lon="9.6041763"><ele>447.0</ele><time>2026-04-17T09:29:28.644Z</time></trkpt><trkpt lat="40.6649278" lon="9.6042338"><ele>447.0</ele><time>2026-04-17T09:29:29.644Z</time></trkpt><trkpt lat="40.6648636" lon="9.6042878"><ele>447.0</ele><time>2026-04-17T09:29:30.642Z</time></trkpt><trkpt lat="40.6648016" lon="9.6043273"><ele>447.0</ele><time>2026-04-17T09:29:31.638Z</time></trkpt><trkpt lat="40.6647438" lon="9.6043603"><ele>447.0</ele><time>2026-04-17T09:29:32.639Z</time></trkpt><trkpt lat="40.6646343" lon="9.6044089"><ele>447.0</ele><time>2026-04-17T09:29:34.64Z</time></trkpt><trkpt lat="40.6645285" lon="9.604449"><ele>447.00000000000006</ele><time>2026-04-17T09:29:36.643Z</time></trkpt><trkpt lat="40.6644329" lon="9.604503"><ele>447.00000000000006</ele><time>2026-04-17T09:29:38.64Z</time></trkpt><trkpt lat="40.6643268" lon="9.6045675"><ele>447.0</ele><time>2026-04-17T09:29:40.64Z</time></trkpt><trkpt lat="40.664215" lon="9.6045744"><ele>447.0</ele><time>2026-04-17T09:29:42.64Z</time></trkpt><trkpt lat="40.6641091" lon="9.6045164"><ele>445.40000000000003</ele><time>2026-04-17T09:29:44.637Z</time></trkpt><trkpt lat="40.6640489" lon="9.6044193"><ele>443.80000000000007</ele><time>2026-04-17T09:29:46.642Z</time></trkpt><trkpt lat="40.6640153" lon="9.6042895"><ele>442.2</ele><time>2026-04-17T09:29:48.641Z</time></trkpt><trkpt lat="40.6639691" lon="9.6041463"><ele>440.6</ele><time>2026-04-17T09:29:50.645Z</time></trkpt><trkpt lat="40.6639414" lon="9.604071"><ele>439.0</ele><time>2026-04-17T09:29:51.644Z</time></trkpt><trkpt lat="40.6638955" lon="9.6039538"><ele>439.00000000000006</ele><time>2026-04-17T09:29:53.648Z</time></trkpt><trkpt lat="40.6638672" lon="9.6038224"><ele>439.0</ele><time>2026-04-17T09:29:55.646Z</time></trkpt><trkpt lat="40.6638472" lon="9.6037267"><ele>439.0</ele><time>2026-04-17T09:29:57.646Z</time></trkpt><trkpt lat="40.6637818" lon="9.6036782"><ele>439.0</ele><time>2026-04-17T09:29:59.637Z</time></trkpt><trkpt lat="40.6636807" lon="9.6036549"><ele>439.00000000000006</ele><time>2026-04-17T09:30:01.64Z</time></trkpt><trkpt lat="40.6635934" lon="9.6036414"><ele>439.0</ele><time>2026-04-17T09:30:03.645Z</time></trkpt><trkpt lat="40.6635008" lon="9.6036371"><ele>437.1666666666667</ele><time>2026-04-17T09:30:05.648Z</time></trkpt><trkpt lat="40.6634052" lon="9.6036285"><ele>435.33333333333337</ele><time>2026-04-17T09:30:07.647Z</time></trkpt><trkpt lat="40.6633153" lon="9.6036222"><ele>433.5</ele><time>2026-04-17T09:30:09.653Z</time></trkpt><trkpt lat="40.6632333" lon="9.6036185"><ele>431.66666666666663</ele><time>2026-04-17T09:30:11.649Z</time></trkpt><trkpt lat="40.6631609" lon="9.6036508"><ele>429.8333333333333</ele><time>2026-04-17T09:30:13.652Z</time></trkpt><trkpt lat="40.6631147" lon="9.603726"><ele>428.0</ele><time>2026-04-17T09:30:15.655Z</time></trkpt><trkpt lat="40.6630408" lon="9.6037613"><ele>428.0</ele><time>2026-04-17T09:30:17.646Z</time></trkpt><trkpt lat="40.6629518" lon="9.6037271"><ele>427.99999999999994</ele><time>2026-04-17T09:30:19.658Z</time></trkpt><trkpt lat="40.6628501" lon="9.6036796"><ele>427.99999999999994</ele><time>2026-04-17T09:30:21.647Z</time></trkpt><trkpt lat="40.6627592" lon="9.603618"><ele>428.0</ele><time>2026-04-17T09:30:23.651Z</time></trkpt><trkpt lat="40.6626618" lon="9.6035545"><ele>428.0</ele><time>2026-04-17T09:30:25.648Z</time></trkpt><trkpt lat="40.662565" lon="9.6035454"><ele>426.49999999999994</ele><time>2026-04-17T09:30:27.649Z</time></trkpt><trkpt lat="40.6624816" lon="9.6035829"><ele>425.0</ele><time>2026-04-17T09:30:29.657Z</time></trkpt><trkpt lat="40.6624249" lon="9.6036595"><ele>423.5</ele><time>2026-04-17T09:30:31.652Z</time></trkpt><trkpt lat="40.6623688" lon="9.60371"><ele>422.0</ele><time>2026-04-17T09:30:33.651Z</time></trkpt><trkpt lat="40.662281" lon="9.6037433"><ele>420.49999999999994</ele><time>2026-04-17T09:30:35.653Z</time></trkpt><trkpt lat="40.662198" lon="9.6036891"><ele>419.0</ele><time>2026-04-17T09:30:37.663Z</time></trkpt><trkpt lat="40.662103" lon="9.6036025"><ele>418.99999999999994</ele><time>2026-04-17T09:30:39.651Z</time></trkpt><trkpt lat="40.6620471" lon="9.6035635"><ele>419.0</ele><time>2026-04-17T09:30:40.647Z</time></trkpt><trkpt lat="40.6619658" lon="9.6034506"><ele>419.0</ele><time>2026-04-17T09:30:42.651Z</time></trkpt><trkpt lat="40.661918" lon="9.6033945"><ele>419.0</ele><time>2026-04-17T09:30:43.656Z</time></trkpt><trkpt lat="40.6618615" lon="9.6033491"><ele>418.99999999999994</ele><time>2026-04-17T09:30:44.655Z</time></trkpt><trkpt lat="40.6617582" lon="9.6032682"><ele>419.0</ele><time>2026-04-17T09:30:46.655Z</time></trkpt><trkpt lat="40.66165" lon="9.6032038"><ele>417.6</ele><time>2026-04-17T09:30:48.654Z</time></trkpt><trkpt lat="40.6615525" lon="9.6031084"><ele>416.2</ele><time>2026-04-17T09:30:50.655Z</time></trkpt><trkpt lat="40.6614579" lon="9.6029986"><ele>414.8</ele><time>2026-04-17T09:30:52.649Z</time></trkpt><trkpt lat="40.6614032" lon="9.6029521"><ele>413.40000000000003</ele><time>2026-04-17T09:30:53.645Z</time></trkpt><trkpt lat="40.6613469" lon="9.6029118"><ele>412.0</ele><time>2026-04-17T09:30:54.645Z</time></trkpt><trkpt lat="40.6612519" lon="9.6028272"><ele>412.00000000000006</ele><time>2026-04-17T09:30:56.645Z</time></trkpt><trkpt lat="40.6611534" lon="9.6027243"><ele>412.0</ele><time>2026-04-17T09:30:58.642Z</time></trkpt><trkpt lat="40.6611017" lon="9.6026643"><ele>412.0</ele><time>2026-04-17T09:30:59.636Z</time></trkpt><trkpt lat="40.661041" lon="9.6026014"><ele>412.0</ele><time>2026-04-17T09:31:00.64Z</time></trkpt><trkpt lat="40.6609865" lon="9.6025466"><ele>412.00000000000006</ele><time>2026-04-17T09:31:01.641Z</time></trkpt><trkpt lat="40.6609303" lon="9.6025077"><ele>412.0</ele><time>2026-04-17T09:31:02.64Z</time></trkpt><trkpt lat="40.6608179" lon="9.602446"><ele>408.6666666666667</ele><time>2026-04-17T09:31:04.639Z</time></trkpt><trkpt lat="40.6607441" lon="9.602408"><ele>405.33333333333337</ele><time>2026-04-17T09:31:05.641Z</time></trkpt><trkpt lat="40.6606831" lon="9.6023693"><ele>402.0</ele><time>2026-04-17T09:31:06.641Z</time></trkpt><trkpt lat="40.660588" lon="9.6022669"><ele>398.66666666666663</ele><time>2026-04-17T09:31:08.653Z</time></trkpt><trkpt lat="40.6605333" lon="9.602201"><ele>395.3333333333333</ele><time>2026-04-17T09:31:09.643Z</time></trkpt><trkpt lat="40.6604836" lon="9.6021144"><ele>392.0</ele><time>2026-04-17T09:31:10.649Z</time></trkpt><trkpt lat="40.6604323" lon="9.6020289"><ele>393.3333333333333</ele><time>2026-04-17T09:31:11.644Z</time></trkpt><trkpt lat="40.6603783" lon="9.6019643"><ele>394.66666666666663</ele><time>2026-04-17T09:31:12.645Z</time></trkpt><trkpt lat="40.6603179" lon="9.6019012"><ele>396.0</ele><time>2026-04-17T09:31:13.634Z</time></trkpt><trkpt lat="40.6602273" lon="9.6018182"><ele>397.33333333333337</ele><time>2026-04-17T09:31:14.643Z</time></trkpt><trkpt lat="40.6601517" lon="9.6017477"><ele>398.6666666666667</ele><time>2026-04-17T09:31:15.642Z</time></trkpt><trkpt lat="40.6600794" lon="9.6016844"><ele>400.0</ele><time>2026-04-17T09:31:16.641Z</time></trkpt><trkpt lat="40.660017" lon="9.6016306"><ele>396.6666666666667</ele><time>2026-04-17T09:31:17.644Z</time></trkpt><trkpt lat="40.659964" lon="9.6015802"><ele>393.33333333333337</ele><time>2026-04-17T09:31:18.641Z</time></trkpt><trkpt lat="40.6598678" lon="9.6015091"><ele>390.0</ele><time>2026-04-17T09:31:20.645Z</time></trkpt><trkpt lat="40.6597834" lon="9.601457"><ele>386.6666666666667</ele><time>2026-04-17T09:31:22.644Z</time></trkpt><trkpt lat="40.6597583" lon="9.6013484"><ele>383.33333333333337</ele><time>2026-04-17T09:31:24.645Z</time></trkpt><trkpt lat="40.659745" lon="9.6012667"><ele>380.0</ele><time>2026-04-17T09:31:25.641Z</time></trkpt><trkpt lat="40.6597354" lon="9.6011793"><ele>380.6666666666667</ele><time>2026-04-17T09:31:26.644Z</time></trkpt><trkpt lat="40.6597055" lon="9.6010132"><ele>381.33333333333337</ele><time>2026-04-17T09:31:28.644Z</time></trkpt><trkpt lat="40.6596828" lon="9.6009086"><ele>382.0</ele><time>2026-04-17T09:31:29.644Z</time></trkpt><trkpt lat="40.6596554" lon="9.6008182"><ele>382.6666666666667</ele><time>2026-04-17T09:31:30.641Z</time></trkpt><trkpt lat="40.6596287" lon="9.6007279"><ele>383.3333333333333</ele><time>2026-04-17T09:31:31.641Z</time></trkpt><trkpt lat="40.6596172" lon="9.6006342"><ele>384.0</ele><time>2026-04-17T09:31:32.638Z</time></trkpt><trkpt lat="40.6595855" lon="9.6004674"><ele>383.99999999999994</ele><time>2026-04-17T09:31:34.634Z</time></trkpt><trkpt lat="40.6595464" lon="9.6003796"><ele>384.0</ele><time>2026-04-17T09:31:35.634Z</time></trkpt><trkpt lat="40.6594992" lon="9.6002959"><ele>384.0</ele><time>2026-04-17T09:31:36.634Z</time></trkpt><trkpt lat="40.6594617" lon="9.6002137"><ele>384.0</ele><time>2026-04-17T09:31:37.632Z</time></trkpt><trkpt lat="40.6594193" lon="9.6001393"><ele>384.0</ele><time>2026-04-17T09:31:38.637Z</time></trkpt><trkpt lat="40.6593761" lon="9.6000744"><ele>383.99999999999994</ele><time>2026-04-17T09:31:39.646Z</time></trkpt><trkpt lat="40.6593323" lon="9.5999901"><ele>384.0</ele><time>2026-04-17T09:31:40.636Z</time></trkpt><trkpt lat="40.6592875" lon="9.5998943"><ele>380.1666666666667</ele><time>2026-04-17T09:31:41.637Z</time></trkpt><trkpt lat="40.6592439" lon="9.5998227"><ele>376.3333333333333</ele><time>2026-04-17T09:31:42.64Z</time></trkpt><trkpt lat="40.6591969" lon="9.5997578"><ele>372.5</ele><time>2026-04-17T09:31:43.641Z</time></trkpt><trkpt lat="40.6591421" lon="9.5997093"><ele>368.66666666666663</ele><time>2026-04-17T09:31:44.643Z</time></trkpt><trkpt lat="40.6590259" lon="9.5996587"><ele>364.8333333333333</ele><time>2026-04-17T09:31:46.635Z</time></trkpt><trkpt lat="40.6589611" lon="9.5996431"><ele>361.0</ele><time>2026-04-17T09:31:47.642Z</time></trkpt><trkpt lat="40.6588353" lon="9.5996302"><ele>361.0</ele><time>2026-04-17T09:31:49.645Z</time></trkpt><trkpt lat="40.6587706" lon="9.5996305"><ele>361.0</ele><time>2026-04-17T09:31:50.645Z</time></trkpt><trkpt lat="40.6587051" lon="9.599625"><ele>361.0</ele><time>2026-04-17T09:31:51.64Z</time></trkpt><trkpt lat="40.6586415" lon="9.599622"><ele>361.0</ele><time>2026-04-17T09:31:52.643Z</time></trkpt><trkpt lat="40.6585306" lon="9.5996081"><ele>361.0</ele><time>2026-04-17T09:31:54.642Z</time></trkpt><trkpt lat="40.6584596" lon="9.5996669"><ele>361.0</ele><time>2026-04-17T09:31:56.64Z</time></trkpt><trkpt lat="40.6584176" lon="9.5997988"><ele>359.0</ele><time>2026-04-17T09:31:58.64Z</time></trkpt><trkpt lat="40.6584291" lon="9.5999675"><ele>357.0</ele><time>2026-04-17T09:32:00.638Z</time></trkpt><trkpt lat="40.6584489" lon="9.6000572"><ele>355.0</ele><time>2026-04-17T09:32:01.638Z</time></trkpt><trkpt lat="40.658446" lon="9.6001569"><ele>353.0</ele><time>2026-04-17T09:32:02.634Z</time></trkpt><trkpt lat="40.6584466" lon="9.6002884"><ele>351.0</ele><time>2026-04-17T09:32:03.644Z</time></trkpt><trkpt lat="40.6584461" lon="9.6004218"><ele>350.0</ele><time>2026-04-17T09:32:04.642Z</time></trkpt><trkpt lat="40.65844" lon="9.6005528"><ele>349.0</ele><time>2026-04-17T09:32:05.644Z</time></trkpt><trkpt lat="40.6584384" lon="9.6006613"><ele>348.0</ele><time>2026-04-17T09:32:06.641Z</time></trkpt><trkpt lat="40.6584271" lon="9.6007677"><ele>347.0</ele><time>2026-04-17T09:32:07.639Z</time></trkpt><trkpt lat="40.6584165" lon="9.6008643"><ele>346.0</ele><time>2026-04-17T09:32:08.644Z</time></trkpt><trkpt lat="40.6583966" lon="9.6009683"><ele>345.0</ele><time>2026-04-17T09:32:09.643Z</time></trkpt><trkpt lat="40.6583704" lon="9.6010559"><ele>345.0</ele><time>2026-04-17T09:32:10.644Z</time></trkpt><trkpt lat="40.6583463" lon="9.6011473"><ele>345.0</ele><time>2026-04-17T09:32:11.641Z</time></trkpt><trkpt lat="40.6583148" lon="9.6012343"><ele>345.0</ele><time>2026-04-17T09:32:12.641Z</time></trkpt><trkpt lat="40.6582919" lon="9.6013195"><ele>345.0</ele><time>2026-04-17T09:32:13.643Z</time></trkpt><trkpt lat="40.6582559" lon="9.6013984"><ele>345.0</ele><time>2026-04-17T09:32:14.642Z</time></trkpt><trkpt lat="40.6582265" lon="9.6014752"><ele>345.0</ele><time>2026-04-17T09:32:15.64Z</time></trkpt><trkpt lat="40.6582002" lon="9.6015511"><ele>345.0</ele><time>2026-04-17T09:32:16.64Z</time></trkpt><trkpt lat="40.6581589" lon="9.6016878"><ele>343.4</ele><time>2026-04-17T09:32:18.644Z</time></trkpt><trkpt lat="40.6580865" lon="9.601779"><ele>341.8</ele><time>2026-04-17T09:32:20.635Z</time></trkpt><trkpt lat="40.6579845" lon="9.601814"><ele>340.20000000000005</ele><time>2026-04-17T09:32:22.645Z</time></trkpt><trkpt lat="40.6578705" lon="9.6018231"><ele>338.6</ele><time>2026-04-17T09:32:24.638Z</time></trkpt><trkpt lat="40.6577639" lon="9.6018692"><ele>337.0</ele><time>2026-04-17T09:32:26.642Z</time></trkpt><trkpt lat="40.6576793" lon="9.6019402"><ele>336.5</ele><time>2026-04-17T09:32:28.643Z</time></trkpt><trkpt lat="40.6576193" lon="9.602035"><ele>336.0</ele><time>2026-04-17T09:32:30.644Z</time></trkpt><trkpt lat="40.6575975" lon="9.6021435"><ele>335.5</ele><time>2026-04-17T09:32:32.64Z</time></trkpt><trkpt lat="40.6576459" lon="9.6022393"><ele>335.0</ele><time>2026-04-17T09:32:34.647Z</time></trkpt><trkpt lat="40.6577197" lon="9.6022935"><ele>334.5</ele><time>2026-04-17T09:32:36.647Z</time></trkpt><trkpt lat="40.657796" lon="9.6023571"><ele>334.0</ele><time>2026-04-17T09:32:38.636Z</time></trkpt><trkpt lat="40.6577839" lon="9.6024589"><ele>330.2</ele><time>2026-04-17T09:32:41.649Z</time></trkpt><trkpt lat="40.6577106" lon="9.6024599"><ele>326.4</ele><time>2026-04-17T09:32:43.643Z</time></trkpt><trkpt lat="40.6576165" lon="9.6024227"><ele>322.6</ele><time>2026-04-17T09:32:45.649Z</time></trkpt><trkpt lat="40.6575053" lon="9.6024238"><ele>318.8</ele><time>2026-04-17T09:32:47.634Z</time></trkpt><trkpt lat="40.6574078" lon="9.6024776"><ele>315.0</ele><time>2026-04-17T09:32:49.645Z</time></trkpt><trkpt lat="40.6573121" lon="9.6024955"><ele>315.0</ele><time>2026-04-17T09:32:51.64Z</time></trkpt><trkpt lat="40.6572041" lon="9.602446"><ele>315.0</ele><time>2026-04-17T09:32:53.646Z</time></trkpt><trkpt lat="40.6571179" lon="9.6023554"><ele>315.0</ele><time>2026-04-17T09:32:55.643Z</time></trkpt><trkpt lat="40.6570633" lon="9.6022924"><ele>315.0</ele><time>2026-04-17T09:32:56.644Z</time></trkpt><trkpt lat="40.6570086" lon="9.6022194"><ele>315.0</ele><time>2026-04-17T09:32:57.643Z</time></trkpt><trkpt lat="40.6569614" lon="9.6021449"><ele>315.0</ele><time>2026-04-17T09:32:58.643Z</time></trkpt><trkpt lat="40.6569127" lon="9.6020869"><ele>313.6666666666667</ele><time>2026-04-17T09:32:59.642Z</time></trkpt><trkpt lat="40.6568618" lon="9.6020266"><ele>312.3333333333333</ele><time>2026-04-17T09:33:00.638Z</time></trkpt><trkpt lat="40.6567635" lon="9.60191"><ele>311.0</ele><time>2026-04-17T09:33:02.636Z</time></trkpt><trkpt lat="40.6566997" lon="9.6018225"><ele>309.66666666666663</ele><time>2026-04-17T09:33:03.639Z</time></trkpt><trkpt lat="40.6566446" lon="9.6017515"><ele>308.3333333333333</ele><time>2026-04-17T09:33:04.636Z</time></trkpt><trkpt lat="40.6565908" lon="9.6016987"><ele>307.0</ele><time>2026-04-17T09:33:05.638Z</time></trkpt><trkpt lat="40.6565307" lon="9.6016438"><ele>307.0</ele><time>2026-04-17T09:33:06.634Z</time></trkpt><trkpt lat="40.656436" lon="9.601531"><ele>307.0</ele><time>2026-04-17T09:33:08.635Z</time></trkpt><trkpt lat="40.6563731" lon="9.6014965"><ele>307.0</ele><time>2026-04-17T09:33:09.634Z</time></trkpt><trkpt lat="40.6562671" lon="9.6014418"><ele>307.0</ele><time>2026-04-17T09:33:11.643Z</time></trkpt><trkpt lat="40.6561554" lon="9.6013672"><ele>307.0</ele><time>2026-04-17T09:33:13.644Z</time></trkpt><trkpt lat="40.6560436" lon="9.6013026"><ele>306.0</ele><time>2026-04-17T09:33:15.644Z</time></trkpt><trkpt lat="40.6559443" lon="9.6012274"><ele>305.0</ele><time>2026-04-17T09:33:17.643Z</time></trkpt><trkpt lat="40.6558698" lon="9.6011967"><ele>304.0</ele><time>2026-04-17T09:33:18.642Z</time></trkpt><trkpt lat="40.6557951" lon="9.6011667"><ele>303.0</ele><time>2026-04-17T09:33:19.639Z</time></trkpt><trkpt lat="40.6557297" lon="9.6011519"><ele>302.0</ele><time>2026-04-17T09:33:20.637Z</time></trkpt><trkpt lat="40.6556639" lon="9.6011467"><ele>301.0</ele><time>2026-04-17T09:33:21.638Z</time></trkpt><trkpt lat="40.6555446" lon="9.6011378"><ele>301.0</ele><time>2026-04-17T09:33:23.643Z</time></trkpt><trkpt lat="40.6554754" lon="9.6011426"><ele>301.0</ele><time>2026-04-17T09:33:24.64Z</time></trkpt><trkpt lat="40.6554061" lon="9.6011401"><ele>301.0</ele><time>2026-04-17T09:33:25.641Z</time></trkpt><trkpt lat="40.6553396" lon="9.6011361"><ele>301.0</ele><time>2026-04-17T09:33:26.641Z</time></trkpt><trkpt lat="40.6552719" lon="9.6011266"><ele>301.0</ele><time>2026-04-17T09:33:27.644Z</time></trkpt><trkpt lat="40.6552089" lon="9.6011159"><ele>301.0</ele><time>2026-04-17T09:33:28.645Z</time></trkpt><trkpt lat="40.6551321" lon="9.6011031"><ele>301.0</ele><time>2026-04-17T09:33:29.645Z</time></trkpt><trkpt lat="40.6550597" lon="9.6010919"><ele>297.66666666666663</ele><time>2026-04-17T09:33:30.644Z</time></trkpt><trkpt lat="40.6549924" lon="9.6010819"><ele>294.3333333333333</ele><time>2026-04-17T09:33:31.644Z</time></trkpt><trkpt lat="40.6549305" lon="9.6010666"><ele>291.0</ele><time>2026-04-17T09:33:32.645Z</time></trkpt><trkpt lat="40.6548207" lon="9.6010505"><ele>287.6666666666667</ele><time>2026-04-17T09:33:34.642Z</time></trkpt><trkpt lat="40.6547377" lon="9.6010255"><ele>284.33333333333337</ele><time>2026-04-17T09:33:36.639Z</time></trkpt><trkpt lat="40.6546468" lon="9.6010554"><ele>281.0</ele><time>2026-04-17T09:33:38.635Z</time></trkpt><trkpt lat="40.6545506" lon="9.601039"><ele>278.0</ele><time>2026-04-17T09:34:59.65Z</time></trkpt><trkpt lat="40.6544442" lon="9.6010416"><ele>275.0</ele><time>2026-04-17T09:35:01.664Z</time></trkpt><trkpt lat="40.6543295" lon="9.601056"><ele>272.0</ele><time>2026-04-17T09:35:03.646Z</time></trkpt><trkpt lat="40.6542475" lon="9.6010835"><ele>269.0</ele><time>2026-04-17T09:35:05.656Z</time></trkpt><trkpt lat="40.6541583" lon="9.6010766"><ele>266.0</ele><time>2026-04-17T09:35:07.649Z</time></trkpt><trkpt lat="40.6540681" lon="9.6009903"><ele>266.0</ele><time>2026-04-17T09:35:09.64Z</time></trkpt><trkpt lat="40.6540195" lon="9.6009173"><ele>266.0</ele><time>2026-04-17T09:35:10.64Z</time></trkpt><trkpt lat="40.6539705" lon="9.6008432"><ele>266.0</ele><time>2026-04-17T09:35:11.643Z</time></trkpt><trkpt lat="40.6539177" lon="9.6007936"><ele>266.0</ele><time>2026-04-17T09:35:12.64Z</time></trkpt><trkpt lat="40.653825" lon="9.6006865"><ele>266.0</ele><time>2026-04-17T09:35:14.642Z</time></trkpt><trkpt lat="40.6537463" lon="9.6005716"><ele>266.0</ele><time>2026-04-17T09:35:16.651Z</time></trkpt><trkpt lat="40.6536869" lon="9.600474"><ele>266.0</ele><time>2026-04-17T09:35:18.645Z</time></trkpt><trkpt lat="40.6536481" lon="9.6003929"><ele>266.0</ele><time>2026-04-17T09:35:20.652Z</time></trkpt><trkpt lat="40.653579" lon="9.6003988"><ele>266.0</ele><time>2026-04-17T09:35:23.644Z</time></trkpt><trkpt lat="40.6535614" lon="9.60048"><ele>266.0</ele><time>2026-04-17T09:35:25.648Z</time></trkpt><trkpt lat="40.6535872" lon="9.6005936"><ele>266.0</ele><time>2026-04-17T09:35:27.654Z</time></trkpt><trkpt lat="40.6535975" lon="9.6006905"><ele>261.6</ele><time>2026-04-17T09:35:28.641Z</time></trkpt><trkpt lat="40.6536036" lon="9.6007991"><ele>257.20000000000005</ele><time>2026-04-17T09:35:29.643Z</time></trkpt><trkpt lat="40.6536109" lon="9.6008911"><ele>252.79999999999998</ele><time>2026-04-17T09:35:30.642Z</time></trkpt><trkpt lat="40.6536206" lon="9.6010477"><ele>248.39999999999998</ele><time>2026-04-17T09:35:32.64Z</time></trkpt><trkpt lat="40.6536243" lon="9.601196"><ele>244.0</ele><time>2026-04-17T09:35:34.64Z</time></trkpt><trkpt lat="40.6536059" lon="9.6012807"><ele>243.99999999999997</ele><time>2026-04-17T09:35:36.656Z</time></trkpt><trkpt lat="40.6535201" lon="9.6013031"><ele>244.0</ele><time>2026-04-17T09:35:39.648Z</time></trkpt><trkpt lat="40.6534555" lon="9.6012395"><ele>244.0</ele><time>2026-04-17T09:35:41.655Z</time></trkpt><trkpt lat="40.6534222" lon="9.6011359"><ele>244.0</ele><time>2026-04-17T09:35:43.651Z</time></trkpt><trkpt lat="40.6533706" lon="9.6010623"><ele>243.99999999999997</ele><time>2026-04-17T09:35:44.642Z</time></trkpt><trkpt lat="40.6532899" lon="9.6009888"><ele>244.0</ele><time>2026-04-17T09:35:46.644Z</time></trkpt><trkpt lat="40.6531864" lon="9.600926"><ele>244.0</ele><time>2026-04-17T09:35:48.641Z</time></trkpt><trkpt lat="40.6530864" lon="9.6008674"><ele>243.99999999999997</ele><time>2026-04-17T09:35:50.638Z</time></trkpt><trkpt lat="40.6530118" lon="9.600757"><ele>243.99999999999997</ele><time>2026-04-17T09:35:52.651Z</time></trkpt><trkpt lat="40.652962" lon="9.6006383"><ele>244.0</ele><time>2026-04-17T09:35:54.644Z</time></trkpt><trkpt lat="40.6529332" lon="9.6005632"><ele>244.0</ele><time>2026-04-17T09:35:55.644Z</time></trkpt><trkpt lat="40.6528937" lon="9.6004901"><ele>243.99999999999997</ele><time>2026-04-17T09:35:56.642Z</time></trkpt><trkpt lat="40.6528515" lon="9.6004228"><ele>244.0</ele><time>2026-04-17T09:35:57.644Z</time></trkpt><trkpt lat="40.6528249" lon="9.6003277"><ele>244.0</ele><time>2026-04-17T09:35:59.647Z</time></trkpt><trkpt lat="40.6527874" lon="9.6002548"><ele>244.0</ele><time>2026-04-17T09:36:01.649Z</time></trkpt><trkpt lat="40.6527343" lon="9.6003076"><ele>243.99999999999997</ele><time>2026-04-17T09:36:03.642Z</time></trkpt><trkpt lat="40.6527309" lon="9.6004249"><ele>244.0</ele><time>2026-04-17T09:36:05.653Z</time></trkpt><trkpt lat="40.652736" lon="9.600552"><ele>239.66666666666666</ele><time>2026-04-17T09:36:07.654Z</time></trkpt><trkpt lat="40.6527207" lon="9.6006931"><ele>235.33333333333331</ele><time>2026-04-17T09:36:09.64Z</time></trkpt><trkpt lat="40.6526977" lon="9.6008219"><ele>231.0</ele><time>2026-04-17T09:36:11.643Z</time></trkpt><trkpt lat="40.6526758" lon="9.6009167"><ele>226.66666666666669</ele><time>2026-04-17T09:36:13.642Z</time></trkpt><trkpt lat="40.6526115" lon="9.6009438"><ele>222.33333333333334</ele><time>2026-04-17T09:36:17.651Z</time></trkpt><trkpt lat="40.6525787" lon="9.6008711"><ele>218.0</ele><time>2026-04-17T09:36:19.653Z</time></trkpt><trkpt lat="40.6525652" lon="9.600773"><ele>218.0</ele><time>2026-04-17T09:36:21.653Z</time></trkpt><trkpt lat="40.6525553" lon="9.6006475"><ele>218.0</ele><time>2026-04-17T09:36:23.649Z</time></trkpt><trkpt lat="40.6525149" lon="9.6004911"><ele>218.0</ele><time>2026-04-17T09:36:25.641Z</time></trkpt><trkpt lat="40.6524476" lon="9.6003835"><ele>218.0</ele><time>2026-04-17T09:36:27.65Z</time></trkpt><trkpt lat="40.6524286" lon="9.60027"><ele>218.0</ele><time>2026-04-17T09:36:29.65Z</time></trkpt><trkpt lat="40.6524261" lon="9.6001725"><ele>218.16666666666669</ele><time>2026-04-17T09:36:30.649Z</time></trkpt><trkpt lat="40.6524281" lon="9.6000748"><ele>218.33333333333334</ele><time>2026-04-17T09:36:31.652Z</time></trkpt><trkpt lat="40.6524248" lon="9.599982"><ele>218.5</ele><time>2026-04-17T09:36:32.645Z</time></trkpt><trkpt lat="40.652409" lon="9.599897"><ele>218.66666666666669</ele><time>2026-04-17T09:36:33.646Z</time></trkpt><trkpt lat="40.6523905" lon="9.5998052"><ele>218.83333333333334</ele><time>2026-04-17T09:36:34.645Z</time></trkpt><trkpt lat="40.6523752" lon="9.5996891"><ele>219.0</ele><time>2026-04-17T09:36:35.647Z</time></trkpt><trkpt lat="40.6523616" lon="9.5995559"><ele>218.83333333333334</ele><time>2026-04-17T09:36:36.647Z</time></trkpt><trkpt lat="40.652353" lon="9.5994233"><ele>218.66666666666669</ele><time>2026-04-17T09:36:37.646Z</time></trkpt><trkpt lat="40.6523504" lon="9.599301"><ele>218.5</ele><time>2026-04-17T09:36:38.644Z</time></trkpt><trkpt lat="40.6523439" lon="9.599199"><ele>218.33333333333334</ele><time>2026-04-17T09:36:39.647Z</time></trkpt><trkpt lat="40.6523299" lon="9.5990947"><ele>218.16666666666669</ele><time>2026-04-17T09:36:40.648Z</time></trkpt><trkpt lat="40.6523275" lon="9.5989892"><ele>218.0</ele><time>2026-04-17T09:36:41.649Z</time></trkpt><trkpt lat="40.6523279" lon="9.5989031"><ele>218.00000000000003</ele><time>2026-04-17T09:36:42.651Z</time></trkpt><trkpt lat="40.6523262" lon="9.5988155"><ele>218.0</ele><time>2026-04-17T09:36:43.653Z</time></trkpt><trkpt lat="40.652334" lon="9.5986656"><ele>218.0</ele><time>2026-04-17T09:36:45.65Z</time></trkpt><trkpt lat="40.6523429" lon="9.5985548"><ele>218.0</ele><time>2026-04-17T09:36:47.652Z</time></trkpt><trkpt lat="40.6522852" lon="9.5985006"><ele>218.00000000000003</ele><time>2026-04-17T09:36:50.651Z</time></trkpt><trkpt lat="40.6522564" lon="9.5986085"><ele>218.0</ele><time>2026-04-17T09:36:52.662Z</time></trkpt><trkpt lat="40.6522513" lon="9.5987068"><ele>218.0</ele><time>2026-04-17T09:36:53.659Z</time></trkpt><trkpt lat="40.6522366" lon="9.5988277"><ele>218.0</ele><time>2026-04-17T09:36:54.654Z</time></trkpt><trkpt lat="40.6522148" lon="9.5989433"><ele>218.0</ele><time>2026-04-17T09:36:55.653Z</time></trkpt><trkpt lat="40.6521932" lon="9.599064"><ele>218.0</ele><time>2026-04-17T09:36:56.653Z</time></trkpt><trkpt lat="40.6521704" lon="9.5991977"><ele>218.0</ele><time>2026-04-17T09:36:57.654Z</time></trkpt><trkpt lat="40.6521499" lon="9.5993259"><ele>218.0</ele><time>2026-04-17T09:36:58.648Z</time></trkpt><trkpt lat="40.6521264" lon="9.5994443"><ele>218.0</ele><time>2026-04-17T09:36:59.656Z</time></trkpt><trkpt lat="40.6521031" lon="9.5995685"><ele>218.0</ele><time>2026-04-17T09:37:00.646Z</time></trkpt><trkpt lat="40.6520771" lon="9.5996915"><ele>218.0</ele><time>2026-04-17T09:37:01.653Z</time></trkpt><trkpt lat="40.65206" lon="9.5998119"><ele>218.0</ele><time>2026-04-17T09:37:02.654Z</time></trkpt><trkpt lat="40.6520397" lon="9.5999261"><ele>218.16666666666669</ele><time>2026-04-17T09:37:03.652Z</time></trkpt><trkpt lat="40.6520294" lon="9.6000345"><ele>218.33333333333334</ele><time>2026-04-17T09:37:04.651Z</time></trkpt><trkpt lat="40.6520093" lon="9.6001296"><ele>218.5</ele><time>2026-04-17T09:37:05.654Z</time></trkpt><trkpt lat="40.6519891" lon="9.6002219"><ele>218.66666666666669</ele><time>2026-04-17T09:37:06.65Z</time></trkpt><trkpt lat="40.6519527" lon="9.6003202"><ele>218.83333333333334</ele><time>2026-04-17T09:37:07.65Z</time></trkpt><trkpt lat="40.6519067" lon="9.6004114"><ele>219.0</ele><time>2026-04-17T09:37:08.647Z</time></trkpt><trkpt lat="40.651862" lon="9.6005004"><ele>214.57142857142858</ele><time>2026-04-17T09:37:09.64Z</time></trkpt><trkpt lat="40.6517992" lon="9.6005658"><ele>210.14285714285714</ele><time>2026-04-17T09:37:10.651Z</time></trkpt><trkpt lat="40.6517517" lon="9.6006355"><ele>205.71428571428572</ele><time>2026-04-17T09:37:11.652Z</time></trkpt><trkpt lat="40.651713" lon="9.6007239"><ele>201.28571428571428</ele><time>2026-04-17T09:37:12.654Z</time></trkpt><trkpt lat="40.6516769" lon="9.6008131"><ele>196.85714285714283</ele><time>2026-04-17T09:37:13.655Z</time></trkpt><trkpt lat="40.651651" lon="9.6008985"><ele>192.42857142857142</ele><time>2026-04-17T09:37:14.664Z</time></trkpt><trkpt lat="40.6516199" lon="9.6009765"><ele>188.0</ele><time>2026-04-17T09:37:15.65Z</time></trkpt><trkpt lat="40.6515986" lon="9.6011038"><ele>188.0</ele><time>2026-04-17T09:37:17.653Z</time></trkpt><trkpt lat="40.651551" lon="9.6011623"><ele>188.0</ele><time>2026-04-17T09:37:19.653Z</time></trkpt><trkpt lat="40.6514631" lon="9.6011157"><ele>188.0</ele><time>2026-04-17T09:37:21.657Z</time></trkpt><trkpt lat="40.6514018" lon="9.6009855"><ele>188.0</ele><time>2026-04-17T09:37:23.651Z</time></trkpt><trkpt lat="40.6513837" lon="9.6008368"><ele>188.0</ele><time>2026-04-17T09:37:25.648Z</time></trkpt><trkpt lat="40.6513451" lon="9.6006954"><ele>188.0</ele><time>2026-04-17T09:37:27.653Z</time></trkpt><trkpt lat="40.6513114" lon="9.6005775"><ele>188.0</ele><time>2026-04-17T09:37:29.648Z</time></trkpt><trkpt lat="40.6513471" lon="9.600414"><ele>188.0</ele><time>2026-04-17T09:37:31.649Z</time></trkpt><trkpt lat="40.6513754" lon="9.6003168"><ele>188.0</ele><time>2026-04-17T09:37:32.652Z</time></trkpt><trkpt lat="40.6514128" lon="9.6002252"><ele>188.0</ele><time>2026-04-17T09:37:33.652Z</time></trkpt><trkpt lat="40.6514546" lon="9.6001379"><ele>187.0</ele><time>2026-04-17T09:37:34.651Z</time></trkpt><trkpt lat="40.651481" lon="9.5999958"><ele>186.0</ele><time>2026-04-17T09:37:36.647Z</time></trkpt><trkpt lat="40.6514704" lon="9.5999138"><ele>185.0</ele><time>2026-04-17T09:37:37.648Z</time></trkpt><trkpt lat="40.6514442" lon="9.5998288"><ele>184.0</ele><time>2026-04-17T09:37:38.646Z</time></trkpt><trkpt lat="40.6513828" lon="9.5997195"><ele>183.0</ele><time>2026-04-17T09:37:40.654Z</time></trkpt><trkpt lat="40.6513048" lon="9.5996183"><ele>183.0</ele><time>2026-04-17T09:37:42.649Z</time></trkpt><trkpt lat="40.6512569" lon="9.5995291"><ele>183.0</ele><time>2026-04-17T09:37:44.649Z</time></trkpt><trkpt lat="40.6511979" lon="9.5994543"><ele>183.0</ele><time>2026-04-17T09:37:46.661Z</time></trkpt><trkpt lat="40.6511276" lon="9.599522"><ele>183.0</ele><time>2026-04-17T09:37:48.66Z</time></trkpt><trkpt lat="40.6510647" lon="9.5996079"><ele>183.0</ele><time>2026-04-17T09:37:50.656Z</time></trkpt><trkpt lat="40.6509827" lon="9.5995829"><ele>183.0</ele><time>2026-04-17T09:37:53.661Z</time></trkpt><trkpt lat="40.6509343" lon="9.5995039"><ele>178.33333333333334</ele><time>2026-04-17T09:37:55.655Z</time></trkpt><trkpt lat="40.6508808" lon="9.5993885"><ele>173.66666666666666</ele><time>2026-04-17T09:37:57.649Z</time></trkpt><trkpt lat="40.6508284" lon="9.5993394"><ele>169.0</ele><time>2026-04-17T09:37:58.649Z</time></trkpt><trkpt lat="40.6507262" lon="9.599313"><ele>164.33333333333331</ele><time>2026-04-17T09:38:00.648Z</time></trkpt><trkpt lat="40.6506725" lon="9.5992489"><ele>159.66666666666666</ele><time>2026-04-17T09:38:02.651Z</time></trkpt><trkpt lat="40.650695" lon="9.599151"><ele>155.0</ele><time>2026-04-17T09:38:04.656Z</time></trkpt><trkpt lat="40.6507598" lon="9.5990964"><ele>155.0</ele><time>2026-04-17T09:38:06.646Z</time></trkpt><trkpt lat="40.6508016" lon="9.5990237"><ele>155.0</ele><time>2026-04-17T09:38:08.658Z</time></trkpt><trkpt lat="40.6507944" lon="9.598916"><ele>155.0</ele><time>2026-04-17T09:38:10.655Z</time></trkpt><trkpt lat="40.6507642" lon="9.5988303"><ele>155.0</ele><time>2026-04-17T09:38:12.65Z</time></trkpt><trkpt lat="40.6507614" lon="9.5987064"><ele>155.0</ele><time>2026-04-17T09:38:14.647Z</time></trkpt><trkpt lat="40.650774" lon="9.5986034"><ele>155.0</ele><time>2026-04-17T09:38:15.643Z</time></trkpt><trkpt lat="40.6507905" lon="9.5984802"><ele>154.0</ele><time>2026-04-17T09:38:16.642Z</time></trkpt><trkpt lat="40.6507994" lon="9.598377"><ele>153.0</ele><time>2026-04-17T09:38:17.647Z</time></trkpt><trkpt lat="40.6508027" lon="9.5982816"><ele>152.0</ele><time>2026-04-17T09:38:18.646Z</time></trkpt><trkpt lat="40.6508032" lon="9.5981967"><ele>151.0</ele><time>2026-04-17T09:38:19.65Z</time></trkpt><trkpt lat="40.6508109" lon="9.5981067"><ele>150.0</ele><time>2026-04-17T09:38:20.648Z</time></trkpt><trkpt lat="40.650819" lon="9.5980217"><ele>149.0</ele><time>2026-04-17T09:38:21.645Z</time></trkpt><trkpt lat="40.650834" lon="9.5979162"><ele>148.0</ele><time>2026-04-17T09:38:22.657Z</time></trkpt><trkpt lat="40.6508488" lon="9.597823"><ele>145.6</ele><time>2026-04-17T09:38:23.645Z</time></trkpt><trkpt lat="40.6508862" lon="9.597676"><ele>143.20000000000002</ele><time>2026-04-17T09:38:25.647Z</time></trkpt><trkpt lat="40.6509392" lon="9.5975826"><ele>140.8</ele><time>2026-04-17T09:38:27.643Z</time></trkpt><trkpt lat="40.6509377" lon="9.5974796"><ele>138.4</ele><time>2026-04-17T09:38:29.644Z</time></trkpt><trkpt lat="40.6508634" lon="9.5974592"><ele>136.0</ele><time>2026-04-17T09:38:31.656Z</time></trkpt><trkpt lat="40.6507829" lon="9.5975777"><ele>136.0</ele><time>2026-04-17T09:38:33.657Z</time></trkpt><trkpt lat="40.6507435" lon="9.5976663"><ele>136.0</ele><time>2026-04-17T09:38:34.643Z</time></trkpt><trkpt lat="40.6507177" lon="9.5977642"><ele>136.0</ele><time>2026-04-17T09:38:35.644Z</time></trkpt><trkpt lat="40.6506726" lon="9.5979116"><ele>136.0</ele><time>2026-04-17T09:38:37.648Z</time></trkpt><trkpt lat="40.650602" lon="9.5980089"><ele>136.0</ele><time>2026-04-17T09:38:39.639Z</time></trkpt><trkpt lat="40.6504899" lon="9.5980663"><ele>134.6</ele><time>2026-04-17T09:38:41.647Z</time></trkpt><trkpt lat="40.650429" lon="9.5980952"><ele>133.2</ele><time>2026-04-17T09:38:42.649Z</time></trkpt><trkpt lat="40.6503284" lon="9.598175"><ele>131.8</ele><time>2026-04-17T09:38:44.656Z</time></trkpt><trkpt lat="40.6502219" lon="9.5982246"><ele>130.4</ele><time>2026-04-17T09:38:46.65Z</time></trkpt><trkpt lat="40.6501133" lon="9.5982541"><ele>129.0</ele><time>2026-04-17T09:38:48.648Z</time></trkpt><trkpt lat="40.6500026" lon="9.5982599"><ele>129.0</ele><time>2026-04-17T09:38:50.646Z</time></trkpt><trkpt lat="40.6499397" lon="9.598268"><ele>129.0</ele><time>2026-04-17T09:38:51.645Z</time></trkpt><trkpt lat="40.6498661" lon="9.5982802"><ele>129.0</ele><time>2026-04-17T09:38:52.649Z</time></trkpt><trkpt lat="40.6497502" lon="9.5982967"><ele>129.0</ele><time>2026-04-17T09:38:54.641Z</time></trkpt><trkpt lat="40.6496543" lon="9.5982408"><ele>129.0</ele><time>2026-04-17T09:38:56.646Z</time></trkpt><trkpt lat="40.6496018" lon="9.5981751"><ele>129.0</ele><time>2026-04-17T09:38:57.652Z</time></trkpt><trkpt lat="40.6495597" lon="9.598089"><ele>128.99999999999997</ele><time>2026-04-17T09:38:58.649Z</time></trkpt><trkpt lat="40.6495166" lon="9.5980193"><ele>129.0</ele><time>2026-04-17T09:38:59.642Z</time></trkpt><trkpt lat="40.6494745" lon="9.5979536"><ele>129.0</ele><time>2026-04-17T09:39:00.641Z</time></trkpt><trkpt lat="40.6494167" lon="9.5978776"><ele>129.0</ele><time>2026-04-17T09:39:01.645Z</time></trkpt><trkpt lat="40.6493734" lon="9.5978021"><ele>129.0</ele><time>2026-04-17T09:39:02.642Z</time></trkpt><trkpt lat="40.6493401" lon="9.5977187"><ele>128.99999999999997</ele><time>2026-04-17T09:39:03.645Z</time></trkpt><trkpt lat="40.6493164" lon="9.5976297"><ele>129.0</ele><time>2026-04-17T09:39:04.64Z</time></trkpt><trkpt lat="40.6492319" lon="9.5975143"><ele>126.5</ele><time>2026-04-17T09:39:06.644Z</time></trkpt><trkpt lat="40.6491525" lon="9.5974027"><ele>124.0</ele><time>2026-04-17T09:39:08.646Z</time></trkpt><trkpt lat="40.6491457" lon="9.5973118"><ele>121.5</ele><time>2026-04-17T09:39:09.645Z</time></trkpt><trkpt lat="40.6491618" lon="9.5972293"><ele>119.0</ele><time>2026-04-17T09:39:10.644Z</time></trkpt><trkpt lat="40.6492302" lon="9.5971206"><ele>116.5</ele><time>2026-04-17T09:39:12.656Z</time></trkpt><trkpt lat="40.6492482" lon="9.5970357"><ele>114.0</ele><time>2026-04-17T09:39:14.651Z</time></trkpt><trkpt lat="40.6491763" lon="9.5969963"><ele>114.0</ele><time>2026-04-17T09:39:16.646Z</time></trkpt><trkpt lat="40.6490781" lon="9.5970101"><ele>114.0</ele><time>2026-04-17T09:39:18.65Z</time></trkpt><trkpt lat="40.648976" lon="9.5970703"><ele>114.0</ele><time>2026-04-17T09:39:20.642Z</time></trkpt><trkpt lat="40.6489384" lon="9.5971382"><ele>114.0</ele><time>2026-04-17T09:39:21.644Z</time></trkpt><trkpt lat="40.648905" lon="9.597225"><ele>114.0</ele><time>2026-04-17T09:39:22.649Z</time></trkpt><trkpt lat="40.6488758" lon="9.5972995"><ele>114.0</ele><time>2026-04-17T09:39:23.651Z</time></trkpt><trkpt lat="40.6488415" lon="9.5973705"><ele>114.0</ele><time>2026-04-17T09:39:24.644Z</time></trkpt><trkpt lat="40.6487593" lon="9.5974653"><ele>114.0</ele><time>2026-04-17T09:39:26.645Z</time></trkpt><trkpt lat="40.6486582" lon="9.5975063"><ele>114.0</ele><time>2026-04-17T09:39:28.638Z</time></trkpt><trkpt lat="40.648546" lon="9.5975052"><ele>114.0</ele><time>2026-04-17T09:39:30.642Z</time></trkpt><trkpt lat="40.6484483" lon="9.597588"><ele>114.0</ele><time>2026-04-17T09:39:32.635Z</time></trkpt><trkpt lat="40.6484006" lon="9.5977273"><ele>113.0</ele><time>2026-04-17T09:39:34.634Z</time></trkpt><trkpt lat="40.6484331" lon="9.5978669"><ele>112.0</ele><time>2026-04-17T09:39:36.643Z</time></trkpt><trkpt lat="40.6485166" lon="9.5979384"><ele>111.0</ele><time>2026-04-17T09:39:38.652Z</time></trkpt><trkpt lat="40.648631" lon="9.5979798"><ele>110.0</ele><time>2026-04-17T09:39:40.644Z</time></trkpt><trkpt lat="40.6486924" lon="9.5981034"><ele>109.0</ele><time>2026-04-17T09:39:42.624Z</time></trkpt><trkpt lat="40.648677" lon="9.5982631"><ele>109.0</ele><time>2026-04-17T09:39:44.635Z</time></trkpt><trkpt lat="40.6486697" lon="9.598349"><ele>109.0</ele><time>2026-04-17T09:39:45.622Z</time></trkpt><trkpt lat="40.6486712" lon="9.5984493"><ele>109.0</ele><time>2026-04-17T09:39:46.621Z</time></trkpt><trkpt lat="40.6486963" lon="9.5985478"><ele>109.0</ele><time>2026-04-17T09:39:47.622Z</time></trkpt><trkpt lat="40.6487295" lon="9.5986366"><ele>109.0</ele><time>2026-04-17T09:39:48.63Z</time></trkpt><trkpt lat="40.6487623" lon="9.5987089"><ele>109.0</ele><time>2026-04-17T09:39:49.628Z</time></trkpt><trkpt lat="40.6487951" lon="9.5987847"><ele>109.0</ele><time>2026-04-17T09:39:50.624Z</time></trkpt><trkpt lat="40.6488237" lon="9.5988609"><ele>108.42857142857143</ele><time>2026-04-17T09:39:51.618Z</time></trkpt><trkpt lat="40.64884" lon="9.5989453"><ele>107.85714285714286</ele><time>2026-04-17T09:39:52.627Z</time></trkpt><trkpt lat="40.6488459" lon="9.599034"><ele>107.28571428571428</ele><time>2026-04-17T09:39:53.618Z</time></trkpt><trkpt lat="40.648838" lon="9.5991378"><ele>106.71428571428572</ele><time>2026-04-17T09:39:54.624Z</time></trkpt><trkpt lat="40.6488414" lon="9.5992428"><ele>106.14285714285714</ele><time>2026-04-17T09:39:55.623Z</time></trkpt><trkpt lat="40.6488545" lon="9.5993418"><ele>105.57142857142857</ele><time>2026-04-17T09:39:56.624Z</time></trkpt><trkpt lat="40.6488563" lon="9.5994433"><ele>105.0</ele><time>2026-04-17T09:39:57.623Z</time></trkpt><trkpt lat="40.6488447" lon="9.5995478"><ele>105.0</ele><time>2026-04-17T09:39:58.625Z</time></trkpt><trkpt lat="40.6488292" lon="9.599655"><ele>105.0</ele><time>2026-04-17T09:39:59.621Z</time></trkpt><trkpt lat="40.6488292" lon="9.5997565"><ele>105.0</ele><time>2026-04-17T09:40:00.625Z</time></trkpt><trkpt lat="40.6488437" lon="9.5998584"><ele>105.0</ele><time>2026-04-17T09:40:01.619Z</time></trkpt><trkpt lat="40.6488558" lon="9.5999654"><ele>105.0</ele><time>2026-04-17T09:40:02.618Z</time></trkpt><trkpt lat="40.6488733" lon="9.6000667"><ele>105.0</ele><time>2026-04-17T09:40:03.622Z</time></trkpt><trkpt lat="40.6488972" lon="9.6001667"><ele>105.0</ele><time>2026-04-17T09:40:04.619Z</time></trkpt><trkpt lat="40.6489312" lon="9.6002429"><ele>105.0</ele><time>2026-04-17T09:40:05.62Z</time></trkpt><trkpt lat="40.6489798" lon="9.6003584"><ele>105.0</ele><time>2026-04-17T09:40:07.617Z</time></trkpt><trkpt lat="40.6489257" lon="9.6004484"><ele>105.0</ele><time>2026-04-17T09:40:10.622Z</time></trkpt><trkpt lat="40.6488218" lon="9.6004525"><ele>105.0</ele><time>2026-04-17T09:40:12.622Z</time></trkpt><trkpt lat="40.648734" lon="9.6004616"><ele>105.0</ele><time>2026-04-17T09:40:13.617Z</time></trkpt><trkpt lat="40.648628" lon="9.6004727"><ele>103.6</ele><time>2026-04-17T09:40:14.619Z</time></trkpt><trkpt lat="40.6485182" lon="9.6004876"><ele>102.2</ele><time>2026-04-17T09:40:15.619Z</time></trkpt><trkpt lat="40.6484082" lon="9.600495"><ele>100.80000000000001</ele><time>2026-04-17T09:40:16.617Z</time></trkpt><trkpt lat="40.6483023" lon="9.600495"><ele>99.4</ele><time>2026-04-17T09:40:17.616Z</time></trkpt><trkpt lat="40.6481954" lon="9.6004844"><ele>98.0</ele><time>2026-04-17T09:40:18.621Z</time></trkpt><trkpt lat="40.6480875" lon="9.6004702"><ele>98.0</ele><time>2026-04-17T09:40:19.623Z</time></trkpt><trkpt lat="40.6479905" lon="9.6004439"><ele>98.0</ele><time>2026-04-17T09:40:20.621Z</time></trkpt><trkpt lat="40.6478988" lon="9.6004056"><ele>98.0</ele><time>2026-04-17T09:40:21.617Z</time></trkpt><trkpt lat="40.6477985" lon="9.6003642"><ele>98.0</ele><time>2026-04-17T09:40:22.622Z</time></trkpt><trkpt lat="40.647699" lon="9.600328"><ele>98.0</ele><time>2026-04-17T09:40:23.611Z</time></trkpt><trkpt lat="40.6476152" lon="9.6003036"><ele>96.4</ele><time>2026-04-17T09:40:24.609Z</time></trkpt><trkpt lat="40.6475458" lon="9.6002986"><ele>94.80000000000001</ele><time>2026-04-17T09:40:25.618Z</time></trkpt><trkpt lat="40.6474605" lon="9.600367"><ele>93.2</ele><time>2026-04-17T09:40:27.611Z</time></trkpt><trkpt lat="40.6474315" lon="9.6005566"><ele>91.6</ele><time>2026-04-17T09:40:29.622Z</time></trkpt><trkpt lat="40.6474269" lon="9.6007007"><ele>90.0</ele><time>2026-04-17T09:40:30.626Z</time></trkpt><trkpt lat="40.647429" lon="9.6008656"><ele>90.0</ele><time>2026-04-17T09:40:31.621Z</time></trkpt><trkpt lat="40.6474414" lon="9.6010346"><ele>90.0</ele><time>2026-04-17T09:40:32.622Z</time></trkpt><trkpt lat="40.6474522" lon="9.6011874"><ele>90.0</ele><time>2026-04-17T09:40:33.627Z</time></trkpt><trkpt lat="40.647468" lon="9.6013205"><ele>90.0</ele><time>2026-04-17T09:40:34.626Z</time></trkpt><trkpt lat="40.6474956" lon="9.6014521"><ele>89.0</ele><time>2026-04-17T09:40:35.629Z</time></trkpt><trkpt lat="40.6475414" lon="9.6015777"><ele>88.0</ele><time>2026-04-17T09:40:36.623Z</time></trkpt><trkpt lat="40.6476051" lon="9.601708"><ele>87.0</ele><time>2026-04-17T09:40:37.626Z</time></trkpt><trkpt lat="40.6476817" lon="9.60182"><ele>86.0</ele><time>2026-04-17T09:40:38.624Z</time></trkpt><trkpt lat="40.6477721" lon="9.601929"><ele>87.25</ele><time>2026-04-17T09:40:39.625Z</time></trkpt><trkpt lat="40.6478478" lon="9.6020344"><ele>88.5</ele><time>2026-04-17T09:40:40.626Z</time></trkpt><trkpt lat="40.6479337" lon="9.60214"><ele>89.75</ele><time>2026-04-17T09:40:41.627Z</time></trkpt><trkpt lat="40.6480095" lon="9.6022633"><ele>91.0</ele><time>2026-04-17T09:40:42.628Z</time></trkpt><trkpt lat="40.6480707" lon="9.6023746"><ele>91.0</ele><time>2026-04-17T09:40:43.625Z</time></trkpt><trkpt lat="40.6481271" lon="9.6024691"><ele>91.0</ele><time>2026-04-17T09:40:44.625Z</time></trkpt><trkpt lat="40.6481877" lon="9.6025314"><ele>91.0</ele><time>2026-04-17T09:40:45.625Z</time></trkpt><trkpt lat="40.6482514" lon="9.6025961"><ele>91.0</ele><time>2026-04-17T09:40:46.63Z</time></trkpt><trkpt lat="40.6483152" lon="9.6026621"><ele>91.0</ele><time>2026-04-17T09:40:47.631Z</time></trkpt><trkpt lat="40.6483801" lon="9.6027321"><ele>91.0</ele><time>2026-04-17T09:40:48.625Z</time></trkpt><trkpt lat="40.6484436" lon="9.6028019"><ele>88.83333333333333</ele><time>2026-04-17T09:40:49.63Z</time></trkpt><trkpt lat="40.6484976" lon="9.6028726"><ele>86.66666666666666</ele><time>2026-04-17T09:40:50.623Z</time></trkpt><trkpt lat="40.6485227" lon="9.6029507"><ele>84.5</ele><time>2026-04-17T09:40:51.617Z</time></trkpt><trkpt lat="40.6485428" lon="9.6030406"><ele>82.33333333333333</ele><time>2026-04-17T09:40:52.623Z</time></trkpt><trkpt lat="40.6485454" lon="9.6031512"><ele>80.16666666666667</ele><time>2026-04-17T09:40:53.636Z</time></trkpt><trkpt lat="40.6485515" lon="9.6032709"><ele>78.0</ele><time>2026-04-17T09:40:54.634Z</time></trkpt><trkpt lat="40.6485705" lon="9.6033873"><ele>78.0</ele><time>2026-04-17T09:40:55.63Z</time></trkpt><trkpt lat="40.6486025" lon="9.6035075"><ele>78.0</ele><time>2026-04-17T09:40:56.631Z</time></trkpt><trkpt lat="40.6486429" lon="9.6036324"><ele>78.0</ele><time>2026-04-17T09:40:57.635Z</time></trkpt><trkpt lat="40.6486691" lon="9.6037437"><ele>78.0</ele><time>2026-04-17T09:40:58.632Z</time></trkpt><trkpt lat="40.6486964" lon="9.6038568"><ele>78.0</ele><time>2026-04-17T09:40:59.639Z</time></trkpt><trkpt lat="40.6487416" lon="9.6039732"><ele>81.0</ele><time>2026-04-17T09:41:00.632Z</time></trkpt><trkpt lat="40.6487717" lon="9.6041036"><ele>84.0</ele><time>2026-04-17T09:41:01.63Z</time></trkpt><trkpt lat="40.6487936" lon="9.6042185"><ele>87.0</ele><time>2026-04-17T09:41:02.632Z</time></trkpt><trkpt lat="40.6488165" lon="9.6043173"><ele>90.0</ele><time>2026-04-17T09:41:03.631Z</time></trkpt><trkpt lat="40.6488282" lon="9.6044082"><ele>93.0</ele><time>2026-04-17T09:41:04.632Z</time></trkpt><trkpt lat="40.6488292" lon="9.6045523"><ele>94.0</ele><time>2026-04-17T09:41:06.632Z</time></trkpt><trkpt lat="40.6487556" lon="9.6046929"><ele>95.0</ele><time>2026-04-17T09:41:08.626Z</time></trkpt><trkpt lat="40.6486931" lon="9.604762"><ele>96.0</ele><time>2026-04-17T09:41:09.623Z</time></trkpt><trkpt lat="40.6486162" lon="9.6048317"><ele>97.0</ele><time>2026-04-17T09:41:10.638Z</time></trkpt><trkpt lat="40.6485406" lon="9.6049137"><ele>98.0</ele><time>2026-04-17T09:41:11.633Z</time></trkpt><trkpt lat="40.6484658" lon="9.6049949"><ele>94.2</ele><time>2026-04-17T09:41:12.632Z</time></trkpt><trkpt lat="40.648384" lon="9.605067"><ele>90.4</ele><time>2026-04-17T09:41:13.626Z</time></trkpt><trkpt lat="40.6483038" lon="9.6051365"><ele>86.60000000000001</ele><time>2026-04-17T09:41:14.634Z</time></trkpt><trkpt lat="40.6482233" lon="9.6051992"><ele>82.80000000000001</ele><time>2026-04-17T09:41:15.631Z</time></trkpt><trkpt lat="40.6481534" lon="9.6052692"><ele>79.0</ele><time>2026-04-17T09:41:16.635Z</time></trkpt><trkpt lat="40.6480876" lon="9.6053405"><ele>79.0</ele><time>2026-04-17T09:41:17.638Z</time></trkpt><trkpt lat="40.6480398" lon="9.6054286"><ele>79.0</ele><time>2026-04-17T09:41:18.621Z</time></trkpt><trkpt lat="40.6479919" lon="9.605525"><ele>79.0</ele><time>2026-04-17T09:41:19.622Z</time></trkpt><trkpt lat="40.6479484" lon="9.6056234"><ele>79.0</ele><time>2026-04-17T09:41:20.62Z</time></trkpt><trkpt lat="40.6479065" lon="9.6056994"><ele>79.0</ele><time>2026-04-17T09:41:21.62Z</time></trkpt><trkpt lat="40.6478607" lon="9.6057589"><ele>79.0</ele><time>2026-04-17T09:41:22.626Z</time></trkpt><trkpt lat="40.6478233" lon="9.6058866"><ele>79.0</ele><time>2026-04-17T09:41:24.617Z</time></trkpt><trkpt lat="40.647845" lon="9.6060609"><ele>79.0</ele><time>2026-04-17T09:41:26.632Z</time></trkpt><trkpt lat="40.6478886" lon="9.606178"><ele>79.0</ele><time>2026-04-17T09:41:27.624Z</time></trkpt><trkpt lat="40.6479291" lon="9.6063129"><ele>79.0</ele><time>2026-04-17T09:41:28.63Z</time></trkpt><trkpt lat="40.6479635" lon="9.6064708"><ele>77.4</ele><time>2026-04-17T09:41:29.623Z</time></trkpt><trkpt lat="40.6479886" lon="9.6066193"><ele>75.80000000000001</ele><time>2026-04-17T09:41:30.623Z</time></trkpt><trkpt lat="40.6480032" lon="9.6067523"><ele>74.19999999999999</ele><time>2026-04-17T09:41:31.624Z</time></trkpt><trkpt lat="40.6480135" lon="9.6068584"><ele>72.6</ele><time>2026-04-17T09:41:32.629Z</time></trkpt><trkpt lat="40.6480115" lon="9.6069768"><ele>71.0</ele><time>2026-04-17T09:41:34.626Z</time></trkpt><trkpt lat="40.6479754" lon="9.6070705"><ele>70.33333333333334</ele><time>2026-04-17T09:41:37.633Z</time></trkpt><trkpt lat="40.6479325" lon="9.6071695"><ele>69.66666666666667</ele><time>2026-04-17T09:41:40.638Z</time></trkpt><trkpt lat="40.6478723" lon="9.6072755"><ele>69.0</ele><time>2026-04-17T09:44:56.63Z</time></trkpt><trkpt lat="40.6478495" lon="9.6073606"><ele>68.33333333333333</ele><time>2026-04-17T09:44:57.632Z</time></trkpt><trkpt lat="40.6478389" lon="9.6074875"><ele>67.66666666666666</ele><time>2026-04-17T09:44:58.626Z</time></trkpt><trkpt lat="40.647834" lon="9.6076021"><ele>67.0</ele><time>2026-04-17T09:44:59.628Z</time></trkpt><trkpt lat="40.6478389" lon="9.6077313"><ele>66.0</ele><time>2026-04-17T09:45:00.621Z</time></trkpt><trkpt lat="40.6478535" lon="9.6078674"><ele>65.0</ele><time>2026-04-17T09:45:01.632Z</time></trkpt><trkpt lat="40.6478707" lon="9.6080189"><ele>64.0</ele><time>2026-04-17T09:45:02.629Z</time></trkpt><trkpt lat="40.6478901" lon="9.6081615"><ele>63.0</ele><time>2026-04-17T09:45:03.626Z</time></trkpt><trkpt lat="40.6479132" lon="9.6083065"><ele>62.0</ele><time>2026-04-17T09:45:04.627Z</time></trkpt><trkpt lat="40.6479576" lon="9.6084476"><ele>62.00000000000001</ele><time>2026-04-17T09:45:05.624Z</time></trkpt><trkpt lat="40.6480126" lon="9.6085649"><ele>62.0</ele><time>2026-04-17T09:45:06.631Z</time></trkpt><trkpt lat="40.648069" lon="9.6086661"><ele>62.0</ele><time>2026-04-17T09:45:07.624Z</time></trkpt><trkpt lat="40.6481225" lon="9.6087611"><ele>62.0</ele><time>2026-04-17T09:45:08.634Z</time></trkpt><trkpt lat="40.6481633" lon="9.6088456"><ele>62.00000000000001</ele><time>2026-04-17T09:45:09.627Z</time></trkpt><trkpt lat="40.6481998" lon="9.6089187"><ele>62.0</ele><time>2026-04-17T09:45:10.626Z</time></trkpt><trkpt lat="40.6482406" lon="9.6090309"><ele>61.400000000000006</ele><time>2026-04-17T09:45:12.632Z</time></trkpt><trkpt lat="40.6482875" lon="9.6091175"><ele>60.800000000000004</ele><time>2026-04-17T09:45:14.635Z</time></trkpt><trkpt lat="40.6483386" lon="9.6092422"><ele>60.2</ele><time>2026-04-17T09:45:16.634Z</time></trkpt><trkpt lat="40.6483845" lon="9.609336"><ele>59.6</ele><time>2026-04-17T09:45:17.633Z</time></trkpt><trkpt lat="40.6484401" lon="9.6094517"><ele>59.0</ele><time>2026-04-17T09:45:18.631Z</time></trkpt><trkpt lat="40.6484949" lon="9.6095797"><ele>58.6</ele><time>2026-04-17T09:45:19.633Z</time></trkpt><trkpt lat="40.6485594" lon="9.6097145"><ele>58.2</ele><time>2026-04-17T09:45:20.63Z</time></trkpt><trkpt lat="40.648618" lon="9.6098403"><ele>57.800000000000004</ele><time>2026-04-17T09:45:21.637Z</time></trkpt><trkpt lat="40.6486729" lon="9.6099549"><ele>57.400000000000006</ele><time>2026-04-17T09:45:22.631Z</time></trkpt><trkpt lat="40.6487296" lon="9.6100717"><ele>57.0</ele><time>2026-04-17T09:45:23.636Z</time></trkpt><trkpt lat="40.6487911" lon="9.6101807"><ele>57.0</ele><time>2026-04-17T09:45:24.628Z</time></trkpt><trkpt lat="40.6488492" lon="9.6102959"><ele>57.0</ele><time>2026-04-17T09:45:25.639Z</time></trkpt><trkpt lat="40.6489188" lon="9.6104223"><ele>57.0</ele><time>2026-04-17T09:45:26.638Z</time></trkpt><trkpt lat="40.648988" lon="9.6105392"><ele>57.0</ele><time>2026-04-17T09:45:27.627Z</time></trkpt><trkpt lat="40.6490556" lon="9.6106555"><ele>57.0</ele><time>2026-04-17T09:45:28.648Z</time></trkpt><trkpt lat="40.6491233" lon="9.6107724"><ele>55.8</ele><time>2026-04-17T09:45:29.639Z</time></trkpt><trkpt lat="40.649183" lon="9.6108919"><ele>54.6</ele><time>2026-04-17T09:45:30.638Z</time></trkpt><trkpt lat="40.6492338" lon="9.6110117"><ele>53.4</ele><time>2026-04-17T09:45:31.641Z</time></trkpt><trkpt lat="40.649295" lon="9.6111287"><ele>52.199999999999996</ele><time>2026-04-17T09:45:32.639Z</time></trkpt><trkpt lat="40.6493494" lon="9.6112559"><ele>51.0</ele><time>2026-04-17T09:45:33.714Z</time></trkpt><trkpt lat="40.6494051" lon="9.6113776"><ele>51.599999999999994</ele><time>2026-04-17T09:45:34.718Z</time></trkpt><trkpt lat="40.6494628" lon="9.6114955"><ele>52.2</ele><time>2026-04-17T09:45:35.716Z</time></trkpt><trkpt lat="40.6495174" lon="9.611617"><ele>52.800000000000004</ele><time>2026-04-17T09:45:36.714Z</time></trkpt><trkpt lat="40.649573" lon="9.6117318"><ele>53.400000000000006</ele><time>2026-04-17T09:45:37.719Z</time></trkpt><trkpt lat="40.6496256" lon="9.6118477"><ele>54.0</ele><time>2026-04-17T09:45:38.716Z</time></trkpt><trkpt lat="40.6496754" lon="9.6119692"><ele>53.2</ele><time>2026-04-17T09:45:39.713Z</time></trkpt><trkpt lat="40.6497217" lon="9.6120988"><ele>52.400000000000006</ele><time>2026-04-17T09:45:40.716Z</time></trkpt><trkpt lat="40.6497591" lon="9.6122317"><ele>51.6</ele><time>2026-04-17T09:45:41.713Z</time></trkpt><trkpt lat="40.649784" lon="9.6123715"><ele>50.8</ele><time>2026-04-17T09:45:42.716Z</time></trkpt><trkpt lat="40.6497983" lon="9.6125243"><ele>50.0</ele><time>2026-04-17T09:45:43.704Z</time></trkpt><trkpt lat="40.649801" lon="9.6126871"><ele>49.0</ele><time>2026-04-17T09:45:44.705Z</time></trkpt><trkpt lat="40.6498063" lon="9.6128554"><ele>48.0</ele><time>2026-04-17T09:45:45.702Z</time></trkpt><trkpt lat="40.649813" lon="9.6130306"><ele>47.0</ele><time>2026-04-17T09:45:46.708Z</time></trkpt><trkpt lat="40.6498195" lon="9.6132071"><ele>46.0</ele><time>2026-04-17T09:45:47.719Z</time></trkpt><trkpt lat="40.6498274" lon="9.6133867"><ele>46.0</ele><time>2026-04-17T09:45:48.722Z</time></trkpt><trkpt lat="40.6498332" lon="9.6135684"><ele>46.0</ele><time>2026-04-17T09:45:49.722Z</time></trkpt><trkpt lat="40.6498398" lon="9.6137416"><ele>46.0</ele><time>2026-04-17T09:45:50.721Z</time></trkpt><trkpt lat="40.6498464" lon="9.6139085"><ele>46.0</ele><time>2026-04-17T09:45:51.724Z</time></trkpt><trkpt lat="40.6498525" lon="9.6140764"><ele>45.75</ele><time>2026-04-17T09:45:52.723Z</time></trkpt><trkpt lat="40.6498581" lon="9.6142413"><ele>45.5</ele><time>2026-04-17T09:45:53.726Z</time></trkpt><trkpt lat="40.6498621" lon="9.6144127"><ele>45.25</ele><time>2026-04-17T09:45:54.72Z</time></trkpt><trkpt lat="40.6498653" lon="9.6145886"><ele>45.0</ele><time>2026-04-17T09:45:55.72Z</time></trkpt><trkpt lat="40.6498689" lon="9.6147673"><ele>44.75</ele><time>2026-04-17T09:45:56.72Z</time></trkpt><trkpt lat="40.6498727" lon="9.6149478"><ele>44.5</ele><time>2026-04-17T09:45:57.729Z</time></trkpt><trkpt lat="40.6498775" lon="9.6151286"><ele>44.25</ele><time>2026-04-17T09:45:58.717Z</time></trkpt><trkpt lat="40.6498814" lon="9.6153107"><ele>44.0</ele><time>2026-04-17T09:45:59.72Z</time></trkpt><trkpt lat="40.6498862" lon="9.6154908"><ele>44.0</ele><time>2026-04-17T09:46:00.718Z</time></trkpt><trkpt lat="40.6498968" lon="9.6156678"><ele>44.0</ele><time>2026-04-17T09:46:01.72Z</time></trkpt><trkpt lat="40.6499025" lon="9.6158491"><ele>44.0</ele><time>2026-04-17T09:46:02.716Z</time></trkpt><trkpt lat="40.6499052" lon="9.6160292"><ele>44.0</ele><time>2026-04-17T09:46:03.716Z</time></trkpt><trkpt lat="40.6499105" lon="9.6162049"><ele>43.25</ele><time>2026-04-17T09:46:04.719Z</time></trkpt><trkpt lat="40.6499174" lon="9.61638"><ele>42.5</ele><time>2026-04-17T09:46:05.719Z</time></trkpt><trkpt lat="40.6499261" lon="9.6165484"><ele>41.75</ele><time>2026-04-17T09:46:06.718Z</time></trkpt><trkpt lat="40.6499352" lon="9.6167173"><ele>41.0</ele><time>2026-04-17T09:46:07.713Z</time></trkpt><trkpt lat="40.6499462" lon="9.6168844"><ele>40.25</ele><time>2026-04-17T09:46:08.724Z</time></trkpt><trkpt lat="40.6499541" lon="9.6170567"><ele>39.5</ele><time>2026-04-17T09:46:09.723Z</time></trkpt><trkpt lat="40.6499611" lon="9.617239"><ele>38.75</ele><time>2026-04-17T09:46:10.722Z</time></trkpt><trkpt lat="40.6499677" lon="9.617436"><ele>38.0</ele><time>2026-04-17T09:46:11.72Z</time></trkpt><trkpt lat="40.6499745" lon="9.6176408"><ele>36.666666666666664</ele><time>2026-04-17T09:46:12.711Z</time></trkpt><trkpt lat="40.6499855" lon="9.6178575"><ele>35.333333333333336</ele><time>2026-04-17T09:46:13.718Z</time></trkpt><trkpt lat="40.6500015" lon="9.6180836"><ele>34.0</ele><time>2026-04-17T09:46:14.724Z</time></trkpt><trkpt lat="40.6500094" lon="9.6183077"><ele>34.0</ele><time>2026-04-17T09:46:15.721Z</time></trkpt><trkpt lat="40.6500148" lon="9.6185187"><ele>34.0</ele><time>2026-04-17T09:46:16.727Z</time></trkpt><trkpt lat="40.6500217" lon="9.6187247"><ele>34.0</ele><time>2026-04-17T09:46:17.728Z</time></trkpt><trkpt lat="40.6500313" lon="9.6189383"><ele>34.0</ele><time>2026-04-17T09:46:18.725Z</time></trkpt><trkpt lat="40.6500366" lon="9.6191577"><ele>34.0</ele><time>2026-04-17T09:46:19.73Z</time></trkpt><trkpt lat="40.6500438" lon="9.6193761"><ele>34.0</ele><time>2026-04-17T09:46:20.717Z</time></trkpt><trkpt lat="40.6500517" lon="9.6195956"><ele>33.66666666666667</ele><time>2026-04-17T09:46:21.718Z</time></trkpt><trkpt lat="40.6500601" lon="9.6198202"><ele>33.333333333333336</ele><time>2026-04-17T09:46:22.722Z</time></trkpt><trkpt lat="40.6500695" lon="9.6200422"><ele>33.0</ele><time>2026-04-17T09:46:23.721Z</time></trkpt><trkpt lat="40.6500804" lon="9.6202546"><ele>32.0</ele><time>2026-04-17T09:46:24.717Z</time></trkpt><trkpt lat="40.6500919" lon="9.6204678"><ele>31.0</ele><time>2026-04-17T09:46:25.727Z</time></trkpt><trkpt lat="40.6501093" lon="9.6206754"><ele>30.0</ele><time>2026-04-17T09:46:26.64Z</time></trkpt><trkpt lat="40.6501148" lon="9.6208823"><ele>30.0</ele><time>2026-04-17T09:46:27.635Z</time></trkpt><trkpt lat="40.650121" lon="9.6210837"><ele>30.0</ele><time>2026-04-17T09:46:28.64Z</time></trkpt><trkpt lat="40.650135" lon="9.6212723"><ele>30.0</ele><time>2026-04-17T09:46:29.638Z</time></trkpt><trkpt lat="40.6501496" lon="9.6214399"><ele>30.0</ele><time>2026-04-17T09:46:30.644Z</time></trkpt><trkpt lat="40.6501548" lon="9.6216103"><ele>30.0</ele><time>2026-04-17T09:46:31.634Z</time></trkpt><trkpt lat="40.6501384" lon="9.6217848"><ele>30.0</ele><time>2026-04-17T09:46:32.635Z</time></trkpt><trkpt lat="40.6501036" lon="9.6219551"><ele>30.0</ele><time>2026-04-17T09:46:33.637Z</time></trkpt><trkpt lat="40.6500433" lon="9.6221309"><ele>30.0</ele><time>2026-04-17T09:46:34.635Z</time></trkpt><trkpt lat="40.649957" lon="9.6222903"><ele>30.333333333333336</ele><time>2026-04-17T09:46:35.633Z</time></trkpt><trkpt lat="40.6498634" lon="9.6224333"><ele>30.666666666666668</ele><time>2026-04-17T09:46:36.645Z</time></trkpt><trkpt lat="40.6497742" lon="9.6225996"><ele>31.0</ele><time>2026-04-17T09:46:37.64Z</time></trkpt><trkpt lat="40.6496791" lon="9.6227676"><ele>31.333333333333336</ele><time>2026-04-17T09:46:38.637Z</time></trkpt><trkpt lat="40.6495889" lon="9.6229256"><ele>31.666666666666664</ele><time>2026-04-17T09:46:39.641Z</time></trkpt><trkpt lat="40.6494928" lon="9.6230911"><ele>32.0</ele><time>2026-04-17T09:46:40.638Z</time></trkpt><trkpt lat="40.6494093" lon="9.6232553"><ele>32.75</ele><time>2026-04-17T09:46:41.645Z</time></trkpt><trkpt lat="40.6493204" lon="9.6234202"><ele>33.5</ele><time>2026-04-17T09:46:42.644Z</time></trkpt><trkpt lat="40.6492323" lon="9.623568"><ele>34.25</ele><time>2026-04-17T09:46:43.643Z</time></trkpt><trkpt lat="40.6491518" lon="9.6237202"><ele>35.0</ele><time>2026-04-17T09:46:44.642Z</time></trkpt><trkpt lat="40.6490785" lon="9.6238862"><ele>35.0</ele><time>2026-04-17T09:46:45.629Z</time></trkpt><trkpt lat="40.649029" lon="9.6240761"><ele>35.0</ele><time>2026-04-17T09:46:46.634Z</time></trkpt><trkpt lat="40.648992" lon="9.6242758"><ele>35.0</ele><time>2026-04-17T09:46:47.632Z</time></trkpt><trkpt lat="40.6489638" lon="9.6244691"><ele>36.0</ele><time>2026-04-17T09:46:48.633Z</time></trkpt><trkpt lat="40.6489458" lon="9.6246653"><ele>37.0</ele><time>2026-04-17T09:46:49.635Z</time></trkpt><trkpt lat="40.6489369" lon="9.6248699"><ele>38.0</ele><time>2026-04-17T09:46:50.637Z</time></trkpt><trkpt lat="40.648921" lon="9.6250654"><ele>38.0</ele><time>2026-04-17T09:46:51.635Z</time></trkpt><trkpt lat="40.6489154" lon="9.6252815"><ele>38.0</ele><time>2026-04-17T09:46:52.629Z</time></trkpt><trkpt lat="40.6489195" lon="9.6254841"><ele>38.0</ele><time>2026-04-17T09:46:53.638Z</time></trkpt><trkpt lat="40.6489345" lon="9.6256902"><ele>37.25</ele><time>2026-04-17T09:46:54.635Z</time></trkpt><trkpt lat="40.6489696" lon="9.6258893"><ele>36.5</ele><time>2026-04-17T09:46:55.631Z</time></trkpt><trkpt lat="40.6490069" lon="9.6260607"><ele>35.75</ele><time>2026-04-17T09:46:56.637Z</time></trkpt><trkpt lat="40.649051" lon="9.6262445"><ele>35.0</ele><time>2026-04-17T09:46:57.645Z</time></trkpt><trkpt lat="40.6491052" lon="9.6264051"><ele>33.25</ele><time>2026-04-17T09:46:58.633Z</time></trkpt><trkpt lat="40.6491667" lon="9.6265586"><ele>31.5</ele><time>2026-04-17T09:46:59.642Z</time></trkpt><trkpt lat="40.6492324" lon="9.6267165"><ele>29.75</ele><time>2026-04-17T09:47:00.64Z</time></trkpt><trkpt lat="40.6492878" lon="9.626858"><ele>28.0</ele><time>2026-04-17T09:47:01.644Z</time></trkpt><trkpt lat="40.6493412" lon="9.6270109"><ele>27.799999999999997</ele><time>2026-04-17T09:47:02.639Z</time></trkpt><trkpt lat="40.6493837" lon="9.6271444"><ele>27.599999999999998</ele><time>2026-04-17T09:47:03.645Z</time></trkpt><trkpt lat="40.6494247" lon="9.627264"><ele>27.400000000000002</ele><time>2026-04-17T09:47:04.639Z</time></trkpt><trkpt lat="40.6494533" lon="9.6273675"><ele>27.200000000000003</ele><time>2026-04-17T09:47:05.633Z</time></trkpt><trkpt lat="40.6494473" lon="9.6275178"><ele>27.0</ele><time>2026-04-17T09:47:07.64Z</time></trkpt><trkpt lat="40.6493929" lon="9.6275862"><ele>27.0</ele><time>2026-04-17T09:47:08.641Z</time></trkpt><trkpt lat="40.6493168" lon="9.6276405"><ele>27.000000000000004</ele><time>2026-04-17T09:47:09.628Z</time></trkpt><trkpt lat="40.649235" lon="9.6276697"><ele>27.000000000000004</ele><time>2026-04-17T09:47:10.642Z</time></trkpt><trkpt lat="40.6491407" lon="9.6277122"><ele>27.0</ele><time>2026-04-17T09:47:11.636Z</time></trkpt><trkpt lat="40.6490375" lon="9.627773"><ele>27.0</ele><time>2026-04-17T09:47:12.639Z</time></trkpt><trkpt lat="40.6489345" lon="9.6278467"><ele>26.8</ele><time>2026-04-17T09:47:13.64Z</time></trkpt><trkpt lat="40.6488462" lon="9.627922"><ele>26.6</ele><time>2026-04-17T09:47:14.639Z</time></trkpt><trkpt lat="40.6487524" lon="9.6280018"><ele>26.400000000000002</ele><time>2026-04-17T09:47:15.637Z</time></trkpt><trkpt lat="40.6486585" lon="9.6280792"><ele>26.200000000000003</ele><time>2026-04-17T09:47:16.638Z</time></trkpt><trkpt lat="40.6485567" lon="9.6281672"><ele>26.0</ele><time>2026-04-17T09:47:17.642Z</time></trkpt><trkpt lat="40.6484463" lon="9.6282605"><ele>25.0</ele><time>2026-04-17T09:47:18.637Z</time></trkpt><trkpt lat="40.648336" lon="9.6283591"><ele>24.0</ele><time>2026-04-17T09:47:19.641Z</time></trkpt><trkpt lat="40.6482214" lon="9.6284524"><ele>23.0</ele><time>2026-04-17T09:47:20.638Z</time></trkpt><trkpt lat="40.648105" lon="9.6285544"><ele>22.0</ele><time>2026-04-17T09:47:21.638Z</time></trkpt><trkpt lat="40.6479915" lon="9.6286496"><ele>21.5</ele><time>2026-04-17T09:47:22.64Z</time></trkpt><trkpt lat="40.6478943" lon="9.6287536"><ele>21.0</ele><time>2026-04-17T09:47:23.638Z</time></trkpt><trkpt lat="40.6477991" lon="9.6288657"><ele>20.5</ele><time>2026-04-17T09:47:24.634Z</time></trkpt><trkpt lat="40.6477192" lon="9.6289797"><ele>20.0</ele><time>2026-04-17T09:47:25.636Z</time></trkpt><trkpt lat="40.6476387" lon="9.629124"><ele>19.5</ele><time>2026-04-17T09:47:26.639Z</time></trkpt><trkpt lat="40.6475845" lon="9.6292725"><ele>19.0</ele><time>2026-04-17T09:47:27.639Z</time></trkpt><trkpt lat="40.647513" lon="9.6294177"><ele>18.5</ele><time>2026-04-17T09:47:28.64Z</time></trkpt><trkpt lat="40.6474389" lon="9.6295748"><ele>18.0</ele><time>2026-04-17T09:47:29.633Z</time></trkpt><trkpt lat="40.6473575" lon="9.6297602"><ele>17.75</ele><time>2026-04-17T09:47:30.639Z</time></trkpt><trkpt lat="40.6472751" lon="9.6299338"><ele>17.5</ele><time>2026-04-17T09:47:31.637Z</time></trkpt><trkpt lat="40.6472049" lon="9.6300928"><ele>17.25</ele><time>2026-04-17T09:47:32.637Z</time></trkpt><trkpt lat="40.6471407" lon="9.6302427"><ele>17.0</ele><time>2026-04-17T09:47:33.637Z</time></trkpt><trkpt lat="40.6470913" lon="9.6303862"><ele>16.5</ele><time>2026-04-17T09:47:34.637Z</time></trkpt><trkpt lat="40.6470492" lon="9.6305635"><ele>16.0</ele><time>2026-04-17T09:47:35.622Z</time></trkpt><trkpt lat="40.6470332" lon="9.6307312"><ele>15.5</ele><time>2026-04-17T09:47:36.627Z</time></trkpt><trkpt lat="40.6470384" lon="9.630916"><ele>15.0</ele><time>2026-04-17T09:47:37.628Z</time></trkpt><trkpt lat="40.6470522" lon="9.6310949"><ele>14.333333333333332</ele><time>2026-04-17T09:47:38.633Z</time></trkpt><trkpt lat="40.6470875" lon="9.6312964"><ele>13.666666666666666</ele><time>2026-04-17T09:47:39.635Z</time></trkpt><trkpt lat="40.6471132" lon="9.631483"><ele>13.0</ele><time>2026-04-17T09:47:40.643Z</time></trkpt><trkpt lat="40.647143" lon="9.6316806"><ele>13.0</ele><time>2026-04-17T09:47:41.641Z</time></trkpt><trkpt lat="40.6471699" lon="9.6318811"><ele>13.0</ele><time>2026-04-17T09:47:42.644Z</time></trkpt><trkpt lat="40.6471943" lon="9.6320882"><ele>13.0</ele><time>2026-04-17T09:47:43.647Z</time></trkpt><trkpt lat="40.6472198" lon="9.6322846"><ele>12.75</ele><time>2026-04-17T09:47:44.641Z</time></trkpt><trkpt lat="40.6472307" lon="9.6324845"><ele>12.5</ele><time>2026-04-17T09:47:45.645Z</time></trkpt><trkpt lat="40.6472509" lon="9.6326835"><ele>12.25</ele><time>2026-04-17T09:47:46.643Z</time></trkpt><trkpt lat="40.647282" lon="9.6328593"><ele>12.0</ele><time>2026-04-17T09:47:47.644Z</time></trkpt><trkpt lat="40.6473077" lon="9.6330373"><ele>13.0</ele><time>2026-04-17T09:47:48.641Z</time></trkpt><trkpt lat="40.6473387" lon="9.6332221"><ele>14.0</ele><time>2026-04-17T09:47:49.641Z</time></trkpt><trkpt lat="40.6473649" lon="9.6334108"><ele>15.0</ele><time>2026-04-17T09:47:50.638Z</time></trkpt><trkpt lat="40.6473693" lon="9.6336095"><ele>16.0</ele><time>2026-04-17T09:47:51.632Z</time></trkpt><trkpt lat="40.6473545" lon="9.6338069"><ele>19.333333333333332</ele><time>2026-04-17T09:47:52.648Z</time></trkpt><trkpt lat="40.6472929" lon="9.6339976"><ele>22.666666666666664</ele><time>2026-04-17T09:47:53.641Z</time></trkpt><trkpt lat="40.6472197" lon="9.634189"><ele>26.0</ele><time>2026-04-17T09:47:54.64Z</time></trkpt><trkpt lat="40.6471391" lon="9.6343768"><ele>24.333333333333332</ele><time>2026-04-17T09:47:55.638Z</time></trkpt><trkpt lat="40.6470621" lon="9.6345629"><ele>22.666666666666664</ele><time>2026-04-17T09:47:56.642Z</time></trkpt><trkpt lat="40.6469869" lon="9.6347429"><ele>21.0</ele><time>2026-04-17T09:47:57.642Z</time></trkpt><trkpt lat="40.6469134" lon="9.6349323"><ele>21.0</ele><time>2026-04-17T09:47:58.637Z</time></trkpt><trkpt lat="40.6468284" lon="9.6351268"><ele>21.0</ele><time>2026-04-17T09:47:59.643Z</time></trkpt><trkpt lat="40.646745" lon="9.6353057"><ele>21.0</ele><time>2026-04-17T09:48:00.635Z</time></trkpt><trkpt lat="40.6466641" lon="9.6354822"><ele>24.75</ele><time>2026-04-17T09:48:01.633Z</time></trkpt><trkpt lat="40.6465932" lon="9.6356338"><ele>28.5</ele><time>2026-04-17T09:48:02.636Z</time></trkpt><trkpt lat="40.6465312" lon="9.6357908"><ele>32.25</ele><time>2026-04-17T09:48:03.641Z</time></trkpt><trkpt lat="40.646464" lon="9.6359414"><ele>36.0</ele><time>2026-04-17T09:48:04.637Z</time></trkpt><trkpt lat="40.6464027" lon="9.6360978"><ele>37.5</ele><time>2026-04-17T09:48:05.639Z</time></trkpt><trkpt lat="40.6463574" lon="9.6362657"><ele>39.0</ele><time>2026-04-17T09:48:06.64Z</time></trkpt><trkpt lat="40.6463096" lon="9.6364228"><ele>40.5</ele><time>2026-04-17T09:48:07.633Z</time></trkpt><trkpt lat="40.6462559" lon="9.636588"><ele>42.0</ele><time>2026-04-17T09:48:08.638Z</time></trkpt><trkpt lat="40.6462104" lon="9.6367451"><ele>42.0</ele><time>2026-04-17T09:48:09.638Z</time></trkpt><trkpt lat="40.6461659" lon="9.6368985"><ele>42.0</ele><time>2026-04-17T09:48:10.643Z</time></trkpt><trkpt lat="40.6461249" lon="9.6370508"><ele>42.0</ele><time>2026-04-17T09:48:11.643Z</time></trkpt><trkpt lat="40.6460667" lon="9.6372143"><ele>42.0</ele><time>2026-04-17T09:48:12.64Z</time></trkpt><trkpt lat="40.6459955" lon="9.6373712"><ele>40.75</ele><time>2026-04-17T09:48:13.641Z</time></trkpt><trkpt lat="40.6459171" lon="9.6375188"><ele>39.5</ele><time>2026-04-17T09:48:14.646Z</time></trkpt><trkpt lat="40.6458345" lon="9.6376606"><ele>38.25</ele><time>2026-04-17T09:48:15.641Z</time></trkpt><trkpt lat="40.6457367" lon="9.6377983"><ele>37.0</ele><time>2026-04-17T09:48:16.644Z</time></trkpt><trkpt lat="40.6456404" lon="9.6379378"><ele>35.0</ele><time>2026-04-17T09:48:17.643Z</time></trkpt><trkpt lat="40.645552" lon="9.6380715"><ele>33.0</ele><time>2026-04-17T09:48:18.639Z</time></trkpt><trkpt lat="40.6454603" lon="9.6381931"><ele>31.0</ele><time>2026-04-17T09:48:19.641Z</time></trkpt><trkpt lat="40.6453827" lon="9.6383143"><ele>29.0</ele><time>2026-04-17T09:48:20.641Z</time></trkpt><trkpt lat="40.6452973" lon="9.6384419"><ele>29.0</ele><time>2026-04-17T09:48:21.638Z</time></trkpt><trkpt lat="40.6452043" lon="9.638571"><ele>29.0</ele><time>2026-04-17T09:48:22.638Z</time></trkpt><trkpt lat="40.6451049" lon="9.6387126"><ele>29.0</ele><time>2026-04-17T09:48:23.639Z</time></trkpt><trkpt lat="40.6449979" lon="9.6388526"><ele>29.0</ele><time>2026-04-17T09:48:24.636Z</time></trkpt><trkpt lat="40.6449" lon="9.6390137"><ele>27.5</ele><time>2026-04-17T09:48:25.634Z</time></trkpt><trkpt lat="40.6447928" lon="9.6391685"><ele>26.0</ele><time>2026-04-17T09:48:26.641Z</time></trkpt><trkpt lat="40.6446844" lon="9.6393203"><ele>24.5</ele><time>2026-04-17T09:48:27.642Z</time></trkpt><trkpt lat="40.6445987" lon="9.6394463"><ele>23.0</ele><time>2026-04-17T09:48:28.64Z</time></trkpt><trkpt lat="40.6444934" lon="9.6395661"><ele>24.25</ele><time>2026-04-17T09:48:29.638Z</time></trkpt><trkpt lat="40.6443968" lon="9.6396811"><ele>25.5</ele><time>2026-04-17T09:48:30.642Z</time></trkpt><trkpt lat="40.644283" lon="9.6397878"><ele>26.75</ele><time>2026-04-17T09:48:31.638Z</time></trkpt><trkpt lat="40.6441541" lon="9.6398974"><ele>28.0</ele><time>2026-04-17T09:48:32.638Z</time></trkpt><trkpt lat="40.6440175" lon="9.6400016"><ele>28.0</ele><time>2026-04-17T09:48:33.637Z</time></trkpt><trkpt lat="40.6438893" lon="9.6401009"><ele>28.0</ele><time>2026-04-17T09:48:34.635Z</time></trkpt><trkpt lat="40.6437534" lon="9.6402115"><ele>28.0</ele><time>2026-04-17T09:48:35.638Z</time></trkpt><trkpt lat="40.6436064" lon="9.6403036"><ele>29.0</ele><time>2026-04-17T09:48:36.629Z</time></trkpt><trkpt lat="40.6434535" lon="9.6403718"><ele>30.0</ele><time>2026-04-17T09:48:37.633Z</time></trkpt><trkpt lat="40.6432913" lon="9.6404138"><ele>31.0</ele><time>2026-04-17T09:48:38.637Z</time></trkpt><trkpt lat="40.6431231" lon="9.6404752"><ele>31.0</ele><time>2026-04-17T09:48:39.635Z</time></trkpt><trkpt lat="40.6429715" lon="9.6405173"><ele>31.0</ele><time>2026-04-17T09:48:40.632Z</time></trkpt><trkpt lat="40.642819" lon="9.6405524"><ele>31.0</ele><time>2026-04-17T09:48:41.627Z</time></trkpt><trkpt lat="40.642662" lon="9.6405489"><ele>33.66666666666667</ele><time>2026-04-17T09:48:42.632Z</time></trkpt><trkpt lat="40.6425026" lon="9.6405203"><ele>36.333333333333336</ele><time>2026-04-17T09:48:43.629Z</time></trkpt><trkpt lat="40.6423528" lon="9.6404881"><ele>39.0</ele><time>2026-04-17T09:48:44.642Z</time></trkpt><trkpt lat="40.6422067" lon="9.6404642"><ele>39.0</ele><time>2026-04-17T09:48:45.634Z</time></trkpt><trkpt lat="40.642058" lon="9.6404464"><ele>39.0</ele><time>2026-04-17T09:48:46.658Z</time></trkpt><trkpt lat="40.6419184" lon="9.6404396"><ele>39.0</ele><time>2026-04-17T09:48:47.711Z</time></trkpt><trkpt lat="40.6417839" lon="9.6404529"><ele>39.0</ele><time>2026-04-17T09:48:48.712Z</time></trkpt><trkpt lat="40.6416605" lon="9.6404906"><ele>37.75</ele><time>2026-04-17T09:48:49.715Z</time></trkpt><trkpt lat="40.6415597" lon="9.6405528"><ele>36.5</ele><time>2026-04-17T09:48:50.705Z</time></trkpt><trkpt lat="40.6414461" lon="9.6406609"><ele>35.25</ele><time>2026-04-17T09:48:51.703Z</time></trkpt><trkpt lat="40.6413511" lon="9.6407783"><ele>34.0</ele><time>2026-04-17T09:48:52.71Z</time></trkpt><trkpt lat="40.6412445" lon="9.6409012"><ele>33.5</ele><time>2026-04-17T09:48:53.71Z</time></trkpt><trkpt lat="40.641131" lon="9.6410291"><ele>33.0</ele><time>2026-04-17T09:48:54.722Z</time></trkpt><trkpt lat="40.641017" lon="9.6411565"><ele>32.5</ele><time>2026-04-17T09:48:55.72Z</time></trkpt><trkpt lat="40.6409105" lon="9.6412825"><ele>32.0</ele><time>2026-04-17T09:48:56.718Z</time></trkpt><trkpt lat="40.6408187" lon="9.6414078"><ele>32.0</ele><time>2026-04-17T09:48:57.719Z</time></trkpt><trkpt lat="40.6407389" lon="9.6415938"><ele>32.0</ele><time>2026-04-17T09:48:58.71Z</time></trkpt><trkpt lat="40.6406828" lon="9.6417372"><ele>32.0</ele><time>2026-04-17T09:48:59.708Z</time></trkpt><trkpt lat="40.6406516" lon="9.6418866"><ele>32.0</ele><time>2026-04-17T09:49:00.7Z</time></trkpt><trkpt lat="40.6406312" lon="9.642044"><ele>32.25</ele><time>2026-04-17T09:49:01.699Z</time></trkpt><trkpt lat="40.6406272" lon="9.6422512"><ele>32.5</ele><time>2026-04-17T09:49:02.714Z</time></trkpt><trkpt lat="40.6406442" lon="9.6424349"><ele>32.75</ele><time>2026-04-17T09:49:03.709Z</time></trkpt><trkpt lat="40.6406714" lon="9.642628"><ele>33.0</ele><time>2026-04-17T09:49:04.716Z</time></trkpt><trkpt lat="40.6407205" lon="9.6428375"><ele>30.666666666666664</ele><time>2026-04-17T09:49:05.725Z</time></trkpt><trkpt lat="40.6407819" lon="9.6430272"><ele>28.333333333333332</ele><time>2026-04-17T09:49:06.707Z</time></trkpt><trkpt lat="40.6408602" lon="9.6432085"><ele>26.0</ele><time>2026-04-17T09:49:07.701Z</time></trkpt><trkpt lat="40.6409525" lon="9.6433706"><ele>26.0</ele><time>2026-04-17T09:49:08.698Z</time></trkpt><trkpt lat="40.6410485" lon="9.6435346"><ele>26.0</ele><time>2026-04-17T09:49:09.704Z</time></trkpt><trkpt lat="40.641147" lon="9.6436946"><ele>26.0</ele><time>2026-04-17T09:49:10.719Z</time></trkpt><trkpt lat="40.6412407" lon="9.6438498"><ele>27.25</ele><time>2026-04-17T09:49:11.717Z</time></trkpt><trkpt lat="40.6413296" lon="9.6440032"><ele>28.5</ele><time>2026-04-17T09:49:12.718Z</time></trkpt><trkpt lat="40.641404" lon="9.6441602"><ele>29.75</ele><time>2026-04-17T09:49:13.716Z</time></trkpt><trkpt lat="40.6414642" lon="9.6443459"><ele>31.0</ele><time>2026-04-17T09:49:14.722Z</time></trkpt><trkpt lat="40.6415128" lon="9.6445485"><ele>31.0</ele><time>2026-04-17T09:49:15.714Z</time></trkpt><trkpt lat="40.6415535" lon="9.6447371"><ele>31.0</ele><time>2026-04-17T09:49:16.711Z</time></trkpt><trkpt lat="40.6415916" lon="9.6449212"><ele>31.0</ele><time>2026-04-17T09:49:17.716Z</time></trkpt><trkpt lat="40.6416279" lon="9.6450938"><ele>31.0</ele><time>2026-04-17T09:49:18.705Z</time></trkpt><trkpt lat="40.6416656" lon="9.6452681"><ele>30.25</ele><time>2026-04-17T09:49:19.729Z</time></trkpt><trkpt lat="40.6417011" lon="9.6454397"><ele>29.5</ele><time>2026-04-17T09:49:20.725Z</time></trkpt><trkpt lat="40.6417292" lon="9.645605"><ele>28.75</ele><time>2026-04-17T09:49:21.725Z</time></trkpt><trkpt lat="40.641748" lon="9.6457728"><ele>28.0</ele><time>2026-04-17T09:49:22.72Z</time></trkpt><trkpt lat="40.6417457" lon="9.645951"><ele>29.0</ele><time>2026-04-17T09:49:23.716Z</time></trkpt><trkpt lat="40.6417247" lon="9.6461365"><ele>30.0</ele><time>2026-04-17T09:49:24.709Z</time></trkpt><trkpt lat="40.6416942" lon="9.646311"><ele>31.0</ele><time>2026-04-17T09:49:25.723Z</time></trkpt><trkpt lat="40.6416609" lon="9.646489"><ele>32.0</ele><time>2026-04-17T09:49:26.711Z</time></trkpt><trkpt lat="40.6416202" lon="9.6466706"><ele>32.0</ele><time>2026-04-17T09:49:27.703Z</time></trkpt><trkpt lat="40.6415768" lon="9.646854"><ele>32.0</ele><time>2026-04-17T09:49:28.714Z</time></trkpt><trkpt lat="40.6415328" lon="9.6470236"><ele>32.0</ele><time>2026-04-17T09:49:29.729Z</time></trkpt><trkpt lat="40.6414921" lon="9.6471836"><ele>32.0</ele><time>2026-04-17T09:49:30.729Z</time></trkpt><trkpt lat="40.6414505" lon="9.6473484"><ele>32.0</ele><time>2026-04-17T09:49:31.73Z</time></trkpt><trkpt lat="40.6414044" lon="9.6475144"><ele>32.0</ele><time>2026-04-17T09:49:32.728Z</time></trkpt><trkpt lat="40.6413459" lon="9.647679"><ele>32.0</ele><time>2026-04-17T09:49:33.716Z</time></trkpt><trkpt lat="40.641273" lon="9.6478394"><ele>32.0</ele><time>2026-04-17T09:49:34.717Z</time></trkpt><trkpt lat="40.6411837" lon="9.6479882"><ele>32.5</ele><time>2026-04-17T09:49:35.717Z</time></trkpt><trkpt lat="40.6410782" lon="9.6481083"><ele>33.0</ele><time>2026-04-17T09:49:36.703Z</time></trkpt><trkpt lat="40.6409658" lon="9.6481653"><ele>33.5</ele><time>2026-04-17T09:49:37.702Z</time></trkpt><trkpt lat="40.6408399" lon="9.6481955"><ele>34.0</ele><time>2026-04-17T09:49:38.7Z</time></trkpt><trkpt lat="40.640704" lon="9.6482213"><ele>34.0</ele><time>2026-04-17T09:49:39.719Z</time></trkpt><trkpt lat="40.6405613" lon="9.6482454"><ele>34.0</ele><time>2026-04-17T09:49:40.718Z</time></trkpt><trkpt lat="40.640414" lon="9.648271"><ele>34.0</ele><time>2026-04-17T09:49:41.714Z</time></trkpt><trkpt lat="40.6402766" lon="9.6483207"><ele>34.0</ele><time>2026-04-17T09:49:42.715Z</time></trkpt><trkpt lat="40.6401452" lon="9.6483996"><ele>31.0</ele><time>2026-04-17T09:49:43.712Z</time></trkpt><trkpt lat="40.6400144" lon="9.6485086"><ele>28.0</ele><time>2026-04-17T09:49:44.707Z</time></trkpt><trkpt lat="40.6398923" lon="9.648635"><ele>25.0</ele><time>2026-04-17T09:49:45.718Z</time></trkpt><trkpt lat="40.6397721" lon="9.6487655"><ele>27.666666666666668</ele><time>2026-04-17T09:49:46.711Z</time></trkpt><trkpt lat="40.6396429" lon="9.6488929"><ele>30.333333333333336</ele><time>2026-04-17T09:49:47.62Z</time></trkpt><trkpt lat="40.6395184" lon="9.6489953"><ele>33.0</ele><time>2026-04-17T09:49:48.636Z</time></trkpt><trkpt lat="40.6393793" lon="9.6490711"><ele>33.0</ele><time>2026-04-17T09:49:49.638Z</time></trkpt><trkpt lat="40.6392362" lon="9.6491587"><ele>33.0</ele><time>2026-04-17T09:49:50.638Z</time></trkpt><trkpt lat="40.639099" lon="9.6492405"><ele>33.0</ele><time>2026-04-17T09:49:51.63Z</time></trkpt><trkpt lat="40.6389629" lon="9.6493175"><ele>33.0</ele><time>2026-04-17T09:49:52.63Z</time></trkpt><trkpt lat="40.6388184" lon="9.6493944"><ele>33.0</ele><time>2026-04-17T09:49:53.633Z</time></trkpt><trkpt lat="40.6386769" lon="9.6494685"><ele>33.0</ele><time>2026-04-17T09:49:54.633Z</time></trkpt><trkpt lat="40.6385388" lon="9.6495396"><ele>38.33333333333333</ele><time>2026-04-17T09:49:55.629Z</time></trkpt><trkpt lat="40.6383888" lon="9.6496031"><ele>43.666666666666664</ele><time>2026-04-17T09:49:56.633Z</time></trkpt><trkpt lat="40.6382339" lon="9.6496365"><ele>49.0</ele><time>2026-04-17T09:49:57.633Z</time></trkpt><trkpt lat="40.6380816" lon="9.649653"><ele>49.0</ele><time>2026-04-17T09:49:58.624Z</time></trkpt><trkpt lat="40.6379409" lon="9.6496503"><ele>49.0</ele><time>2026-04-17T09:49:59.626Z</time></trkpt><trkpt lat="40.6378095" lon="9.6496311"><ele>49.0</ele><time>2026-04-17T09:50:00.625Z</time></trkpt><trkpt lat="40.6376725" lon="9.6496137"><ele>49.0</ele><time>2026-04-17T09:50:01.628Z</time></trkpt><trkpt lat="40.6375327" lon="9.6495729"><ele>48.0</ele><time>2026-04-17T09:50:02.629Z</time></trkpt><trkpt lat="40.6374" lon="9.6495519"><ele>47.0</ele><time>2026-04-17T09:50:03.628Z</time></trkpt><trkpt lat="40.6372611" lon="9.6495311"><ele>46.0</ele><time>2026-04-17T09:50:04.626Z</time></trkpt><trkpt lat="40.6371301" lon="9.6495021"><ele>45.0</ele><time>2026-04-17T09:50:05.63Z</time></trkpt><trkpt lat="40.6369859" lon="9.649487"><ele>42.333333333333336</ele><time>2026-04-17T09:50:06.626Z</time></trkpt><trkpt lat="40.6368314" lon="9.6494987"><ele>39.66666666666667</ele><time>2026-04-17T09:50:07.624Z</time></trkpt><trkpt lat="40.6366666" lon="9.649544"><ele>37.0</ele><time>2026-04-17T09:50:08.629Z</time></trkpt><trkpt lat="40.6365113" lon="9.6495976"><ele>37.0</ele><time>2026-04-17T09:50:09.633Z</time></trkpt><trkpt lat="40.6363696" lon="9.6496523"><ele>37.0</ele><time>2026-04-17T09:50:10.632Z</time></trkpt><trkpt lat="40.6362279" lon="9.6497337"><ele>37.0</ele><time>2026-04-17T09:50:11.63Z</time></trkpt><trkpt lat="40.6361082" lon="9.6498249"><ele>37.0</ele><time>2026-04-17T09:50:12.625Z</time></trkpt><trkpt lat="40.6359984" lon="9.6499305"><ele>34.5</ele><time>2026-04-17T09:50:13.625Z</time></trkpt><trkpt lat="40.6358959" lon="9.6500572"><ele>32.0</ele><time>2026-04-17T09:50:14.634Z</time></trkpt><trkpt lat="40.6358206" lon="9.6502121"><ele>29.5</ele><time>2026-04-17T09:50:15.627Z</time></trkpt><trkpt lat="40.6357646" lon="9.6503609"><ele>27.0</ele><time>2026-04-17T09:50:16.638Z</time></trkpt><trkpt lat="40.6357356" lon="9.6505475"><ele>27.0</ele><time>2026-04-17T09:50:17.634Z</time></trkpt><trkpt lat="40.6357197" lon="9.650742"><ele>27.0</ele><time>2026-04-17T09:50:18.638Z</time></trkpt><trkpt lat="40.6357352" lon="9.6509381"><ele>27.0</ele><time>2026-04-17T09:50:19.64Z</time></trkpt><trkpt lat="40.6357569" lon="9.6511411"><ele>26.0</ele><time>2026-04-17T09:50:20.638Z</time></trkpt><trkpt lat="40.6357912" lon="9.6513321"><ele>25.0</ele><time>2026-04-17T09:50:21.637Z</time></trkpt><trkpt lat="40.6358177" lon="9.6515079"><ele>24.0</ele><time>2026-04-17T09:50:22.642Z</time></trkpt><trkpt lat="40.6358427" lon="9.6516512"><ele>23.0</ele><time>2026-04-17T09:50:23.642Z</time></trkpt><trkpt lat="40.635867" lon="9.6517952"><ele>23.0</ele><time>2026-04-17T09:50:24.645Z</time></trkpt><trkpt lat="40.635882" lon="9.6519075"><ele>23.0</ele><time>2026-04-17T09:50:25.646Z</time></trkpt><trkpt lat="40.6358978" lon="9.6520168"><ele>23.0</ele><time>2026-04-17T09:50:26.644Z</time></trkpt><trkpt lat="40.6359149" lon="9.6521174"><ele>23.0</ele><time>2026-04-17T09:50:27.648Z</time></trkpt><trkpt lat="40.6359363" lon="9.6522513"><ele>23.0</ele><time>2026-04-17T09:50:29.635Z</time></trkpt><trkpt lat="40.6358815" lon="9.6523171"><ele>23.0</ele><time>2026-04-17T09:52:13.648Z</time></trkpt><trkpt lat="40.6357925" lon="9.6523111"><ele>21.799999999999997</ele><time>2026-04-17T09:52:15.638Z</time></trkpt><trkpt lat="40.6357226" lon="9.6522775"><ele>20.599999999999998</ele><time>2026-04-17T09:52:16.635Z</time></trkpt><trkpt lat="40.6356417" lon="9.6522382"><ele>19.4</ele><time>2026-04-17T09:52:17.65Z</time></trkpt><trkpt lat="40.6355561" lon="9.6521979"><ele>18.2</ele><time>2026-04-17T09:52:18.644Z</time></trkpt><trkpt lat="40.6354658" lon="9.6521587"><ele>17.0</ele><time>2026-04-17T09:52:19.645Z</time></trkpt><trkpt lat="40.6353648" lon="9.6521225"><ele>16.6</ele><time>2026-04-17T09:52:20.645Z</time></trkpt><trkpt lat="40.6352601" lon="9.6520881"><ele>16.2</ele><time>2026-04-17T09:52:21.647Z</time></trkpt><trkpt lat="40.6351589" lon="9.6520466"><ele>15.8</ele><time>2026-04-17T09:52:22.647Z</time></trkpt><trkpt lat="40.635055" lon="9.6520064"><ele>15.4</ele><time>2026-04-17T09:52:23.646Z</time></trkpt><trkpt lat="40.6349472" lon="9.651965"><ele>15.0</ele><time>2026-04-17T09:52:24.645Z</time></trkpt><trkpt lat="40.6348463" lon="9.6519208"><ele>15.6</ele><time>2026-04-17T09:52:25.652Z</time></trkpt><trkpt lat="40.6347458" lon="9.6518901"><ele>16.2</ele><time>2026-04-17T09:52:26.647Z</time></trkpt><trkpt lat="40.6346454" lon="9.6518509"><ele>16.8</ele><time>2026-04-17T09:52:27.644Z</time></trkpt><trkpt lat="40.6345423" lon="9.6518148"><ele>17.4</ele><time>2026-04-17T09:52:28.645Z</time></trkpt><trkpt lat="40.6344367" lon="9.6517829"><ele>18.0</ele><time>2026-04-17T09:52:29.648Z</time></trkpt><trkpt lat="40.634329" lon="9.6517465"><ele>18.0</ele><time>2026-04-17T09:52:30.638Z</time></trkpt><trkpt lat="40.634244" lon="9.6517224"><ele>18.0</ele><time>2026-04-17T09:52:31.642Z</time></trkpt><trkpt lat="40.6341513" lon="9.6516897"><ele>18.0</ele><time>2026-04-17T09:52:32.641Z</time></trkpt><trkpt lat="40.6340703" lon="9.6516558"><ele>18.0</ele><time>2026-04-17T09:52:33.642Z</time></trkpt><trkpt lat="40.6339856" lon="9.6516285"><ele>18.0</ele><time>2026-04-17T09:52:34.645Z</time></trkpt><trkpt lat="40.6339058" lon="9.6515963"><ele>18.0</ele><time>2026-04-17T09:52:35.644Z</time></trkpt><trkpt lat="40.6338169" lon="9.6515568"><ele>18.0</ele><time>2026-04-17T09:52:36.641Z</time></trkpt><trkpt lat="40.6337128" lon="9.6515175"><ele>18.0</ele><time>2026-04-17T09:52:37.632Z</time></trkpt><trkpt lat="40.6336058" lon="9.6514741"><ele>18.0</ele><time>2026-04-17T09:52:38.644Z</time></trkpt><trkpt lat="40.6334939" lon="9.651438"><ele>18.0</ele><time>2026-04-17T09:52:39.644Z</time></trkpt><trkpt lat="40.6333907" lon="9.6514008"><ele>18.0</ele><time>2026-04-17T09:52:40.64Z</time></trkpt><trkpt lat="40.6332883" lon="9.6513575"><ele>18.2</ele><time>2026-04-17T09:52:41.641Z</time></trkpt><trkpt lat="40.6331911" lon="9.651319"><ele>18.4</ele><time>2026-04-17T09:52:42.642Z</time></trkpt><trkpt lat="40.6331066" lon="9.6512617"><ele>18.599999999999998</ele><time>2026-04-17T09:52:43.639Z</time></trkpt><trkpt lat="40.6330365" lon="9.6511855"><ele>18.8</ele><time>2026-04-17T09:52:44.644Z</time></trkpt><trkpt lat="40.632978" lon="9.6510919"><ele>19.0</ele><time>2026-04-17T09:52:45.644Z</time></trkpt><trkpt lat="40.632923" lon="9.650997"><ele>19.0</ele><time>2026-04-17T09:52:46.644Z</time></trkpt><trkpt lat="40.6328933" lon="9.6508889"><ele>19.0</ele><time>2026-04-17T09:52:47.642Z</time></trkpt><trkpt lat="40.6328606" lon="9.6507739"><ele>19.0</ele><time>2026-04-17T09:52:48.639Z</time></trkpt><trkpt lat="40.6328626" lon="9.6506438"><ele>19.0</ele><time>2026-04-17T09:52:49.643Z</time></trkpt><trkpt lat="40.6328831" lon="9.6505132"><ele>19.0</ele><time>2026-04-17T09:52:50.643Z</time></trkpt><trkpt lat="40.6329263" lon="9.6503928"><ele>19.0</ele><time>2026-04-17T09:52:51.644Z</time></trkpt><trkpt lat="40.6329702" lon="9.6502917"><ele>19.0</ele><time>2026-04-17T09:52:52.64Z</time></trkpt><trkpt lat="40.6330376" lon="9.6502017"><ele>19.0</ele><time>2026-04-17T09:52:53.645Z</time></trkpt><trkpt lat="40.6331184" lon="9.6501234"><ele>19.0</ele><time>2026-04-17T09:52:54.641Z</time></trkpt><trkpt lat="40.6332126" lon="9.6500621"><ele>19.0</ele><time>2026-04-17T09:52:55.643Z</time></trkpt><trkpt lat="40.6333064" lon="9.6499989"><ele>18.5</ele><time>2026-04-17T09:52:56.652Z</time></trkpt><trkpt lat="40.6334068" lon="9.6499316"><ele>18.0</ele><time>2026-04-17T09:52:57.667Z</time></trkpt><trkpt lat="40.6335108" lon="9.6498522"><ele>17.5</ele><time>2026-04-17T09:52:58.734Z</time></trkpt><trkpt lat="40.6336132" lon="9.6497678"><ele>17.0</ele><time>2026-04-17T09:52:59.729Z</time></trkpt><trkpt lat="40.6337097" lon="9.6496821"><ele>17.8</ele><time>2026-04-17T09:53:00.728Z</time></trkpt><trkpt lat="40.6337852" lon="9.6495797"><ele>18.6</ele><time>2026-04-17T09:53:01.72Z</time></trkpt><trkpt lat="40.6338291" lon="9.6494666"><ele>19.400000000000002</ele><time>2026-04-17T09:53:02.731Z</time></trkpt><trkpt lat="40.6338469" lon="9.6493341"><ele>20.2</ele><time>2026-04-17T09:53:03.717Z</time></trkpt><trkpt lat="40.633848" lon="9.6491938"><ele>21.0</ele><time>2026-04-17T09:53:04.714Z</time></trkpt><trkpt lat="40.6338456" lon="9.6490652"><ele>19.400000000000002</ele><time>2026-04-17T09:53:05.714Z</time></trkpt><trkpt lat="40.6338459" lon="9.6489369"><ele>17.8</ele><time>2026-04-17T09:53:06.712Z</time></trkpt><trkpt lat="40.633848" lon="9.6488059"><ele>16.200000000000003</ele><time>2026-04-17T09:53:07.731Z</time></trkpt><trkpt lat="40.6338508" lon="9.6486607"><ele>14.600000000000001</ele><time>2026-04-17T09:53:08.724Z</time></trkpt><trkpt lat="40.6338553" lon="9.6485136"><ele>13.0</ele><time>2026-04-17T09:53:09.725Z</time></trkpt><trkpt lat="40.6338519" lon="9.6483677"><ele>11.5</ele><time>2026-04-17T09:53:10.725Z</time></trkpt><trkpt lat="40.6338499" lon="9.6482163"><ele>10.0</ele><time>2026-04-17T09:53:11.726Z</time></trkpt><trkpt lat="40.6338501" lon="9.6480617"><ele>8.5</ele><time>2026-04-17T09:53:12.732Z</time></trkpt><trkpt lat="40.6338486" lon="9.6479049"><ele>7.0</ele><time>2026-04-17T09:53:13.732Z</time></trkpt><trkpt lat="40.6338459" lon="9.6477445"><ele>7.0</ele><time>2026-04-17T09:53:14.74Z</time></trkpt><trkpt lat="40.6338438" lon="9.6475834"><ele>7.0</ele><time>2026-04-17T09:53:15.729Z</time></trkpt><trkpt lat="40.6338427" lon="9.6474211"><ele>7.0</ele><time>2026-04-17T09:53:16.731Z</time></trkpt><trkpt lat="40.6338419" lon="9.6472569"><ele>7.0</ele><time>2026-04-17T09:53:17.732Z</time></trkpt><trkpt lat="40.6338411" lon="9.6470876"><ele>8.25</ele><time>2026-04-17T09:53:18.726Z</time></trkpt><trkpt lat="40.6338398" lon="9.6469155"><ele>9.5</ele><time>2026-04-17T09:53:19.734Z</time></trkpt><trkpt lat="40.6338393" lon="9.646744"><ele>10.75</ele><time>2026-04-17T09:53:20.734Z</time></trkpt><trkpt lat="40.6338395" lon="9.6465831"><ele>12.0</ele><time>2026-04-17T09:53:21.735Z</time></trkpt><trkpt lat="40.6338382" lon="9.6464336"><ele>12.0</ele><time>2026-04-17T09:53:22.735Z</time></trkpt><trkpt lat="40.6338252" lon="9.6462944"><ele>12.0</ele><time>2026-04-17T09:53:23.727Z</time></trkpt><trkpt lat="40.6337915" lon="9.6461652"><ele>12.0</ele><time>2026-04-17T09:53:24.72Z</time></trkpt><trkpt lat="40.6337486" lon="9.6460495"><ele>12.0</ele><time>2026-04-17T09:53:25.711Z</time></trkpt><trkpt lat="40.6337082" lon="9.6459382"><ele>12.0</ele><time>2026-04-17T09:53:26.711Z</time></trkpt><trkpt lat="40.6336708" lon="9.6458428"><ele>12.833333333333334</ele><time>2026-04-17T09:53:27.716Z</time></trkpt><trkpt lat="40.633633" lon="9.6457579"><ele>13.666666666666668</ele><time>2026-04-17T09:53:28.715Z</time></trkpt><trkpt lat="40.6335993" lon="9.6456842"><ele>14.5</ele><time>2026-04-17T09:53:29.732Z</time></trkpt><trkpt lat="40.6335194" lon="9.6456078"><ele>15.333333333333334</ele><time>2026-04-17T09:53:31.712Z</time></trkpt><trkpt lat="40.6334221" lon="9.6456699"><ele>16.166666666666668</ele><time>2026-04-17T09:53:33.71Z</time></trkpt><trkpt lat="40.6333909" lon="9.645754"><ele>17.0</ele><time>2026-04-17T09:53:34.705Z</time></trkpt><trkpt lat="40.6333766" lon="9.6458555"><ele>17.0</ele><time>2026-04-17T09:53:35.723Z</time></trkpt><trkpt lat="40.6333812" lon="9.6459444"><ele>17.0</ele><time>2026-04-17T09:53:36.725Z</time></trkpt><trkpt lat="40.6333968" lon="9.6460413"><ele>17.0</ele><time>2026-04-17T09:53:37.709Z</time></trkpt><trkpt lat="40.6334236" lon="9.6461907"><ele>17.0</ele><time>2026-04-17T09:53:39.713Z</time></trkpt><trkpt lat="40.6334338" lon="9.6463582"><ele>17.0</ele><time>2026-04-17T09:53:41.734Z</time></trkpt><trkpt lat="40.6334312" lon="9.6464594"><ele>15.666666666666668</ele><time>2026-04-17T09:53:42.731Z</time></trkpt><trkpt lat="40.6334234" lon="9.6465687"><ele>14.333333333333334</ele><time>2026-04-17T09:53:43.735Z</time></trkpt><trkpt lat="40.6334136" lon="9.6466768"><ele>13.0</ele><time>2026-04-17T09:53:44.736Z</time></trkpt><trkpt lat="40.6334011" lon="9.6467785"><ele>11.666666666666668</ele><time>2026-04-17T09:53:45.727Z</time></trkpt><trkpt lat="40.6333698" lon="9.6469135"><ele>10.333333333333334</ele><time>2026-04-17T09:53:47.642Z</time></trkpt><trkpt lat="40.6332997" lon="9.6469486"><ele>9.0</ele><time>2026-04-17T09:53:49.66Z</time></trkpt><trkpt lat="40.6332265" lon="9.6469625"><ele>9.0</ele><time>2026-04-17T09:53:51.658Z</time></trkpt><trkpt lat="40.6331578" lon="9.6469551"><ele>9.0</ele><time>2026-04-17T09:53:55.66Z</time></trkpt><trkpt lat="40.6330936" lon="9.6469381"><ele>9.0</ele><time>2026-04-17T09:54:36.651Z</time></trkpt><trkpt lat="40.6329351" lon="9.6468906"><ele>9.0</ele><time>2026-04-17T09:54:38.64Z</time></trkpt><trkpt lat="40.6328274" lon="9.6468658"><ele>9.0</ele><time>2026-04-17T09:54:39.636Z</time></trkpt><trkpt lat="40.6327092" lon="9.6468392"><ele>8.2</ele><time>2026-04-17T09:54:40.64Z</time></trkpt><trkpt lat="40.632593" lon="9.6468176"><ele>7.4</ele><time>2026-04-17T09:54:41.645Z</time></trkpt><trkpt lat="40.6324849" lon="9.6467948"><ele>6.6</ele><time>2026-04-17T09:54:42.646Z</time></trkpt><trkpt lat="40.6323957" lon="9.6467707"><ele>5.8</ele><time>2026-04-17T09:54:43.648Z</time></trkpt><trkpt lat="40.6323218" lon="9.6467366"><ele>5.0</ele><time>2026-04-17T09:54:44.651Z</time></trkpt><trkpt lat="40.6322533" lon="9.6467116"><ele>5.0</ele><time>2026-04-17T09:54:45.645Z</time></trkpt><trkpt lat="40.6321793" lon="9.646701"><ele>5.0</ele><time>2026-04-17T09:54:46.654Z</time></trkpt><trkpt lat="40.6321161" lon="9.6466989"><ele>5.0</ele><time>2026-04-17T09:54:47.652Z</time></trkpt><trkpt lat="40.6320367" lon="9.646706"><ele>5.0</ele><time>2026-04-17T09:54:48.657Z</time></trkpt><trkpt lat="40.6319566" lon="9.6467221"><ele>5.0</ele><time>2026-04-17T09:54:49.654Z</time></trkpt><trkpt lat="40.6318779" lon="9.6467403"><ele>5.0</ele><time>2026-04-17T09:54:50.655Z</time></trkpt><trkpt lat="40.6317962" lon="9.6467539"><ele>4.833333333333334</ele><time>2026-04-17T09:54:51.648Z</time></trkpt><trkpt lat="40.6317202" lon="9.6467578"><ele>4.666666666666667</ele><time>2026-04-17T09:54:52.654Z</time></trkpt><trkpt lat="40.631654" lon="9.6467477"><ele>4.5</ele><time>2026-04-17T09:54:53.66Z</time></trkpt><trkpt lat="40.6315534" lon="9.6466799"><ele>4.333333333333333</ele><time>2026-04-17T09:54:55.655Z</time></trkpt><trkpt lat="40.6314558" lon="9.6466246"><ele>4.166666666666666</ele><time>2026-04-17T09:54:57.65Z</time></trkpt><trkpt lat="40.6313737" lon="9.6465847"><ele>4.0</ele><time>2026-04-17T09:54:59.653Z</time></trkpt><trkpt lat="40.6312749" lon="9.6465888"><ele>3.9999999999999996</ele><time>2026-04-17T09:55:01.659Z</time></trkpt><trkpt lat="40.6311777" lon="9.6466173"><ele>4.0</ele><time>2026-04-17T09:55:03.655Z</time></trkpt><trkpt lat="40.6310907" lon="9.6466748"><ele>4.0</ele><time>2026-04-17T09:55:05.643Z</time></trkpt><trkpt lat="40.6310389" lon="9.6467261"><ele>4.0</ele><time>2026-04-17T09:55:06.651Z</time></trkpt><trkpt lat="40.6309847" lon="9.6467879"><ele>3.9999999999999996</ele><time>2026-04-17T09:55:07.65Z</time></trkpt><trkpt lat="40.6309191" lon="9.6468498"><ele>4.0</ele><time>2026-04-17T09:55:08.648Z</time></trkpt><trkpt lat="40.6308487" lon="9.6468999"><ele>4.0</ele><time>2026-04-17T09:55:09.654Z</time></trkpt><trkpt lat="40.6307646" lon="9.646937"><ele>4.0</ele><time>2026-04-17T09:55:10.647Z</time></trkpt><trkpt lat="40.6306628" lon="9.6469707"><ele>4.0</ele><time>2026-04-17T09:55:11.652Z</time></trkpt><trkpt lat="40.6305651" lon="9.6469934"><ele>4.0</ele><time>2026-04-17T09:55:12.649Z</time></trkpt><trkpt lat="40.6304668" lon="9.6470199"><ele>4.0</ele><time>2026-04-17T09:55:13.652Z</time></trkpt><trkpt lat="40.6303712" lon="9.647068"><ele>3.9999999999999996</ele><time>2026-04-17T09:55:14.646Z</time></trkpt><trkpt lat="40.6302877" lon="9.6471237"><ele>4.0</ele><time>2026-04-17T09:55:15.647Z</time></trkpt><trkpt lat="40.6302081" lon="9.6471692"><ele>4.0</ele><time>2026-04-17T09:55:16.653Z</time></trkpt><trkpt lat="40.6301353" lon="9.6472133"><ele>4.0</ele><time>2026-04-17T09:55:17.656Z</time></trkpt><trkpt lat="40.6300529" lon="9.6472637"><ele>3.9999999999999996</ele><time>2026-04-17T09:55:18.651Z</time></trkpt><trkpt lat="40.6299656" lon="9.647314"><ele>4.0</ele><time>2026-04-17T09:55:19.652Z</time></trkpt><trkpt lat="40.6298781" lon="9.6473785"><ele>4.0</ele><time>2026-04-17T09:55:20.647Z</time></trkpt><trkpt lat="40.6297888" lon="9.647448"><ele>4.0</ele><time>2026-04-17T09:55:21.651Z</time></trkpt><trkpt lat="40.6296921" lon="9.647525"><ele>4.0</ele><time>2026-04-17T09:55:22.657Z</time></trkpt><trkpt lat="40.6295927" lon="9.647606"><ele>4.0</ele><time>2026-04-17T09:55:23.656Z</time></trkpt><trkpt lat="40.6295048" lon="9.6476855"><ele>4.0</ele><time>2026-04-17T09:55:24.656Z</time></trkpt><trkpt lat="40.6294156" lon="9.6477518"><ele>4.4</ele><time>2026-04-17T09:55:25.658Z</time></trkpt><trkpt lat="40.6293165" lon="9.6478138"><ele>4.800000000000001</ele><time>2026-04-17T09:55:26.664Z</time></trkpt><trkpt lat="40.6292228" lon="9.6478868"><ele>5.199999999999999</ele><time>2026-04-17T09:55:27.646Z</time></trkpt><trkpt lat="40.6291421" lon="9.6479532"><ele>5.6</ele><time>2026-04-17T09:55:28.653Z</time></trkpt><trkpt lat="40.6290632" lon="9.6480166"><ele>6.0</ele><time>2026-04-17T09:55:29.652Z</time></trkpt><trkpt lat="40.6289842" lon="9.6480939"><ele>6.0</ele><time>2026-04-17T09:55:30.652Z</time></trkpt><trkpt lat="40.6289074" lon="9.6481721"><ele>6.0</ele><time>2026-04-17T09:55:31.651Z</time></trkpt><trkpt lat="40.6288165" lon="9.6482363"><ele>6.0</ele><time>2026-04-17T09:55:32.648Z</time></trkpt><trkpt lat="40.6287206" lon="9.6482863"><ele>6.0</ele><time>2026-04-17T09:55:33.649Z</time></trkpt><trkpt lat="40.6286181" lon="9.6483272"><ele>6.0</ele><time>2026-04-17T09:55:34.648Z</time></trkpt><trkpt lat="40.6285126" lon="9.6483541"><ele>5.6</ele><time>2026-04-17T09:55:35.653Z</time></trkpt><trkpt lat="40.6284071" lon="9.648371"><ele>5.199999999999999</ele><time>2026-04-17T09:55:36.652Z</time></trkpt><trkpt lat="40.6283148" lon="9.6484034"><ele>4.800000000000001</ele><time>2026-04-17T09:55:37.661Z</time></trkpt><trkpt lat="40.6282292" lon="9.6484377"><ele>4.4</ele><time>2026-04-17T09:55:38.647Z</time></trkpt><trkpt lat="40.6281349" lon="9.6484747"><ele>4.0</ele><time>2026-04-17T09:55:39.65Z</time></trkpt><trkpt lat="40.6280358" lon="9.6485122"><ele>4.0</ele><time>2026-04-17T09:55:40.645Z</time></trkpt><trkpt lat="40.6279313" lon="9.6485483"><ele>4.0</ele><time>2026-04-17T09:55:41.649Z</time></trkpt><trkpt lat="40.6278288" lon="9.6485927"><ele>4.0</ele><time>2026-04-17T09:55:42.657Z</time></trkpt><trkpt lat="40.6277315" lon="9.6486414"><ele>4.0</ele><time>2026-04-17T09:55:43.656Z</time></trkpt><trkpt lat="40.6276382" lon="9.6487009"><ele>4.0</ele><time>2026-04-17T09:55:44.651Z</time></trkpt><trkpt lat="40.6275496" lon="9.6487565"><ele>4.0</ele><time>2026-04-17T09:55:45.65Z</time></trkpt><trkpt lat="40.6274484" lon="9.6488193"><ele>4.0</ele><time>2026-04-17T09:55:46.648Z</time></trkpt><trkpt lat="40.6273508" lon="9.6488881"><ele>4.0</ele><time>2026-04-17T09:55:47.648Z</time></trkpt><trkpt lat="40.6272605" lon="9.6489705"><ele>4.0</ele><time>2026-04-17T09:55:48.649Z</time></trkpt><trkpt lat="40.6271675" lon="9.6490574"><ele>4.0</ele><time>2026-04-17T09:55:49.66Z</time></trkpt><trkpt lat="40.6270903" lon="9.6491512"><ele>3.9999999999999996</ele><time>2026-04-17T09:55:50.646Z</time></trkpt><trkpt lat="40.6270137" lon="9.6492517"><ele>4.0</ele><time>2026-04-17T09:55:51.651Z</time></trkpt><trkpt lat="40.6269457" lon="9.6493438"><ele>4.0</ele><time>2026-04-17T09:55:52.651Z</time></trkpt><trkpt lat="40.6268873" lon="9.6494121"><ele>4.0</ele><time>2026-04-17T09:55:53.645Z</time></trkpt><trkpt lat="40.6268263" lon="9.6494719"><ele>3.9999999999999996</ele><time>2026-04-17T09:55:54.639Z</time></trkpt><trkpt lat="40.6267669" lon="9.6495026"><ele>4.0</ele><time>2026-04-17T09:55:55.639Z</time></trkpt><trkpt lat="40.6267026" lon="9.6495053"><ele>4.5</ele><time>2026-04-17T09:55:56.643Z</time></trkpt><trkpt lat="40.6266347" lon="9.6494793"><ele>5.0</ele><time>2026-04-17T09:55:57.641Z</time></trkpt><trkpt lat="40.6265654" lon="9.6494313"><ele>5.5</ele><time>2026-04-17T09:55:58.647Z</time></trkpt><trkpt lat="40.6265214" lon="9.6493415"><ele>6.0</ele><time>2026-04-17T09:55:59.633Z</time></trkpt><trkpt lat="40.6264984" lon="9.6492486"><ele>6.500000000000001</ele><time>2026-04-17T09:56:00.646Z</time></trkpt><trkpt lat="40.6264194" lon="9.6491341"><ele>7.0</ele><time>2026-04-17T09:56:02.629Z</time></trkpt><trkpt lat="40.6263207" lon="9.6491318"><ele>7.0</ele><time>2026-04-17T09:56:04.638Z</time></trkpt><trkpt lat="40.6262124" lon="9.6491879"><ele>6.999999999999999</ele><time>2026-04-17T09:56:06.647Z</time></trkpt><trkpt lat="40.6261368" lon="9.6491412"><ele>6.999999999999999</ele><time>2026-04-17T09:56:08.646Z</time></trkpt><trkpt lat="40.6261192" lon="9.6489745"><ele>7.0</ele><time>2026-04-17T09:56:10.642Z</time></trkpt><trkpt lat="40.6261312" lon="9.6488444"><ele>7.0</ele><time>2026-04-17T09:56:11.646Z</time></trkpt><trkpt lat="40.6261396" lon="9.6487026"><ele>6.8</ele><time>2026-04-17T09:56:12.651Z</time></trkpt><trkpt lat="40.6261329" lon="9.6485644"><ele>6.6</ele><time>2026-04-17T09:56:13.647Z</time></trkpt><trkpt lat="40.6261173" lon="9.6484339"><ele>6.3999999999999995</ele><time>2026-04-17T09:56:14.652Z</time></trkpt><trkpt lat="40.6261085" lon="9.6482901"><ele>6.199999999999999</ele><time>2026-04-17T09:56:15.647Z</time></trkpt><trkpt lat="40.6261007" lon="9.648135"><ele>6.0</ele><time>2026-04-17T09:56:16.649Z</time></trkpt><trkpt lat="40.6260863" lon="9.6479905"><ele>6.0</ele><time>2026-04-17T09:56:17.645Z</time></trkpt><trkpt lat="40.6260757" lon="9.6478589"><ele>6.0</ele><time>2026-04-17T09:56:18.651Z</time></trkpt><trkpt lat="40.6260668" lon="9.6477276"><ele>6.0</ele><time>2026-04-17T09:56:19.648Z</time></trkpt><trkpt lat="40.6260606" lon="9.6475845"><ele>6.0</ele><time>2026-04-17T09:56:20.645Z</time></trkpt><trkpt lat="40.6260536" lon="9.6474331"><ele>6.0</ele><time>2026-04-17T09:56:21.649Z</time></trkpt><trkpt lat="40.626045" lon="9.6472946"><ele>6.75</ele><time>2026-04-17T09:56:22.653Z</time></trkpt><trkpt lat="40.6260308" lon="9.6471508"><ele>7.5</ele><time>2026-04-17T09:56:23.65Z</time></trkpt><trkpt lat="40.6260016" lon="9.6470102"><ele>8.25</ele><time>2026-04-17T09:56:24.649Z</time></trkpt><trkpt lat="40.6259588" lon="9.6468671"><ele>9.0</ele><time>2026-04-17T09:56:25.651Z</time></trkpt><trkpt lat="40.6259153" lon="9.6467264"><ele>10.25</ele><time>2026-04-17T09:56:26.65Z</time></trkpt><trkpt lat="40.6258634" lon="9.6465866"><ele>11.5</ele><time>2026-04-17T09:56:27.65Z</time></trkpt><trkpt lat="40.6258099" lon="9.6464562"><ele>12.75</ele><time>2026-04-17T09:56:28.658Z</time></trkpt><trkpt lat="40.6257451" lon="9.6463143"><ele>14.0</ele><time>2026-04-17T09:56:29.653Z</time></trkpt><trkpt lat="40.6256837" lon="9.6461677"><ele>14.5</ele><time>2026-04-17T09:56:30.65Z</time></trkpt><trkpt lat="40.6256213" lon="9.646021"><ele>15.0</ele><time>2026-04-17T09:56:31.653Z</time></trkpt><trkpt lat="40.6255619" lon="9.645883"><ele>15.5</ele><time>2026-04-17T09:56:32.655Z</time></trkpt><trkpt lat="40.6255069" lon="9.6457459"><ele>16.0</ele><time>2026-04-17T09:56:33.654Z</time></trkpt><trkpt lat="40.6254561" lon="9.6456181"><ele>16.0</ele><time>2026-04-17T09:56:34.65Z</time></trkpt><trkpt lat="40.6254049" lon="9.6454824"><ele>16.0</ele><time>2026-04-17T09:56:35.656Z</time></trkpt><trkpt lat="40.6253559" lon="9.6453316"><ele>16.0</ele><time>2026-04-17T09:56:36.649Z</time></trkpt><trkpt lat="40.625303" lon="9.6451605"><ele>16.0</ele><time>2026-04-17T09:56:37.648Z</time></trkpt><trkpt lat="40.6252479" lon="9.6449863"><ele>16.0</ele><time>2026-04-17T09:56:38.655Z</time></trkpt><trkpt lat="40.6251908" lon="9.6448216"><ele>16.0</ele><time>2026-04-17T09:56:39.652Z</time></trkpt><trkpt lat="40.6251384" lon="9.644682"><ele>16.0</ele><time>2026-04-17T09:56:40.657Z</time></trkpt><trkpt lat="40.6250819" lon="9.6445225"><ele>16.0</ele><time>2026-04-17T09:56:41.651Z</time></trkpt><trkpt lat="40.6250351" lon="9.6443646"><ele>16.0</ele><time>2026-04-17T09:56:42.647Z</time></trkpt><trkpt lat="40.6249768" lon="9.6442035"><ele>16.0</ele><time>2026-04-17T09:56:43.648Z</time></trkpt><trkpt lat="40.6249262" lon="9.6440438"><ele>16.0</ele><time>2026-04-17T09:56:44.652Z</time></trkpt><trkpt lat="40.6248765" lon="9.6438912"><ele>16.0</ele><time>2026-04-17T09:56:45.649Z</time></trkpt><trkpt lat="40.6248354" lon="9.6437383"><ele>16.0</ele><time>2026-04-17T09:56:46.653Z</time></trkpt><trkpt lat="40.6247863" lon="9.6435839"><ele>16.0</ele><time>2026-04-17T09:56:47.658Z</time></trkpt><trkpt lat="40.6247416" lon="9.6434435"><ele>16.0</ele><time>2026-04-17T09:56:48.641Z</time></trkpt><trkpt lat="40.6247024" lon="9.6433337"><ele>16.0</ele><time>2026-04-17T09:56:49.647Z</time></trkpt><trkpt lat="40.6246744" lon="9.6432454"><ele>16.0</ele><time>2026-04-17T09:56:50.646Z</time></trkpt><trkpt lat="40.6246435" lon="9.6431655"><ele>16.0</ele><time>2026-04-17T09:56:51.643Z</time></trkpt><trkpt lat="40.6245257" lon="9.6430675"><ele>16.0</ele><time>2026-04-17T09:56:53.65Z</time></trkpt><trkpt lat="40.6244382" lon="9.6430091"><ele>16.0</ele><time>2026-04-17T09:56:54.647Z</time></trkpt><trkpt lat="40.6243698" lon="9.6429139"><ele>16.0</ele><time>2026-04-17T09:56:55.645Z</time></trkpt><trkpt lat="40.6243212" lon="9.6427962"><ele>16.0</ele><time>2026-04-17T09:56:56.646Z</time></trkpt><trkpt lat="40.6242827" lon="9.6426857"><ele>17.0</ele><time>2026-04-17T09:56:57.656Z</time></trkpt><trkpt lat="40.6242432" lon="9.6425959"><ele>18.0</ele><time>2026-04-17T09:56:58.673Z</time></trkpt><trkpt lat="40.6242039" lon="9.6425086"><ele>19.0</ele><time>2026-04-17T09:56:59.667Z</time></trkpt><trkpt lat="40.6241567" lon="9.6424175"><ele>20.0</ele><time>2026-04-17T09:57:00.659Z</time></trkpt><trkpt lat="40.6240949" lon="9.6423405"><ele>21.0</ele><time>2026-04-17T09:57:01.662Z</time></trkpt><trkpt lat="40.6240337" lon="9.6422805"><ele>22.0</ele><time>2026-04-17T09:57:02.654Z</time></trkpt><trkpt lat="40.6239734" lon="9.6422183"><ele>22.0</ele><time>2026-04-17T09:57:03.66Z</time></trkpt><trkpt lat="40.6239178" lon="9.6421636"><ele>22.0</ele><time>2026-04-17T09:57:04.658Z</time></trkpt><trkpt lat="40.6238517" lon="9.6420898"><ele>22.0</ele><time>2026-04-17T09:57:05.657Z</time></trkpt><trkpt lat="40.6237805" lon="9.6420194"><ele>22.0</ele><time>2026-04-17T09:57:06.656Z</time></trkpt><trkpt lat="40.6237041" lon="9.6419465"><ele>22.0</ele><time>2026-04-17T09:57:07.648Z</time></trkpt><trkpt lat="40.6236275" lon="9.6418857"><ele>22.0</ele><time>2026-04-17T09:57:08.657Z</time></trkpt><trkpt lat="40.6235571" lon="9.6418304"><ele>22.666666666666664</ele><time>2026-04-17T09:57:09.657Z</time></trkpt><trkpt lat="40.62349" lon="9.6417689"><ele>23.333333333333332</ele><time>2026-04-17T09:57:10.658Z</time></trkpt><trkpt lat="40.6234349" lon="9.6417102"><ele>24.0</ele><time>2026-04-17T09:57:11.653Z</time></trkpt><trkpt lat="40.6233755" lon="9.6416545"><ele>24.666666666666664</ele><time>2026-04-17T09:57:12.656Z</time></trkpt><trkpt lat="40.623309" lon="9.6416008"><ele>25.333333333333332</ele><time>2026-04-17T09:57:13.653Z</time></trkpt><trkpt lat="40.6232348" lon="9.6415505"><ele>26.0</ele><time>2026-04-17T09:57:14.659Z</time></trkpt><trkpt lat="40.6231732" lon="9.6415023"><ele>25.999999999999996</ele><time>2026-04-17T09:57:15.656Z</time></trkpt><trkpt lat="40.6231088" lon="9.6414555"><ele>26.0</ele><time>2026-04-17T09:57:16.665Z</time></trkpt><trkpt lat="40.6230424" lon="9.6414034"><ele>26.0</ele><time>2026-04-17T09:57:17.655Z</time></trkpt><trkpt lat="40.6229666" lon="9.6413452"><ele>26.0</ele><time>2026-04-17T09:57:18.655Z</time></trkpt><trkpt lat="40.6229024" lon="9.6412835"><ele>25.999999999999996</ele><time>2026-04-17T09:57:19.661Z</time></trkpt><trkpt lat="40.6228384" lon="9.6412262"><ele>26.0</ele><time>2026-04-17T09:57:20.657Z</time></trkpt><trkpt lat="40.6227701" lon="9.6411808"><ele>26.142857142857142</ele><time>2026-04-17T09:57:21.653Z</time></trkpt><trkpt lat="40.6227037" lon="9.6411361"><ele>26.28571428571429</ele><time>2026-04-17T09:57:22.66Z</time></trkpt><trkpt lat="40.6226321" lon="9.6410966"><ele>26.42857142857143</ele><time>2026-04-17T09:57:23.658Z</time></trkpt><trkpt lat="40.6225615" lon="9.6410599"><ele>26.57142857142857</ele><time>2026-04-17T09:57:24.655Z</time></trkpt><trkpt lat="40.6224956" lon="9.6410159"><ele>26.714285714285715</ele><time>2026-04-17T09:57:25.652Z</time></trkpt><trkpt lat="40.6224343" lon="9.6409726"><ele>26.857142857142858</ele><time>2026-04-17T09:57:26.655Z</time></trkpt><trkpt lat="40.6223762" lon="9.6409391"><ele>27.0</ele><time>2026-04-17T09:57:27.66Z</time></trkpt><trkpt lat="40.622284" lon="9.6408946"><ele>27.333333333333332</ele><time>2026-04-17T09:57:29.655Z</time></trkpt><trkpt lat="40.6222236" lon="9.6407721"><ele>27.666666666666664</ele><time>2026-04-17T09:57:31.647Z</time></trkpt><trkpt lat="40.6221974" lon="9.6406891"><ele>28.0</ele><time>2026-04-17T09:57:32.655Z</time></trkpt><trkpt lat="40.6221511" lon="9.640597"><ele>28.333333333333332</ele><time>2026-04-17T09:57:33.651Z</time></trkpt><trkpt lat="40.6221209" lon="9.6405117"><ele>28.666666666666664</ele><time>2026-04-17T09:57:34.637Z</time></trkpt><trkpt lat="40.6220947" lon="9.6404313"><ele>29.0</ele><time>2026-04-17T09:57:35.636Z</time></trkpt><trkpt lat="40.6220941" lon="9.6403228"><ele>28.666666666666664</ele><time>2026-04-17T09:57:36.652Z</time></trkpt><trkpt lat="40.6220895" lon="9.6402247"><ele>28.333333333333332</ele><time>2026-04-17T09:57:37.636Z</time></trkpt><trkpt lat="40.6220923" lon="9.640136"><ele>28.0</ele><time>2026-04-17T09:57:38.649Z</time></trkpt><trkpt lat="40.6220711" lon="9.6399896"><ele>27.666666666666664</ele><time>2026-04-17T09:57:40.638Z</time></trkpt><trkpt lat="40.6219981" lon="9.6398672"><ele>27.333333333333332</ele><time>2026-04-17T09:57:42.653Z</time></trkpt><trkpt lat="40.6219547" lon="9.639788"><ele>27.0</ele><time>2026-04-17T09:57:43.652Z</time></trkpt><trkpt lat="40.6219126" lon="9.6397112"><ele>27.8</ele><time>2026-04-17T09:57:44.657Z</time></trkpt><trkpt lat="40.6218804" lon="9.6396293"><ele>28.6</ele><time>2026-04-17T09:57:45.654Z</time></trkpt><trkpt lat="40.6218432" lon="9.6395253"><ele>29.400000000000002</ele><time>2026-04-17T09:57:46.651Z</time></trkpt><trkpt lat="40.6217898" lon="9.6394135"><ele>30.200000000000003</ele><time>2026-04-17T09:57:47.655Z</time></trkpt><trkpt lat="40.6217316" lon="9.6393094"><ele>31.0</ele><time>2026-04-17T09:57:48.652Z</time></trkpt><trkpt lat="40.6216744" lon="9.6392077"><ele>31.000000000000004</ele><time>2026-04-17T09:57:49.651Z</time></trkpt><trkpt lat="40.6216189" lon="9.6391007"><ele>31.0</ele><time>2026-04-17T09:57:50.657Z</time></trkpt><trkpt lat="40.6215666" lon="9.6389907"><ele>31.0</ele><time>2026-04-17T09:57:51.646Z</time></trkpt><trkpt lat="40.6215227" lon="9.6388985"><ele>31.0</ele><time>2026-04-17T09:57:52.66Z</time></trkpt><trkpt lat="40.6214872" lon="9.6387989"><ele>31.000000000000004</ele><time>2026-04-17T09:57:53.654Z</time></trkpt><trkpt lat="40.6214414" lon="9.6387183"><ele>31.0</ele><time>2026-04-17T09:57:54.649Z</time></trkpt><trkpt lat="40.6214093" lon="9.6386393"><ele>31.000000000000004</ele><time>2026-04-17T09:57:55.647Z</time></trkpt><trkpt lat="40.6213655" lon="9.6385041"><ele>31.0</ele><time>2026-04-17T09:57:57.652Z</time></trkpt><trkpt lat="40.6213463" lon="9.6384175"><ele>31.0</ele><time>2026-04-17T09:57:58.656Z</time></trkpt><trkpt lat="40.6213257" lon="9.638331"><ele>31.0</ele><time>2026-04-17T09:57:59.655Z</time></trkpt><trkpt lat="40.6212959" lon="9.6382364"><ele>31.000000000000004</ele><time>2026-04-17T09:58:00.657Z</time></trkpt><trkpt lat="40.6212504" lon="9.6381245"><ele>31.0</ele><time>2026-04-17T09:58:01.652Z</time></trkpt><trkpt lat="40.6212194" lon="9.6380263"><ele>31.000000000000004</ele><time>2026-04-17T09:58:02.651Z</time></trkpt><trkpt lat="40.6211851" lon="9.637926"><ele>31.0</ele><time>2026-04-17T09:58:03.653Z</time></trkpt><trkpt lat="40.6211605" lon="9.6378346"><ele>31.0</ele><time>2026-04-17T09:58:04.636Z</time></trkpt><trkpt lat="40.6211674" lon="9.637681"><ele>31.0</ele><time>2026-04-17T09:58:06.634Z</time></trkpt><trkpt lat="40.621102" lon="9.6375899"><ele>31.000000000000004</ele><time>2026-04-17T09:58:08.647Z</time></trkpt><trkpt lat="40.621039" lon="9.6375504"><ele>31.0</ele><time>2026-04-17T09:58:09.642Z</time></trkpt><trkpt lat="40.620969" lon="9.6374719"><ele>32.2</ele><time>2026-04-17T09:58:10.651Z</time></trkpt><trkpt lat="40.6208972" lon="9.6373818"><ele>33.400000000000006</ele><time>2026-04-17T09:58:11.651Z</time></trkpt><trkpt lat="40.6208231" lon="9.6372889"><ele>34.6</ele><time>2026-04-17T09:58:12.657Z</time></trkpt><trkpt lat="40.6207537" lon="9.6372025"><ele>35.800000000000004</ele><time>2026-04-17T09:58:13.656Z</time></trkpt><trkpt lat="40.6206856" lon="9.6371179"><ele>37.0</ele><time>2026-04-17T09:58:14.664Z</time></trkpt><trkpt lat="40.6206296" lon="9.6370217"><ele>37.0</ele><time>2026-04-17T09:58:15.664Z</time></trkpt><trkpt lat="40.6205694" lon="9.6369336"><ele>37.0</ele><time>2026-04-17T09:58:16.664Z</time></trkpt><trkpt lat="40.6205252" lon="9.6368531"><ele>37.0</ele><time>2026-04-17T09:58:17.659Z</time></trkpt><trkpt lat="40.6204817" lon="9.6367846"><ele>37.0</ele><time>2026-04-17T09:58:18.658Z</time></trkpt><trkpt lat="40.6204454" lon="9.6367132"><ele>37.0</ele><time>2026-04-17T09:58:19.657Z</time></trkpt><trkpt lat="40.6203765" lon="9.636588"><ele>37.0</ele><time>2026-04-17T09:58:21.658Z</time></trkpt><trkpt lat="40.6203565" lon="9.636442"><ele>37.0</ele><time>2026-04-17T09:58:23.655Z</time></trkpt><trkpt lat="40.6203599" lon="9.6363014"><ele>37.0</ele><time>2026-04-17T09:58:25.649Z</time></trkpt><trkpt lat="40.6203856" lon="9.6361763"><ele>37.0</ele><time>2026-04-17T09:58:27.654Z</time></trkpt><trkpt lat="40.6204092" lon="9.6360177"><ele>37.0</ele><time>2026-04-17T09:58:29.657Z</time></trkpt><trkpt lat="40.6204208" lon="9.635927"><ele>37.0</ele><time>2026-04-17T09:58:31.66Z</time></trkpt><trkpt lat="40.6204491" lon="9.6357898"><ele>37.4</ele><time>2026-04-17T09:58:33.671Z</time></trkpt><trkpt lat="40.620468" lon="9.63563"><ele>37.800000000000004</ele><time>2026-04-17T09:58:35.662Z</time></trkpt><trkpt lat="40.6204585" lon="9.6354784"><ele>38.2</ele><time>2026-04-17T09:58:37.664Z</time></trkpt><trkpt lat="40.6204279" lon="9.6353151"><ele>38.6</ele><time>2026-04-17T09:58:39.664Z</time></trkpt><trkpt lat="40.6204017" lon="9.6352218"><ele>39.0</ele><time>2026-04-17T09:58:40.665Z</time></trkpt><trkpt lat="40.6203707" lon="9.6351342"><ele>40.0</ele><time>2026-04-17T09:58:41.665Z</time></trkpt><trkpt lat="40.6203389" lon="9.6350624"><ele>41.0</ele><time>2026-04-17T09:58:42.666Z</time></trkpt><trkpt lat="40.6203051" lon="9.6349796"><ele>42.0</ele><time>2026-04-17T09:58:43.661Z</time></trkpt><trkpt lat="40.6202704" lon="9.6349001"><ele>43.0</ele><time>2026-04-17T09:58:44.662Z</time></trkpt><trkpt lat="40.6202373" lon="9.634813"><ele>44.0</ele><time>2026-04-17T09:58:45.661Z</time></trkpt><trkpt lat="40.620199" lon="9.6347448"><ele>45.0</ele><time>2026-04-17T09:58:46.675Z</time></trkpt><trkpt lat="40.6201371" lon="9.6346059"><ele>45.8</ele><time>2026-04-17T09:58:48.659Z</time></trkpt><trkpt lat="40.6200935" lon="9.6344896"><ele>46.6</ele><time>2026-04-17T09:58:50.651Z</time></trkpt><trkpt lat="40.6200768" lon="9.6343505"><ele>47.400000000000006</ele><time>2026-04-17T09:58:52.661Z</time></trkpt><trkpt lat="40.6200878" lon="9.6342042"><ele>48.2</ele><time>2026-04-17T09:58:54.662Z</time></trkpt><trkpt lat="40.6201158" lon="9.6340925"><ele>49.0</ele><time>2026-04-17T09:58:56.664Z</time></trkpt><trkpt lat="40.6201535" lon="9.6339436"><ele>50.2</ele><time>2026-04-17T09:58:58.662Z</time></trkpt><trkpt lat="40.6201735" lon="9.6338625"><ele>51.400000000000006</ele><time>2026-04-17T09:58:59.66Z</time></trkpt><trkpt lat="40.6202016" lon="9.6337049"><ele>52.6</ele><time>2026-04-17T09:59:01.663Z</time></trkpt><trkpt lat="40.6202122" lon="9.6335444"><ele>53.8</ele><time>2026-04-17T09:59:03.652Z</time></trkpt><trkpt lat="40.6202056" lon="9.6334509"><ele>55.0</ele><time>2026-04-17T09:59:04.66Z</time></trkpt><trkpt lat="40.6202006" lon="9.6333557"><ele>56.33333333333333</ele><time>2026-04-17T09:59:05.662Z</time></trkpt><trkpt lat="40.6201947" lon="9.6332544"><ele>57.666666666666664</ele><time>2026-04-17T09:59:06.655Z</time></trkpt><trkpt lat="40.6201906" lon="9.6331488"><ele>59.0</ele><time>2026-04-17T09:59:07.654Z</time></trkpt><trkpt lat="40.6201782" lon="9.6330572"><ele>60.33333333333333</ele><time>2026-04-17T09:59:08.655Z</time></trkpt><trkpt lat="40.620154" lon="9.6329405"><ele>61.666666666666664</ele><time>2026-04-17T09:59:10.649Z</time></trkpt><trkpt lat="40.6201357" lon="9.6327966"><ele>63.0</ele><time>2026-04-17T09:59:13.659Z</time></trkpt><trkpt lat="40.6201207" lon="9.6326994"><ele>65.5</ele><time>2026-04-17T09:59:15.658Z</time></trkpt><trkpt lat="40.6201183" lon="9.6325913"><ele>68.0</ele><time>2026-04-17T09:59:17.665Z</time></trkpt><trkpt lat="40.6201378" lon="9.6324373"><ele>70.5</ele><time>2026-04-17T09:59:19.661Z</time></trkpt><trkpt lat="40.6201406" lon="9.6322933"><ele>73.0</ele><time>2026-04-17T09:59:21.662Z</time></trkpt><trkpt lat="40.6201455" lon="9.6322082"><ele>75.5</ele><time>2026-04-17T09:59:22.666Z</time></trkpt><trkpt lat="40.6201502" lon="9.6321214"><ele>78.0</ele><time>2026-04-17T09:59:23.654Z</time></trkpt><trkpt lat="40.620151" lon="9.6320261"><ele>81.66666666666667</ele><time>2026-04-17T09:59:24.657Z</time></trkpt><trkpt lat="40.6201179" lon="9.6318713"><ele>85.33333333333334</ele><time>2026-04-17T09:59:26.652Z</time></trkpt><trkpt lat="40.6200888" lon="9.6317762"><ele>89.0</ele><time>2026-04-17T09:59:28.664Z</time></trkpt><trkpt lat="40.6200688" lon="9.6316938"><ele>92.66666666666667</ele><time>2026-04-17T09:59:30.649Z</time></trkpt><trkpt lat="40.6200135" lon="9.6316515"><ele>96.33333333333334</ele><time>2026-04-17T09:59:47.653Z</time></trkpt><trkpt lat="40.6199452" lon="9.6316316"><ele>100.0</ele><time>2026-04-17T09:59:49.648Z</time></trkpt><trkpt lat="40.6198171" lon="9.6315839"><ele>100.00000000000001</ele><time>2026-04-17T09:59:51.649Z</time></trkpt><trkpt lat="40.6197089" lon="9.6315301"><ele>100.0</ele><time>2026-04-17T09:59:53.653Z</time></trkpt><trkpt lat="40.6196486" lon="9.6314927"><ele>100.0</ele><time>2026-04-17T09:59:54.652Z</time></trkpt><trkpt lat="40.6195792" lon="9.6314469"><ele>100.0</ele><time>2026-04-17T09:59:55.647Z</time></trkpt><trkpt lat="40.6195075" lon="9.6314018"><ele>100.00000000000001</ele><time>2026-04-17T09:59:56.639Z</time></trkpt><trkpt lat="40.6194345" lon="9.6313542"><ele>100.0</ele><time>2026-04-17T09:59:57.643Z</time></trkpt><trkpt lat="40.6193286" lon="9.6312757"><ele>98.16666666666667</ele><time>2026-04-17T09:59:59.647Z</time></trkpt><trkpt lat="40.6192662" lon="9.6312105"><ele>96.33333333333334</ele><time>2026-04-17T10:00:00.639Z</time></trkpt><trkpt lat="40.6191982" lon="9.6311512"><ele>94.5</ele><time>2026-04-17T10:00:01.642Z</time></trkpt><trkpt lat="40.6191445" lon="9.6311057"><ele>92.66666666666667</ele><time>2026-04-17T10:00:02.645Z</time></trkpt><trkpt lat="40.6190837" lon="9.6310473"><ele>90.83333333333334</ele><time>2026-04-17T10:00:03.64Z</time></trkpt><trkpt lat="40.6190137" lon="9.6309778"><ele>89.0</ele><time>2026-04-17T10:00:04.644Z</time></trkpt><trkpt lat="40.6189433" lon="9.6309058"><ele>91.5</ele><time>2026-04-17T10:00:05.632Z</time></trkpt><trkpt lat="40.6188757" lon="9.6308416"><ele>94.0</ele><time>2026-04-17T10:00:06.644Z</time></trkpt><trkpt lat="40.6188144" lon="9.630768"><ele>96.5</ele><time>2026-04-17T10:00:07.63Z</time></trkpt><trkpt lat="40.6187589" lon="9.6306883"><ele>99.0</ele><time>2026-04-17T10:00:08.639Z</time></trkpt><trkpt lat="40.6187177" lon="9.630606"><ele>101.49999999999999</ele><time>2026-04-17T10:00:09.638Z</time></trkpt><trkpt lat="40.6186788" lon="9.630521"><ele>104.0</ele><time>2026-04-17T10:00:10.639Z</time></trkpt><trkpt lat="40.6186344" lon="9.6304349"><ele>103.99999999999999</ele><time>2026-04-17T10:00:11.636Z</time></trkpt><trkpt lat="40.6185904" lon="9.6303579"><ele>104.0</ele><time>2026-04-17T10:00:12.631Z</time></trkpt><trkpt lat="40.6185489" lon="9.630287"><ele>104.0</ele><time>2026-04-17T10:00:13.639Z</time></trkpt><trkpt lat="40.6184732" lon="9.6302116"><ele>104.0</ele><time>2026-04-17T10:00:15.623Z</time></trkpt><trkpt lat="40.6183903" lon="9.6302047"><ele>103.99999999999999</ele><time>2026-04-17T10:00:17.645Z</time></trkpt><trkpt lat="40.618306" lon="9.6301155"><ele>104.0</ele><time>2026-04-17T10:00:19.646Z</time></trkpt><trkpt lat="40.6182507" lon="9.630062"><ele>109.80000000000001</ele><time>2026-04-17T10:00:20.632Z</time></trkpt><trkpt lat="40.6181832" lon="9.6300026"><ele>115.60000000000001</ele><time>2026-04-17T10:00:21.647Z</time></trkpt><trkpt lat="40.6181178" lon="9.6299416"><ele>121.4</ele><time>2026-04-17T10:00:22.648Z</time></trkpt><trkpt lat="40.6180303" lon="9.6298319"><ele>127.2</ele><time>2026-04-17T10:00:24.637Z</time></trkpt><trkpt lat="40.6179411" lon="9.6297355"><ele>133.0</ele><time>2026-04-17T10:00:26.649Z</time></trkpt><trkpt lat="40.6178938" lon="9.6296783"><ele>133.0</ele><time>2026-04-17T10:00:27.643Z</time></trkpt><trkpt lat="40.6178568" lon="9.6295963"><ele>133.0</ele><time>2026-04-17T10:00:28.636Z</time></trkpt><trkpt lat="40.617808" lon="9.6295064"><ele>133.0</ele><time>2026-04-17T10:00:29.636Z</time></trkpt><trkpt lat="40.617749" lon="9.6294195"><ele>133.0</ele><time>2026-04-17T10:00:30.641Z</time></trkpt><trkpt lat="40.6176935" lon="9.6293301"><ele>133.0</ele><time>2026-04-17T10:00:31.636Z</time></trkpt><trkpt lat="40.6176492" lon="9.6292519"><ele>133.0</ele><time>2026-04-17T10:00:32.634Z</time></trkpt><trkpt lat="40.617605" lon="9.6291606"><ele>135.0</ele><time>2026-04-17T10:00:33.64Z</time></trkpt><trkpt lat="40.6175625" lon="9.6290677"><ele>137.0</ele><time>2026-04-17T10:00:34.651Z</time></trkpt><trkpt lat="40.6175307" lon="9.6289745"><ele>139.0</ele><time>2026-04-17T10:00:35.644Z</time></trkpt><trkpt lat="40.6174956" lon="9.6288835"><ele>141.0</ele><time>2026-04-17T10:00:36.642Z</time></trkpt><trkpt lat="40.6174654" lon="9.6288034"><ele>143.0</ele><time>2026-04-17T10:00:37.645Z</time></trkpt><trkpt lat="40.6174362" lon="9.6287285"><ele>145.0</ele><time>2026-04-17T10:00:38.635Z</time></trkpt><trkpt lat="40.6174201" lon="9.6286116"><ele>146.33333333333334</ele><time>2026-04-17T10:00:40.642Z</time></trkpt><trkpt lat="40.6173996" lon="9.6284987"><ele>147.66666666666669</ele><time>2026-04-17T10:00:42.634Z</time></trkpt><trkpt lat="40.6173545" lon="9.6284064"><ele>149.0</ele><time>2026-04-17T10:00:44.632Z</time></trkpt><trkpt lat="40.6173213" lon="9.628309"><ele>150.33333333333334</ele><time>2026-04-17T10:00:46.648Z</time></trkpt><trkpt lat="40.6172885" lon="9.6282236"><ele>151.66666666666666</ele><time>2026-04-17T10:00:48.649Z</time></trkpt><trkpt lat="40.6172528" lon="9.6281311"><ele>153.0</ele><time>2026-04-17T10:01:07.64Z</time></trkpt><trkpt lat="40.6172045" lon="9.6280313"><ele>153.0</ele><time>2026-04-17T10:01:09.655Z</time></trkpt><trkpt lat="40.6171699" lon="9.6279383"><ele>153.0</ele><time>2026-04-17T10:01:10.636Z</time></trkpt><trkpt lat="40.6171234" lon="9.6278304"><ele>153.0</ele><time>2026-04-17T10:01:11.642Z</time></trkpt><trkpt lat="40.6170714" lon="9.6277412"><ele>153.0</ele><time>2026-04-17T10:01:12.633Z</time></trkpt><trkpt lat="40.6170061" lon="9.6276555"><ele>153.0</ele><time>2026-04-17T10:01:13.621Z</time></trkpt><trkpt lat="40.616955" lon="9.6275773"><ele>153.0</ele><time>2026-04-17T10:01:14.627Z</time></trkpt><trkpt lat="40.6169233" lon="9.6275017"><ele>153.0</ele><time>2026-04-17T10:01:15.618Z</time></trkpt><trkpt lat="40.616906" lon="9.6274187"><ele>153.0</ele><time>2026-04-17T10:01:16.62Z</time></trkpt><trkpt lat="40.6168951" lon="9.6273327"><ele>153.0</ele><time>2026-04-17T10:01:17.628Z</time></trkpt><trkpt lat="40.6168819" lon="9.6272261"><ele>153.0</ele><time>2026-04-17T10:01:18.618Z</time></trkpt><trkpt lat="40.6168815" lon="9.6271121"><ele>153.0</ele><time>2026-04-17T10:01:19.634Z</time></trkpt><trkpt lat="40.6168837" lon="9.6270096"><ele>153.0</ele><time>2026-04-17T10:01:20.616Z</time></trkpt><trkpt lat="40.6168995" lon="9.6268985"><ele>152.33333333333334</ele><time>2026-04-17T10:01:21.638Z</time></trkpt><trkpt lat="40.616912" lon="9.6267871"><ele>151.66666666666666</ele><time>2026-04-17T10:01:22.624Z</time></trkpt><trkpt lat="40.61692" lon="9.6266638"><ele>151.0</ele><time>2026-04-17T10:01:23.631Z</time></trkpt><trkpt lat="40.6169227" lon="9.6265461"><ele>150.33333333333331</ele><time>2026-04-17T10:01:24.631Z</time></trkpt><trkpt lat="40.6169243" lon="9.6264395"><ele>149.66666666666666</ele><time>2026-04-17T10:01:25.629Z</time></trkpt><trkpt lat="40.6169226" lon="9.6263507"><ele>149.0</ele><time>2026-04-17T10:01:26.633Z</time></trkpt><trkpt lat="40.6169071" lon="9.6262255"><ele>147.5</ele><time>2026-04-17T10:01:28.632Z</time></trkpt><trkpt lat="40.6168705" lon="9.6261298"><ele>146.0</ele><time>2026-04-17T10:01:30.655Z</time></trkpt><trkpt lat="40.6168523" lon="9.6260475"><ele>144.5</ele><time>2026-04-17T10:01:32.648Z</time></trkpt><trkpt lat="40.6168183" lon="9.6259638"><ele>143.0</ele><time>2026-04-17T10:01:40.664Z</time></trkpt><trkpt lat="40.6167619" lon="9.6258849"><ele>141.5</ele><time>2026-04-17T10:01:42.659Z</time></trkpt><trkpt lat="40.6166987" lon="9.6258158"><ele>140.0</ele><time>2026-04-17T10:01:43.643Z</time></trkpt><trkpt lat="40.6166441" lon="9.6257614"><ele>140.0</ele><time>2026-04-17T10:01:44.643Z</time></trkpt><trkpt lat="40.6165365" lon="9.6256941"><ele>140.0</ele><time>2026-04-17T10:01:46.641Z</time></trkpt><trkpt lat="40.6164744" lon="9.6256596"><ele>140.0</ele><time>2026-04-17T10:01:47.639Z</time></trkpt><trkpt lat="40.6164063" lon="9.6256394"><ele>140.0</ele><time>2026-04-17T10:01:48.639Z</time></trkpt><trkpt lat="40.6163342" lon="9.6256421"><ele>140.0</ele><time>2026-04-17T10:01:49.644Z</time></trkpt><trkpt lat="40.6162589" lon="9.6256242"><ele>140.0</ele><time>2026-04-17T10:01:50.634Z</time></trkpt><trkpt lat="40.6161466" lon="9.6255617"><ele>141.33333333333331</ele><time>2026-04-17T10:01:52.647Z</time></trkpt><trkpt lat="40.6160909" lon="9.6255132"><ele>142.66666666666666</ele><time>2026-04-17T10:01:53.636Z</time></trkpt><trkpt lat="40.6160422" lon="9.6254585"><ele>144.0</ele><time>2026-04-17T10:01:54.636Z</time></trkpt><trkpt lat="40.6160049" lon="9.6253886"><ele>145.33333333333334</ele><time>2026-04-17T10:01:55.637Z</time></trkpt><trkpt lat="40.6159526" lon="9.6252375"><ele>146.66666666666669</ele><time>2026-04-17T10:01:57.625Z</time></trkpt><trkpt lat="40.615908" lon="9.6251483"><ele>148.0</ele><time>2026-04-17T10:01:58.621Z</time></trkpt><trkpt lat="40.6158533" lon="9.6250597"><ele>148.33333333333334</ele><time>2026-04-17T10:01:59.627Z</time></trkpt><trkpt lat="40.6157978" lon="9.6249692"><ele>148.66666666666669</ele><time>2026-04-17T10:02:00.642Z</time></trkpt><trkpt lat="40.6157467" lon="9.6248811"><ele>149.0</ele><time>2026-04-17T10:02:01.632Z</time></trkpt><trkpt lat="40.6157026" lon="9.6247941"><ele>149.33333333333334</ele><time>2026-04-17T10:02:02.643Z</time></trkpt><trkpt lat="40.6156663" lon="9.6247129"><ele>149.66666666666666</ele><time>2026-04-17T10:02:03.625Z</time></trkpt><trkpt lat="40.6156213" lon="9.6246376"><ele>150.0</ele><time>2026-04-17T10:02:04.624Z</time></trkpt><trkpt lat="40.615573" lon="9.6245628"><ele>149.66666666666666</ele><time>2026-04-17T10:02:05.629Z</time></trkpt><trkpt lat="40.6155242" lon="9.6244761"><ele>149.33333333333334</ele><time>2026-04-17T10:02:06.63Z</time></trkpt><trkpt lat="40.6154783" lon="9.624382"><ele>149.0</ele><time>2026-04-17T10:02:07.637Z</time></trkpt><trkpt lat="40.6154317" lon="9.6242967"><ele>148.66666666666669</ele><time>2026-04-17T10:02:08.633Z</time></trkpt><trkpt lat="40.6153687" lon="9.6242113"><ele>148.33333333333334</ele><time>2026-04-17T10:02:09.643Z</time></trkpt><trkpt lat="40.6152947" lon="9.624122"><ele>148.0</ele><time>2026-04-17T10:02:10.643Z</time></trkpt><trkpt lat="40.6152158" lon="9.6240266"><ele>149.6</ele><time>2026-04-17T10:02:11.646Z</time></trkpt><trkpt lat="40.6151387" lon="9.6239338"><ele>151.20000000000002</ele><time>2026-04-17T10:02:12.644Z</time></trkpt><trkpt lat="40.6150677" lon="9.6238499"><ele>152.8</ele><time>2026-04-17T10:02:13.625Z</time></trkpt><trkpt lat="40.6149969" lon="9.623767"><ele>154.4</ele><time>2026-04-17T10:02:14.64Z</time></trkpt><trkpt lat="40.6149266" lon="9.62369"><ele>156.0</ele><time>2026-04-17T10:02:15.634Z</time></trkpt><trkpt lat="40.6148608" lon="9.6236089"><ele>156.0</ele><time>2026-04-17T10:02:16.635Z</time></trkpt><trkpt lat="40.6148047" lon="9.6235187"><ele>156.0</ele><time>2026-04-17T10:02:17.628Z</time></trkpt><trkpt lat="40.6147654" lon="9.6234212"><ele>156.0</ele><time>2026-04-17T10:02:18.635Z</time></trkpt><trkpt lat="40.6147318" lon="9.6233149"><ele>156.0</ele><time>2026-04-17T10:02:19.643Z</time></trkpt><trkpt lat="40.6147002" lon="9.623201"><ele>156.0</ele><time>2026-04-17T10:02:20.636Z</time></trkpt><trkpt lat="40.6146618" lon="9.6230867"><ele>156.0</ele><time>2026-04-17T10:02:21.633Z</time></trkpt><trkpt lat="40.6146119" lon="9.6229748"><ele>156.0</ele><time>2026-04-17T10:02:22.655Z</time></trkpt><trkpt lat="40.61456" lon="9.6228729"><ele>156.0</ele><time>2026-04-17T10:02:23.648Z</time></trkpt><trkpt lat="40.6144937" lon="9.6227901"><ele>156.0</ele><time>2026-04-17T10:02:24.656Z</time></trkpt><trkpt lat="40.6144225" lon="9.6227067"><ele>156.0</ele><time>2026-04-17T10:02:25.652Z</time></trkpt><trkpt lat="40.6143779" lon="9.6226105"><ele>156.0</ele><time>2026-04-17T10:02:26.658Z</time></trkpt><trkpt lat="40.614338" lon="9.6225129"><ele>156.0</ele><time>2026-04-17T10:02:27.651Z</time></trkpt><trkpt lat="40.6143025" lon="9.6224206"><ele>159.16666666666666</ele><time>2026-04-17T10:02:28.652Z</time></trkpt><trkpt lat="40.6142855" lon="9.6223284"><ele>162.33333333333334</ele><time>2026-04-17T10:02:29.655Z</time></trkpt><trkpt lat="40.6142779" lon="9.6222335"><ele>165.5</ele><time>2026-04-17T10:02:30.658Z</time></trkpt><trkpt lat="40.6142637" lon="9.6221347"><ele>168.66666666666669</ele><time>2026-04-17T10:02:31.65Z</time></trkpt><trkpt lat="40.6142381" lon="9.6220357"><ele>171.83333333333334</ele><time>2026-04-17T10:02:32.654Z</time></trkpt><trkpt lat="40.6142042" lon="9.6219461"><ele>175.0</ele><time>2026-04-17T10:02:33.654Z</time></trkpt><trkpt lat="40.6141511" lon="9.6218611"><ele>175.0</ele><time>2026-04-17T10:02:34.638Z</time></trkpt><trkpt lat="40.6141006" lon="9.6218092"><ele>175.0</ele><time>2026-04-17T10:02:35.646Z</time></trkpt><trkpt lat="40.6140363" lon="9.6217827"><ele>175.0</ele><time>2026-04-17T10:02:36.65Z</time></trkpt><trkpt lat="40.6139539" lon="9.6217722"><ele>175.0</ele><time>2026-04-17T10:02:37.643Z</time></trkpt><trkpt lat="40.6138533" lon="9.6217717"><ele>175.0</ele><time>2026-04-17T10:02:38.648Z</time></trkpt><trkpt lat="40.6137354" lon="9.6217818"><ele>175.0</ele><time>2026-04-17T10:02:39.654Z</time></trkpt><trkpt lat="40.613626" lon="9.6217452"><ele>175.2</ele><time>2026-04-17T10:02:40.657Z</time></trkpt><trkpt lat="40.6135231" lon="9.6216972"><ele>175.4</ele><time>2026-04-17T10:02:41.654Z</time></trkpt><trkpt lat="40.6134268" lon="9.6216452"><ele>175.60000000000002</ele><time>2026-04-17T10:02:42.646Z</time></trkpt><trkpt lat="40.6133425" lon="9.6216"><ele>175.8</ele><time>2026-04-17T10:02:43.646Z</time></trkpt><trkpt lat="40.6132738" lon="9.6215513"><ele>176.0</ele><time>2026-04-17T10:02:44.642Z</time></trkpt><trkpt lat="40.6132094" lon="9.6214865"><ele>176.0</ele><time>2026-04-17T10:02:45.651Z</time></trkpt><trkpt lat="40.6131534" lon="9.6214279"><ele>176.0</ele><time>2026-04-17T10:02:46.643Z</time></trkpt><trkpt lat="40.61309" lon="9.6213692"><ele>176.0</ele><time>2026-04-17T10:02:47.638Z</time></trkpt><trkpt lat="40.6130215" lon="9.62133"><ele>176.0</ele><time>2026-04-17T10:02:48.647Z</time></trkpt><trkpt lat="40.6129367" lon="9.6213153"><ele>176.0</ele><time>2026-04-17T10:02:49.648Z</time></trkpt><trkpt lat="40.6128413" lon="9.6213014"><ele>176.0</ele><time>2026-04-17T10:02:50.643Z</time></trkpt><trkpt lat="40.6127397" lon="9.6213139"><ele>178.33333333333331</ele><time>2026-04-17T10:02:51.64Z</time></trkpt><trkpt lat="40.6126391" lon="9.6213347"><ele>180.66666666666666</ele><time>2026-04-17T10:02:52.653Z</time></trkpt><trkpt lat="40.612551" lon="9.6213569"><ele>183.0</ele><time>2026-04-17T10:02:53.646Z</time></trkpt><trkpt lat="40.6124652" lon="9.6213645"><ele>185.33333333333334</ele><time>2026-04-17T10:02:54.638Z</time></trkpt><trkpt lat="40.6123889" lon="9.6213539"><ele>187.66666666666669</ele><time>2026-04-17T10:02:55.645Z</time></trkpt><trkpt lat="40.612321" lon="9.6213257"><ele>190.0</ele><time>2026-04-17T10:02:56.639Z</time></trkpt><trkpt lat="40.6122569" lon="9.621287"><ele>190.0</ele><time>2026-04-17T10:02:57.636Z</time></trkpt><trkpt lat="40.6122008" lon="9.6212242"><ele>190.0</ele><time>2026-04-17T10:02:58.641Z</time></trkpt><trkpt lat="40.6121456" lon="9.6211613"><ele>190.0</ele><time>2026-04-17T10:02:59.634Z</time></trkpt><trkpt lat="40.6121145" lon="9.6210757"><ele>190.0</ele><time>2026-04-17T10:03:00.633Z</time></trkpt><trkpt lat="40.612091" lon="9.6209727"><ele>190.0</ele><time>2026-04-17T10:03:01.639Z</time></trkpt><trkpt lat="40.6120821" lon="9.6208764"><ele>190.0</ele><time>2026-04-17T10:03:02.632Z</time></trkpt><trkpt lat="40.6120834" lon="9.6207814"><ele>190.0</ele><time>2026-04-17T10:03:03.638Z</time></trkpt><trkpt lat="40.6120845" lon="9.620666"><ele>189.83333333333334</ele><time>2026-04-17T10:03:04.645Z</time></trkpt><trkpt lat="40.6120604" lon="9.6205713"><ele>189.66666666666669</ele><time>2026-04-17T10:03:05.636Z</time></trkpt><trkpt lat="40.6120146" lon="9.6204893"><ele>189.5</ele><time>2026-04-17T10:03:06.649Z</time></trkpt><trkpt lat="40.6119536" lon="9.6204321"><ele>189.33333333333334</ele><time>2026-04-17T10:03:07.644Z</time></trkpt><trkpt lat="40.6118774" lon="9.6203749"><ele>189.16666666666666</ele><time>2026-04-17T10:03:08.645Z</time></trkpt><trkpt lat="40.6118032" lon="9.6203202"><ele>189.0</ele><time>2026-04-17T10:03:09.649Z</time></trkpt><trkpt lat="40.6117205" lon="9.6202817"><ele>185.16666666666666</ele><time>2026-04-17T10:03:10.644Z</time></trkpt><trkpt lat="40.6116239" lon="9.6202379"><ele>181.33333333333334</ele><time>2026-04-17T10:03:11.667Z</time></trkpt><trkpt lat="40.6115364" lon="9.6201944"><ele>177.5</ele><time>2026-04-17T10:03:12.65Z</time></trkpt><trkpt lat="40.6114749" lon="9.6201593"><ele>173.66666666666669</ele><time>2026-04-17T10:03:13.65Z</time></trkpt><trkpt lat="40.6114078" lon="9.6201432"><ele>169.83333333333334</ele><time>2026-04-17T10:03:14.648Z</time></trkpt><trkpt lat="40.6113378" lon="9.6201672"><ele>166.0</ele><time>2026-04-17T10:03:15.652Z</time></trkpt><trkpt lat="40.6112666" lon="9.6202326"><ele>171.75</ele><time>2026-04-17T10:03:16.651Z</time></trkpt><trkpt lat="40.6111769" lon="9.6203165"><ele>177.5</ele><time>2026-04-17T10:03:17.64Z</time></trkpt><trkpt lat="40.6110843" lon="9.6204235"><ele>183.25</ele><time>2026-04-17T10:03:18.651Z</time></trkpt><trkpt lat="40.6109869" lon="9.6205514"><ele>189.0</ele><time>2026-04-17T10:03:19.644Z</time></trkpt><trkpt lat="40.6109195" lon="9.6206642"><ele>189.16666666666666</ele><time>2026-04-17T10:03:20.64Z</time></trkpt><trkpt lat="40.6108523" lon="9.6207334"><ele>189.33333333333334</ele><time>2026-04-17T10:03:21.643Z</time></trkpt><trkpt lat="40.610791" lon="9.6207585"><ele>189.5</ele><time>2026-04-17T10:03:22.636Z</time></trkpt><trkpt lat="40.6107226" lon="9.6207537"><ele>189.66666666666669</ele><time>2026-04-17T10:03:23.639Z</time></trkpt><trkpt lat="40.6106524" lon="9.6207135"><ele>189.83333333333334</ele><time>2026-04-17T10:03:24.645Z</time></trkpt><trkpt lat="40.6105657" lon="9.6206712"><ele>190.0</ele><time>2026-04-17T10:03:25.655Z</time></trkpt><trkpt lat="40.6104604" lon="9.6206476"><ele>190.0</ele><time>2026-04-17T10:03:26.645Z</time></trkpt><trkpt lat="40.6103572" lon="9.6206352"><ele>190.0</ele><time>2026-04-17T10:03:27.644Z</time></trkpt><trkpt lat="40.6102699" lon="9.6206221"><ele>190.0</ele><time>2026-04-17T10:03:28.63Z</time></trkpt><trkpt lat="40.6101816" lon="9.620595"><ele>190.0</ele><time>2026-04-17T10:03:29.646Z</time></trkpt><trkpt lat="40.6100872" lon="9.6205587"><ele>190.0</ele><time>2026-04-17T10:03:30.649Z</time></trkpt><trkpt lat="40.6099985" lon="9.6205195"><ele>188.83333333333334</ele><time>2026-04-17T10:03:31.641Z</time></trkpt><trkpt lat="40.6099217" lon="9.6204865"><ele>187.66666666666669</ele><time>2026-04-17T10:03:32.644Z</time></trkpt><trkpt lat="40.6098555" lon="9.6204564"><ele>186.5</ele><time>2026-04-17T10:03:33.638Z</time></trkpt><trkpt lat="40.6097657" lon="9.6204315"><ele>185.33333333333334</ele><time>2026-04-17T10:03:35.636Z</time></trkpt><trkpt lat="40.6097038" lon="9.6203672"><ele>184.16666666666666</ele><time>2026-04-17T10:03:40.649Z</time></trkpt><trkpt lat="40.6097482" lon="9.6203082"><ele>183.0</ele><time>2026-04-17T10:03:43.657Z</time></trkpt><trkpt lat="40.6098542" lon="9.6203351"><ele>183.0</ele><time>2026-04-17T10:04:08.655Z</time></trkpt><trkpt lat="40.6099215" lon="9.6203451"><ele>183.0</ele><time>2026-04-17T10:04:09.65Z</time></trkpt><trkpt lat="40.6099932" lon="9.6203374"><ele>183.0</ele><time>2026-04-17T10:04:10.655Z</time></trkpt><trkpt lat="40.6100631" lon="9.6203339"><ele>183.0</ele><time>2026-04-17T10:04:11.651Z</time></trkpt><trkpt lat="40.6101315" lon="9.6203444"><ele>183.0</ele><time>2026-04-17T10:04:12.653Z</time></trkpt><trkpt lat="40.6102439" lon="9.6203751"><ele>183.0</ele><time>2026-04-17T10:04:14.651Z</time></trkpt><trkpt lat="40.6103106" lon="9.6203806"><ele>184.16666666666666</ele><time>2026-04-17T10:04:15.65Z</time></trkpt><trkpt lat="40.6103853" lon="9.6203842"><ele>185.33333333333334</ele><time>2026-04-17T10:04:16.649Z</time></trkpt><trkpt lat="40.6104597" lon="9.6203712"><ele>186.5</ele><time>2026-04-17T10:04:17.651Z</time></trkpt><trkpt lat="40.6105316" lon="9.6203561"><ele>187.66666666666669</ele><time>2026-04-17T10:04:18.64Z</time></trkpt><trkpt lat="40.6105956" lon="9.6203474"><ele>188.83333333333334</ele><time>2026-04-17T10:04:19.645Z</time></trkpt><trkpt lat="40.6107134" lon="9.6203497"><ele>190.0</ele><time>2026-04-17T10:04:21.643Z</time></trkpt><trkpt lat="40.6108245" lon="9.6202951"><ele>186.0</ele><time>2026-04-17T10:04:23.638Z</time></trkpt><trkpt lat="40.6108875" lon="9.6202223"><ele>182.0</ele><time>2026-04-17T10:04:24.652Z</time></trkpt><trkpt lat="40.6109489" lon="9.6201436"><ele>178.0</ele><time>2026-04-17T10:04:25.642Z</time></trkpt><trkpt lat="40.6110122" lon="9.6200642"><ele>174.0</ele><time>2026-04-17T10:04:26.646Z</time></trkpt><trkpt lat="40.6110733" lon="9.6199825"><ele>170.0</ele><time>2026-04-17T10:04:27.654Z</time></trkpt><trkpt lat="40.611146" lon="9.6199051"><ele>166.0</ele><time>2026-04-17T10:04:28.646Z</time></trkpt><trkpt lat="40.6112163" lon="9.6198194"><ele>166.0</ele><time>2026-04-17T10:04:29.654Z</time></trkpt><trkpt lat="40.611291" lon="9.6197321"><ele>166.0</ele><time>2026-04-17T10:04:30.649Z</time></trkpt><trkpt lat="40.6113519" lon="9.6196459"><ele>166.0</ele><time>2026-04-17T10:04:31.661Z</time></trkpt><trkpt lat="40.6114108" lon="9.6195909"><ele>166.0</ele><time>2026-04-17T10:04:32.657Z</time></trkpt><trkpt lat="40.6115041" lon="9.6195226"><ele>166.0</ele><time>2026-04-17T10:04:34.66Z</time></trkpt><trkpt lat="40.6115269" lon="9.6194099"><ele>166.0</ele><time>2026-04-17T10:04:36.668Z</time></trkpt><trkpt lat="40.6114356" lon="9.6193602"><ele>166.0</ele><time>2026-04-17T10:04:38.656Z</time></trkpt><trkpt lat="40.6113161" lon="9.619426"><ele>166.0</ele><time>2026-04-17T10:04:40.647Z</time></trkpt><trkpt lat="40.6112456" lon="9.6194727"><ele>166.0</ele><time>2026-04-17T10:04:41.652Z</time></trkpt><trkpt lat="40.6111774" lon="9.6195134"><ele>166.0</ele><time>2026-04-17T10:04:42.65Z</time></trkpt><trkpt lat="40.6111097" lon="9.6195626"><ele>165.28571428571428</ele><time>2026-04-17T10:04:43.633Z</time></trkpt><trkpt lat="40.6110606" lon="9.6196239"><ele>164.57142857142858</ele><time>2026-04-17T10:04:44.634Z</time></trkpt><trkpt lat="40.6110041" lon="9.6196817"><ele>163.85714285714286</ele><time>2026-04-17T10:04:45.625Z</time></trkpt><trkpt lat="40.6109489" lon="9.619732"><ele>163.14285714285714</ele><time>2026-04-17T10:04:46.634Z</time></trkpt><trkpt lat="40.6108503" lon="9.6197636"><ele>162.42857142857144</ele><time>2026-04-17T10:04:48.627Z</time></trkpt><trkpt lat="40.6107811" lon="9.6197513"><ele>161.71428571428572</ele><time>2026-04-17T10:04:49.634Z</time></trkpt><trkpt lat="40.6107141" lon="9.6197589"><ele>161.0</ele><time>2026-04-17T10:04:50.629Z</time></trkpt><trkpt lat="40.610604" lon="9.6197582"><ele>161.0</ele><time>2026-04-17T10:04:52.63Z</time></trkpt><trkpt lat="40.6105018" lon="9.6198133"><ele>161.0</ele><time>2026-04-17T10:04:54.632Z</time></trkpt><trkpt lat="40.610443" lon="9.6198507"><ele>161.0</ele><time>2026-04-17T10:04:56.637Z</time></trkpt><trkpt lat="40.6103584" lon="9.6198299"><ele>161.0</ele><time>2026-04-17T10:04:58.628Z</time></trkpt><trkpt lat="40.610256" lon="9.6197554"><ele>161.0</ele><time>2026-04-17T10:05:00.634Z</time></trkpt><trkpt lat="40.6102095" lon="9.6196874"><ele>161.0</ele><time>2026-04-17T10:05:01.632Z</time></trkpt><trkpt lat="40.6101164" lon="9.6195614"><ele>160.8</ele><time>2026-04-17T10:05:03.632Z</time></trkpt><trkpt lat="40.6100613" lon="9.6195039"><ele>160.60000000000002</ele><time>2026-04-17T10:05:04.631Z</time></trkpt><trkpt lat="40.6100046" lon="9.6194492"><ele>160.4</ele><time>2026-04-17T10:05:05.629Z</time></trkpt><trkpt lat="40.6099031" lon="9.619366"><ele>160.2</ele><time>2026-04-17T10:05:07.631Z</time></trkpt><trkpt lat="40.6098258" lon="9.6192775"><ele>160.0</ele><time>2026-04-17T10:05:09.636Z</time></trkpt><trkpt lat="40.6097807" lon="9.6191314"><ele>156.5</ele><time>2026-04-17T10:05:11.629Z</time></trkpt><trkpt lat="40.6097371" lon="9.6190411"><ele>153.0</ele><time>2026-04-17T10:05:12.634Z</time></trkpt><trkpt lat="40.6096852" lon="9.6189719"><ele>149.5</ele><time>2026-04-17T10:05:13.633Z</time></trkpt><trkpt lat="40.6096125" lon="9.6189182"><ele>146.0</ele><time>2026-04-17T10:05:14.641Z</time></trkpt><trkpt lat="40.6095367" lon="9.6188646"><ele>142.5</ele><time>2026-04-17T10:05:15.637Z</time></trkpt><trkpt lat="40.6094739" lon="9.6188566"><ele>139.0</ele><time>2026-04-17T10:05:16.639Z</time></trkpt><trkpt lat="40.6093648" lon="9.6188127"><ele>138.5</ele><time>2026-04-17T10:05:18.64Z</time></trkpt><trkpt lat="40.6092866" lon="9.6187309"><ele>138.0</ele><time>2026-04-17T10:05:20.632Z</time></trkpt><trkpt lat="40.6092218" lon="9.6187562"><ele>137.5</ele><time>2026-04-17T10:06:18.641Z</time></trkpt><trkpt lat="40.6091045" lon="9.6187992"><ele>137.0</ele><time>2026-04-17T10:06:20.638Z</time></trkpt><trkpt lat="40.6090445" lon="9.6188433"><ele>136.5</ele><time>2026-04-17T10:06:21.633Z</time></trkpt><trkpt lat="40.6090009" lon="9.6189168"><ele>136.0</ele><time>2026-04-17T10:06:22.647Z</time></trkpt><trkpt lat="40.6089631" lon="9.619013"><ele>136.0</ele><time>2026-04-17T10:06:23.634Z</time></trkpt><trkpt lat="40.6089324" lon="9.6191217"><ele>136.0</ele><time>2026-04-17T10:06:24.632Z</time></trkpt><trkpt lat="40.6089039" lon="9.6192122"><ele>136.0</ele><time>2026-04-17T10:06:25.63Z</time></trkpt><trkpt lat="40.6088721" lon="9.619321"><ele>136.0</ele><time>2026-04-17T10:06:26.633Z</time></trkpt><trkpt lat="40.6088449" lon="9.6194257"><ele>136.0</ele><time>2026-04-17T10:06:27.632Z</time></trkpt><trkpt lat="40.6088114" lon="9.6195253"><ele>136.0</ele><time>2026-04-17T10:06:28.635Z</time></trkpt><trkpt lat="40.6087758" lon="9.6196262"><ele>134.5</ele><time>2026-04-17T10:06:29.633Z</time></trkpt><trkpt lat="40.6087441" lon="9.6197131"><ele>133.0</ele><time>2026-04-17T10:06:30.633Z</time></trkpt><trkpt lat="40.6087207" lon="9.6198095"><ele>131.5</ele><time>2026-04-17T10:06:31.637Z</time></trkpt><trkpt lat="40.6087009" lon="9.6199156"><ele>130.0</ele><time>2026-04-17T10:06:32.646Z</time></trkpt><trkpt lat="40.6086804" lon="9.6200184"><ele>128.5</ele><time>2026-04-17T10:06:33.637Z</time></trkpt><trkpt lat="40.6086619" lon="9.6201165"><ele>127.0</ele><time>2026-04-17T10:06:34.631Z</time></trkpt><trkpt lat="40.6086364" lon="9.6202232"><ele>127.28571428571429</ele><time>2026-04-17T10:06:35.638Z</time></trkpt><trkpt lat="40.6086155" lon="9.6203205"><ele>127.57142857142856</ele><time>2026-04-17T10:06:36.635Z</time></trkpt><trkpt lat="40.608599" lon="9.6204121"><ele>127.85714285714285</ele><time>2026-04-17T10:06:37.633Z</time></trkpt><trkpt lat="40.6085978" lon="9.62051"><ele>128.14285714285714</ele><time>2026-04-17T10:06:38.629Z</time></trkpt><trkpt lat="40.6086203" lon="9.6205886"><ele>128.42857142857142</ele><time>2026-04-17T10:06:39.634Z</time></trkpt><trkpt lat="40.6086516" lon="9.6206717"><ele>128.7142857142857</ele><time>2026-04-17T10:06:40.637Z</time></trkpt><trkpt lat="40.6086805" lon="9.6207471"><ele>129.0</ele><time>2026-04-17T10:06:41.628Z</time></trkpt><trkpt lat="40.6086855" lon="9.6208304"><ele>129.0</ele><time>2026-04-17T10:06:42.644Z</time></trkpt><trkpt lat="40.6086367" lon="9.6209528"><ele>129.0</ele><time>2026-04-17T10:06:44.63Z</time></trkpt><trkpt lat="40.6085265" lon="9.6210131"><ele>129.0</ele><time>2026-04-17T10:06:46.636Z</time></trkpt><trkpt lat="40.6084712" lon="9.6211513"><ele>129.0</ele><time>2026-04-17T10:06:48.632Z</time></trkpt><trkpt lat="40.6084719" lon="9.6212426"><ele>129.0</ele><time>2026-04-17T10:06:49.637Z</time></trkpt><trkpt lat="40.6084837" lon="9.6213327"><ele>129.6</ele><time>2026-04-17T10:06:50.63Z</time></trkpt><trkpt lat="40.6085002" lon="9.6214518"><ele>130.2</ele><time>2026-04-17T10:06:51.634Z</time></trkpt><trkpt lat="40.6085086" lon="9.6215751"><ele>130.79999999999998</ele><time>2026-04-17T10:06:52.635Z</time></trkpt><trkpt lat="40.6085115" lon="9.6217038"><ele>131.4</ele><time>2026-04-17T10:06:53.635Z</time></trkpt><trkpt lat="40.6085227" lon="9.6218324"><ele>132.0</ele><time>2026-04-17T10:06:54.633Z</time></trkpt><trkpt lat="40.6085246" lon="9.6219616"><ele>133.79999999999998</ele><time>2026-04-17T10:06:55.639Z</time></trkpt><trkpt lat="40.6085241" lon="9.6220982"><ele>135.6</ele><time>2026-04-17T10:06:56.636Z</time></trkpt><trkpt lat="40.6085179" lon="9.6222196"><ele>137.39999999999998</ele><time>2026-04-17T10:06:57.632Z</time></trkpt><trkpt lat="40.608511" lon="9.622334"><ele>139.2</ele><time>2026-04-17T10:06:58.632Z</time></trkpt><trkpt lat="40.6085037" lon="9.6224534"><ele>141.0</ele><time>2026-04-17T10:06:59.628Z</time></trkpt><trkpt lat="40.6084956" lon="9.6225524"><ele>141.0</ele><time>2026-04-17T10:07:00.623Z</time></trkpt><trkpt lat="40.6084828" lon="9.6226387"><ele>141.0</ele><time>2026-04-17T10:07:01.624Z</time></trkpt><trkpt lat="40.608455" lon="9.6227318"><ele>141.0</ele><time>2026-04-17T10:07:02.631Z</time></trkpt><trkpt lat="40.6084003" lon="9.6228155"><ele>141.0</ele><time>2026-04-17T10:07:03.631Z</time></trkpt><trkpt lat="40.6083601" lon="9.6228872"><ele>141.0</ele><time>2026-04-17T10:07:04.633Z</time></trkpt><trkpt lat="40.608345" lon="9.6229695"><ele>141.0</ele><time>2026-04-17T10:07:05.634Z</time></trkpt><trkpt lat="40.608348" lon="9.6230642"><ele>141.0</ele><time>2026-04-17T10:07:06.629Z</time></trkpt><trkpt lat="40.6084345" lon="9.6232035"><ele>142.33333333333334</ele><time>2026-04-17T10:07:08.632Z</time></trkpt><trkpt lat="40.6084893" lon="9.6232579"><ele>143.66666666666666</ele><time>2026-04-17T10:07:09.629Z</time></trkpt><trkpt lat="40.6085301" lon="9.6233267"><ele>145.0</ele><time>2026-04-17T10:07:10.631Z</time></trkpt><trkpt lat="40.6085162" lon="9.6234795"><ele>146.33333333333331</ele><time>2026-04-17T10:07:12.626Z</time></trkpt><trkpt lat="40.6084723" lon="9.6235595"><ele>147.66666666666666</ele><time>2026-04-17T10:07:13.634Z</time></trkpt><trkpt lat="40.6084494" lon="9.6236378"><ele>149.0</ele><time>2026-04-17T10:07:14.636Z</time></trkpt><trkpt lat="40.608443" lon="9.6237331"><ele>150.0</ele><time>2026-04-17T10:07:15.635Z</time></trkpt><trkpt lat="40.6084481" lon="9.6238441"><ele>151.0</ele><time>2026-04-17T10:07:16.633Z</time></trkpt><trkpt lat="40.6084649" lon="9.6239552"><ele>152.0</ele><time>2026-04-17T10:07:17.646Z</time></trkpt><trkpt lat="40.6084832" lon="9.6240558"><ele>153.0</ele><time>2026-04-17T10:07:18.636Z</time></trkpt><trkpt lat="40.6085018" lon="9.6241415"><ele>154.0</ele><time>2026-04-17T10:07:19.631Z</time></trkpt><trkpt lat="40.6085041" lon="9.6242357"><ele>155.0</ele><time>2026-04-17T10:07:20.637Z</time></trkpt><trkpt lat="40.6085027" lon="9.6243256"><ele>155.0</ele><time>2026-04-17T10:07:21.629Z</time></trkpt><trkpt lat="40.6084397" lon="9.6244539"><ele>155.0</ele><time>2026-04-17T10:07:23.625Z</time></trkpt><trkpt lat="40.6083409" lon="9.6244938"><ele>155.0</ele><time>2026-04-17T10:07:25.643Z</time></trkpt><trkpt lat="40.6082169" lon="9.6245359"><ele>155.0</ele><time>2026-04-17T10:07:27.633Z</time></trkpt><trkpt lat="40.6081467" lon="9.6245475"><ele>155.0</ele><time>2026-04-17T10:07:28.63Z</time></trkpt><trkpt lat="40.6080545" lon="9.6244676"><ele>155.0</ele><time>2026-04-17T10:07:30.628Z</time></trkpt><trkpt lat="40.6080474" lon="9.6243773"><ele>155.0</ele><time>2026-04-17T10:07:31.623Z</time></trkpt><trkpt lat="40.6080622" lon="9.6242788"><ele>155.0</ele><time>2026-04-17T10:07:32.63Z</time></trkpt><trkpt lat="40.6080556" lon="9.6241757"><ele>155.0</ele><time>2026-04-17T10:07:33.623Z</time></trkpt><trkpt lat="40.6080152" lon="9.6240591"><ele>155.0</ele><time>2026-04-17T10:07:34.624Z</time></trkpt><trkpt lat="40.607964" lon="9.6239315"><ele>155.0</ele><time>2026-04-17T10:07:35.627Z</time></trkpt><trkpt lat="40.6079163" lon="9.6238205"><ele>155.0</ele><time>2026-04-17T10:07:36.63Z</time></trkpt><trkpt lat="40.6078712" lon="9.6237224"><ele>155.0</ele><time>2026-04-17T10:07:37.624Z</time></trkpt><trkpt lat="40.6078364" lon="9.6236313"><ele>155.0</ele><time>2026-04-17T10:07:38.634Z</time></trkpt><trkpt lat="40.6077947" lon="9.6235536"><ele>155.0</ele><time>2026-04-17T10:07:39.628Z</time></trkpt><trkpt lat="40.6077378" lon="9.6235132"><ele>155.0</ele><time>2026-04-17T10:07:40.632Z</time></trkpt><trkpt lat="40.6076627" lon="9.6234956"><ele>155.0</ele><time>2026-04-17T10:07:41.637Z</time></trkpt><trkpt lat="40.6075911" lon="9.6234969"><ele>155.0</ele><time>2026-04-17T10:07:42.63Z</time></trkpt><trkpt lat="40.6075262" lon="9.6234828"><ele>154.0</ele><time>2026-04-17T10:07:43.63Z</time></trkpt><trkpt lat="40.6074608" lon="9.6234421"><ele>153.0</ele><time>2026-04-17T10:07:44.628Z</time></trkpt><trkpt lat="40.607364" lon="9.6233483"><ele>152.0</ele><time>2026-04-17T10:07:46.626Z</time></trkpt><trkpt lat="40.6073285" lon="9.6232565"><ele>151.0</ele><time>2026-04-17T10:07:47.636Z</time></trkpt><trkpt lat="40.607302" lon="9.6231536"><ele>150.0</ele><time>2026-04-17T10:07:48.629Z</time></trkpt><trkpt lat="40.6072736" lon="9.6230557"><ele>149.0</ele><time>2026-04-17T10:07:49.635Z</time></trkpt><trkpt lat="40.6072396" lon="9.6229617"><ele>149.0</ele><time>2026-04-17T10:07:50.634Z</time></trkpt><trkpt lat="40.6072095" lon="9.6228781"><ele>149.0</ele><time>2026-04-17T10:07:51.633Z</time></trkpt><trkpt lat="40.6071302" lon="9.6227897"><ele>149.0</ele><time>2026-04-17T10:07:53.631Z</time></trkpt><trkpt lat="40.607066" lon="9.6227751"><ele>149.0</ele><time>2026-04-17T10:07:55.644Z</time></trkpt><trkpt lat="40.6069988" lon="9.6226948"><ele>149.0</ele><time>2026-04-17T10:07:58.634Z</time></trkpt><trkpt lat="40.6070642" lon="9.6226348"><ele>149.0</ele><time>2026-04-17T10:08:02.644Z</time></trkpt><trkpt lat="40.6071275" lon="9.6226193"><ele>149.0</ele><time>2026-04-17T10:08:39.65Z</time></trkpt><trkpt lat="40.6072364" lon="9.6226488"><ele>149.0</ele><time>2026-04-17T10:09:01.64Z</time></trkpt><trkpt lat="40.6072937" lon="9.622686"><ele>149.0</ele><time>2026-04-17T10:09:02.642Z</time></trkpt><trkpt lat="40.6073668" lon="9.6227427"><ele>149.0</ele><time>2026-04-17T10:09:03.638Z</time></trkpt><trkpt lat="40.6074477" lon="9.6227877"><ele>149.0</ele><time>2026-04-17T10:09:04.64Z</time></trkpt><trkpt lat="40.6075312" lon="9.6228242"><ele>149.0</ele><time>2026-04-17T10:09:05.636Z</time></trkpt><trkpt lat="40.6076294" lon="9.6228592"><ele>146.33333333333331</ele><time>2026-04-17T10:09:07.628Z</time></trkpt><trkpt lat="40.6076884" lon="9.6228026"><ele>143.66666666666666</ele><time>2026-04-17T10:09:09.641Z</time></trkpt><trkpt lat="40.6077263" lon="9.6226649"><ele>141.0</ele><time>2026-04-17T10:09:11.633Z</time></trkpt><trkpt lat="40.6077258" lon="9.6225816"><ele>138.33333333333334</ele><time>2026-04-17T10:09:12.632Z</time></trkpt><trkpt lat="40.6077134" lon="9.6224905"><ele>135.66666666666669</ele><time>2026-04-17T10:09:13.637Z</time></trkpt><trkpt lat="40.607706" lon="9.6223863"><ele>133.0</ele><time>2026-04-17T10:09:14.636Z</time></trkpt><trkpt lat="40.6077044" lon="9.6222995"><ele>133.0</ele><time>2026-04-17T10:09:15.634Z</time></trkpt><trkpt lat="40.6076493" lon="9.6221791"><ele>133.0</ele><time>2026-04-17T10:09:17.636Z</time></trkpt><trkpt lat="40.6075921" lon="9.6221345"><ele>133.0</ele><time>2026-04-17T10:09:18.631Z</time></trkpt><trkpt lat="40.6075168" lon="9.6220941"><ele>133.0</ele><time>2026-04-17T10:09:19.635Z</time></trkpt><trkpt lat="40.6074385" lon="9.6220429"><ele>133.0</ele><time>2026-04-17T10:09:20.645Z</time></trkpt><trkpt lat="40.6073704" lon="9.621987"><ele>133.0</ele><time>2026-04-17T10:09:21.642Z</time></trkpt><trkpt lat="40.6073" lon="9.6219407"><ele>133.28571428571428</ele><time>2026-04-17T10:09:22.644Z</time></trkpt><trkpt lat="40.6072251" lon="9.6219122"><ele>133.57142857142856</ele><time>2026-04-17T10:09:23.637Z</time></trkpt><trkpt lat="40.6071444" lon="9.6218903"><ele>133.85714285714286</ele><time>2026-04-17T10:09:24.634Z</time></trkpt><trkpt lat="40.6070688" lon="9.621864"><ele>134.14285714285714</ele><time>2026-04-17T10:09:25.634Z</time></trkpt><trkpt lat="40.6070016" lon="9.6218371"><ele>134.42857142857142</ele><time>2026-04-17T10:09:26.635Z</time></trkpt><trkpt lat="40.6069421" lon="9.6217993"><ele>134.71428571428572</ele><time>2026-04-17T10:09:27.631Z</time></trkpt><trkpt lat="40.6068689" lon="9.6217799"><ele>135.0</ele><time>2026-04-17T10:09:28.629Z</time></trkpt><trkpt lat="40.6067944" lon="9.6217887"><ele>136.33333333333334</ele><time>2026-04-17T10:09:29.622Z</time></trkpt><trkpt lat="40.6067122" lon="9.6218187"><ele>137.66666666666666</ele><time>2026-04-17T10:09:30.636Z</time></trkpt><trkpt lat="40.6066405" lon="9.6218433"><ele>139.0</ele><time>2026-04-17T10:09:31.627Z</time></trkpt><trkpt lat="40.6065603" lon="9.6218451"><ele>140.33333333333331</ele><time>2026-04-17T10:09:32.631Z</time></trkpt><trkpt lat="40.6064935" lon="9.6218477"><ele>141.66666666666666</ele><time>2026-04-17T10:09:33.63Z</time></trkpt><trkpt lat="40.6063973" lon="9.621794"><ele>143.0</ele><time>2026-04-17T10:09:35.633Z</time></trkpt><trkpt lat="40.6063836" lon="9.6216875"><ele>143.0</ele><time>2026-04-17T10:09:37.64Z</time></trkpt><trkpt lat="40.6063487" lon="9.6215424"><ele>143.0</ele><time>2026-04-17T10:09:39.623Z</time></trkpt><trkpt lat="40.6063087" lon="9.6214535"><ele>143.0</ele><time>2026-04-17T10:09:40.637Z</time></trkpt><trkpt lat="40.6063113" lon="9.6213197"><ele>143.0</ele><time>2026-04-17T10:09:42.628Z</time></trkpt><trkpt lat="40.6063878" lon="9.621244"><ele>143.0</ele><time>2026-04-17T10:09:44.632Z</time></trkpt><trkpt lat="40.6064947" lon="9.6212655"><ele>143.0</ele><time>2026-04-17T10:09:46.626Z</time></trkpt><trkpt lat="40.6065604" lon="9.6212918"><ele>143.0</ele><time>2026-04-17T10:09:47.628Z</time></trkpt><trkpt lat="40.6066362" lon="9.6213116"><ele>143.0</ele><time>2026-04-17T10:09:48.636Z</time></trkpt><trkpt lat="40.6067381" lon="9.6213302"><ele>143.0</ele><time>2026-04-17T10:09:49.624Z</time></trkpt><trkpt lat="40.6068487" lon="9.6213349"><ele>143.0</ele><time>2026-04-17T10:09:50.629Z</time></trkpt><trkpt lat="40.6069525" lon="9.621343"><ele>142.4</ele><time>2026-04-17T10:09:51.633Z</time></trkpt><trkpt lat="40.6070422" lon="9.6213587"><ele>141.8</ele><time>2026-04-17T10:09:52.637Z</time></trkpt><trkpt lat="40.6071065" lon="9.6213609"><ele>141.2</ele><time>2026-04-17T10:09:53.638Z</time></trkpt><trkpt lat="40.6071785" lon="9.6212768"><ele>140.6</ele><time>2026-04-17T10:09:55.642Z</time></trkpt><trkpt lat="40.6071421" lon="9.6211282"><ele>140.0</ele><time>2026-04-17T10:09:57.643Z</time></trkpt><trkpt lat="40.6071038" lon="9.6210334"><ele>140.0</ele><time>2026-04-17T10:09:58.629Z</time></trkpt><trkpt lat="40.6070477" lon="9.620925"><ele>140.0</ele><time>2026-04-17T10:09:59.638Z</time></trkpt><trkpt lat="40.6069879" lon="9.6208245"><ele>140.0</ele><time>2026-04-17T10:10:00.635Z</time></trkpt><trkpt lat="40.6069264" lon="9.6207365"><ele>140.0</ele><time>2026-04-17T10:10:01.641Z</time></trkpt><trkpt lat="40.606852" lon="9.6206577"><ele>140.0</ele><time>2026-04-17T10:10:02.63Z</time></trkpt><trkpt lat="40.6067808" lon="9.6206068"><ele>142.16666666666666</ele><time>2026-04-17T10:10:03.638Z</time></trkpt><trkpt lat="40.6067052" lon="9.6205477"><ele>144.33333333333331</ele><time>2026-04-17T10:10:04.628Z</time></trkpt><trkpt lat="40.6066544" lon="9.6204777"><ele>146.5</ele><time>2026-04-17T10:10:05.638Z</time></trkpt><trkpt lat="40.6066208" lon="9.620393"><ele>148.66666666666666</ele><time>2026-04-17T10:10:06.637Z</time></trkpt><trkpt lat="40.6066005" lon="9.6203013"><ele>150.83333333333334</ele><time>2026-04-17T10:10:07.64Z</time></trkpt><trkpt lat="40.6065548" lon="9.6202105"><ele>153.0</ele><time>2026-04-17T10:10:08.633Z</time></trkpt><trkpt lat="40.6064972" lon="9.6201063"><ele>154.33333333333334</ele><time>2026-04-17T10:10:09.631Z</time></trkpt><trkpt lat="40.6064491" lon="9.6199845"><ele>155.66666666666666</ele><time>2026-04-17T10:10:10.633Z</time></trkpt><trkpt lat="40.6064088" lon="9.6198686"><ele>157.0</ele><time>2026-04-17T10:10:11.636Z</time></trkpt><trkpt lat="40.6063881" lon="9.6197536"><ele>158.33333333333331</ele><time>2026-04-17T10:10:12.633Z</time></trkpt><trkpt lat="40.6063724" lon="9.6196547"><ele>159.66666666666666</ele><time>2026-04-17T10:10:13.63Z</time></trkpt><trkpt lat="40.6063441" lon="9.6195704"><ele>161.0</ele><time>2026-04-17T10:10:14.631Z</time></trkpt><trkpt lat="40.6063051" lon="9.6195027"><ele>161.16666666666666</ele><time>2026-04-17T10:10:15.634Z</time></trkpt><trkpt lat="40.6062457" lon="9.6194479"><ele>161.33333333333331</ele><time>2026-04-17T10:10:16.628Z</time></trkpt><trkpt lat="40.6061775" lon="9.6194261"><ele>161.5</ele><time>2026-04-17T10:10:17.636Z</time></trkpt><trkpt lat="40.6060943" lon="9.6194065"><ele>161.66666666666666</ele><time>2026-04-17T10:10:18.633Z</time></trkpt><trkpt lat="40.606015" lon="9.6193706"><ele>161.83333333333334</ele><time>2026-04-17T10:10:19.639Z</time></trkpt><trkpt lat="40.6059544" lon="9.6193227"><ele>162.0</ele><time>2026-04-17T10:10:20.632Z</time></trkpt><trkpt lat="40.6059014" lon="9.6192642"><ele>162.0</ele><time>2026-04-17T10:10:21.627Z</time></trkpt><trkpt lat="40.6058652" lon="9.6191452"><ele>162.0</ele><time>2026-04-17T10:10:23.63Z</time></trkpt><trkpt lat="40.6059077" lon="9.6190547"><ele>162.0</ele><time>2026-04-17T10:10:25.639Z</time></trkpt><trkpt lat="40.606002" lon="9.6190229"><ele>162.0</ele><time>2026-04-17T10:10:27.63Z</time></trkpt><trkpt lat="40.6060783" lon="9.6190221"><ele>162.0</ele><time>2026-04-17T10:10:28.626Z</time></trkpt><trkpt lat="40.6061536" lon="9.6190155"><ele>162.0</ele><time>2026-04-17T10:10:29.635Z</time></trkpt><trkpt lat="40.6062211" lon="9.6189969"><ele>162.0</ele><time>2026-04-17T10:10:30.624Z</time></trkpt><trkpt lat="40.606326" lon="9.6189552"><ele>162.0</ele><time>2026-04-17T10:10:32.637Z</time></trkpt><trkpt lat="40.6064213" lon="9.6189551"><ele>162.0</ele><time>2026-04-17T10:10:34.632Z</time></trkpt><trkpt lat="40.60649" lon="9.6189455"><ele>162.0</ele><time>2026-04-17T10:10:37.644Z</time></trkpt><trkpt lat="40.6065014" lon="9.6188018"><ele>162.0</ele><time>2026-04-17T10:10:47.646Z</time></trkpt><trkpt lat="40.6064927" lon="9.6187196"><ele>162.0</ele><time>2026-04-17T10:10:48.642Z</time></trkpt><trkpt lat="40.6064763" lon="9.6186309"><ele>161.16666666666666</ele><time>2026-04-17T10:10:49.634Z</time></trkpt><trkpt lat="40.6064582" lon="9.6185427"><ele>160.33333333333334</ele><time>2026-04-17T10:10:50.635Z</time></trkpt><trkpt lat="40.6064401" lon="9.6184565"><ele>159.5</ele><time>2026-04-17T10:10:51.632Z</time></trkpt><trkpt lat="40.606419" lon="9.6183683"><ele>158.66666666666669</ele><time>2026-04-17T10:10:52.64Z</time></trkpt><trkpt lat="40.6063632" lon="9.6182168"><ele>157.83333333333334</ele><time>2026-04-17T10:10:54.634Z</time></trkpt><trkpt lat="40.6063172" lon="9.6181336"><ele>157.0</ele><time>2026-04-17T10:10:55.63Z</time></trkpt><trkpt lat="40.6062765" lon="9.6180565"><ele>157.0</ele><time>2026-04-17T10:10:56.627Z</time></trkpt><trkpt lat="40.6062421" lon="9.6179741"><ele>157.0</ele><time>2026-04-17T10:10:57.635Z</time></trkpt><trkpt lat="40.6062168" lon="9.617887"><ele>157.0</ele><time>2026-04-17T10:10:58.637Z</time></trkpt><trkpt lat="40.6061941" lon="9.6178074"><ele>157.0</ele><time>2026-04-17T10:10:59.633Z</time></trkpt><trkpt lat="40.6061821" lon="9.6177061"><ele>157.0</ele><time>2026-04-17T10:11:00.634Z</time></trkpt><trkpt lat="40.6061741" lon="9.6175946"><ele>157.0</ele><time>2026-04-17T10:11:01.621Z</time></trkpt><trkpt lat="40.6061591" lon="9.6174893"><ele>158.0</ele><time>2026-04-17T10:11:02.624Z</time></trkpt><trkpt lat="40.6061253" lon="9.617386"><ele>159.0</ele><time>2026-04-17T10:11:03.626Z</time></trkpt><trkpt lat="40.6060816" lon="9.6172741"><ele>160.0</ele><time>2026-04-17T10:11:04.619Z</time></trkpt><trkpt lat="40.6060402" lon="9.6171585"><ele>161.0</ele><time>2026-04-17T10:11:05.613Z</time></trkpt><trkpt lat="40.6060057" lon="9.6170332"><ele>162.0</ele><time>2026-04-17T10:11:06.623Z</time></trkpt><trkpt lat="40.6059664" lon="9.6169392"><ele>162.0</ele><time>2026-04-17T10:11:07.625Z</time></trkpt><trkpt lat="40.6059139" lon="9.6168458"><ele>162.0</ele><time>2026-04-17T10:11:08.629Z</time></trkpt><trkpt lat="40.605852" lon="9.6167738"><ele>162.0</ele><time>2026-04-17T10:11:09.635Z</time></trkpt><trkpt lat="40.6057806" lon="9.6167021"><ele>162.0</ele><time>2026-04-17T10:11:10.623Z</time></trkpt><trkpt lat="40.6057135" lon="9.6166186"><ele>162.0</ele><time>2026-04-17T10:11:11.629Z</time></trkpt><trkpt lat="40.6056454" lon="9.6165252"><ele>162.0</ele><time>2026-04-17T10:11:12.63Z</time></trkpt><trkpt lat="40.6055873" lon="9.6164402"><ele>162.0</ele><time>2026-04-17T10:11:13.629Z</time></trkpt><trkpt lat="40.6055336" lon="9.616345"><ele>162.0</ele><time>2026-04-17T10:11:14.633Z</time></trkpt><trkpt lat="40.6055049" lon="9.6162344"><ele>162.0</ele><time>2026-04-17T10:11:15.625Z</time></trkpt><trkpt lat="40.60548" lon="9.6161219"><ele>162.0</ele><time>2026-04-17T10:11:16.627Z</time></trkpt><trkpt lat="40.6054474" lon="9.6160158"><ele>162.0</ele><time>2026-04-17T10:11:17.626Z</time></trkpt><trkpt lat="40.6054097" lon="9.6159035"><ele>159.66666666666666</ele><time>2026-04-17T10:11:18.628Z</time></trkpt><trkpt lat="40.6053745" lon="9.6157995"><ele>157.33333333333334</ele><time>2026-04-17T10:11:19.622Z</time></trkpt><trkpt lat="40.605349" lon="9.6157217"><ele>155.0</ele><time>2026-04-17T10:11:20.627Z</time></trkpt><trkpt lat="40.605307" lon="9.6156579"><ele>152.66666666666669</ele><time>2026-04-17T10:11:22.643Z</time></trkpt><trkpt lat="40.6052688" lon="9.6157372"><ele>150.33333333333334</ele><time>2026-04-17T10:11:24.647Z</time></trkpt><trkpt lat="40.6052834" lon="9.6158758"><ele>148.0</ele><time>2026-04-17T10:11:26.647Z</time></trkpt><trkpt lat="40.605328" lon="9.6159951"><ele>150.8</ele><time>2026-04-17T10:11:28.633Z</time></trkpt><trkpt lat="40.6053324" lon="9.6161686"><ele>153.60000000000002</ele><time>2026-04-17T10:11:30.633Z</time></trkpt><trkpt lat="40.6053291" lon="9.616268"><ele>156.39999999999998</ele><time>2026-04-17T10:11:31.636Z</time></trkpt><trkpt lat="40.6053358" lon="9.6163745"><ele>159.2</ele><time>2026-04-17T10:11:32.642Z</time></trkpt><trkpt lat="40.6053457" lon="9.6164833"><ele>162.0</ele><time>2026-04-17T10:11:33.637Z</time></trkpt><trkpt lat="40.6053473" lon="9.616589"><ele>162.0</ele><time>2026-04-17T10:11:34.642Z</time></trkpt><trkpt lat="40.6053452" lon="9.616699"><ele>162.0</ele><time>2026-04-17T10:11:35.639Z</time></trkpt><trkpt lat="40.605387" lon="9.6168555"><ele>162.0</ele><time>2026-04-17T10:11:37.64Z</time></trkpt><trkpt lat="40.6054285" lon="9.6169425"><ele>162.0</ele><time>2026-04-17T10:11:38.644Z</time></trkpt><trkpt lat="40.6054808" lon="9.6170337"><ele>162.0</ele><time>2026-04-17T10:11:39.638Z</time></trkpt><trkpt lat="40.6055188" lon="9.6171229"><ele>164.5</ele><time>2026-04-17T10:11:40.634Z</time></trkpt><trkpt lat="40.6055437" lon="9.6172093"><ele>167.0</ele><time>2026-04-17T10:11:41.641Z</time></trkpt><trkpt lat="40.6055568" lon="9.6172985"><ele>169.5</ele><time>2026-04-17T10:11:42.642Z</time></trkpt><trkpt lat="40.6055735" lon="9.6173936"><ele>172.0</ele><time>2026-04-17T10:11:43.644Z</time></trkpt><trkpt lat="40.6055756" lon="9.6174974"><ele>174.5</ele><time>2026-04-17T10:11:44.652Z</time></trkpt><trkpt lat="40.6055913" lon="9.6176083"><ele>177.0</ele><time>2026-04-17T10:11:45.641Z</time></trkpt><trkpt lat="40.6055982" lon="9.6177097"><ele>177.66666666666666</ele><time>2026-04-17T10:11:46.641Z</time></trkpt><trkpt lat="40.6056042" lon="9.6178352"><ele>178.33333333333334</ele><time>2026-04-17T10:11:47.645Z</time></trkpt><trkpt lat="40.6056097" lon="9.617954"><ele>179.0</ele><time>2026-04-17T10:11:48.644Z</time></trkpt><trkpt lat="40.6056114" lon="9.618054"><ele>179.66666666666669</ele><time>2026-04-17T10:11:49.641Z</time></trkpt><trkpt lat="40.6056162" lon="9.6181475"><ele>180.33333333333334</ele><time>2026-04-17T10:11:50.642Z</time></trkpt><trkpt lat="40.6056216" lon="9.6182795"><ele>181.0</ele><time>2026-04-17T10:11:52.644Z</time></trkpt><trkpt lat="40.6055623" lon="9.6183105"><ele>181.0</ele><time>2026-04-17T10:11:54.648Z</time></trkpt><trkpt lat="40.6054978" lon="9.6182002"><ele>181.0</ele><time>2026-04-17T10:11:56.648Z</time></trkpt><trkpt lat="40.605441" lon="9.6180696"><ele>181.0</ele><time>2026-04-17T10:11:58.646Z</time></trkpt><trkpt lat="40.6053934" lon="9.6180076"><ele>181.0</ele><time>2026-04-17T10:11:59.665Z</time></trkpt><trkpt lat="40.6053464" lon="9.6179376"><ele>181.0</ele><time>2026-04-17T10:12:00.669Z</time></trkpt><trkpt lat="40.605301" lon="9.6178558"><ele>181.0</ele><time>2026-04-17T10:12:01.639Z</time></trkpt><trkpt lat="40.6052388" lon="9.617789"><ele>184.33333333333334</ele><time>2026-04-17T10:12:02.647Z</time></trkpt><trkpt lat="40.6051826" lon="9.6176983"><ele>187.66666666666669</ele><time>2026-04-17T10:12:03.64Z</time></trkpt><trkpt lat="40.6051258" lon="9.6176398"><ele>191.0</ele><time>2026-04-17T10:12:04.633Z</time></trkpt><trkpt lat="40.6050638" lon="9.6176065"><ele>194.33333333333334</ele><time>2026-04-17T10:12:05.639Z</time></trkpt><trkpt lat="40.604991" lon="9.6175719"><ele>197.66666666666666</ele><time>2026-04-17T10:12:06.644Z</time></trkpt><trkpt lat="40.6049192" lon="9.61753"><ele>201.0</ele><time>2026-04-17T10:12:07.641Z</time></trkpt><trkpt lat="40.6048465" lon="9.6174773"><ele>201.0</ele><time>2026-04-17T10:12:08.64Z</time></trkpt><trkpt lat="40.6048029" lon="9.6174174"><ele>201.0</ele><time>2026-04-17T10:12:09.637Z</time></trkpt><trkpt lat="40.6047677" lon="9.6173424"><ele>201.0</ele><time>2026-04-17T10:12:10.642Z</time></trkpt><trkpt lat="40.6047334" lon="9.6172601"><ele>201.0</ele><time>2026-04-17T10:12:11.645Z</time></trkpt><trkpt lat="40.6046964" lon="9.6171881"><ele>201.0</ele><time>2026-04-17T10:12:12.641Z</time></trkpt><trkpt lat="40.6046428" lon="9.6171029"><ele>201.0</ele><time>2026-04-17T10:12:13.644Z</time></trkpt><trkpt lat="40.6046006" lon="9.61703"><ele>201.0</ele><time>2026-04-17T10:12:14.644Z</time></trkpt><trkpt lat="40.6045581" lon="9.6169657"><ele>200.0</ele><time>2026-04-17T10:12:15.642Z</time></trkpt><trkpt lat="40.6045107" lon="9.6169017"><ele>199.0</ele><time>2026-04-17T10:12:16.644Z</time></trkpt><trkpt lat="40.6044298" lon="9.6167954"><ele>198.0</ele><time>2026-04-17T10:12:18.64Z</time></trkpt><trkpt lat="40.6043436" lon="9.6166893"><ele>197.0</ele><time>2026-04-17T10:12:20.639Z</time></trkpt><trkpt lat="40.6042684" lon="9.6166463"><ele>196.0</ele><time>2026-04-17T10:12:22.646Z</time></trkpt><trkpt lat="40.6041845" lon="9.6166337"><ele>199.49999999999997</ele><time>2026-04-17T10:12:25.651Z</time></trkpt><trkpt lat="40.6041013" lon="9.6166393"><ele>203.0</ele><time>2026-04-17T10:12:33.655Z</time></trkpt><trkpt lat="40.6040168" lon="9.6166775"><ele>206.5</ele><time>2026-04-17T10:12:35.66Z</time></trkpt><trkpt lat="40.6039456" lon="9.6167021"><ele>210.0</ele><time>2026-04-17T10:12:38.662Z</time></trkpt><trkpt lat="40.6038775" lon="9.616716"><ele>213.49999999999997</ele><time>2026-04-17T10:12:40.663Z</time></trkpt><trkpt lat="40.6037998" lon="9.6167745"><ele>217.0</ele><time>2026-04-17T10:12:42.657Z</time></trkpt><trkpt lat="40.6037704" lon="9.6169321"><ele>216.6</ele><time>2026-04-17T10:12:44.662Z</time></trkpt><trkpt lat="40.6037583" lon="9.6170286"><ele>216.2</ele><time>2026-04-17T10:12:45.65Z</time></trkpt><trkpt lat="40.6037398" lon="9.6171171"><ele>215.8</ele><time>2026-04-17T10:12:46.649Z</time></trkpt><trkpt lat="40.6037012" lon="9.6172722"><ele>215.4</ele><time>2026-04-17T10:12:48.652Z</time></trkpt><trkpt lat="40.6036493" lon="9.6174108"><ele>215.0</ele><time>2026-04-17T10:12:50.645Z</time></trkpt><trkpt lat="40.60362" lon="9.6175607"><ele>219.50000000000003</ele><time>2026-04-17T10:12:52.651Z</time></trkpt><trkpt lat="40.603579" lon="9.6177246"><ele>224.0</ele><time>2026-04-17T10:12:54.644Z</time></trkpt><trkpt lat="40.6035409" lon="9.617806"><ele>228.5</ele><time>2026-04-17T10:12:55.651Z</time></trkpt><trkpt lat="40.6034889" lon="9.617887"><ele>233.0</ele><time>2026-04-17T10:12:56.648Z</time></trkpt><trkpt lat="40.6034317" lon="9.6179618"><ele>237.50000000000003</ele><time>2026-04-17T10:12:57.654Z</time></trkpt><trkpt lat="40.6033672" lon="9.6180338"><ele>242.0</ele><time>2026-04-17T10:12:58.652Z</time></trkpt><trkpt lat="40.6033089" lon="9.618102"><ele>242.00000000000003</ele><time>2026-04-17T10:12:59.652Z</time></trkpt><trkpt lat="40.6032809" lon="9.6182602"><ele>242.0</ele><time>2026-04-17T10:13:01.64Z</time></trkpt><trkpt lat="40.603302" lon="9.6183568"><ele>242.0</ele><time>2026-04-17T10:13:02.633Z</time></trkpt><trkpt lat="40.6033554" lon="9.6184366"><ele>242.0</ele><time>2026-04-17T10:13:03.633Z</time></trkpt><trkpt lat="40.6034264" lon="9.6184954"><ele>242.00000000000003</ele><time>2026-04-17T10:13:04.642Z</time></trkpt><trkpt lat="40.6034814" lon="9.6185576"><ele>242.0</ele><time>2026-04-17T10:13:05.644Z</time></trkpt><trkpt lat="40.6035226" lon="9.6186245"><ele>243.14285714285714</ele><time>2026-04-17T10:13:06.651Z</time></trkpt><trkpt lat="40.6035532" lon="9.6187016"><ele>244.28571428571428</ele><time>2026-04-17T10:13:07.652Z</time></trkpt><trkpt lat="40.6035907" lon="9.6187844"><ele>245.42857142857142</ele><time>2026-04-17T10:13:08.652Z</time></trkpt><trkpt lat="40.6036159" lon="9.6188701"><ele>246.57142857142856</ele><time>2026-04-17T10:13:09.649Z</time></trkpt><trkpt lat="40.6036398" lon="9.6189627"><ele>247.71428571428572</ele><time>2026-04-17T10:13:10.653Z</time></trkpt><trkpt lat="40.6036616" lon="9.6190608"><ele>248.85714285714283</ele><time>2026-04-17T10:13:11.646Z</time></trkpt><trkpt lat="40.6036671" lon="9.6191557"><ele>250.0</ele><time>2026-04-17T10:13:12.646Z</time></trkpt><trkpt lat="40.6036691" lon="9.6192664"><ele>249.99999999999997</ele><time>2026-04-17T10:13:13.652Z</time></trkpt><trkpt lat="40.6036535" lon="9.6193785"><ele>250.0</ele><time>2026-04-17T10:13:14.653Z</time></trkpt><trkpt lat="40.6036286" lon="9.6194852"><ele>250.0</ele><time>2026-04-17T10:13:15.646Z</time></trkpt><trkpt lat="40.6035904" lon="9.6195732"><ele>250.0</ele><time>2026-04-17T10:13:16.656Z</time></trkpt><trkpt lat="40.6035519" lon="9.6196574"><ele>249.99999999999997</ele><time>2026-04-17T10:13:17.653Z</time></trkpt><trkpt lat="40.6035126" lon="9.6197617"><ele>250.0</ele><time>2026-04-17T10:13:19.648Z</time></trkpt><trkpt lat="40.6034219" lon="9.6197418"><ele>250.0</ele><time>2026-04-17T10:13:22.647Z</time></trkpt><trkpt lat="40.6034072" lon="9.6195967"><ele>250.0</ele><time>2026-04-17T10:13:24.652Z</time></trkpt><trkpt lat="40.6034399" lon="9.6195054"><ele>250.0</ele><time>2026-04-17T10:13:25.655Z</time></trkpt><trkpt lat="40.6034531" lon="9.6194014"><ele>250.0</ele><time>2026-04-17T10:13:26.643Z</time></trkpt><trkpt lat="40.6034312" lon="9.6193198"><ele>250.0</ele><time>2026-04-17T10:13:27.646Z</time></trkpt><trkpt lat="40.6033482" lon="9.6191877"><ele>249.99999999999997</ele><time>2026-04-17T10:13:29.642Z</time></trkpt><trkpt lat="40.6032967" lon="9.6191127"><ele>250.0</ele><time>2026-04-17T10:13:30.643Z</time></trkpt><trkpt lat="40.6032434" lon="9.6190349"><ele>250.0</ele><time>2026-04-17T10:13:31.641Z</time></trkpt><trkpt lat="40.6031889" lon="9.6189767"><ele>250.0</ele><time>2026-04-17T10:13:32.637Z</time></trkpt><trkpt lat="40.6031015" lon="9.6189237"><ele>249.99999999999997</ele><time>2026-04-17T10:13:34.645Z</time></trkpt><trkpt lat="40.6030495" lon="9.6189968"><ele>250.0</ele><time>2026-04-17T10:13:36.653Z</time></trkpt><trkpt lat="40.6030545" lon="9.6191232"><ele>249.99999999999997</ele><time>2026-04-17T10:13:38.633Z</time></trkpt><trkpt lat="40.6030535" lon="9.6192116"><ele>250.0</ele><time>2026-04-17T10:13:39.651Z</time></trkpt><trkpt lat="40.60304" lon="9.6193174"><ele>250.0</ele><time>2026-04-17T10:13:40.643Z</time></trkpt><trkpt lat="40.6030358" lon="9.6194305"><ele>250.0</ele><time>2026-04-17T10:13:41.638Z</time></trkpt><trkpt lat="40.6030272" lon="9.6195341"><ele>249.99999999999997</ele><time>2026-04-17T10:13:42.642Z</time></trkpt><trkpt lat="40.6030037" lon="9.6196196"><ele>250.0</ele><time>2026-04-17T10:13:43.638Z</time></trkpt><trkpt lat="40.6029802" lon="9.6197219"><ele>248.99999999999997</ele><time>2026-04-17T10:13:44.644Z</time></trkpt><trkpt lat="40.6029481" lon="9.619816"><ele>248.0</ele><time>2026-04-17T10:13:45.65Z</time></trkpt><trkpt lat="40.6029055" lon="9.6199507"><ele>247.0</ele><time>2026-04-17T10:13:47.651Z</time></trkpt><trkpt lat="40.6028657" lon="9.6200179"><ele>246.0</ele><time>2026-04-17T10:13:48.641Z</time></trkpt><trkpt lat="40.6027915" lon="9.6200793"><ele>244.99999999999997</ele><time>2026-04-17T10:13:49.641Z</time></trkpt><trkpt lat="40.6027131" lon="9.6201536"><ele>244.0</ele><time>2026-04-17T10:13:50.642Z</time></trkpt><trkpt lat="40.6026356" lon="9.6202471"><ele>245.99999999999997</ele><time>2026-04-17T10:13:51.644Z</time></trkpt><trkpt lat="40.6025624" lon="9.6203374"><ele>248.0</ele><time>2026-04-17T10:13:52.64Z</time></trkpt><trkpt lat="40.6025018" lon="9.6204234"><ele>250.0</ele><time>2026-04-17T10:13:53.642Z</time></trkpt><trkpt lat="40.6024307" lon="9.6204936"><ele>252.0</ele><time>2026-04-17T10:13:54.638Z</time></trkpt><trkpt lat="40.6023718" lon="9.6205382"><ele>253.99999999999997</ele><time>2026-04-17T10:13:55.637Z</time></trkpt><trkpt lat="40.6023074" lon="9.6206269"><ele>256.0</ele><time>2026-04-17T10:13:57.645Z</time></trkpt><trkpt lat="40.6022423" lon="9.6206319"><ele>256.0</ele><time>2026-04-17T10:13:59.66Z</time></trkpt><trkpt lat="40.6022109" lon="9.6205391"><ele>256.0</ele><time>2026-04-17T10:14:01.658Z</time></trkpt><trkpt lat="40.6022754" lon="9.6204071"><ele>256.0</ele><time>2026-04-17T10:14:03.637Z</time></trkpt><trkpt lat="40.6023127" lon="9.6203341"><ele>256.0</ele><time>2026-04-17T10:14:04.642Z</time></trkpt><trkpt lat="40.6023904" lon="9.6201957"><ele>256.0</ele><time>2026-04-17T10:14:06.637Z</time></trkpt><trkpt lat="40.6024327" lon="9.6201179"><ele>260.3333333333333</ele><time>2026-04-17T10:14:07.648Z</time></trkpt><trkpt lat="40.602443" lon="9.6200142"><ele>264.66666666666663</ele><time>2026-04-17T10:14:08.637Z</time></trkpt><trkpt lat="40.6024618" lon="9.6199094"><ele>269.0</ele><time>2026-04-17T10:14:09.639Z</time></trkpt><trkpt lat="40.602462" lon="9.6197996"><ele>273.3333333333333</ele><time>2026-04-17T10:14:10.642Z</time></trkpt><trkpt lat="40.6024468" lon="9.6196965"><ele>277.6666666666667</ele><time>2026-04-17T10:14:11.644Z</time></trkpt><trkpt lat="40.6024189" lon="9.6195884"><ele>282.0</ele><time>2026-04-17T10:14:12.648Z</time></trkpt><trkpt lat="40.6023963" lon="9.6194877"><ele>282.3333333333333</ele><time>2026-04-17T10:14:13.64Z</time></trkpt><trkpt lat="40.6023692" lon="9.6193874"><ele>282.6666666666667</ele><time>2026-04-17T10:14:14.645Z</time></trkpt><trkpt lat="40.6023352" lon="9.6192873"><ele>283.0</ele><time>2026-04-17T10:14:15.648Z</time></trkpt><trkpt lat="40.6022973" lon="9.6191916"><ele>283.33333333333337</ele><time>2026-04-17T10:14:16.649Z</time></trkpt><trkpt lat="40.6022698" lon="9.6191071"><ele>283.6666666666667</ele><time>2026-04-17T10:14:17.648Z</time></trkpt><trkpt lat="40.6022386" lon="9.6190033"><ele>284.0</ele><time>2026-04-17T10:14:18.647Z</time></trkpt><trkpt lat="40.6021995" lon="9.618883"><ele>284.0</ele><time>2026-04-17T10:14:19.638Z</time></trkpt><trkpt lat="40.6021515" lon="9.6187595"><ele>284.0</ele><time>2026-04-17T10:14:20.643Z</time></trkpt><trkpt lat="40.602109" lon="9.6186601"><ele>284.0</ele><time>2026-04-17T10:14:21.647Z</time></trkpt><trkpt lat="40.6020581" lon="9.6185683"><ele>284.0</ele><time>2026-04-17T10:14:22.651Z</time></trkpt><trkpt lat="40.602017" lon="9.6184723"><ele>284.0</ele><time>2026-04-17T10:14:23.645Z</time></trkpt><trkpt lat="40.601959" lon="9.6183829"><ele>288.6666666666667</ele><time>2026-04-17T10:14:24.646Z</time></trkpt><trkpt lat="40.601912" lon="9.6182851"><ele>293.33333333333337</ele><time>2026-04-17T10:14:25.65Z</time></trkpt><trkpt lat="40.6018832" lon="9.6181903"><ele>298.0</ele><time>2026-04-17T10:14:26.651Z</time></trkpt><trkpt lat="40.601854" lon="9.6180905"><ele>302.6666666666667</ele><time>2026-04-17T10:14:27.647Z</time></trkpt><trkpt lat="40.6018314" lon="9.6179723"><ele>307.3333333333333</ele><time>2026-04-17T10:14:28.651Z</time></trkpt><trkpt lat="40.6018165" lon="9.6178678"><ele>312.0</ele><time>2026-04-17T10:14:29.643Z</time></trkpt><trkpt lat="40.6018147" lon="9.6177766"><ele>312.0</ele><time>2026-04-17T10:14:30.65Z</time></trkpt><trkpt lat="40.6018136" lon="9.6176769"><ele>312.0</ele><time>2026-04-17T10:14:31.648Z</time></trkpt><trkpt lat="40.6018327" lon="9.6175756"><ele>312.0</ele><time>2026-04-17T10:14:32.653Z</time></trkpt><trkpt lat="40.601842" lon="9.617471"><ele>312.0</ele><time>2026-04-17T10:14:33.648Z</time></trkpt><trkpt lat="40.6018346" lon="9.6173658"><ele>312.0</ele><time>2026-04-17T10:14:34.645Z</time></trkpt><trkpt lat="40.6018227" lon="9.6172671"><ele>312.0</ele><time>2026-04-17T10:14:35.649Z</time></trkpt><trkpt lat="40.6018128" lon="9.6171763"><ele>312.0</ele><time>2026-04-17T10:14:36.641Z</time></trkpt><trkpt lat="40.6017874" lon="9.617098"><ele>312.0</ele><time>2026-04-17T10:14:37.649Z</time></trkpt><trkpt lat="40.6017268" lon="9.6170005"><ele>312.0</ele><time>2026-04-17T10:14:39.642Z</time></trkpt><trkpt lat="40.6016162" lon="9.6170182"><ele>312.0</ele><time>2026-04-17T10:14:41.652Z</time></trkpt><trkpt lat="40.6015467" lon="9.617065"><ele>312.0</ele><time>2026-04-17T10:14:42.65Z</time></trkpt><trkpt lat="40.6014752" lon="9.6171225"><ele>312.0</ele><time>2026-04-17T10:14:43.652Z</time></trkpt><trkpt lat="40.6013714" lon="9.6172033"><ele>312.0</ele><time>2026-04-17T10:14:45.64Z</time></trkpt><trkpt lat="40.6013069" lon="9.6172192"><ele>312.0</ele><time>2026-04-17T10:14:46.644Z</time></trkpt><trkpt lat="40.601196" lon="9.6171834"><ele>312.0</ele><time>2026-04-17T10:14:48.633Z</time></trkpt><trkpt lat="40.6011529" lon="9.6171185"><ele>312.0</ele><time>2026-04-17T10:14:49.639Z</time></trkpt><trkpt lat="40.601125" lon="9.6170353"><ele>312.0</ele><time>2026-04-17T10:14:50.635Z</time></trkpt><trkpt lat="40.6010599" lon="9.6169632"><ele>312.0</ele><time>2026-04-17T10:14:52.635Z</time></trkpt><trkpt lat="40.6010296" lon="9.6170382"><ele>312.0</ele><time>2026-04-17T10:14:54.65Z</time></trkpt><trkpt lat="40.6010695" lon="9.6172002"><ele>312.0</ele><time>2026-04-17T10:14:56.661Z</time></trkpt><trkpt lat="40.6010937" lon="9.617281"><ele>312.0</ele><time>2026-04-17T10:14:57.648Z</time></trkpt><trkpt lat="40.6010993" lon="9.6174329"><ele>312.0</ele><time>2026-04-17T10:14:59.65Z</time></trkpt><trkpt lat="40.601142" lon="9.6175671"><ele>312.0</ele><time>2026-04-17T10:15:01.646Z</time></trkpt><trkpt lat="40.601189" lon="9.6176339"><ele>312.0</ele><time>2026-04-17T10:15:02.638Z</time></trkpt><trkpt lat="40.601247" lon="9.6177051"><ele>312.0</ele><time>2026-04-17T10:15:03.651Z</time></trkpt><trkpt lat="40.6012712" lon="9.6178136"><ele>312.0</ele><time>2026-04-17T10:15:04.642Z</time></trkpt><trkpt lat="40.6012764" lon="9.6179165"><ele>312.0</ele><time>2026-04-17T10:15:05.641Z</time></trkpt><trkpt lat="40.6012626" lon="9.6180354"><ele>312.0</ele><time>2026-04-17T10:15:06.65Z</time></trkpt><trkpt lat="40.6012564" lon="9.6181519"><ele>312.0</ele><time>2026-04-17T10:15:07.646Z</time></trkpt><trkpt lat="40.6012507" lon="9.6182555"><ele>312.6666666666667</ele><time>2026-04-17T10:15:08.646Z</time></trkpt><trkpt lat="40.6012203" lon="9.6183531"><ele>313.3333333333333</ele><time>2026-04-17T10:15:09.65Z</time></trkpt><trkpt lat="40.6011845" lon="9.6184498"><ele>314.0</ele><time>2026-04-17T10:15:10.646Z</time></trkpt><trkpt lat="40.6011392" lon="9.6185578"><ele>314.66666666666663</ele><time>2026-04-17T10:15:11.645Z</time></trkpt><trkpt lat="40.6010974" lon="9.6186575"><ele>315.3333333333333</ele><time>2026-04-17T10:15:12.644Z</time></trkpt><trkpt lat="40.6010491" lon="9.618748"><ele>316.0</ele><time>2026-04-17T10:15:13.648Z</time></trkpt><trkpt lat="40.6010067" lon="9.6188274"><ele>319.16666666666663</ele><time>2026-04-17T10:15:14.65Z</time></trkpt><trkpt lat="40.6009588" lon="9.6188856"><ele>322.3333333333333</ele><time>2026-04-17T10:15:15.646Z</time></trkpt><trkpt lat="40.6008466" lon="9.6189631"><ele>325.5</ele><time>2026-04-17T10:15:17.641Z</time></trkpt><trkpt lat="40.6007829" lon="9.6190048"><ele>328.6666666666667</ele><time>2026-04-17T10:15:18.634Z</time></trkpt><trkpt lat="40.6007067" lon="9.619027"><ele>331.83333333333337</ele><time>2026-04-17T10:15:19.647Z</time></trkpt><trkpt lat="40.6006229" lon="9.6190446"><ele>335.0</ele><time>2026-04-17T10:15:20.643Z</time></trkpt><trkpt lat="40.6005495" lon="9.6190737"><ele>335.0</ele><time>2026-04-17T10:15:21.646Z</time></trkpt><trkpt lat="40.6004809" lon="9.6191205"><ele>335.0</ele><time>2026-04-17T10:15:22.645Z</time></trkpt><trkpt lat="40.6004119" lon="9.6191836"><ele>335.0</ele><time>2026-04-17T10:15:23.645Z</time></trkpt><trkpt lat="40.6003462" lon="9.6192477"><ele>335.0</ele><time>2026-04-17T10:15:24.641Z</time></trkpt><trkpt lat="40.600274" lon="9.6193153"><ele>335.0</ele><time>2026-04-17T10:15:25.637Z</time></trkpt><trkpt lat="40.6002057" lon="9.6193954"><ele>335.0</ele><time>2026-04-17T10:15:26.647Z</time></trkpt><trkpt lat="40.6001476" lon="9.6194871"><ele>336.5</ele><time>2026-04-17T10:15:27.646Z</time></trkpt><trkpt lat="40.6000887" lon="9.6195684"><ele>338.0</ele><time>2026-04-17T10:15:28.642Z</time></trkpt><trkpt lat="40.6000303" lon="9.6196423"><ele>339.5</ele><time>2026-04-17T10:15:29.641Z</time></trkpt><trkpt lat="40.5999856" lon="9.6197256"><ele>341.0</ele><time>2026-04-17T10:15:30.639Z</time></trkpt><trkpt lat="40.599944" lon="9.6198053"><ele>342.5</ele><time>2026-04-17T10:15:31.639Z</time></trkpt><trkpt lat="40.5999037" lon="9.6198903"><ele>344.0</ele><time>2026-04-17T10:15:32.643Z</time></trkpt><trkpt lat="40.5998633" lon="9.619982"><ele>344.0</ele><time>2026-04-17T10:15:33.638Z</time></trkpt><trkpt lat="40.5998112" lon="9.6200872"><ele>344.0</ele><time>2026-04-17T10:15:34.646Z</time></trkpt><trkpt lat="40.5997599" lon="9.6201957"><ele>344.0</ele><time>2026-04-17T10:15:35.639Z</time></trkpt><trkpt lat="40.5996991" lon="9.6202995"><ele>344.0</ele><time>2026-04-17T10:15:36.64Z</time></trkpt><trkpt lat="40.5996274" lon="9.6204017"><ele>344.0</ele><time>2026-04-17T10:15:37.642Z</time></trkpt><trkpt lat="40.5995599" lon="9.6205114"><ele>340.6</ele><time>2026-04-17T10:15:38.641Z</time></trkpt><trkpt lat="40.5995178" lon="9.620643"><ele>337.2</ele><time>2026-04-17T10:15:39.641Z</time></trkpt><trkpt lat="40.5994794" lon="9.6207779"><ele>333.8</ele><time>2026-04-17T10:15:40.639Z</time></trkpt><trkpt lat="40.5994439" lon="9.6208996"><ele>330.40000000000003</ele><time>2026-04-17T10:15:41.642Z</time></trkpt><trkpt lat="40.5994064" lon="9.6210134"><ele>327.0</ele><time>2026-04-17T10:15:42.646Z</time></trkpt><trkpt lat="40.5993819" lon="9.6211246"><ele>331.1666666666667</ele><time>2026-04-17T10:15:43.645Z</time></trkpt><trkpt lat="40.5993568" lon="9.6212289"><ele>335.3333333333333</ele><time>2026-04-17T10:15:44.649Z</time></trkpt><trkpt lat="40.5993314" lon="9.621336"><ele>339.5</ele><time>2026-04-17T10:15:45.642Z</time></trkpt><trkpt lat="40.5993175" lon="9.6214267"><ele>343.66666666666663</ele><time>2026-04-17T10:15:46.641Z</time></trkpt><trkpt lat="40.5993032" lon="9.6215172"><ele>347.8333333333333</ele><time>2026-04-17T10:15:47.646Z</time></trkpt><trkpt lat="40.5992831" lon="9.6216146"><ele>352.0</ele><time>2026-04-17T10:15:48.654Z</time></trkpt><trkpt lat="40.5992493" lon="9.6217006"><ele>352.0</ele><time>2026-04-17T10:15:49.647Z</time></trkpt><trkpt lat="40.5992039" lon="9.6217596"><ele>352.0</ele><time>2026-04-17T10:15:50.641Z</time></trkpt><trkpt lat="40.5990998" lon="9.6218156"><ele>352.0</ele><time>2026-04-17T10:15:52.647Z</time></trkpt><trkpt lat="40.5990262" lon="9.6217949"><ele>352.0</ele><time>2026-04-17T10:15:53.648Z</time></trkpt><trkpt lat="40.5989524" lon="9.6217332"><ele>352.0</ele><time>2026-04-17T10:15:54.648Z</time></trkpt><trkpt lat="40.5988756" lon="9.6216507"><ele>352.0</ele><time>2026-04-17T10:15:55.648Z</time></trkpt><trkpt lat="40.5988011" lon="9.6215523"><ele>352.0</ele><time>2026-04-17T10:15:56.636Z</time></trkpt><trkpt lat="40.5987165" lon="9.6214439"><ele>352.0</ele><time>2026-04-17T10:15:57.644Z</time></trkpt><trkpt lat="40.5986339" lon="9.6213314"><ele>352.0</ele><time>2026-04-17T10:15:58.64Z</time></trkpt><trkpt lat="40.5985555" lon="9.6212551"><ele>352.0</ele><time>2026-04-17T10:15:59.645Z</time></trkpt><trkpt lat="40.5984877" lon="9.6212201"><ele>352.0</ele><time>2026-04-17T10:16:00.637Z</time></trkpt><trkpt lat="40.5983987" lon="9.6212028"><ele>351.16666666666663</ele><time>2026-04-17T10:16:01.641Z</time></trkpt><trkpt lat="40.5983077" lon="9.6212043"><ele>350.3333333333333</ele><time>2026-04-17T10:16:02.632Z</time></trkpt><trkpt lat="40.5982303" lon="9.6212064"><ele>349.5</ele><time>2026-04-17T10:16:03.64Z</time></trkpt><trkpt lat="40.5981646" lon="9.6212133"><ele>348.6666666666667</ele><time>2026-04-17T10:16:04.642Z</time></trkpt><trkpt lat="40.5981003" lon="9.6212195"><ele>347.83333333333337</ele><time>2026-04-17T10:16:05.643Z</time></trkpt><trkpt lat="40.5980327" lon="9.6212451"><ele>347.0</ele><time>2026-04-17T10:16:06.637Z</time></trkpt><trkpt lat="40.5979553" lon="9.6212776"><ele>347.0</ele><time>2026-04-17T10:16:07.643Z</time></trkpt><trkpt lat="40.5978717" lon="9.6213202"><ele>347.0</ele><time>2026-04-17T10:16:08.642Z</time></trkpt><trkpt lat="40.5977903" lon="9.6213651"><ele>347.0</ele><time>2026-04-17T10:16:09.642Z</time></trkpt><trkpt lat="40.5977122" lon="9.621413"><ele>347.0</ele><time>2026-04-17T10:16:10.641Z</time></trkpt><trkpt lat="40.5976419" lon="9.6214581"><ele>347.0</ele><time>2026-04-17T10:16:11.634Z</time></trkpt><trkpt lat="40.5975698" lon="9.6215295"><ele>347.0</ele><time>2026-04-17T10:16:12.64Z</time></trkpt><trkpt lat="40.5975131" lon="9.6216077"><ele>347.33333333333337</ele><time>2026-04-17T10:16:13.639Z</time></trkpt><trkpt lat="40.5974728" lon="9.6216979"><ele>347.6666666666667</ele><time>2026-04-17T10:16:14.642Z</time></trkpt><trkpt lat="40.5974315" lon="9.6217777"><ele>348.0</ele><time>2026-04-17T10:16:15.637Z</time></trkpt><trkpt lat="40.597336" lon="9.6218372"><ele>348.3333333333333</ele><time>2026-04-17T10:16:17.641Z</time></trkpt><trkpt lat="40.5972683" lon="9.6218161"><ele>348.66666666666663</ele><time>2026-04-17T10:16:18.641Z</time></trkpt><trkpt lat="40.5971895" lon="9.6218042"><ele>349.0</ele><time>2026-04-17T10:16:19.645Z</time></trkpt><trkpt lat="40.5971146" lon="9.6218058"><ele>349.0</ele><time>2026-04-17T10:16:20.641Z</time></trkpt><trkpt lat="40.597049" lon="9.621784"><ele>349.0</ele><time>2026-04-17T10:16:21.644Z</time></trkpt><trkpt lat="40.5969445" lon="9.6217135"><ele>349.0</ele><time>2026-04-17T10:16:23.636Z</time></trkpt><trkpt lat="40.5968865" lon="9.6216337"><ele>349.0</ele><time>2026-04-17T10:16:24.648Z</time></trkpt><trkpt lat="40.5968339" lon="9.6215398"><ele>349.0</ele><time>2026-04-17T10:16:25.642Z</time></trkpt><trkpt lat="40.5967866" lon="9.6214484"><ele>349.0</ele><time>2026-04-17T10:16:26.64Z</time></trkpt><trkpt lat="40.5967256" lon="9.6213811"><ele>347.2</ele><time>2026-04-17T10:16:27.632Z</time></trkpt><trkpt lat="40.5966477" lon="9.6213394"><ele>345.4</ele><time>2026-04-17T10:16:28.641Z</time></trkpt><trkpt lat="40.5965737" lon="9.6213392"><ele>343.6</ele><time>2026-04-17T10:16:29.635Z</time></trkpt><trkpt lat="40.5964598" lon="9.6213601"><ele>341.8</ele><time>2026-04-17T10:16:31.643Z</time></trkpt><trkpt lat="40.5963507" lon="9.6213089"><ele>340.0</ele><time>2026-04-17T10:16:33.641Z</time></trkpt><trkpt lat="40.5962331" lon="9.6212454"><ele>337.66666666666663</ele><time>2026-04-17T10:16:35.637Z</time></trkpt><trkpt lat="40.5961692" lon="9.6212488"><ele>335.3333333333333</ele><time>2026-04-17T10:16:36.649Z</time></trkpt><trkpt lat="40.5961153" lon="9.6212934"><ele>333.0</ele><time>2026-04-17T10:16:37.641Z</time></trkpt><trkpt lat="40.5960639" lon="9.6213514"><ele>330.6666666666667</ele><time>2026-04-17T10:16:38.646Z</time></trkpt><trkpt lat="40.5959453" lon="9.6213852"><ele>328.33333333333337</ele><time>2026-04-17T10:16:40.643Z</time></trkpt><trkpt lat="40.5958724" lon="9.6213683"><ele>326.0</ele><time>2026-04-17T10:16:41.641Z</time></trkpt><trkpt lat="40.595791" lon="9.6213394"><ele>326.0</ele><time>2026-04-17T10:16:42.645Z</time></trkpt><trkpt lat="40.5957091" lon="9.621292"><ele>326.0</ele><time>2026-04-17T10:16:43.652Z</time></trkpt><trkpt lat="40.5956281" lon="9.6212407"><ele>326.0</ele><time>2026-04-17T10:16:44.642Z</time></trkpt><trkpt lat="40.595534" lon="9.6212087"><ele>326.0</ele><time>2026-04-17T10:16:45.643Z</time></trkpt><trkpt lat="40.5954386" lon="9.6211986"><ele>326.0</ele><time>2026-04-17T10:16:46.642Z</time></trkpt><trkpt lat="40.5953494" lon="9.6211692"><ele>328.1666666666667</ele><time>2026-04-17T10:16:47.645Z</time></trkpt><trkpt lat="40.5952686" lon="9.621122"><ele>330.33333333333337</ele><time>2026-04-17T10:16:48.639Z</time></trkpt><trkpt lat="40.5951933" lon="9.621057"><ele>332.5</ele><time>2026-04-17T10:16:49.644Z</time></trkpt><trkpt lat="40.5951302" lon="9.6210048"><ele>334.6666666666667</ele><time>2026-04-17T10:16:50.637Z</time></trkpt><trkpt lat="40.5950502" lon="9.6209333"><ele>336.8333333333333</ele><time>2026-04-17T10:16:51.637Z</time></trkpt><trkpt lat="40.5949685" lon="9.6208807"><ele>339.0</ele><time>2026-04-17T10:16:52.647Z</time></trkpt><trkpt lat="40.5948839" lon="9.620854"><ele>339.0</ele><time>2026-04-17T10:16:53.648Z</time></trkpt><trkpt lat="40.5947951" lon="9.620845"><ele>339.0</ele><time>2026-04-17T10:16:54.644Z</time></trkpt><trkpt lat="40.5946984" lon="9.6208484"><ele>339.0</ele><time>2026-04-17T10:16:55.646Z</time></trkpt><trkpt lat="40.59459" lon="9.6208497"><ele>339.0</ele><time>2026-04-17T10:16:56.644Z</time></trkpt><trkpt lat="40.5944757" lon="9.6208401"><ele>339.0</ele><time>2026-04-17T10:16:57.642Z</time></trkpt><trkpt lat="40.5943632" lon="9.6208267"><ele>338.3333333333333</ele><time>2026-04-17T10:16:58.633Z</time></trkpt><trkpt lat="40.5942527" lon="9.6208399"><ele>337.6666666666667</ele><time>2026-04-17T10:16:59.649Z</time></trkpt><trkpt lat="40.5941721" lon="9.6208573"><ele>337.0</ele><time>2026-04-17T10:17:00.633Z</time></trkpt><trkpt lat="40.5940997" lon="9.6208591"><ele>336.33333333333337</ele><time>2026-04-17T10:17:01.642Z</time></trkpt><trkpt lat="40.5940306" lon="9.6208346"><ele>335.6666666666667</ele><time>2026-04-17T10:17:02.638Z</time></trkpt><trkpt lat="40.5939636" lon="9.6208006"><ele>335.0</ele><time>2026-04-17T10:17:03.635Z</time></trkpt><trkpt lat="40.5938738" lon="9.6208229"><ele>335.0</ele><time>2026-04-17T10:17:05.643Z</time></trkpt><trkpt lat="40.5938264" lon="9.6208805"><ele>335.0</ele><time>2026-04-17T10:17:06.628Z</time></trkpt><trkpt lat="40.5937917" lon="9.6209559"><ele>335.0</ele><time>2026-04-17T10:17:07.64Z</time></trkpt><trkpt lat="40.5937746" lon="9.6210488"><ele>335.0</ele><time>2026-04-17T10:17:08.636Z</time></trkpt><trkpt lat="40.5937794" lon="9.6211543"><ele>335.0</ele><time>2026-04-17T10:17:09.64Z</time></trkpt><trkpt lat="40.5938151" lon="9.6212645"><ele>335.0</ele><time>2026-04-17T10:17:10.636Z</time></trkpt><trkpt lat="40.5938655" lon="9.6213833"><ele>333.25</ele><time>2026-04-17T10:17:11.635Z</time></trkpt><trkpt lat="40.5939215" lon="9.6215049"><ele>331.5</ele><time>2026-04-17T10:17:12.639Z</time></trkpt><trkpt lat="40.5939728" lon="9.6216305"><ele>329.75</ele><time>2026-04-17T10:17:13.639Z</time></trkpt><trkpt lat="40.5940354" lon="9.6217653"><ele>328.0</ele><time>2026-04-17T10:17:14.644Z</time></trkpt><trkpt lat="40.5941073" lon="9.6218832"><ele>330.59999999999997</ele><time>2026-04-17T10:17:15.637Z</time></trkpt><trkpt lat="40.59417" lon="9.6219941"><ele>333.2</ele><time>2026-04-17T10:17:16.64Z</time></trkpt><trkpt lat="40.5942232" lon="9.6220932"><ele>335.8</ele><time>2026-04-17T10:17:17.642Z</time></trkpt><trkpt lat="40.5942631" lon="9.6221963"><ele>338.4</ele><time>2026-04-17T10:17:18.643Z</time></trkpt><trkpt lat="40.5942922" lon="9.6223129"><ele>341.0</ele><time>2026-04-17T10:17:19.638Z</time></trkpt><trkpt lat="40.594305" lon="9.6224407"><ele>341.0</ele><time>2026-04-17T10:17:20.64Z</time></trkpt><trkpt lat="40.5943153" lon="9.622576"><ele>341.0</ele><time>2026-04-17T10:17:21.639Z</time></trkpt><trkpt lat="40.5943299" lon="9.6226966"><ele>341.0</ele><time>2026-04-17T10:17:22.642Z</time></trkpt><trkpt lat="40.5943469" lon="9.6228202"><ele>341.0</ele><time>2026-04-17T10:17:23.643Z</time></trkpt><trkpt lat="40.5943739" lon="9.6229439"><ele>341.0</ele><time>2026-04-17T10:17:24.636Z</time></trkpt><trkpt lat="40.5943859" lon="9.6230625"><ele>341.6666666666667</ele><time>2026-04-17T10:17:25.643Z</time></trkpt><trkpt lat="40.594406" lon="9.6231829"><ele>342.33333333333337</ele><time>2026-04-17T10:17:26.64Z</time></trkpt><trkpt lat="40.5944151" lon="9.6232918"><ele>343.0</ele><time>2026-04-17T10:17:27.645Z</time></trkpt><trkpt lat="40.5944105" lon="9.6234013"><ele>343.6666666666667</ele><time>2026-04-17T10:17:28.643Z</time></trkpt><trkpt lat="40.5943961" lon="9.6235094"><ele>344.3333333333333</ele><time>2026-04-17T10:17:29.645Z</time></trkpt><trkpt lat="40.5943851" lon="9.6236181"><ele>345.0</ele><time>2026-04-17T10:17:30.648Z</time></trkpt><trkpt lat="40.5943691" lon="9.6237285"><ele>345.0</ele><time>2026-04-17T10:17:31.642Z</time></trkpt><trkpt lat="40.5943387" lon="9.6238429"><ele>345.0</ele><time>2026-04-17T10:17:32.642Z</time></trkpt><trkpt lat="40.5943094" lon="9.6239409"><ele>345.0</ele><time>2026-04-17T10:17:33.647Z</time></trkpt><trkpt lat="40.5942751" lon="9.6240378"><ele>345.0</ele><time>2026-04-17T10:17:34.641Z</time></trkpt><trkpt lat="40.5942383" lon="9.6241356"><ele>345.0</ele><time>2026-04-17T10:17:35.648Z</time></trkpt><trkpt lat="40.5941917" lon="9.6242299"><ele>345.0</ele><time>2026-04-17T10:17:36.648Z</time></trkpt><trkpt lat="40.5941486" lon="9.6243184"><ele>345.0</ele><time>2026-04-17T10:17:37.649Z</time></trkpt><trkpt lat="40.5941151" lon="9.6243956"><ele>345.0</ele><time>2026-04-17T10:17:38.646Z</time></trkpt><trkpt lat="40.5940694" lon="9.6244738"><ele>345.0</ele><time>2026-04-17T10:17:39.643Z</time></trkpt><trkpt lat="40.5940148" lon="9.6245379"><ele>345.0</ele><time>2026-04-17T10:17:40.648Z</time></trkpt><trkpt lat="40.5939423" lon="9.6245982"><ele>345.0</ele><time>2026-04-17T10:17:41.644Z</time></trkpt><trkpt lat="40.5938635" lon="9.6246446"><ele>345.0</ele><time>2026-04-17T10:17:42.645Z</time></trkpt><trkpt lat="40.5937807" lon="9.6246956"><ele>346.5</ele><time>2026-04-17T10:17:43.646Z</time></trkpt><trkpt lat="40.5937099" lon="9.6247363"><ele>348.0</ele><time>2026-04-17T10:17:44.644Z</time></trkpt><trkpt lat="40.593641" lon="9.6248399"><ele>349.5</ele><time>2026-04-17T10:17:46.643Z</time></trkpt><trkpt lat="40.5935804" lon="9.6248134"><ele>351.0</ele><time>2026-04-17T10:17:48.664Z</time></trkpt><trkpt lat="40.5935764" lon="9.6246885"><ele>352.5</ele><time>2026-04-17T10:17:50.651Z</time></trkpt><trkpt lat="40.593658" lon="9.6246008"><ele>354.0</ele><time>2026-04-17T10:17:52.651Z</time></trkpt><trkpt lat="40.5937214" lon="9.6245449"><ele>352.5</ele><time>2026-04-17T10:17:53.65Z</time></trkpt><trkpt lat="40.5937692" lon="9.624461"><ele>351.0</ele><time>2026-04-17T10:17:54.642Z</time></trkpt><trkpt lat="40.5938085" lon="9.6243683"><ele>349.5</ele><time>2026-04-17T10:17:55.642Z</time></trkpt><trkpt lat="40.5938379" lon="9.624261"><ele>348.0</ele><time>2026-04-17T10:17:56.637Z</time></trkpt><trkpt lat="40.593857" lon="9.6241535"><ele>346.5</ele><time>2026-04-17T10:17:57.65Z</time></trkpt><trkpt lat="40.5938792" lon="9.6240532"><ele>345.0</ele><time>2026-04-17T10:17:58.653Z</time></trkpt><trkpt lat="40.5938887" lon="9.6239545"><ele>345.0</ele><time>2026-04-17T10:17:59.651Z</time></trkpt><trkpt lat="40.5939007" lon="9.6238611"><ele>345.0</ele><time>2026-04-17T10:18:00.641Z</time></trkpt><trkpt lat="40.5939064" lon="9.6237561"><ele>345.0</ele><time>2026-04-17T10:18:01.649Z</time></trkpt><trkpt lat="40.5939151" lon="9.6236596"><ele>345.0</ele><time>2026-04-17T10:18:02.643Z</time></trkpt><trkpt lat="40.59391" lon="9.6235583"><ele>345.0</ele><time>2026-04-17T10:18:03.644Z</time></trkpt><trkpt lat="40.5939074" lon="9.6234445"><ele>345.0</ele><time>2026-04-17T10:18:04.647Z</time></trkpt><trkpt lat="40.5938912" lon="9.6233338"><ele>345.1666666666667</ele><time>2026-04-17T10:18:05.643Z</time></trkpt><trkpt lat="40.5938576" lon="9.6232309"><ele>345.3333333333333</ele><time>2026-04-17T10:18:06.64Z</time></trkpt><trkpt lat="40.5938192" lon="9.6231301"><ele>345.5</ele><time>2026-04-17T10:18:07.647Z</time></trkpt><trkpt lat="40.5937678" lon="9.623039"><ele>345.66666666666663</ele><time>2026-04-17T10:18:08.643Z</time></trkpt><trkpt lat="40.5937173" lon="9.6229485"><ele>345.8333333333333</ele><time>2026-04-17T10:18:09.641Z</time></trkpt><trkpt lat="40.5936683" lon="9.6228646"><ele>346.0</ele><time>2026-04-17T10:18:10.637Z</time></trkpt><trkpt lat="40.5936153" lon="9.622779"><ele>352.0</ele><time>2026-04-17T10:18:11.64Z</time></trkpt><trkpt lat="40.5935653" lon="9.622702"><ele>358.0</ele><time>2026-04-17T10:18:12.638Z</time></trkpt><trkpt lat="40.5935074" lon="9.6226188"><ele>364.0</ele><time>2026-04-17T10:18:13.635Z</time></trkpt><trkpt lat="40.5934536" lon="9.6225311"><ele>370.0</ele><time>2026-04-17T10:18:14.642Z</time></trkpt><trkpt lat="40.5934053" lon="9.6224511"><ele>376.0</ele><time>2026-04-17T10:18:15.631Z</time></trkpt><trkpt lat="40.5933747" lon="9.6223768"><ele>382.0</ele><time>2026-04-17T10:18:16.638Z</time></trkpt><trkpt lat="40.5933121" lon="9.6222829"><ele>382.0</ele><time>2026-04-17T10:18:18.635Z</time></trkpt><trkpt lat="40.5932442" lon="9.6223229"><ele>382.0</ele><time>2026-04-17T10:18:20.645Z</time></trkpt><trkpt lat="40.5932701" lon="9.6224636"><ele>382.0</ele><time>2026-04-17T10:18:22.638Z</time></trkpt><trkpt lat="40.5932966" lon="9.6225538"><ele>382.0</ele><time>2026-04-17T10:18:23.643Z</time></trkpt><trkpt lat="40.593336" lon="9.6226442"><ele>382.0</ele><time>2026-04-17T10:18:24.633Z</time></trkpt><trkpt lat="40.5933847" lon="9.6227278"><ele>382.0</ele><time>2026-04-17T10:18:25.636Z</time></trkpt><trkpt lat="40.5934155" lon="9.6228207"><ele>382.66666666666663</ele><time>2026-04-17T10:18:26.636Z</time></trkpt><trkpt lat="40.5934379" lon="9.6229229"><ele>383.3333333333333</ele><time>2026-04-17T10:18:27.643Z</time></trkpt><trkpt lat="40.5934547" lon="9.6230376"><ele>384.0</ele><time>2026-04-17T10:18:28.641Z</time></trkpt><trkpt lat="40.5934646" lon="9.6231572"><ele>384.66666666666663</ele><time>2026-04-17T10:18:29.635Z</time></trkpt><trkpt lat="40.5934579" lon="9.6232568"><ele>385.3333333333333</ele><time>2026-04-17T10:18:30.637Z</time></trkpt><trkpt lat="40.5934421" lon="9.6233453"><ele>386.0</ele><time>2026-04-17T10:18:31.639Z</time></trkpt><trkpt lat="40.5934207" lon="9.6234333"><ele>385.99999999999994</ele><time>2026-04-17T10:18:32.643Z</time></trkpt><trkpt lat="40.5933904" lon="9.6235258"><ele>386.0</ele><time>2026-04-17T10:18:33.641Z</time></trkpt><trkpt lat="40.5933451" lon="9.6236193"><ele>386.0</ele><time>2026-04-17T10:18:34.629Z</time></trkpt><trkpt lat="40.5932908" lon="9.6236962"><ele>386.0</ele><time>2026-04-17T10:18:35.647Z</time></trkpt><trkpt lat="40.5932344" lon="9.6237806"><ele>385.99999999999994</ele><time>2026-04-17T10:18:36.643Z</time></trkpt><trkpt lat="40.5931845" lon="9.6238652"><ele>386.0</ele><time>2026-04-17T10:18:37.645Z</time></trkpt><trkpt lat="40.5931316" lon="9.6239413"><ele>384.49999999999994</ele><time>2026-04-17T10:18:38.649Z</time></trkpt><trkpt lat="40.5930816" lon="9.6240068"><ele>383.0</ele><time>2026-04-17T10:18:39.646Z</time></trkpt><trkpt lat="40.5930143" lon="9.6240575"><ele>381.5</ele><time>2026-04-17T10:18:40.645Z</time></trkpt><trkpt lat="40.592953" lon="9.6241035"><ele>380.0</ele><time>2026-04-17T10:18:41.646Z</time></trkpt><trkpt lat="40.5928915" lon="9.6241311"><ele>378.5</ele><time>2026-04-17T10:18:42.638Z</time></trkpt><trkpt lat="40.5927964" lon="9.6241135"><ele>377.0</ele><time>2026-04-17T10:18:44.638Z</time></trkpt><trkpt lat="40.5927149" lon="9.6240266"><ele>380.5</ele><time>2026-04-17T10:18:46.642Z</time></trkpt><trkpt lat="40.5926561" lon="9.6239701"><ele>384.0</ele><time>2026-04-17T10:18:47.646Z</time></trkpt><trkpt lat="40.5925969" lon="9.623933"><ele>387.5</ele><time>2026-04-17T10:18:48.641Z</time></trkpt><trkpt lat="40.5925282" lon="9.6239166"><ele>391.0</ele><time>2026-04-17T10:18:49.642Z</time></trkpt><trkpt lat="40.5924398" lon="9.6239287"><ele>394.49999999999994</ele><time>2026-04-17T10:18:50.64Z</time></trkpt><trkpt lat="40.5923404" lon="9.6239448"><ele>398.0</ele><time>2026-04-17T10:18:51.64Z</time></trkpt><trkpt lat="40.5922426" lon="9.6239403"><ele>398.0</ele><time>2026-04-17T10:18:52.643Z</time></trkpt><trkpt lat="40.592138" lon="9.623947"><ele>398.0</ele><time>2026-04-17T10:18:53.64Z</time></trkpt><trkpt lat="40.5920442" lon="9.623981"><ele>398.0</ele><time>2026-04-17T10:18:54.633Z</time></trkpt><trkpt lat="40.5919635" lon="9.6240414"><ele>398.0</ele><time>2026-04-17T10:18:55.644Z</time></trkpt><trkpt lat="40.591877" lon="9.6240878"><ele>398.0</ele><time>2026-04-17T10:18:56.642Z</time></trkpt><trkpt lat="40.5917771" lon="9.6241033"><ele>399.79999999999995</ele><time>2026-04-17T10:18:57.642Z</time></trkpt><trkpt lat="40.5916805" lon="9.6241146"><ele>401.6</ele><time>2026-04-17T10:18:58.643Z</time></trkpt><trkpt lat="40.5915865" lon="9.6241364"><ele>403.4</ele><time>2026-04-17T10:18:59.644Z</time></trkpt><trkpt lat="40.591484" lon="9.6241401"><ele>405.20000000000005</ele><time>2026-04-17T10:19:00.646Z</time></trkpt><trkpt lat="40.591388" lon="9.6241498"><ele>407.0</ele><time>2026-04-17T10:19:01.637Z</time></trkpt><trkpt lat="40.5913012" lon="9.6241627"><ele>406.99999999999994</ele><time>2026-04-17T10:19:02.632Z</time></trkpt><trkpt lat="40.5912196" lon="9.6241894"><ele>407.0</ele><time>2026-04-17T10:19:03.634Z</time></trkpt><trkpt lat="40.5911487" lon="9.624247"><ele>407.0</ele><time>2026-04-17T10:19:04.629Z</time></trkpt><trkpt lat="40.5910947" lon="9.6243382"><ele>407.0</ele><time>2026-04-17T10:19:05.632Z</time></trkpt><trkpt lat="40.591052" lon="9.6244257"><ele>406.99999999999994</ele><time>2026-04-17T10:19:06.634Z</time></trkpt><trkpt lat="40.5910087" lon="9.624506"><ele>407.0</ele><time>2026-04-17T10:19:07.63Z</time></trkpt><trkpt lat="40.5909394" lon="9.6245747"><ele>407.8333333333333</ele><time>2026-04-17T10:19:08.632Z</time></trkpt><trkpt lat="40.5908797" lon="9.6246239"><ele>408.66666666666663</ele><time>2026-04-17T10:19:09.634Z</time></trkpt><trkpt lat="40.5907905" lon="9.6246737"><ele>409.5</ele><time>2026-04-17T10:19:11.639Z</time></trkpt><trkpt lat="40.5906972" lon="9.6246214"><ele>410.33333333333337</ele><time>2026-04-17T10:19:14.645Z</time></trkpt><trkpt lat="40.5906401" lon="9.6245766"><ele>411.1666666666667</ele><time>2026-04-17T10:19:15.646Z</time></trkpt><trkpt lat="40.5905733" lon="9.6245413"><ele>412.0</ele><time>2026-04-17T10:19:16.637Z</time></trkpt><trkpt lat="40.5904945" lon="9.6245189"><ele>411.99999999999994</ele><time>2026-04-17T10:19:17.629Z</time></trkpt><trkpt lat="40.5904103" lon="9.6245159"><ele>412.0</ele><time>2026-04-17T10:19:18.634Z</time></trkpt><trkpt lat="40.5903337" lon="9.6245062"><ele>412.0</ele><time>2026-04-17T10:19:19.628Z</time></trkpt><trkpt lat="40.5902636" lon="9.6245239"><ele>412.0</ele><time>2026-04-17T10:19:20.625Z</time></trkpt><trkpt lat="40.5902077" lon="9.6245639"><ele>412.0</ele><time>2026-04-17T10:19:21.621Z</time></trkpt><trkpt lat="40.5901534" lon="9.6246167"><ele>411.99999999999994</ele><time>2026-04-17T10:19:22.631Z</time></trkpt><trkpt lat="40.5901144" lon="9.6246938"><ele>412.0</ele><time>2026-04-17T10:19:23.624Z</time></trkpt><trkpt lat="40.5900923" lon="9.6247844"><ele>418.40000000000003</ele><time>2026-04-17T10:19:24.634Z</time></trkpt><trkpt lat="40.5900838" lon="9.6249128"><ele>424.8</ele><time>2026-04-17T10:19:26.629Z</time></trkpt><trkpt lat="40.5901091" lon="9.625008"><ele>431.2</ele><time>2026-04-17T10:19:29.63Z</time></trkpt><trkpt lat="40.5901401" lon="9.6251827"><ele>437.6</ele><time>2026-04-17T10:19:31.63Z</time></trkpt><trkpt lat="40.5901629" lon="9.6252858"><ele>444.0</ele><time>2026-04-17T10:19:32.627Z</time></trkpt><trkpt lat="40.5901845" lon="9.6254252"><ele>444.4</ele><time>2026-04-17T10:19:33.629Z</time></trkpt><trkpt lat="40.5902193" lon="9.6255759"><ele>444.79999999999995</ele><time>2026-04-17T10:19:34.626Z</time></trkpt><trkpt lat="40.5902604" lon="9.6257073"><ele>445.20000000000005</ele><time>2026-04-17T10:19:35.63Z</time></trkpt><trkpt lat="40.5902829" lon="9.6258035"><ele>445.6</ele><time>2026-04-17T10:19:36.635Z</time></trkpt><trkpt lat="40.5902469" lon="9.6259642"><ele>446.0</ele><time>2026-04-17T10:19:38.626Z</time></trkpt><trkpt lat="40.5902115" lon="9.6260467"><ele>446.0</ele><time>2026-04-17T10:19:39.631Z</time></trkpt><trkpt lat="40.5901557" lon="9.6261312"><ele>446.0</ele><time>2026-04-17T10:19:40.625Z</time></trkpt><trkpt lat="40.5900921" lon="9.6262078"><ele>446.0</ele><time>2026-04-17T10:19:41.63Z</time></trkpt><trkpt lat="40.5900366" lon="9.6262511"><ele>446.0</ele><time>2026-04-17T10:19:42.628Z</time></trkpt><trkpt lat="40.5899259" lon="9.6262618"><ele>446.0</ele><time>2026-04-17T10:19:44.627Z</time></trkpt><trkpt lat="40.5898016" lon="9.6262421"><ele>445.99999999999994</ele><time>2026-04-17T10:19:46.621Z</time></trkpt><trkpt lat="40.5897171" lon="9.6261442"><ele>446.0</ele><time>2026-04-17T10:19:48.629Z</time></trkpt><trkpt lat="40.5897174" lon="9.6260495"><ele>446.0</ele><time>2026-04-17T10:19:49.629Z</time></trkpt><trkpt lat="40.5897243" lon="9.6259521"><ele>446.0</ele><time>2026-04-17T10:19:50.628Z</time></trkpt><trkpt lat="40.5897154" lon="9.6258549"><ele>445.99999999999994</ele><time>2026-04-17T10:19:51.628Z</time></trkpt><trkpt lat="40.5896809" lon="9.6257569"><ele>446.0</ele><time>2026-04-17T10:19:52.635Z</time></trkpt><trkpt lat="40.5896453" lon="9.625652"><ele>446.0</ele><time>2026-04-17T10:19:53.622Z</time></trkpt><trkpt lat="40.5896038" lon="9.6255382"><ele>446.0</ele><time>2026-04-17T10:19:54.623Z</time></trkpt><trkpt lat="40.5895568" lon="9.6254019"><ele>446.0</ele><time>2026-04-17T10:19:55.627Z</time></trkpt><trkpt lat="40.5895146" lon="9.6252656"><ele>446.0</ele><time>2026-04-17T10:19:56.626Z</time></trkpt><trkpt lat="40.5894828" lon="9.625144"><ele>446.0</ele><time>2026-04-17T10:19:57.626Z</time></trkpt><trkpt lat="40.5894594" lon="9.6250275"><ele>453.3333333333333</ele><time>2026-04-17T10:19:58.631Z</time></trkpt><trkpt lat="40.5894376" lon="9.6249314"><ele>460.66666666666663</ele><time>2026-04-17T10:19:59.633Z</time></trkpt><trkpt lat="40.5893897" lon="9.6248471"><ele>468.0</ele><time>2026-04-17T10:20:00.627Z</time></trkpt><trkpt lat="40.5893436" lon="9.6247692"><ele>475.33333333333337</ele><time>2026-04-17T10:20:01.631Z</time></trkpt><trkpt lat="40.5893039" lon="9.6246903"><ele>482.6666666666667</ele><time>2026-04-17T10:20:02.624Z</time></trkpt><trkpt lat="40.5892732" lon="9.6245476"><ele>490.0</ele><time>2026-04-17T10:20:04.618Z</time></trkpt><trkpt lat="40.5893457" lon="9.6244173"><ele>490.00000000000006</ele><time>2026-04-17T10:20:06.632Z</time></trkpt><trkpt lat="40.5893819" lon="9.6243113"><ele>490.0</ele><time>2026-04-17T10:20:08.637Z</time></trkpt><trkpt lat="40.5893084" lon="9.6243235"><ele>490.0</ele><time>2026-04-17T10:20:10.639Z</time></trkpt><trkpt lat="40.5892537" lon="9.6244414"><ele>490.0</ele><time>2026-04-17T10:20:12.629Z</time></trkpt><trkpt lat="40.5892261" lon="9.6245268"><ele>490.00000000000006</ele><time>2026-04-17T10:20:13.626Z</time></trkpt><trkpt lat="40.5892074" lon="9.6246242"><ele>490.0</ele><time>2026-04-17T10:20:14.633Z</time></trkpt><trkpt lat="40.5892159" lon="9.624737"><ele>490.0</ele><time>2026-04-17T10:20:15.623Z</time></trkpt><trkpt lat="40.5892445" lon="9.6248528"><ele>490.0</ele><time>2026-04-17T10:20:16.629Z</time></trkpt><trkpt lat="40.5892779" lon="9.6249654"><ele>490.0</ele><time>2026-04-17T10:20:17.625Z</time></trkpt><trkpt lat="40.5892999" lon="9.6250664"><ele>490.0</ele><time>2026-04-17T10:20:18.631Z</time></trkpt><trkpt lat="40.5893027" lon="9.6251815"><ele>490.0</ele><time>2026-04-17T10:20:19.631Z</time></trkpt><trkpt lat="40.5892961" lon="9.6253134"><ele>488.6</ele><time>2026-04-17T10:20:20.627Z</time></trkpt><trkpt lat="40.5892752" lon="9.6254515"><ele>487.2</ele><time>2026-04-17T10:20:21.628Z</time></trkpt><trkpt lat="40.5892449" lon="9.6255856"><ele>485.79999999999995</ele><time>2026-04-17T10:20:22.629Z</time></trkpt><trkpt lat="40.5892139" lon="9.6257126"><ele>484.4</ele><time>2026-04-17T10:20:23.629Z</time></trkpt><trkpt lat="40.589192" lon="9.6258248"><ele>483.0</ele><time>2026-04-17T10:20:24.621Z</time></trkpt><trkpt lat="40.5891842" lon="9.6259152"><ele>483.0</ele><time>2026-04-17T10:20:25.629Z</time></trkpt><trkpt lat="40.5891105" lon="9.6260054"><ele>482.99999999999994</ele><time>2026-04-17T10:20:27.635Z</time></trkpt><trkpt lat="40.5890275" lon="9.6259519"><ele>482.99999999999994</ele><time>2026-04-17T10:20:29.635Z</time></trkpt><trkpt lat="40.5890364" lon="9.6258074"><ele>483.0</ele><time>2026-04-17T10:20:31.627Z</time></trkpt><trkpt lat="40.5890826" lon="9.6256321"><ele>483.0</ele><time>2026-04-17T10:20:33.628Z</time></trkpt><trkpt lat="40.5890914" lon="9.6255189"><ele>483.0</ele><time>2026-04-17T10:20:34.629Z</time></trkpt><trkpt lat="40.5890999" lon="9.6253895"><ele>482.99999999999994</ele><time>2026-04-17T10:20:35.625Z</time></trkpt><trkpt lat="40.589102" lon="9.6252427"><ele>482.99999999999994</ele><time>2026-04-17T10:20:36.624Z</time></trkpt><trkpt lat="40.5890973" lon="9.6250872"><ele>483.0</ele><time>2026-04-17T10:20:37.626Z</time></trkpt><trkpt lat="40.5890831" lon="9.6249319"><ele>483.0</ele><time>2026-04-17T10:20:38.62Z</time></trkpt><trkpt lat="40.5890354" lon="9.6248117"><ele>484.1666666666667</ele><time>2026-04-17T10:20:39.622Z</time></trkpt><trkpt lat="40.5890054" lon="9.6247104"><ele>485.33333333333337</ele><time>2026-04-17T10:20:40.619Z</time></trkpt><trkpt lat="40.588989" lon="9.6246205"><ele>486.5</ele><time>2026-04-17T10:20:41.619Z</time></trkpt><trkpt lat="40.5889984" lon="9.6244948"><ele>487.6666666666667</ele><time>2026-04-17T10:20:42.625Z</time></trkpt><trkpt lat="40.589024" lon="9.6243715"><ele>488.83333333333337</ele><time>2026-04-17T10:20:43.626Z</time></trkpt><trkpt lat="40.5890523" lon="9.6242428"><ele>490.0</ele><time>2026-04-17T10:20:44.633Z</time></trkpt><trkpt lat="40.5890785" lon="9.6241107"><ele>492.0</ele><time>2026-04-17T10:20:45.627Z</time></trkpt><trkpt lat="40.5890992" lon="9.623989"><ele>494.0</ele><time>2026-04-17T10:20:46.626Z</time></trkpt><trkpt lat="40.589123" lon="9.6238691"><ele>496.0</ele><time>2026-04-17T10:20:47.631Z</time></trkpt><trkpt lat="40.5891534" lon="9.6237261"><ele>498.0</ele><time>2026-04-17T10:20:48.631Z</time></trkpt><trkpt lat="40.5891896" lon="9.6235806"><ele>500.0</ele><time>2026-04-17T10:20:49.628Z</time></trkpt><trkpt lat="40.5892184" lon="9.6234374"><ele>502.66666666666663</ele><time>2026-04-17T10:20:50.624Z</time></trkpt><trkpt lat="40.5892416" lon="9.6233017"><ele>505.3333333333333</ele><time>2026-04-17T10:20:51.629Z</time></trkpt><trkpt lat="40.5892705" lon="9.6231794"><ele>508.0</ele><time>2026-04-17T10:20:52.63Z</time></trkpt><trkpt lat="40.5893092" lon="9.6230805"><ele>510.66666666666663</ele><time>2026-04-17T10:20:53.628Z</time></trkpt><trkpt lat="40.5893485" lon="9.622984"><ele>513.3333333333334</ele><time>2026-04-17T10:20:54.633Z</time></trkpt><trkpt lat="40.589393" lon="9.6228982"><ele>516.0</ele><time>2026-04-17T10:20:55.626Z</time></trkpt><trkpt lat="40.5894432" lon="9.6228251"><ele>517.4</ele><time>2026-04-17T10:20:56.623Z</time></trkpt><trkpt lat="40.5895123" lon="9.6227709"><ele>518.8</ele><time>2026-04-17T10:20:57.633Z</time></trkpt><trkpt lat="40.5896026" lon="9.6227275"><ele>520.1999999999999</ele><time>2026-04-17T10:20:58.632Z</time></trkpt><trkpt lat="40.5896876" lon="9.6226955"><ele>521.6</ele><time>2026-04-17T10:20:59.634Z</time></trkpt><trkpt lat="40.5897819" lon="9.6226837"><ele>523.0</ele><time>2026-04-17T10:21:00.636Z</time></trkpt><trkpt lat="40.5898739" lon="9.6227013"><ele>523.0</ele><time>2026-04-17T10:21:01.634Z</time></trkpt><trkpt lat="40.5899626" lon="9.6227134"><ele>523.0</ele><time>2026-04-17T10:21:02.63Z</time></trkpt><trkpt lat="40.5900407" lon="9.6226963"><ele>523.0</ele><time>2026-04-17T10:21:03.629Z</time></trkpt><trkpt lat="40.5900981" lon="9.6226424"><ele>523.0</ele><time>2026-04-17T10:21:04.628Z</time></trkpt><trkpt lat="40.5901485" lon="9.622589"><ele>523.0</ele><time>2026-04-17T10:21:05.63Z</time></trkpt><trkpt lat="40.5901919" lon="9.6224883"><ele>523.0</ele><time>2026-04-17T10:21:06.633Z</time></trkpt><trkpt lat="40.5902508" lon="9.6223859"><ele>523.0</ele><time>2026-04-17T10:21:07.628Z</time></trkpt><trkpt lat="40.5903233" lon="9.622287"><ele>523.0</ele><time>2026-04-17T10:21:08.631Z</time></trkpt><trkpt lat="40.5904082" lon="9.622174"><ele>523.0</ele><time>2026-04-17T10:21:09.632Z</time></trkpt><trkpt lat="40.5904742" lon="9.6220881"><ele>523.0</ele><time>2026-04-17T10:21:10.639Z</time></trkpt><trkpt lat="40.5905404" lon="9.6220313"><ele>523.0</ele><time>2026-04-17T10:21:11.631Z</time></trkpt><trkpt lat="40.5906112" lon="9.6219799"><ele>520.3333333333334</ele><time>2026-04-17T10:21:12.637Z</time></trkpt><trkpt lat="40.5906724" lon="9.6219278"><ele>517.6666666666667</ele><time>2026-04-17T10:21:13.635Z</time></trkpt><trkpt lat="40.590705" lon="9.621806"><ele>515.0</ele><time>2026-04-17T10:21:15.638Z</time></trkpt><trkpt lat="40.5906056" lon="9.6218395"><ele>512.3333333333334</ele><time>2026-04-17T10:21:18.65Z</time></trkpt><trkpt lat="40.5905614" lon="9.6218988"><ele>509.6666666666667</ele><time>2026-04-17T10:21:19.65Z</time></trkpt><trkpt lat="40.5904999" lon="9.6219535"><ele>507.0</ele><time>2026-04-17T10:21:20.63Z</time></trkpt><trkpt lat="40.5904259" lon="9.6220003"><ele>505.40000000000003</ele><time>2026-04-17T10:21:21.629Z</time></trkpt><trkpt lat="40.5903498" lon="9.6220422"><ele>503.80000000000007</ele><time>2026-04-17T10:21:22.635Z</time></trkpt><trkpt lat="40.5902693" lon="9.6220895"><ele>502.2</ele><time>2026-04-17T10:21:23.636Z</time></trkpt><trkpt lat="40.5901892" lon="9.622152"><ele>500.6</ele><time>2026-04-17T10:21:24.636Z</time></trkpt><trkpt lat="40.5901027" lon="9.6222177"><ele>499.0</ele><time>2026-04-17T10:21:25.635Z</time></trkpt><trkpt lat="40.5900263" lon="9.6222881"><ele>503.79999999999995</ele><time>2026-04-17T10:21:26.631Z</time></trkpt><trkpt lat="40.5899443" lon="9.6223404"><ele>508.59999999999997</ele><time>2026-04-17T10:21:27.629Z</time></trkpt><trkpt lat="40.5898572" lon="9.6223901"><ele>513.4</ele><time>2026-04-17T10:21:28.628Z</time></trkpt><trkpt lat="40.5897764" lon="9.622429"><ele>518.1999999999999</ele><time>2026-04-17T10:21:29.633Z</time></trkpt><trkpt lat="40.5896945" lon="9.6224486"><ele>523.0</ele><time>2026-04-17T10:21:30.621Z</time></trkpt><trkpt lat="40.5895958" lon="9.6224649"><ele>527.4</ele><time>2026-04-17T10:21:31.631Z</time></trkpt><trkpt lat="40.5894823" lon="9.6224657"><ele>531.8</ele><time>2026-04-17T10:21:32.624Z</time></trkpt><trkpt lat="40.5893679" lon="9.6224763"><ele>536.2</ele><time>2026-04-17T10:21:33.625Z</time></trkpt><trkpt lat="40.5892637" lon="9.622502"><ele>540.6</ele><time>2026-04-17T10:21:34.624Z</time></trkpt><trkpt lat="40.5891713" lon="9.6225454"><ele>545.0</ele><time>2026-04-17T10:21:35.629Z</time></trkpt><trkpt lat="40.5890947" lon="9.6226142"><ele>545.0</ele><time>2026-04-17T10:21:36.63Z</time></trkpt><trkpt lat="40.5890273" lon="9.6226985"><ele>545.0</ele><time>2026-04-17T10:21:37.63Z</time></trkpt><trkpt lat="40.5889521" lon="9.6227816"><ele>545.0</ele><time>2026-04-17T10:21:38.635Z</time></trkpt><trkpt lat="40.588868" lon="9.6228623"><ele>545.0</ele><time>2026-04-17T10:21:39.635Z</time></trkpt><trkpt lat="40.5887852" lon="9.6229419"><ele>545.0</ele><time>2026-04-17T10:21:40.626Z</time></trkpt><trkpt lat="40.588729" lon="9.6230111"><ele>548.5</ele><time>2026-04-17T10:21:41.627Z</time></trkpt><trkpt lat="40.5886973" lon="9.6230883"><ele>552.0</ele><time>2026-04-17T10:21:42.624Z</time></trkpt><trkpt lat="40.5886827" lon="9.6231896"><ele>555.5</ele><time>2026-04-17T10:21:43.625Z</time></trkpt><trkpt lat="40.5886787" lon="9.6232958"><ele>559.0</ele><time>2026-04-17T10:21:44.632Z</time></trkpt><trkpt lat="40.5886691" lon="9.6233915"><ele>562.5</ele><time>2026-04-17T10:21:45.627Z</time></trkpt><trkpt lat="40.5886281" lon="9.6234748"><ele>566.0</ele><time>2026-04-17T10:21:46.633Z</time></trkpt><trkpt lat="40.5885866" lon="9.6235723"><ele>563.8333333333333</ele><time>2026-04-17T10:21:47.629Z</time></trkpt><trkpt lat="40.5885511" lon="9.6236776"><ele>561.6666666666666</ele><time>2026-04-17T10:21:48.637Z</time></trkpt><trkpt lat="40.5885339" lon="9.6237884"><ele>559.5</ele><time>2026-04-17T10:21:49.626Z</time></trkpt><trkpt lat="40.5885182" lon="9.623874"><ele>557.3333333333334</ele><time>2026-04-17T10:21:50.626Z</time></trkpt><trkpt lat="40.5884774" lon="9.6239616"><ele>555.1666666666667</ele><time>2026-04-17T10:21:51.632Z</time></trkpt><trkpt lat="40.5884183" lon="9.6240671"><ele>553.0</ele><time>2026-04-17T10:21:52.637Z</time></trkpt><trkpt lat="40.5883681" lon="9.6241799"><ele>553.0</ele><time>2026-04-17T10:21:53.631Z</time></trkpt><trkpt lat="40.5883456" lon="9.6242932"><ele>553.0</ele><time>2026-04-17T10:21:54.636Z</time></trkpt><trkpt lat="40.5883485" lon="9.624412"><ele>553.0</ele><time>2026-04-17T10:21:55.636Z</time></trkpt><trkpt lat="40.5883499" lon="9.6245087"><ele>553.0</ele><time>2026-04-17T10:21:56.64Z</time></trkpt><trkpt lat="40.5883315" lon="9.6246005"><ele>553.0</ele><time>2026-04-17T10:21:57.644Z</time></trkpt><trkpt lat="40.5882892" lon="9.6247208"><ele>553.0</ele><time>2026-04-17T10:21:58.636Z</time></trkpt><trkpt lat="40.5882417" lon="9.6248357"><ele>550.5</ele><time>2026-04-17T10:21:59.638Z</time></trkpt><trkpt lat="40.5881975" lon="9.6249362"><ele>548.0</ele><time>2026-04-17T10:22:00.643Z</time></trkpt><trkpt lat="40.588123" lon="9.6250286"><ele>545.5</ele><time>2026-04-17T10:22:02.64Z</time></trkpt><trkpt lat="40.5880523" lon="9.6250426"><ele>543.0</ele><time>2026-04-17T10:22:03.636Z</time></trkpt><trkpt lat="40.5879666" lon="9.625058"><ele>540.5</ele><time>2026-04-17T10:22:04.639Z</time></trkpt><trkpt lat="40.5878801" lon="9.6251011"><ele>538.0</ele><time>2026-04-17T10:22:05.637Z</time></trkpt><trkpt lat="40.5878036" lon="9.6251617"><ele>543.6666666666667</ele><time>2026-04-17T10:22:06.638Z</time></trkpt><trkpt lat="40.5877433" lon="9.6252912"><ele>549.3333333333334</ele><time>2026-04-17T10:22:08.631Z</time></trkpt><trkpt lat="40.58772" lon="9.6253827"><ele>555.0</ele><time>2026-04-17T10:22:09.637Z</time></trkpt><trkpt lat="40.5876985" lon="9.6254656"><ele>560.6666666666666</ele><time>2026-04-17T10:22:10.631Z</time></trkpt><trkpt lat="40.5876995" lon="9.6255571"><ele>566.3333333333333</ele><time>2026-04-17T10:22:11.634Z</time></trkpt><trkpt lat="40.5877313" lon="9.6256568"><ele>572.0</ele><time>2026-04-17T10:22:12.636Z</time></trkpt><trkpt lat="40.587773" lon="9.6257721"><ele>572.0</ele><time>2026-04-17T10:22:13.635Z</time></trkpt><trkpt lat="40.5877916" lon="9.6258919"><ele>572.0</ele><time>2026-04-17T10:22:14.633Z</time></trkpt><trkpt lat="40.5877846" lon="9.6259856"><ele>572.0</ele><time>2026-04-17T10:22:15.65Z</time></trkpt><trkpt lat="40.5877743" lon="9.6260783"><ele>572.0</ele><time>2026-04-17T10:22:16.648Z</time></trkpt><trkpt lat="40.5877446" lon="9.6261932"><ele>572.0</ele><time>2026-04-17T10:22:17.646Z</time></trkpt><trkpt lat="40.587702" lon="9.6263099"><ele>572.0</ele><time>2026-04-17T10:22:18.648Z</time></trkpt><trkpt lat="40.5876472" lon="9.6264146"><ele>573.0</ele><time>2026-04-17T10:22:19.648Z</time></trkpt><trkpt lat="40.5875901" lon="9.6265065"><ele>574.0</ele><time>2026-04-17T10:22:20.645Z</time></trkpt><trkpt lat="40.5875726" lon="9.6266239"><ele>575.0</ele><time>2026-04-17T10:22:22.641Z</time></trkpt><trkpt lat="40.5876139" lon="9.6266935"><ele>576.0</ele><time>2026-04-17T10:22:23.633Z</time></trkpt><trkpt lat="40.5876695" lon="9.6268002"><ele>577.0</ele><time>2026-04-17T10:22:24.637Z</time></trkpt><trkpt lat="40.5877379" lon="9.6269073"><ele>577.8333333333334</ele><time>2026-04-17T10:22:25.637Z</time></trkpt><trkpt lat="40.5877786" lon="9.6269963"><ele>578.6666666666667</ele><time>2026-04-17T10:22:26.637Z</time></trkpt><trkpt lat="40.5877913" lon="9.6270808"><ele>579.5</ele><time>2026-04-17T10:22:27.643Z</time></trkpt><trkpt lat="40.5877994" lon="9.6272536"><ele>580.3333333333334</ele><time>2026-04-17T10:22:29.637Z</time></trkpt><trkpt lat="40.5877921" lon="9.6273461"><ele>581.1666666666666</ele><time>2026-04-17T10:22:30.636Z</time></trkpt><trkpt lat="40.5877631" lon="9.6274239"><ele>582.0</ele><time>2026-04-17T10:22:31.637Z</time></trkpt><trkpt lat="40.5877193" lon="9.6274844"><ele>582.0</ele><time>2026-04-17T10:22:32.629Z</time></trkpt><trkpt lat="40.58768" lon="9.6275714"><ele>582.0</ele><time>2026-04-17T10:22:33.637Z</time></trkpt><trkpt lat="40.5876395" lon="9.6276621"><ele>582.0</ele><time>2026-04-17T10:22:34.639Z</time></trkpt><trkpt lat="40.5875892" lon="9.6277658"><ele>582.0</ele><time>2026-04-17T10:22:35.635Z</time></trkpt><trkpt lat="40.5875275" lon="9.6278627"><ele>582.0</ele><time>2026-04-17T10:22:36.628Z</time></trkpt><trkpt lat="40.5874745" lon="9.6279675"><ele>582.0</ele><time>2026-04-17T10:22:37.632Z</time></trkpt><trkpt lat="40.5874475" lon="9.6280685"><ele>583.2857142857142</ele><time>2026-04-17T10:22:38.638Z</time></trkpt><trkpt lat="40.5874556" lon="9.6281681"><ele>584.5714285714286</ele><time>2026-04-17T10:22:39.624Z</time></trkpt><trkpt lat="40.5874861" lon="9.6282528"><ele>585.8571428571429</ele><time>2026-04-17T10:22:40.625Z</time></trkpt><trkpt lat="40.5875429" lon="9.6283179"><ele>587.1428571428571</ele><time>2026-04-17T10:22:41.635Z</time></trkpt><trkpt lat="40.5875991" lon="9.6283724"><ele>588.4285714285714</ele><time>2026-04-17T10:22:42.635Z</time></trkpt><trkpt lat="40.5876471" lon="9.628436"><ele>589.7142857142857</ele><time>2026-04-17T10:22:43.63Z</time></trkpt><trkpt lat="40.5876706" lon="9.6285181"><ele>591.0</ele><time>2026-04-17T10:22:44.636Z</time></trkpt><trkpt lat="40.5876668" lon="9.6286296"><ele>594.0</ele><time>2026-04-17T10:22:45.64Z</time></trkpt><trkpt lat="40.587666" lon="9.6287772"><ele>597.0</ele><time>2026-04-17T10:22:46.651Z</time></trkpt><trkpt lat="40.5876725" lon="9.6289208"><ele>600.0</ele><time>2026-04-17T10:22:47.648Z</time></trkpt><trkpt lat="40.5876795" lon="9.6290647"><ele>603.0</ele><time>2026-04-17T10:22:48.649Z</time></trkpt><trkpt lat="40.5876846" lon="9.629196"><ele>606.0</ele><time>2026-04-17T10:22:49.643Z</time></trkpt><trkpt lat="40.5877003" lon="9.6292891"><ele>606.0</ele><time>2026-04-17T10:22:50.636Z</time></trkpt><trkpt lat="40.5877314" lon="9.6293764"><ele>606.0</ele><time>2026-04-17T10:22:51.631Z</time></trkpt><trkpt lat="40.5877755" lon="9.6294634"><ele>606.0</ele><time>2026-04-17T10:22:52.651Z</time></trkpt><trkpt lat="40.5878267" lon="9.6295617"><ele>606.0</ele><time>2026-04-17T10:22:53.647Z</time></trkpt><trkpt lat="40.5878908" lon="9.6296782"><ele>606.0</ele><time>2026-04-17T10:22:54.641Z</time></trkpt><trkpt lat="40.5879364" lon="9.6298007"><ele>604.5</ele><time>2026-04-17T10:22:55.643Z</time></trkpt><trkpt lat="40.5879637" lon="9.6299051"><ele>603.0</ele><time>2026-04-17T10:22:56.642Z</time></trkpt><trkpt lat="40.5879944" lon="9.6300104"><ele>601.5</ele><time>2026-04-17T10:22:57.639Z</time></trkpt><trkpt lat="40.5880276" lon="9.6301182"><ele>600.0</ele><time>2026-04-17T10:22:58.64Z</time></trkpt><trkpt lat="40.5880661" lon="9.6302209"><ele>598.5</ele><time>2026-04-17T10:22:59.635Z</time></trkpt><trkpt lat="40.5881218" lon="9.630325"><ele>597.0</ele><time>2026-04-17T10:23:00.633Z</time></trkpt><trkpt lat="40.5881777" lon="9.6304107"><ele>597.0000000000001</ele><time>2026-04-17T10:23:01.629Z</time></trkpt><trkpt lat="40.5882359" lon="9.6305177"><ele>597.0</ele><time>2026-04-17T10:23:03.634Z</time></trkpt><trkpt lat="40.5882855" lon="9.6305752"><ele>597.0</ele><time>2026-04-17T10:23:06.653Z</time></trkpt><trkpt lat="40.5883488" lon="9.6306021"><ele>597.0</ele><time>2026-04-17T10:23:09.651Z</time></trkpt><trkpt lat="40.5883974" lon="9.6306588"><ele>597.0</ele><time>2026-04-17T10:23:11.66Z</time></trkpt><trkpt lat="40.5883308" lon="9.6306057"><ele>597.0000000000001</ele><time>2026-04-17T10:23:17.661Z</time></trkpt><trkpt lat="40.5882726" lon="9.6305669"><ele>597.0</ele><time>2026-04-17T10:24:25.655Z</time></trkpt><trkpt lat="40.5881929" lon="9.6305306"><ele>597.0</ele><time>2026-04-17T10:24:27.65Z</time></trkpt><trkpt lat="40.5881304" lon="9.630486"><ele>597.0</ele><time>2026-04-17T10:24:28.642Z</time></trkpt><trkpt lat="40.5880507" lon="9.6304225"><ele>597.0</ele><time>2026-04-17T10:24:29.647Z</time></trkpt><trkpt lat="40.5879779" lon="9.6303461"><ele>597.0</ele><time>2026-04-17T10:24:30.642Z</time></trkpt><trkpt lat="40.5879102" lon="9.6302703"><ele>597.0</ele><time>2026-04-17T10:24:31.649Z</time></trkpt><trkpt lat="40.5878493" lon="9.6301816"><ele>597.0</ele><time>2026-04-17T10:24:32.642Z</time></trkpt><trkpt lat="40.5877931" lon="9.630069"><ele>600.8000000000001</ele><time>2026-04-17T10:24:33.649Z</time></trkpt><trkpt lat="40.5877541" lon="9.6299571"><ele>604.6</ele><time>2026-04-17T10:24:34.647Z</time></trkpt><trkpt lat="40.5877089" lon="9.6298316"><ele>608.4000000000001</ele><time>2026-04-17T10:24:35.652Z</time></trkpt><trkpt lat="40.5876551" lon="9.6297111"><ele>612.2</ele><time>2026-04-17T10:24:36.651Z</time></trkpt><trkpt lat="40.5876033" lon="9.6295955"><ele>616.0</ele><time>2026-04-17T10:24:37.653Z</time></trkpt><trkpt lat="40.5875531" lon="9.6294939"><ele>614.3333333333334</ele><time>2026-04-17T10:24:38.649Z</time></trkpt><trkpt lat="40.5874979" lon="9.6293989"><ele>612.6666666666667</ele><time>2026-04-17T10:24:39.657Z</time></trkpt><trkpt lat="40.5874301" lon="9.6293086"><ele>611.0</ele><time>2026-04-17T10:24:40.653Z</time></trkpt><trkpt lat="40.5873705" lon="9.6292215"><ele>609.3333333333334</ele><time>2026-04-17T10:24:41.649Z</time></trkpt><trkpt lat="40.5873422" lon="9.6291249"><ele>607.6666666666666</ele><time>2026-04-17T10:24:42.649Z</time></trkpt><trkpt lat="40.587343" lon="9.6290228"><ele>606.0</ele><time>2026-04-17T10:24:43.652Z</time></trkpt><trkpt lat="40.5873452" lon="9.628934"><ele>606.0</ele><time>2026-04-17T10:24:44.651Z</time></trkpt><trkpt lat="40.5873218" lon="9.6288381"><ele>606.0</ele><time>2026-04-17T10:24:45.647Z</time></trkpt><trkpt lat="40.5872624" lon="9.6287604"><ele>606.0</ele><time>2026-04-17T10:24:46.641Z</time></trkpt><trkpt lat="40.5871845" lon="9.6287173"><ele>606.0</ele><time>2026-04-17T10:24:47.642Z</time></trkpt><trkpt lat="40.5870962" lon="9.6286827"><ele>606.0</ele><time>2026-04-17T10:24:48.643Z</time></trkpt><trkpt lat="40.5869918" lon="9.6286344"><ele>606.0</ele><time>2026-04-17T10:24:49.653Z</time></trkpt><trkpt lat="40.5868845" lon="9.6285828"><ele>609.6</ele><time>2026-04-17T10:24:50.653Z</time></trkpt><trkpt lat="40.5867788" lon="9.6285355"><ele>613.2</ele><time>2026-04-17T10:24:51.648Z</time></trkpt><trkpt lat="40.5866751" lon="9.62848"><ele>616.8</ele><time>2026-04-17T10:24:52.653Z</time></trkpt><trkpt lat="40.5865794" lon="9.6284196"><ele>620.4</ele><time>2026-04-17T10:24:53.649Z</time></trkpt><trkpt lat="40.5864822" lon="9.6283694"><ele>624.0</ele><time>2026-04-17T10:24:54.647Z</time></trkpt><trkpt lat="40.5863902" lon="9.6283181"><ele>624.0</ele><time>2026-04-17T10:24:55.65Z</time></trkpt><trkpt lat="40.5863098" lon="9.6282703"><ele>624.0</ele><time>2026-04-17T10:24:56.648Z</time></trkpt><trkpt lat="40.5862367" lon="9.6282666"><ele>624.0</ele><time>2026-04-17T10:24:57.656Z</time></trkpt><trkpt lat="40.586182" lon="9.628312"><ele>624.0</ele><time>2026-04-17T10:24:58.654Z</time></trkpt><trkpt lat="40.5861473" lon="9.6284048"><ele>624.0</ele><time>2026-04-17T10:24:59.645Z</time></trkpt><trkpt lat="40.5861057" lon="9.6285191"><ele>624.0</ele><time>2026-04-17T10:25:00.637Z</time></trkpt><trkpt lat="40.5860471" lon="9.6286416"><ele>625.25</ele><time>2026-04-17T10:25:01.638Z</time></trkpt><trkpt lat="40.5859724" lon="9.6287596"><ele>626.5</ele><time>2026-04-17T10:25:02.67Z</time></trkpt><trkpt lat="40.5859009" lon="9.62888"><ele>627.75</ele><time>2026-04-17T10:25:03.73Z</time></trkpt><trkpt lat="40.5858274" lon="9.6289999"><ele>629.0</ele><time>2026-04-17T10:25:04.733Z</time></trkpt><trkpt lat="40.5857611" lon="9.6291163"><ele>629.0</ele><time>2026-04-17T10:25:05.729Z</time></trkpt><trkpt lat="40.5857182" lon="9.6292144"><ele>629.0</ele><time>2026-04-17T10:25:06.732Z</time></trkpt><trkpt lat="40.5857085" lon="9.6293065"><ele>629.0</ele><time>2026-04-17T10:25:07.724Z</time></trkpt><trkpt lat="40.5857326" lon="9.6293922"><ele>629.0</ele><time>2026-04-17T10:25:08.71Z</time></trkpt><trkpt lat="40.5857955" lon="9.6295762"><ele>629.0</ele><time>2026-04-17T10:25:10.633Z</time></trkpt><trkpt lat="40.5858276" lon="9.6296816"><ele>629.0</ele><time>2026-04-17T10:25:11.634Z</time></trkpt><trkpt lat="40.5858478" lon="9.6297651"><ele>629.0</ele><time>2026-04-17T10:25:12.647Z</time></trkpt><trkpt lat="40.5859388" lon="9.6298507"><ele>629.0</ele><time>2026-04-17T10:25:14.656Z</time></trkpt><trkpt lat="40.5860824" lon="9.6297807"><ele>629.0</ele><time>2026-04-17T10:25:16.647Z</time></trkpt><trkpt lat="40.5861522" lon="9.629744"><ele>629.0</ele><time>2026-04-17T10:25:17.645Z</time></trkpt><trkpt lat="40.5862576" lon="9.629741"><ele>629.4</ele><time>2026-04-17T10:25:19.645Z</time></trkpt><trkpt lat="40.5861364" lon="9.6297555"><ele>629.8</ele><time>2026-04-17T10:25:25.662Z</time></trkpt><trkpt lat="40.5860566" lon="9.6297947"><ele>630.2</ele><time>2026-04-17T10:25:26.657Z</time></trkpt><trkpt lat="40.5859773" lon="9.6298268"><ele>630.6</ele><time>2026-04-17T10:25:27.649Z</time></trkpt><trkpt lat="40.5859086" lon="9.6298335"><ele>631.0</ele><time>2026-04-17T10:25:28.658Z</time></trkpt><trkpt lat="40.5858375" lon="9.6297443"><ele>631.0</ele><time>2026-04-17T10:25:30.651Z</time></trkpt><trkpt lat="40.5858023" lon="9.6296418"><ele>631.0</ele><time>2026-04-17T10:25:31.646Z</time></trkpt><trkpt lat="40.5857675" lon="9.6294952"><ele>631.0</ele><time>2026-04-17T10:25:32.643Z</time></trkpt><trkpt lat="40.5857182" lon="9.6293531"><ele>631.0</ele><time>2026-04-17T10:25:33.648Z</time></trkpt><trkpt lat="40.5856853" lon="9.6292365"><ele>631.0</ele><time>2026-04-17T10:25:34.639Z</time></trkpt><trkpt lat="40.5856836" lon="9.6291519"><ele>630.6</ele><time>2026-04-17T10:25:35.65Z</time></trkpt><trkpt lat="40.585737" lon="9.6290631"><ele>630.2</ele><time>2026-04-17T10:25:36.642Z</time></trkpt><trkpt lat="40.5858171" lon="9.6289689"><ele>629.8</ele><time>2026-04-17T10:25:37.643Z</time></trkpt><trkpt lat="40.5859008" lon="9.6288553"><ele>629.4</ele><time>2026-04-17T10:25:38.644Z</time></trkpt><trkpt lat="40.5859879" lon="9.6287261"><ele>629.0</ele><time>2026-04-17T10:25:39.651Z</time></trkpt><trkpt lat="40.5860704" lon="9.6285937"><ele>628.0</ele><time>2026-04-17T10:25:40.651Z</time></trkpt><trkpt lat="40.5861363" lon="9.6284687"><ele>627.0</ele><time>2026-04-17T10:25:41.651Z</time></trkpt><trkpt lat="40.5861978" lon="9.6283697"><ele>626.0</ele><time>2026-04-17T10:25:42.644Z</time></trkpt><trkpt lat="40.5862562" lon="9.6282929"><ele>625.0</ele><time>2026-04-17T10:25:43.653Z</time></trkpt><trkpt lat="40.5863139" lon="9.6282543"><ele>624.0</ele><time>2026-04-17T10:25:44.652Z</time></trkpt><trkpt lat="40.5864034" lon="9.6282317"><ele>624.0</ele><time>2026-04-17T10:25:46.653Z</time></trkpt><trkpt lat="40.586367" lon="9.6281184"><ele>624.0</ele><time>2026-04-17T10:25:48.646Z</time></trkpt><trkpt lat="40.5863173" lon="9.628026"><ele>624.0</ele><time>2026-04-17T10:25:49.646Z</time></trkpt><trkpt lat="40.5862646" lon="9.6278898"><ele>624.0</ele><time>2026-04-17T10:25:50.641Z</time></trkpt><trkpt lat="40.5862226" lon="9.6277378"><ele>624.0</ele><time>2026-04-17T10:25:51.638Z</time></trkpt><trkpt lat="40.5861915" lon="9.6275791"><ele>623.4</ele><time>2026-04-17T10:25:52.656Z</time></trkpt><trkpt lat="40.5861637" lon="9.6274359"><ele>622.8</ele><time>2026-04-17T10:25:53.65Z</time></trkpt><trkpt lat="40.586124" lon="9.62731"><ele>622.2</ele><time>2026-04-17T10:25:54.637Z</time></trkpt><trkpt lat="40.5860706" lon="9.62722"><ele>621.6</ele><time>2026-04-17T10:25:55.637Z</time></trkpt><trkpt lat="40.5860052" lon="9.62717"><ele>621.0</ele><time>2026-04-17T10:25:56.635Z</time></trkpt><trkpt lat="40.5859302" lon="9.6271257"><ele>620.75</ele><time>2026-04-17T10:26:00.646Z</time></trkpt><trkpt lat="40.5859437" lon="9.6269668"><ele>620.5</ele><time>2026-04-17T10:26:02.648Z</time></trkpt><trkpt lat="40.5859748" lon="9.626838"><ele>620.25</ele><time>2026-04-17T10:26:03.647Z</time></trkpt><trkpt lat="40.5860106" lon="9.626694"><ele>620.0</ele><time>2026-04-17T10:26:04.649Z</time></trkpt><trkpt lat="40.5860501" lon="9.6265371"><ele>620.0</ele><time>2026-04-17T10:26:05.646Z</time></trkpt><trkpt lat="40.5860854" lon="9.6263741"><ele>620.0</ele><time>2026-04-17T10:26:06.646Z</time></trkpt><trkpt lat="40.5861293" lon="9.6262093"><ele>620.0</ele><time>2026-04-17T10:26:07.644Z</time></trkpt><trkpt lat="40.5861698" lon="9.6260313"><ele>620.0</ele><time>2026-04-17T10:26:08.644Z</time></trkpt><trkpt lat="40.5862145" lon="9.6258609"><ele>618.75</ele><time>2026-04-17T10:26:09.643Z</time></trkpt><trkpt lat="40.5862439" lon="9.625691"><ele>617.5</ele><time>2026-04-17T10:26:10.644Z</time></trkpt><trkpt lat="40.5862904" lon="9.6255328"><ele>616.25</ele><time>2026-04-17T10:26:11.644Z</time></trkpt><trkpt lat="40.5863269" lon="9.6253694"><ele>615.0</ele><time>2026-04-17T10:26:12.649Z</time></trkpt><trkpt lat="40.5863614" lon="9.6251986"><ele>615.0</ele><time>2026-04-17T10:26:13.645Z</time></trkpt><trkpt lat="40.5864041" lon="9.6250364"><ele>615.0</ele><time>2026-04-17T10:26:14.653Z</time></trkpt><trkpt lat="40.5864445" lon="9.6248787"><ele>615.0</ele><time>2026-04-17T10:26:15.646Z</time></trkpt><trkpt lat="40.5864703" lon="9.6247103"><ele>615.0</ele><time>2026-04-17T10:26:16.642Z</time></trkpt><trkpt lat="40.5864929" lon="9.624539"><ele>615.25</ele><time>2026-04-17T10:26:17.644Z</time></trkpt><trkpt lat="40.5865045" lon="9.6243679"><ele>615.5</ele><time>2026-04-17T10:26:18.649Z</time></trkpt><trkpt lat="40.5865036" lon="9.6242006"><ele>615.75</ele><time>2026-04-17T10:26:19.645Z</time></trkpt><trkpt lat="40.5864904" lon="9.6240371"><ele>616.0</ele><time>2026-04-17T10:26:20.651Z</time></trkpt><trkpt lat="40.5864726" lon="9.6238725"><ele>616.0</ele><time>2026-04-17T10:26:21.641Z</time></trkpt><trkpt lat="40.5864427" lon="9.6237221"><ele>616.0</ele><time>2026-04-17T10:26:22.652Z</time></trkpt><trkpt lat="40.5864172" lon="9.6235857"><ele>616.0</ele><time>2026-04-17T10:26:23.648Z</time></trkpt><trkpt lat="40.5864065" lon="9.6234499"><ele>616.0</ele><time>2026-04-17T10:26:24.648Z</time></trkpt><trkpt lat="40.586432" lon="9.6233192"><ele>616.0</ele><time>2026-04-17T10:26:25.652Z</time></trkpt><trkpt lat="40.5864978" lon="9.623226"><ele>617.25</ele><time>2026-04-17T10:26:26.651Z</time></trkpt><trkpt lat="40.5866007" lon="9.6231934"><ele>618.5</ele><time>2026-04-17T10:26:27.647Z</time></trkpt><trkpt lat="40.5867221" lon="9.623183"><ele>619.75</ele><time>2026-04-17T10:26:28.647Z</time></trkpt><trkpt lat="40.586834" lon="9.6231309"><ele>621.0</ele><time>2026-04-17T10:26:29.647Z</time></trkpt><trkpt lat="40.5869252" lon="9.6230497"><ele>621.0</ele><time>2026-04-17T10:26:30.64Z</time></trkpt><trkpt lat="40.5869825" lon="9.6229677"><ele>621.0</ele><time>2026-04-17T10:26:31.642Z</time></trkpt><trkpt lat="40.5870163" lon="9.6228944"><ele>621.0</ele><time>2026-04-17T10:26:32.645Z</time></trkpt><trkpt lat="40.5870741" lon="9.6228025"><ele>621.0</ele><time>2026-04-17T10:26:34.641Z</time></trkpt><trkpt lat="40.5871721" lon="9.6228395"><ele>621.0</ele><time>2026-04-17T10:26:37.656Z</time></trkpt><trkpt lat="40.5872012" lon="9.6229351"><ele>621.0</ele><time>2026-04-17T10:26:44.66Z</time></trkpt><trkpt lat="40.587254" lon="9.6229911"><ele>619.1666666666666</ele><time>2026-04-17T10:26:46.661Z</time></trkpt><trkpt lat="40.5873499" lon="9.6230464"><ele>617.3333333333334</ele><time>2026-04-17T10:26:48.652Z</time></trkpt><trkpt lat="40.5873934" lon="9.623111"><ele>615.5</ele><time>2026-04-17T10:26:49.64Z</time></trkpt><trkpt lat="40.5874225" lon="9.6231934"><ele>613.6666666666667</ele><time>2026-04-17T10:26:50.643Z</time></trkpt><trkpt lat="40.5874422" lon="9.6232812"><ele>611.8333333333334</ele><time>2026-04-17T10:26:51.648Z</time></trkpt><trkpt lat="40.5875173" lon="9.6233414"><ele>610.0</ele><time>2026-04-17T10:26:53.658Z</time></trkpt><trkpt lat="40.5875678" lon="9.6232429"><ele>610.0</ele><time>2026-04-17T10:26:55.655Z</time></trkpt><trkpt lat="40.5875156" lon="9.6231664"><ele>610.0</ele><time>2026-04-17T10:26:57.653Z</time></trkpt><trkpt lat="40.5874472" lon="9.6231215"><ele>610.0</ele><time>2026-04-17T10:26:58.644Z</time></trkpt><trkpt lat="40.5873768" lon="9.6230747"><ele>610.0</ele><time>2026-04-17T10:26:59.647Z</time></trkpt><trkpt lat="40.5873121" lon="9.6230349"><ele>610.0</ele><time>2026-04-17T10:27:00.645Z</time></trkpt><trkpt lat="40.5872318" lon="9.6229959"><ele>610.0</ele><time>2026-04-17T10:27:02.656Z</time></trkpt><trkpt lat="40.587191" lon="9.6229191"><ele>610.0</ele><time>2026-04-17T10:27:34.658Z</time></trkpt><trkpt lat="40.5871338" lon="9.622973"><ele>610.0</ele><time>2026-04-17T10:29:03.668Z</time></trkpt><trkpt lat="40.5855882" lon="9.6281782"><ele>629.0</ele><time>2026-04-17T12:10:29.663Z</time></trkpt><trkpt lat="40.58296" lon="9.6290188"><ele>643.0</ele><time>2026-04-17T12:11:02.676Z</time></trkpt><trkpt lat="40.5824572" lon="9.6316896"><ele>650.0</ele><time>2026-04-17T12:11:22.664Z</time></trkpt><trkpt lat="40.5804037" lon="9.6316868"><ele>694.0</ele><time>2026-04-17T12:11:52.663Z</time></trkpt><trkpt lat="40.5779801" lon="9.633298"><ele>726.0</ele><time>2026-04-17T12:12:19.65Z</time></trkpt><trkpt lat="40.5759008" lon="9.6308511"><ele>754.0</ele><time>2026-04-17T12:13:17.659Z</time></trkpt><trkpt lat="40.5731893" lon="9.6312084"><ele>775.0</ele><time>2026-04-17T12:13:43.657Z</time></trkpt><trkpt lat="40.5730741" lon="9.6339793"><ele>779.0</ele><time>2026-04-17T12:14:03.657Z</time></trkpt><trkpt lat="40.5712514" lon="9.6366154"><ele>787.0</ele><time>2026-04-17T12:14:27.66Z</time></trkpt><trkpt lat="40.5735745" lon="9.6385558"><ele>751.0</ele><time>2026-04-17T12:16:09.655Z</time></trkpt><trkpt lat="40.5723752" lon="9.6395197"><ele>714.0</ele><time>2026-04-17T12:16:42.65Z</time></trkpt><trkpt lat="40.5715683" lon="9.6419764"><ele>703.0</ele><time>2026-04-17T12:17:21.665Z</time></trkpt><trkpt lat="40.5714324" lon="9.6438223"><ele>688.0</ele><time>2026-04-17T12:17:39.656Z</time></trkpt><trkpt lat="40.5712522" lon="9.6465227"><ele>645.0</ele><time>2026-04-17T12:18:31.665Z</time></trkpt><trkpt lat="40.5703762" lon="9.6480059"><ele>604.0</ele><time>2026-04-17T12:18:54.665Z</time></trkpt><trkpt lat="40.5724474" lon="9.647959"><ele>591.0</ele><time>2026-04-17T12:20:06.643Z</time></trkpt><trkpt lat="40.5741749" lon="9.6464275"><ele>505.0</ele><time>2026-04-17T12:20:31.652Z</time></trkpt><trkpt lat="40.5757357" lon="9.6481972"><ele>471.0</ele><time>2026-04-17T12:22:11.641Z</time></trkpt><trkpt lat="40.5777639" lon="9.6487305"><ele>472.0</ele><time>2026-04-17T12:22:35.639Z</time></trkpt><trkpt lat="40.5791564" lon="9.6485422"><ele>389.0</ele><time>2026-04-17T12:22:55.651Z</time></trkpt><trkpt lat="40.5793623" lon="9.6512364"><ele>371.0</ele><time>2026-04-17T12:28:42.638Z</time></trkpt><trkpt lat="40.5795909" lon="9.6539289"><ele>346.0</ele><time>2026-04-17T12:30:06.659Z</time></trkpt><trkpt lat="40.5806001" lon="9.6562372"><ele>307.0</ele><time>2026-04-17T12:30:24.658Z</time></trkpt><trkpt lat="40.5818748" lon="9.6594742"><ele>282.0</ele><time>2026-04-17T12:30:44.669Z</time></trkpt><trkpt lat="40.5828334" lon="9.6628084"><ele>234.0</ele><time>2026-04-17T12:31:06.665Z</time></trkpt><trkpt lat="40.5806879" lon="9.6650359"><ele>202.0</ele><time>2026-04-17T12:32:39.64Z</time></trkpt><trkpt lat="40.5800075" lon="9.6685137"><ele>180.0</ele><time>2026-04-17T12:33:05.646Z</time></trkpt><trkpt lat="40.5793157" lon="9.6710557"><ele>177.0</ele><time>2026-04-17T12:33:25.644Z</time></trkpt><trkpt lat="40.5773792" lon="9.6736279"><ele>145.0</ele><time>2026-04-17T12:33:47.644Z</time></trkpt><trkpt lat="40.575099" lon="9.6757245"><ele>111.0</ele><time>2026-04-17T12:34:09.626Z</time></trkpt><trkpt lat="40.5727201" lon="9.67754"><ele>93.0</ele><time>2026-04-17T12:34:29.644Z</time></trkpt><trkpt lat="40.5709289" lon="9.6814117"><ele>82.0</ele><time>2026-04-17T12:34:53.724Z</time></trkpt><trkpt lat="40.5694715" lon="9.6843962"><ele>69.0</ele><time>2026-04-17T12:35:34.658Z</time></trkpt><trkpt lat="40.5673911" lon="9.6847919"><ele>54.0</ele><time>2026-04-17T12:47:19.663Z</time></trkpt><trkpt lat="40.5657061" lon="9.6832908"><ele>63.0</ele><time>2026-04-17T12:47:43.739Z</time></trkpt><trkpt lat="40.5646684" lon="9.6799676"><ele>50.0</ele><time>2026-04-17T12:48:06.722Z</time></trkpt><trkpt lat="40.5622906" lon="9.6781097"><ele>44.0</ele><time>2026-04-17T12:48:33.654Z</time></trkpt><trkpt lat="40.5594773" lon="9.6779378"><ele>56.0</ele><time>2026-04-17T12:48:53.656Z</time></trkpt><trkpt lat="40.5563804" lon="9.6760886"><ele>56.0</ele><time>2026-04-17T12:49:14.659Z</time></trkpt><trkpt lat="40.5532029" lon="9.6742088"><ele>46.0</ele><time>2026-04-17T12:49:34.655Z</time></trkpt><trkpt lat="40.5500345" lon="9.6722978"><ele>28.0</ele><time>2026-04-17T12:49:57.737Z</time></trkpt><trkpt lat="40.5494701" lon="9.6759289"><ele>31.0</ele><time>2026-04-17T12:50:38.744Z</time></trkpt><trkpt lat="40.5491872" lon="9.6796438"><ele>33.0</ele><time>2026-04-17T12:50:55.752Z</time></trkpt><trkpt lat="40.5492408" lon="9.6841503"><ele>44.0</ele><time>2026-04-17T12:51:15.751Z</time></trkpt><trkpt lat="40.5507653" lon="9.6882308"><ele>45.0</ele><time>2026-04-17T12:51:37.749Z</time></trkpt><trkpt lat="40.5522651" lon="9.6913166"><ele>46.0</ele><time>2026-04-17T12:51:59.751Z</time></trkpt><trkpt lat="40.5497533" lon="9.6899481"><ele>40.0</ele><time>2026-04-17T12:52:43.653Z</time></trkpt><trkpt lat="40.5487781" lon="9.688722"><ele>51.0</ele><time>2026-04-17T12:53:08.659Z</time></trkpt><trkpt lat="40.5469084" lon="9.687597"><ele>58.0</ele><time>2026-04-17T12:53:29.653Z</time></trkpt><trkpt lat="40.5448809" lon="9.6869823"><ele>85.0</ele><time>2026-04-17T12:53:50.654Z</time></trkpt><trkpt lat="40.5427661" lon="9.6872862"><ele>121.0</ele><time>2026-04-17T12:54:10.65Z</time></trkpt><trkpt lat="40.540837" lon="9.6881179"><ele>132.0</ele><time>2026-04-17T12:54:52.656Z</time></trkpt><trkpt lat="40.5407958" lon="9.6899669"><ele>155.0</ele><time>2026-04-17T12:55:10.643Z</time></trkpt><trkpt lat="40.5402266" lon="9.6925933"><ele>159.0</ele><time>2026-04-17T12:55:38.671Z</time></trkpt><trkpt lat="40.5388457" lon="9.6926741"><ele>188.0</ele><time>2026-04-17T12:56:00.649Z</time></trkpt><trkpt lat="40.5367782" lon="9.6926897"><ele>210.0</ele><time>2026-04-17T12:56:30.643Z</time></trkpt><trkpt lat="40.5351902" lon="9.6943869"><ele>237.0</ele><time>2026-04-17T12:57:07.654Z</time></trkpt><trkpt lat="40.5343072" lon="9.6968183"><ele>269.0</ele><time>2026-04-17T12:57:33.663Z</time></trkpt><trkpt lat="40.5330932" lon="9.6990029"><ele>290.0</ele><time>2026-04-17T12:58:00.664Z</time></trkpt><trkpt lat="40.5333251" lon="9.7016778"><ele>322.0</ele><time>2026-04-17T12:58:52.66Z</time></trkpt><trkpt lat="40.5325673" lon="9.7042048"><ele>357.0</ele><time>2026-04-17T12:59:16.653Z</time></trkpt><trkpt lat="40.5319724" lon="9.7067696"><ele>351.0</ele><time>2026-04-17T12:59:36.628Z</time></trkpt><trkpt lat="40.5328436" lon="9.708332"><ele>357.0</ele><time>2026-04-17T12:59:52.645Z</time></trkpt><trkpt lat="40.5342822" lon="9.711402"><ele>373.0</ele><time>2026-04-17T13:03:33.658Z</time></trkpt><trkpt lat="40.5354762" lon="9.712384"><ele>363.0</ele><time>2026-04-17T13:03:55.639Z</time></trkpt><trkpt lat="40.5366311" lon="9.7145848"><ele>364.0</ele><time>2026-04-17T13:04:18.642Z</time></trkpt><trkpt lat="40.5383096" lon="9.7161109"><ele>367.0</ele><time>2026-04-17T13:04:55.627Z</time></trkpt><trkpt lat="40.5391994" lon="9.7174744"><ele>371.0</ele><time>2026-04-17T13:05:15.64Z</time></trkpt><trkpt lat="40.5396213" lon="9.7192398"><ele>350.0</ele><time>2026-04-17T13:05:35.641Z</time></trkpt><trkpt lat="40.5404008" lon="9.7217442"><ele>350.0</ele><time>2026-04-17T13:06:00.641Z</time></trkpt><trkpt lat="40.5407784" lon="9.7234577"><ele>330.0</ele><time>2026-04-17T13:06:44.648Z</time></trkpt><trkpt lat="40.5411704" lon="9.7252416"><ele>300.0</ele><time>2026-04-17T13:07:05.634Z</time></trkpt><trkpt lat="40.5416858" lon="9.7278712"><ele>276.0</ele><time>2026-04-17T13:07:32.651Z</time></trkpt><trkpt lat="40.5431752" lon="9.7297925"><ele>254.0</ele><time>2026-04-17T13:08:01.655Z</time></trkpt><trkpt lat="40.545029" lon="9.7310776"><ele>238.0</ele><time>2026-04-17T13:08:48.654Z</time></trkpt><trkpt lat="40.5469673" lon="9.7321478"><ele>234.0</ele><time>2026-04-17T13:09:13.653Z</time></trkpt><trkpt lat="40.5489242" lon="9.7331608"><ele>197.0</ele><time>2026-04-17T13:09:37.653Z</time></trkpt><trkpt lat="40.5485272" lon="9.7358223"><ele>181.0</ele><time>2026-04-17T13:11:12.657Z</time></trkpt><trkpt lat="40.5471742" lon="9.7356941"><ele>160.0</ele><time>2026-04-17T13:11:50.655Z</time></trkpt><trkpt lat="40.5458058" lon="9.7360774"><ele>160.0</ele><time>2026-04-17T13:12:17.649Z</time></trkpt><trkpt lat="40.5458058" lon="9.7360774"><ele>160.0</ele><time>2026-04-17T13:12:17.649Z</time></trkpt><trkpt lat="40.5458406" lon="9.7378863"><ele>199.0</ele><time>2026-04-17T13:12:49.645Z</time></trkpt><trkpt lat="40.5445101" lon="9.7382268"><ele>188.0</ele><time>2026-04-17T13:13:25.658Z</time></trkpt><trkpt lat="40.5433407" lon="9.739194"><ele>178.0</ele><time>2026-04-17T13:14:28.655Z</time></trkpt><trkpt lat="40.5432268" lon="9.7410036"><ele>158.0</ele><time>2026-04-17T13:14:49.646Z</time></trkpt><trkpt lat="40.5429686" lon="9.7428169"><ele>132.0</ele><time>2026-04-17T13:15:15.649Z</time></trkpt><trkpt lat="40.5426056" lon="9.7445455"><ele>125.0</ele><time>2026-04-17T13:15:33.649Z</time></trkpt><trkpt lat="40.5421695" lon="9.7471799"><ele>128.0</ele><time>2026-04-17T13:16:01.656Z</time></trkpt><trkpt lat="40.5423884" lon="9.7498247"><ele>107.0</ele><time>2026-04-17T13:16:27.65Z</time></trkpt><trkpt lat="40.5417475" lon="9.7523878"><ele>76.0</ele><time>2026-04-17T13:17:07.643Z</time></trkpt><trkpt lat="40.5416446" lon="9.7550545"><ele>63.0</ele><time>2026-04-17T13:17:34.644Z</time></trkpt><trkpt lat="40.5404969" lon="9.7573395"><ele>54.0</ele><time>2026-04-17T13:17:58.651Z</time></trkpt><trkpt lat="40.5398612" lon="9.7599536"><ele>39.0</ele><time>2026-04-17T13:18:20.655Z</time></trkpt><trkpt lat="40.5387345" lon="9.7621833"><ele>32.0</ele><time>2026-04-17T13:18:42.65Z</time></trkpt><trkpt lat="40.5376003" lon="9.7645132"><ele>23.0</ele><time>2026-04-17T13:19:15.645Z</time></trkpt><trkpt lat="40.5363512" lon="9.7666602"><ele>32.0</ele><time>2026-04-17T13:19:39.657Z</time></trkpt><trkpt lat="40.5347679" lon="9.7685291"><ele>28.0</ele><time>2026-04-17T13:20:00.65Z</time></trkpt><trkpt lat="40.5339269" lon="9.7709726"><ele>19.0</ele><time>2026-04-17T13:20:22.649Z</time></trkpt><trkpt lat="40.5330365" lon="9.7734146"><ele>22.0</ele><time>2026-04-17T13:20:42.653Z</time></trkpt><trkpt lat="40.5317626" lon="9.7755001"><ele>22.0</ele><time>2026-04-17T13:21:10.639Z</time></trkpt><trkpt lat="40.5305796" lon="9.773152"><ele>27.0</ele><time>2026-04-17T13:21:53.661Z</time></trkpt><trkpt lat="40.5293897" lon="9.769847"><ele>36.0</ele><time>2026-04-17T13:22:13.648Z</time></trkpt><trkpt lat="40.5272377" lon="9.7676079"><ele>41.0</ele><time>2026-04-17T13:22:31.654Z</time></trkpt><trkpt lat="40.5241687" lon="9.7653962"><ele>54.0</ele><time>2026-04-17T13:22:52.648Z</time></trkpt><trkpt lat="40.5214491" lon="9.7626101"><ele>60.0</ele><time>2026-04-17T13:23:13.652Z</time></trkpt><trkpt lat="40.5189977" lon="9.7595095"><ele>53.0</ele><time>2026-04-17T13:23:32.649Z</time></trkpt><trkpt lat="40.5165595" lon="9.7562723"><ele>52.0</ele><time>2026-04-17T13:23:53.653Z</time></trkpt><trkpt lat="40.5150419" lon="9.7533228"><ele>53.0</ele><time>2026-04-17T13:24:11.737Z</time></trkpt><trkpt lat="40.5128854" lon="9.7499134"><ele>61.0</ele><time>2026-04-17T13:24:32.734Z</time></trkpt><trkpt lat="40.5109074" lon="9.7474071"><ele>64.0</ele><time>2026-04-17T13:24:50.733Z</time></trkpt><trkpt lat="40.5086117" lon="9.7441551"><ele>74.0</ele><time>2026-04-17T13:25:10.733Z</time></trkpt><trkpt lat="40.506474" lon="9.7405342"><ele>75.0</ele><time>2026-04-17T13:25:30.727Z</time></trkpt><trkpt lat="40.5041" lon="9.7371613"><ele>82.0</ele><time>2026-04-17T13:25:50.738Z</time></trkpt><trkpt lat="40.5015967" lon="9.7338935"><ele>84.0</ele><time>2026-04-17T13:26:11.731Z</time></trkpt><trkpt lat="40.4985502" lon="9.7316735"><ele>93.0</ele><time>2026-04-17T13:26:32.733Z</time></trkpt><trkpt lat="40.4962062" lon="9.7283435"><ele>95.0</ele><time>2026-04-17T13:26:53.745Z</time></trkpt><trkpt lat="40.4945486" lon="9.7254673"><ele>101.0</ele><time>2026-04-17T13:36:24.738Z</time></trkpt><trkpt lat="40.4925127" lon="9.7230438"><ele>111.0</ele><time>2026-04-17T13:36:46.734Z</time></trkpt><trkpt lat="40.4898354" lon="9.7236057"><ele>127.0</ele><time>2026-04-17T13:37:17.65Z</time></trkpt><trkpt lat="40.4878276" lon="9.7230107"><ele>155.0</ele><time>2026-04-17T13:37:38.646Z</time></trkpt><trkpt lat="40.4852158" lon="9.7219396"><ele>173.0</ele><time>2026-04-17T13:38:48.644Z</time></trkpt><trkpt lat="40.4827186" lon="9.7203525"><ele>189.0</ele><time>2026-04-17T13:39:13.642Z</time></trkpt><trkpt lat="40.4808477" lon="9.7177014"><ele>212.0</ele><time>2026-04-17T13:39:38.641Z</time></trkpt><trkpt lat="40.4796185" lon="9.7145449"><ele>246.0</ele><time>2026-04-17T13:40:00.651Z</time></trkpt><trkpt lat="40.4789132" lon="9.7180188"><ele>272.0</ele><time>2026-04-17T13:40:47.651Z</time></trkpt><trkpt lat="40.4786275" lon="9.7206833"><ele>276.0</ele><time>2026-04-17T13:41:10.651Z</time></trkpt><trkpt lat="40.4795458" lon="9.7231699"><ele>271.0</ele><time>2026-04-17T13:41:33.644Z</time></trkpt><trkpt lat="40.4801078" lon="9.7257796"><ele>299.0</ele><time>2026-04-17T13:41:58.651Z</time></trkpt><trkpt lat="40.4791558" lon="9.7282501"><ele>316.0</ele><time>2026-04-17T13:42:26.643Z</time></trkpt><trkpt lat="40.4772447" lon="9.7291579"><ele>323.0</ele><time>2026-04-17T13:42:56.633Z</time></trkpt><trkpt lat="40.4772356" lon="9.7318234"><ele>302.0</ele><time>2026-04-17T13:43:23.641Z</time></trkpt><trkpt lat="40.4771569" lon="9.7345077"><ele>302.0</ele><time>2026-04-17T13:44:07.644Z</time></trkpt><trkpt lat="40.4752529" lon="9.7354544"><ele>298.0</ele><time>2026-04-17T13:45:53.643Z</time></trkpt><trkpt lat="40.4731887" lon="9.7358894"><ele>297.0</ele><time>2026-04-17T13:46:17.646Z</time></trkpt><trkpt lat="40.4711263" lon="9.7359985"><ele>301.0</ele><time>2026-04-17T13:46:43.645Z</time></trkpt><trkpt lat="40.4694579" lon="9.7344341"><ele>331.0</ele><time>2026-04-17T13:47:11.647Z</time></trkpt><trkpt lat="40.4678532" lon="9.7327819"><ele>309.0</ele><time>2026-04-17T13:47:36.637Z</time></trkpt><trkpt lat="40.4659716" lon="9.7337814"><ele>294.0</ele><time>2026-04-17T13:48:03.639Z</time></trkpt><trkpt lat="40.464107" lon="9.7350193"><ele>292.0</ele><time>2026-04-17T13:49:16.641Z</time></trkpt><trkpt lat="40.4622632" lon="9.736248"><ele>273.0</ele><time>2026-04-17T13:49:44.644Z</time></trkpt><trkpt lat="40.4615773" lon="9.7337486"><ele>264.0</ele><time>2026-04-17T13:50:45.654Z</time></trkpt><trkpt lat="40.460215" lon="9.7339554"><ele>236.0</ele><time>2026-04-17T13:51:03.634Z</time></trkpt><trkpt lat="40.4584573" lon="9.7325945"><ele>235.0</ele><time>2026-04-17T13:51:37.64Z</time></trkpt><trkpt lat="40.4603734" lon="9.731667"><ele>172.0</ele><time>2026-04-17T13:52:26.636Z</time></trkpt><trkpt lat="40.4620112" lon="9.7300282"><ele>167.0</ele><time>2026-04-17T13:53:41.633Z</time></trkpt><trkpt lat="40.4609219" lon="9.7288608"><ele>171.0</ele><time>2026-04-17T13:54:09.633Z</time></trkpt><trkpt lat="40.4589129" lon="9.7294779"><ele>105.0</ele><time>2026-04-17T13:54:43.632Z</time></trkpt><trkpt lat="40.4585276" lon="9.7277722"><ele>94.0</ele><time>2026-04-17T13:57:15.646Z</time></trkpt><trkpt lat="40.4572248" lon="9.7282848"><ele>76.0</ele><time>2026-04-17T13:57:32.649Z</time></trkpt><trkpt lat="40.4568535" lon="9.725596"><ele>88.0</ele><time>2026-04-17T13:59:55.643Z</time></trkpt><trkpt lat="40.45747" lon="9.7229956"><ele>96.0</ele><time>2026-04-17T14:00:32.638Z</time></trkpt><trkpt lat="40.456801" lon="9.7204525"><ele>118.0</ele><time>2026-04-17T14:01:01.63Z</time></trkpt><trkpt lat="40.457565" lon="9.7189437"><ele>126.0</ele><time>2026-04-17T14:01:45.641Z</time></trkpt><trkpt lat="40.4576234" lon="9.7171559"><ele>143.0</ele><time>2026-04-17T14:02:26.637Z</time></trkpt><trkpt lat="40.4561026" lon="9.715346"><ele>156.0</ele><time>2026-04-17T14:02:54.622Z</time></trkpt><trkpt lat="40.4546231" lon="9.7171654"><ele>200.0</ele><time>2026-04-17T14:03:16.63Z</time></trkpt><trkpt lat="40.453913" lon="9.7146028"><ele>193.0</ele><time>2026-04-17T14:03:45.637Z</time></trkpt><trkpt lat="40.4522868" lon="9.7129955"><ele>168.0</ele><time>2026-04-17T14:04:03.64Z</time></trkpt><trkpt lat="40.4511227" lon="9.7096959"><ele>157.0</ele><time>2026-04-17T14:04:23.745Z</time></trkpt><trkpt lat="40.4486561" lon="9.7082016"><ele>153.0</ele><time>2026-04-17T14:04:47.732Z</time></trkpt><trkpt lat="40.4469302" lon="9.7067163"><ele>149.0</ele><time>2026-04-17T14:05:05.721Z</time></trkpt><trkpt lat="40.4446797" lon="9.7047015"><ele>146.0</ele><time>2026-04-17T14:05:28.717Z</time></trkpt><trkpt lat="40.4434561" lon="9.7055879"><ele>144.0</ele><time>2026-04-17T14:05:46.632Z</time></trkpt><trkpt lat="40.4415595" lon="9.7065674"><ele>133.0</ele><time>2026-04-17T14:06:05.63Z</time></trkpt><trkpt lat="40.4395115" lon="9.7066622"><ele>130.0</ele><time>2026-04-17T14:06:27.627Z</time></trkpt><trkpt lat="40.4368289" lon="9.7074678"><ele>129.0</ele><time>2026-04-17T14:06:50.64Z</time></trkpt><trkpt lat="40.4358465" lon="9.7098017"><ele>125.0</ele><time>2026-04-17T14:07:15.629Z</time></trkpt><trkpt lat="40.4359223" lon="9.7124793"><ele>128.0</ele><time>2026-04-17T14:07:51.631Z</time></trkpt><trkpt lat="40.4355414" lon="9.7151896"><ele>117.0</ele><time>2026-04-17T14:08:24.628Z</time></trkpt><trkpt lat="40.4347497" lon="9.7176823"><ele>123.0</ele><time>2026-04-17T14:09:59.627Z</time></trkpt><trkpt lat="40.4348021" lon="9.720335"><ele>121.0</ele><time>2026-04-17T14:10:24.626Z</time></trkpt><trkpt lat="40.4361685" lon="9.7223496"><ele>128.0</ele><time>2026-04-17T14:11:01.618Z</time></trkpt><trkpt lat="40.4363827" lon="9.7251041"><ele>115.0</ele><time>2026-04-17T14:11:22.623Z</time></trkpt><trkpt lat="40.4356492" lon="9.7286217"><ele>83.0</ele><time>2026-04-17T14:11:50.622Z</time></trkpt><trkpt lat="40.4357355" lon="9.7313321"><ele>73.0</ele><time>2026-04-17T14:12:10.617Z</time></trkpt><trkpt lat="40.4355122" lon="9.7349198"><ele>57.0</ele><time>2026-04-17T14:12:41.62Z</time></trkpt><trkpt lat="40.4360158" lon="9.737555"><ele>48.0</ele><time>2026-04-17T14:13:04.617Z</time></trkpt><trkpt lat="40.4372196" lon="9.7396988"><ele>50.0</ele><time>2026-04-17T14:13:34.615Z</time></trkpt><trkpt lat="40.4387404" lon="9.741479"><ele>46.0</ele><time>2026-04-17T14:13:53.625Z</time></trkpt><trkpt lat="40.4393768" lon="9.7441073"><ele>24.0</ele><time>2026-04-17T14:14:16.61Z</time></trkpt><trkpt lat="40.4397085" lon="9.7467771"><ele>27.0</ele><time>2026-04-17T14:14:51.615Z</time></trkpt><trkpt lat="40.4387806" lon="9.7481338"><ele>33.0</ele><time>2026-04-17T14:17:58.621Z</time></trkpt><trkpt lat="40.4369574" lon="9.7493864"><ele>42.0</ele><time>2026-04-17T14:18:26.628Z</time></trkpt><trkpt lat="40.4355467" lon="9.7514063"><ele>40.0</ele><time>2026-04-17T14:18:55.63Z</time></trkpt><trkpt lat="40.4339379" lon="9.7530849"><ele>54.0</ele><time>2026-04-17T14:19:40.618Z</time></trkpt><trkpt lat="40.432484" lon="9.7549782"><ele>52.0</ele><time>2026-04-17T14:20:04.625Z</time></trkpt><trkpt lat="40.4321832" lon="9.7576318"><ele>50.0</ele><time>2026-04-17T14:20:36.626Z</time></trkpt><trkpt lat="40.4303859" lon="9.7563453"><ele>53.0</ele><time>2026-04-17T14:21:34.634Z</time></trkpt><trkpt lat="40.4283894" lon="9.7554065"><ele>58.0</ele><time>2026-04-17T14:21:53.64Z</time></trkpt><trkpt lat="40.4259089" lon="9.7538069"><ele>68.0</ele><time>2026-04-17T14:22:19.63Z</time></trkpt><trkpt lat="40.4250577" lon="9.750418"><ele>77.0</ele><time>2026-04-17T14:22:57.625Z</time></trkpt><trkpt lat="40.4248229" lon="9.7477174"><ele>85.0</ele><time>2026-04-17T14:23:19.633Z</time></trkpt><trkpt lat="40.4250378" lon="9.7441779"><ele>89.0</ele><time>2026-04-17T14:23:46.635Z</time></trkpt><trkpt lat="40.4261666" lon="9.7408559"><ele>95.0</ele><time>2026-04-17T14:24:09.635Z</time></trkpt><trkpt lat="40.4260924" lon="9.7373149"><ele>89.0</ele><time>2026-04-17T14:24:43.63Z</time></trkpt><trkpt lat="40.4246979" lon="9.7342508"><ele>102.0</ele><time>2026-04-17T14:25:31.627Z</time></trkpt><trkpt lat="40.4236152" lon="9.7319341"><ele>103.0</ele><time>2026-04-17T14:26:39.637Z</time></trkpt><trkpt lat="40.4211756" lon="9.7304009"><ele>100.0</ele><time>2026-04-17T14:27:01.644Z</time></trkpt><trkpt lat="40.4184215" lon="9.7299506"><ele>93.0</ele><time>2026-04-17T14:27:30.639Z</time></trkpt><trkpt lat="40.4157762" lon="9.7307308"><ele>87.0</ele><time>2026-04-17T14:27:51.642Z</time></trkpt><trkpt lat="40.4131161" lon="9.7316674"><ele>86.0</ele><time>2026-04-17T14:28:13.635Z</time></trkpt><trkpt lat="40.4117409" lon="9.7294527"><ele>85.0</ele><time>2026-04-17T14:28:41.632Z</time></trkpt><trkpt lat="40.409625" lon="9.7259429"><ele>78.0</ele><time>2026-04-17T14:29:01.636Z</time></trkpt><trkpt lat="40.4073923" lon="9.7223376"><ele>72.0</ele><time>2026-04-17T14:29:22.653Z</time></trkpt><trkpt lat="40.404855" lon="9.7192062"><ele>69.0</ele><time>2026-04-17T14:29:44.616Z</time></trkpt><trkpt lat="40.4014495" lon="9.7188256"><ele>66.0</ele><time>2026-04-17T14:30:07.638Z</time></trkpt><trkpt lat="40.4022213" lon="9.7222222"><ele>66.0</ele><time>2026-04-17T14:31:06.627Z</time></trkpt><trkpt lat="40.4022192" lon="9.7259098"><ele>64.0</ele><time>2026-04-17T14:31:31.635Z</time></trkpt><trkpt lat="40.4014598" lon="9.7284564"><ele>61.0</ele><time>2026-04-17T14:31:50.636Z</time></trkpt><trkpt lat="40.4004665" lon="9.7318087"><ele>57.0</ele><time>2026-04-17T14:32:12.63Z</time></trkpt><trkpt lat="40.399216" lon="9.7349434"><ele>52.0</ele><time>2026-04-17T14:32:40.637Z</time></trkpt><trkpt lat="40.3981254" lon="9.7382788"><ele>43.0</ele><time>2026-04-17T14:33:02.625Z</time></trkpt><trkpt lat="40.3967807" lon="9.7414598"><ele>41.0</ele><time>2026-04-17T14:33:24.634Z</time></trkpt><trkpt lat="40.3949598" lon="9.7402557"><ele>34.0</ele><time>2026-04-17T14:33:54.635Z</time></trkpt><trkpt lat="40.3925899" lon="9.7420369"><ele>22.0</ele><time>2026-04-17T14:34:31.636Z</time></trkpt><trkpt lat="40.3903662" lon="9.744046"><ele>17.0</ele><time>2026-04-17T14:35:34.64Z</time></trkpt><trkpt lat="40.3894996" lon="9.7454587"><ele>17.0</ele><time>2026-04-17T14:35:50.631Z</time></trkpt><trkpt lat="40.3878794" lon="9.743631"><ele>12.0</ele><time>2026-04-17T14:36:21.635Z</time></trkpt><trkpt lat="40.3855693" lon="9.7415036"><ele>12.0</ele><time>2026-04-17T14:36:42.63Z</time></trkpt><trkpt lat="40.3832495" lon="9.7395071"><ele>23.0</ele><time>2026-04-17T14:37:00.626Z</time></trkpt><trkpt lat="40.3815852" lon="9.7355031"><ele>28.0</ele><time>2026-04-17T14:37:23.625Z</time></trkpt><trkpt lat="40.3817012" lon="9.7319572"><ele>20.0</ele><time>2026-04-17T14:37:40.63Z</time></trkpt><trkpt lat="40.380442" lon="9.7287319"><ele>4.0</ele><time>2026-04-17T14:37:59.659Z</time></trkpt><trkpt lat="40.3780311" lon="9.7255593"><ele>1.0</ele><time>2026-04-17T14:39:18.631Z</time></trkpt><trkpt lat="40.3784406" lon="9.7238479"><ele>0.0</ele><time>2026-04-17T14:39:36.63Z</time></trkpt><trkpt lat="40.3788432" lon="9.7211498"><ele>2.0</ele><time>2026-04-17T14:42:42.621Z</time></trkpt><trkpt lat="40.3792615" lon="9.7184353"><ele>0.0</ele><time>2026-04-17T14:42:59.635Z</time></trkpt><trkpt lat="40.3795424" lon="9.7149136"><ele>-1.0</ele><time>2026-04-17T14:43:21.698Z</time></trkpt><trkpt lat="40.3796019" lon="9.7112843"><ele>2.0</ele><time>2026-04-17T14:43:43.627Z</time></trkpt><trkpt lat="40.3799717" lon="9.7077823"><ele>2.0</ele><time>2026-04-17T14:44:04.624Z</time></trkpt><trkpt lat="40.3810502" lon="9.704372"><ele>2.0</ele><time>2026-04-17T14:44:27.627Z</time></trkpt><trkpt lat="40.3814884" lon="9.7008549"><ele>7.0</ele><time>2026-04-17T14:45:31.626Z</time></trkpt><trkpt lat="40.3792554" lon="9.6987804"><ele>6.0</ele><time>2026-04-17T14:45:59.624Z</time></trkpt><trkpt lat="40.3776454" lon="9.7004055"><ele>5.0</ele><time>2026-04-17T14:49:56.711Z</time></trkpt><trkpt lat="40.3765378" lon="9.7037028"><ele>5.0</ele><time>2026-04-17T14:50:28.629Z</time></trkpt><trkpt lat="40.3761863" lon="9.7063209"><ele>4.0</ele><time>2026-04-17T14:50:52.619Z</time></trkpt><trkpt lat="40.3760618" lon="9.709021"><ele>4.0</ele><time>2026-04-17T14:51:11.622Z</time></trkpt><trkpt lat="40.375867" lon="9.712597"><ele>1.0</ele><time>2026-04-17T14:51:34.623Z</time></trkpt><trkpt lat="40.3757747" lon="9.7162912"><ele>2.0</ele><time>2026-04-17T14:51:57.622Z</time></trkpt><trkpt lat="40.3748918" lon="9.719685"><ele>2.0</ele><time>2026-04-17T14:52:17.627Z</time></trkpt><trkpt lat="40.3739928" lon="9.7231649"><ele>2.0</ele><time>2026-04-17T14:52:35.706Z</time></trkpt></trkseg></trk></gpx>